<?xml version="1.0" encoding="UTF-8"?>
<gpx version="1.1" creator="https://www.youtrack.es" xsi:schemaLocation="http://www.topografix.com/GPX/1/1 http://www.topografix.com/GPX/1/1/gpx.xsd http://www.garmin.com/xmlschemas/GpxExtensions/v3 http://www.garmin.com/xmlschemas/GpxExtensionsv3.xsd http://www.garmin.com/xmlschemas/TrackPointExtension/v1 http://www.garmin.com/xmlschemas/TrackPointExtensionv1.xsd" xmlns:gpxtpx="http://www.garmin.com/xmlschemas/TrackPointExtension/v1" xmlns:gpxx="http://www.garmin.com/xmlschemas/GpxExtensions/v3" xmlns:xsi="http://www.w3.org/2001/XMLSchema-instance">
  <metadata>
    <link href="https://www.youtrack.es">
      <text>YouTrack.es</text>
    </link>
    <time>2026-05-08T02:44:37Z</time>
  </metadata>
  <trk>
    <src>https://www.youtrack.es</src>
    <link href="https://www.youtrack.es/ruta/20166-viaje-a-pemex">
      <text>YouTrack.es</text>
    </link>
    <trkseg>
      <trkpt lat="17.753854282200336456298828125" lon="-92.58860788308084011077880859375">
        <ele>11.6000003814697265625</ele>
        <time>2021-03-09T15:45:56.000Z</time>
      </trkpt>
      <trkpt lat="17.75388169102370738983154296875" lon="-92.58865029551088809967041015625">
        <ele>11.6000003814697265625</ele>
        <time>2021-03-09T15:46:03.000Z</time>
      </trkpt>
      <trkpt lat="17.75391404516994953155517578125" lon="-92.5886027701199054718017578125">
        <ele>11.6000003814697265625</ele>
        <time>2021-03-09T15:46:05.000Z</time>
      </trkpt>
      <trkpt lat="17.75393919087946414947509765625" lon="-92.58858122862875461578369140625">
        <ele>11.6000003814697265625</ele>
        <time>2021-03-09T15:46:06.000Z</time>
      </trkpt>
      <trkpt lat="17.753964923322200775146484375" lon="-92.58856496773660182952880859375">
        <ele>11.3999996185302734375</ele>
        <time>2021-03-09T15:46:07.000Z</time>
      </trkpt>
      <trkpt lat="17.75402904488146305084228515625" lon="-92.5885739363729953765869140625">
        <ele>11.6000003814697265625</ele>
        <time>2021-03-09T15:46:09.000Z</time>
      </trkpt>
      <trkpt lat="17.7541930787265300750732421875" lon="-92.58861626498401165008544921875">
        <ele>11.6000003814697265625</ele>
        <time>2021-03-09T15:46:13.000Z</time>
      </trkpt>
      <trkpt lat="17.7542348206043243408203125" lon="-92.58863386698067188262939453125">
        <ele>11.6000003814697265625</ele>
        <time>2021-03-09T15:46:14.000Z</time>
      </trkpt>
      <trkpt lat="17.754312939941883087158203125" lon="-92.5886798836290836334228515625">
        <ele>11.80000019073486328125</ele>
        <time>2021-03-09T15:46:16.000Z</time>
      </trkpt>
      <trkpt lat="17.75439399294555187225341796875" lon="-92.58871399797499179840087890625">
        <ele>11.80000019073486328125</ele>
        <time>2021-03-09T15:46:18.000Z</time>
      </trkpt>
      <trkpt lat="17.75447764433920383453369140625" lon="-92.58874475955963134765625">
        <ele>12</ele>
        <time>2021-03-09T15:46:20.000Z</time>
      </trkpt>
      <trkpt lat="17.75465718470513820648193359375" lon="-92.58877602405846118927001953125">
        <ele>12</ele>
        <time>2021-03-09T15:46:24.000Z</time>
      </trkpt>
      <trkpt lat="17.7549858391284942626953125" lon="-92.58884073235094547271728515625">
        <ele>11.6000003814697265625</ele>
        <time>2021-03-09T15:46:33.000Z</time>
      </trkpt>
      <trkpt lat="17.75499044917523860931396484375" lon="-92.58884140290319919586181640625">
        <ele>11.6000003814697265625</ele>
        <time>2021-03-09T15:46:36.000Z</time>
      </trkpt>
      <trkpt lat="17.75499262847006320953369140625" lon="-92.5888431631028652191162109375">
        <ele>11.6000003814697265625</ele>
        <time>2021-03-09T15:46:40.000Z</time>
      </trkpt>
      <trkpt lat="17.75501324795186519622802734375" lon="-92.5888480246067047119140625">
        <ele>11.6000003814697265625</ele>
        <time>2021-03-09T15:46:42.000Z</time>
      </trkpt>
      <trkpt lat="17.7550322748720645904541015625" lon="-92.58884601294994354248046875">
        <ele>11.6000003814697265625</ele>
        <time>2021-03-09T15:46:43.000Z</time>
      </trkpt>
      <trkpt lat="17.7551989071071147918701171875" lon="-92.5888292491436004638671875">
        <ele>11.80000019073486328125</ele>
        <time>2021-03-09T15:46:48.000Z</time>
      </trkpt>
      <trkpt lat="17.7554781921207904815673828125" lon="-92.5887943804264068603515625">
        <ele>12</ele>
        <time>2021-03-09T15:46:54.000Z</time>
      </trkpt>
      <trkpt lat="17.75557315908372402191162109375" lon="-92.5887715816497802734375">
        <ele>12</ele>
        <time>2021-03-09T15:46:56.000Z</time>
      </trkpt>
      <trkpt lat="17.75569251738488674163818359375" lon="-92.588737048208713531494140625">
        <ele>12</ele>
        <time>2021-03-09T15:46:58.000Z</time>
      </trkpt>
      <trkpt lat="17.7557896636426448822021484375" lon="-92.58870746009051799774169921875">
        <ele>12</ele>
        <time>2021-03-09T15:47:00.000Z</time>
      </trkpt>
      <trkpt lat="17.75583752430975437164306640625" lon="-92.5886875949800014495849609375">
        <ele>12</ele>
        <time>2021-03-09T15:47:01.000Z</time>
      </trkpt>
      <trkpt lat="17.7560196630656719207763671875" lon="-92.58860729634761810302734375">
        <ele>12.6000003814697265625</ele>
        <time>2021-03-09T15:47:05.000Z</time>
      </trkpt>
      <trkpt lat="17.75610457174479961395263671875" lon="-92.5885544903576374053955078125">
        <ele>12.80000019073486328125</ele>
        <time>2021-03-09T15:47:07.000Z</time>
      </trkpt>
      <trkpt lat="17.75631579570472240447998046875" lon="-92.5884081423282623291015625">
        <ele>13.6000003814697265625</ele>
        <time>2021-03-09T15:47:12.000Z</time>
      </trkpt>
      <trkpt lat="17.75639458559453487396240234375" lon="-92.58834050036966800689697265625">
        <ele>13.80000019073486328125</ele>
        <time>2021-03-09T15:47:14.000Z</time>
      </trkpt>
      <trkpt lat="17.7565145306289196014404296875" lon="-92.58823254145681858062744140625">
        <ele>14</ele>
        <time>2021-03-09T15:47:17.000Z</time>
      </trkpt>
      <trkpt lat="17.75659960694611072540283203125" lon="-92.58816699497401714324951171875">
        <ele>14.19999980926513671875</ele>
        <time>2021-03-09T15:47:19.000Z</time>
      </trkpt>
      <trkpt lat="17.75664084590971469879150390625" lon="-92.58813966996967792510986328125">
        <ele>14.19999980926513671875</ele>
        <time>2021-03-09T15:47:20.000Z</time>
      </trkpt>
      <trkpt lat="17.75667965412139892578125" lon="-92.5881092436611652374267578125">
        <ele>14.3999996185302734375</ele>
        <time>2021-03-09T15:47:21.000Z</time>
      </trkpt>
      <trkpt lat="17.756808064877986907958984375" lon="-92.5879583694040775299072265625">
        <ele>14</ele>
        <time>2021-03-09T15:47:25.000Z</time>
      </trkpt>
      <trkpt lat="17.75701752863824367523193359375" lon="-92.5875766575336456298828125">
        <ele>13.19999980926513671875</ele>
        <time>2021-03-09T15:47:33.000Z</time>
      </trkpt>
      <trkpt lat="17.75704217143356800079345703125" lon="-92.58752410300076007843017578125">
        <ele>13</ele>
        <time>2021-03-09T15:47:34.000Z</time>
      </trkpt>
      <trkpt lat="17.7571160160005092620849609375" lon="-92.587310113012790679931640625">
        <ele>13</ele>
        <time>2021-03-09T15:47:38.000Z</time>
      </trkpt>
      <trkpt lat="17.75713630020618438720703125" lon="-92.5872563011944293975830078125">
        <ele>13</ele>
        <time>2021-03-09T15:47:39.000Z</time>
      </trkpt>
      <trkpt lat="17.7572739310562610626220703125" lon="-92.58693359792232513427734375">
        <ele>13</ele>
        <time>2021-03-09T15:47:45.000Z</time>
      </trkpt>
      <trkpt lat="17.75731324218213558197021484375" lon="-92.58684315718710422515869140625">
        <ele>12.80000019073486328125</ele>
        <time>2021-03-09T15:47:47.000Z</time>
      </trkpt>
      <trkpt lat="17.75737392716109752655029296875" lon="-92.58667166344821453094482421875">
        <ele>12.6000003814697265625</ele>
        <time>2021-03-09T15:47:50.000Z</time>
      </trkpt>
      <trkpt lat="17.7574362047016620635986328125" lon="-92.58651249110698699951171875">
        <ele>13</ele>
        <time>2021-03-09T15:47:53.000Z</time>
      </trkpt>
      <trkpt lat="17.75753402151167392730712890625" lon="-92.586382068693637847900390625">
        <ele>13.3999996185302734375</ele>
        <time>2021-03-09T15:47:56.000Z</time>
      </trkpt>
      <trkpt lat="17.75762286968529224395751953125" lon="-92.58632146753370761871337890625">
        <ele>13.3999996185302734375</ele>
        <time>2021-03-09T15:47:58.000Z</time>
      </trkpt>
      <trkpt lat="17.75772546418011188507080078125" lon="-92.586282156407833099365234375">
        <ele>13.3999996185302734375</ele>
        <time>2021-03-09T15:48:00.000Z</time>
      </trkpt>
      <trkpt lat="17.75822737254202365875244140625" lon="-92.5861022807657718658447265625">
        <ele>13.3999996185302734375</ele>
        <time>2021-03-09T15:48:10.000Z</time>
      </trkpt>
      <trkpt lat="17.75837816298007965087890625" lon="-92.58604570291936397552490234375">
        <ele>13.19999980926513671875</ele>
        <time>2021-03-09T15:48:13.000Z</time>
      </trkpt>
      <trkpt lat="17.758480422198772430419921875" lon="-92.5860288552939891815185546875">
        <ele>13.19999980926513671875</ele>
        <time>2021-03-09T15:48:15.000Z</time>
      </trkpt>
      <trkpt lat="17.75853381492197513580322265625" lon="-92.58603195659816265106201171875">
        <ele>13.19999980926513671875</ele>
        <time>2021-03-09T15:48:16.000Z</time>
      </trkpt>
      <trkpt lat="17.75869332253932952880859375" lon="-92.5860553421080112457275390625">
        <ele>12.80000019073486328125</ele>
        <time>2021-03-09T15:48:19.000Z</time>
      </trkpt>
      <trkpt lat="17.75911308825016021728515625" lon="-92.58618568070232868194580078125">
        <ele>12.19999980926513671875</ele>
        <time>2021-03-09T15:48:27.000Z</time>
      </trkpt>
      <trkpt lat="17.7595390565693378448486328125" lon="-92.5862964056432247161865234375">
        <ele>11.19999980926513671875</ele>
        <time>2021-03-09T15:48:35.000Z</time>
      </trkpt>
      <trkpt lat="17.75984709151089191436767578125" lon="-92.5863825716078281402587890625">
        <ele>11.80000019073486328125</ele>
        <time>2021-03-09T15:48:41.000Z</time>
      </trkpt>
      <trkpt lat="17.7602759934961795806884765625" lon="-92.58650419302284717559814453125">
        <ele>13</ele>
        <time>2021-03-09T15:48:49.000Z</time>
      </trkpt>
      <trkpt lat="17.760608084499835968017578125" lon="-92.58659253828227519989013671875">
        <ele>13</ele>
        <time>2021-03-09T15:48:56.000Z</time>
      </trkpt>
      <trkpt lat="17.7609991841018199920654296875" lon="-92.5866923667490482330322265625">
        <ele>13</ele>
        <time>2021-03-09T15:49:04.000Z</time>
      </trkpt>
      <trkpt lat="17.761247120797634124755859375" lon="-92.58675388991832733154296875">
        <ele>13</ele>
        <time>2021-03-09T15:49:09.000Z</time>
      </trkpt>
      <trkpt lat="17.76145138777792453765869140625" lon="-92.5868036784231662750244140625">
        <ele>13</ele>
        <time>2021-03-09T15:49:13.000Z</time>
      </trkpt>
      <trkpt lat="17.76187651790678501129150390625" lon="-92.58690141141414642333984375">
        <ele>14</ele>
        <time>2021-03-09T15:49:21.000Z</time>
      </trkpt>
      <trkpt lat="17.76218312792479991912841796875" lon="-92.58692630566656589508056640625">
        <ele>15.6000003814697265625</ele>
        <time>2021-03-09T15:49:27.000Z</time>
      </trkpt>
      <trkpt lat="17.76234825141727924346923828125" lon="-92.5869374535977840423583984375">
        <ele>16</ele>
        <time>2021-03-09T15:49:30.000Z</time>
      </trkpt>
      <trkpt lat="17.76250767521560192108154296875" lon="-92.5869334302842617034912109375">
        <ele>15.80000019073486328125</ele>
        <time>2021-03-09T15:49:33.000Z</time>
      </trkpt>
      <trkpt lat="17.7628851123154163360595703125" lon="-92.5869548879563808441162109375">
        <ele>14.80000019073486328125</ele>
        <time>2021-03-09T15:49:40.000Z</time>
      </trkpt>
      <trkpt lat="17.76309608481824398040771484375" lon="-92.58695505559444427490234375">
        <ele>14.3999996185302734375</ele>
        <time>2021-03-09T15:49:44.000Z</time>
      </trkpt>
      <trkpt lat="17.76319331489503383636474609375" lon="-92.5869458355009555816650390625">
        <ele>14.6000003814697265625</ele>
        <time>2021-03-09T15:49:46.000Z</time>
      </trkpt>
      <trkpt lat="17.7632317878305912017822265625" lon="-92.58692747913300991058349609375">
        <ele>14.6000003814697265625</ele>
        <time>2021-03-09T15:49:47.000Z</time>
      </trkpt>
      <trkpt lat="17.76325316168367862701416015625" lon="-92.58689596317708492279052734375">
        <ele>14.80000019073486328125</ele>
        <time>2021-03-09T15:49:48.000Z</time>
      </trkpt>
      <trkpt lat="17.76325684972107410430908203125" lon="-92.58685673587024211883544921875">
        <ele>14.80000019073486328125</ele>
        <time>2021-03-09T15:49:49.000Z</time>
      </trkpt>
      <trkpt lat="17.76323757134377956390380859375" lon="-92.58676939643919467926025390625">
        <ele>15</ele>
        <time>2021-03-09T15:49:51.000Z</time>
      </trkpt>
      <trkpt lat="17.763204462826251983642578125" lon="-92.58668289519846439361572265625">
        <ele>15.3999996185302734375</ele>
        <time>2021-03-09T15:49:53.000Z</time>
      </trkpt>
      <trkpt lat="17.76311921887099742889404296875" lon="-92.58643873035907745361328125">
        <ele>15.6000003814697265625</ele>
        <time>2021-03-09T15:49:58.000Z</time>
      </trkpt>
      <trkpt lat="17.763075046241283416748046875" lon="-92.58634158410131931304931640625">
        <ele>15.80000019073486328125</ele>
        <time>2021-03-09T15:50:00.000Z</time>
      </trkpt>
      <trkpt lat="17.7629682607948780059814453125" lon="-92.585976384580135345458984375">
        <ele>16.3999996185302734375</ele>
        <time>2021-03-09T15:50:07.000Z</time>
      </trkpt>
      <trkpt lat="17.76293456554412841796875" lon="-92.5858062319457530975341796875">
        <ele>16.6000003814697265625</ele>
        <time>2021-03-09T15:50:10.000Z</time>
      </trkpt>
      <trkpt lat="17.76291377842426300048828125" lon="-92.58561906404793262481689453125">
        <ele>16.3999996185302734375</ele>
        <time>2021-03-09T15:50:13.000Z</time>
      </trkpt>
      <trkpt lat="17.762909419834613800048828125" lon="-92.58523835800588130950927734375">
        <ele>16.200000762939453125</ele>
        <time>2021-03-09T15:50:20.000Z</time>
      </trkpt>
      <trkpt lat="17.7629310451447963714599609375" lon="-92.585109360516071319580078125">
        <ele>16.200000762939453125</ele>
        <time>2021-03-09T15:50:22.000Z</time>
      </trkpt>
      <trkpt lat="17.762948982417583465576171875" lon="-92.585055045783519744873046875">
        <ele>16</ele>
        <time>2021-03-09T15:50:23.000Z</time>
      </trkpt>
      <trkpt lat="17.76304260827600955963134765625" lon="-92.58485312573611736297607421875">
        <ele>15.3999996185302734375</ele>
        <time>2021-03-09T15:50:27.000Z</time>
      </trkpt>
      <trkpt lat="17.76324159465730190277099609375" lon="-92.58451969362795352935791015625">
        <ele>14</ele>
        <time>2021-03-09T15:50:34.000Z</time>
      </trkpt>
      <trkpt lat="17.76352624408900737762451171875" lon="-92.58406958542764186859130859375">
        <ele>13.19999980926513671875</ele>
        <time>2021-03-09T15:50:44.000Z</time>
      </trkpt>
      <trkpt lat="17.763830088078975677490234375" lon="-92.58355963043868541717529296875">
        <ele>14.19999980926513671875</ele>
        <time>2021-03-09T15:50:55.000Z</time>
      </trkpt>
      <trkpt lat="17.7639325149357318878173828125" lon="-92.583361230790615081787109375">
        <ele>14.6000003814697265625</ele>
        <time>2021-03-09T15:50:59.000Z</time>
      </trkpt>
      <trkpt lat="17.763978950679302215576171875" lon="-92.5832564570009708404541015625">
        <ele>14.3999996185302734375</ele>
        <time>2021-03-09T15:51:01.000Z</time>
      </trkpt>
      <trkpt lat="17.76406335644423961639404296875" lon="-92.5831161439418792724609375">
        <ele>14</ele>
        <time>2021-03-09T15:51:04.000Z</time>
      </trkpt>
      <trkpt lat="17.76408766396343708038330078125" lon="-92.58306308649480342864990234375">
        <ele>13.80000019073486328125</ele>
        <time>2021-03-09T15:51:05.000Z</time>
      </trkpt>
      <trkpt lat="17.76414080522954463958740234375" lon="-92.58295395411550998687744140625">
        <ele>13.6000003814697265625</ele>
        <time>2021-03-09T15:51:07.000Z</time>
      </trkpt>
      <trkpt lat="17.76419830508530139923095703125" lon="-92.58286527357995510101318359375">
        <ele>13.19999980926513671875</ele>
        <time>2021-03-09T15:51:09.000Z</time>
      </trkpt>
      <trkpt lat="17.76426821015775203704833984375" lon="-92.58274775929749011993408203125">
        <ele>12.80000019073486328125</ele>
        <time>2021-03-09T15:51:11.000Z</time>
      </trkpt>
      <trkpt lat="17.7644089423120021820068359375" lon="-92.582478113472461700439453125">
        <ele>11.80000019073486328125</ele>
        <time>2021-03-09T15:51:16.000Z</time>
      </trkpt>
      <trkpt lat="17.76453358121216297149658203125" lon="-92.5822700746357440948486328125">
        <ele>12</ele>
        <time>2021-03-09T15:51:20.000Z</time>
      </trkpt>
      <trkpt lat="17.76467976160347461700439453125" lon="-92.58201166056096553802490234375">
        <ele>12</ele>
        <time>2021-03-09T15:51:25.000Z</time>
      </trkpt>
      <trkpt lat="17.76488729752600193023681640625" lon="-92.581606395542621612548828125">
        <ele>12</ele>
        <time>2021-03-09T15:51:33.000Z</time>
      </trkpt>
      <trkpt lat="17.76507605798542499542236328125" lon="-92.58126583881676197052001953125">
        <ele>13</ele>
        <time>2021-03-09T15:51:40.000Z</time>
      </trkpt>
      <trkpt lat="17.76522005908191204071044921875" lon="-92.58105679415166378021240234375">
        <ele>13.80000019073486328125</ele>
        <time>2021-03-09T15:51:45.000Z</time>
      </trkpt>
      <trkpt lat="17.7652561850845813751220703125" lon="-92.58102779276669025421142578125">
        <ele>13.80000019073486328125</ele>
        <time>2021-03-09T15:51:46.000Z</time>
      </trkpt>
      <trkpt lat="17.76529801078140735626220703125" lon="-92.5810040719807147979736328125">
        <ele>14</ele>
        <time>2021-03-09T15:51:47.000Z</time>
      </trkpt>
      <trkpt lat="17.765547372400760650634765625" lon="-92.580920420587062835693359375">
        <ele>14.3999996185302734375</ele>
        <time>2021-03-09T15:51:52.000Z</time>
      </trkpt>
      <trkpt lat="17.7658831514418125152587890625" lon="-92.58087021298706531524658203125">
        <ele>15</ele>
        <time>2021-03-09T15:51:58.000Z</time>
      </trkpt>
      <trkpt lat="17.76604785583913326263427734375" lon="-92.5808531977236270904541015625">
        <ele>14.6000003814697265625</ele>
        <time>2021-03-09T15:52:01.000Z</time>
      </trkpt>
      <trkpt lat="17.76644431985914707183837890625" lon="-92.5808201730251312255859375">
        <ele>13.80000019073486328125</ele>
        <time>2021-03-09T15:52:08.000Z</time>
      </trkpt>
      <trkpt lat="17.7665020711719989776611328125" lon="-92.58081841282546520233154296875">
        <ele>13.6000003814697265625</ele>
        <time>2021-03-09T15:52:09.000Z</time>
      </trkpt>
      <trkpt lat="17.766903229057788848876953125" lon="-92.5807747431099414825439453125">
        <ele>13.19999980926513671875</ele>
        <time>2021-03-09T15:52:16.000Z</time>
      </trkpt>
      <trkpt lat="17.7674804069101810455322265625" lon="-92.5807314924895763397216796875">
        <ele>14</ele>
        <time>2021-03-09T15:52:26.000Z</time>
      </trkpt>
      <trkpt lat="17.767590545117855072021484375" lon="-92.58072026073932647705078125">
        <ele>14.19999980926513671875</ele>
        <time>2021-03-09T15:52:28.000Z</time>
      </trkpt>
      <trkpt lat="17.768170572817325592041015625" lon="-92.58067055605351924896240234375">
        <ele>13.3999996185302734375</ele>
        <time>2021-03-09T15:52:38.000Z</time>
      </trkpt>
      <trkpt lat="17.76829303242266178131103515625" lon="-92.58065697737038135528564453125">
        <ele>13.19999980926513671875</ele>
        <time>2021-03-09T15:52:40.000Z</time>
      </trkpt>
      <trkpt lat="17.768476009368896484375" lon="-92.58064088411629199981689453125">
        <ele>13</ele>
        <time>2021-03-09T15:52:43.000Z</time>
      </trkpt>
      <trkpt lat="17.768832743167877197265625" lon="-92.58061590604484081268310546875">
        <ele>13.19999980926513671875</ele>
        <time>2021-03-09T15:52:49.000Z</time>
      </trkpt>
      <trkpt lat="17.7690706215798854827880859375" lon="-92.58060819469392299652099609375">
        <ele>13.19999980926513671875</ele>
        <time>2021-03-09T15:52:53.000Z</time>
      </trkpt>
      <trkpt lat="17.769184447824954986572265625" lon="-92.58058506064116954803466796875">
        <ele>13.19999980926513671875</ele>
        <time>2021-03-09T15:52:55.000Z</time>
      </trkpt>
      <trkpt lat="17.7695299498736858367919921875" lon="-92.5805444084107875823974609375">
        <ele>12.80000019073486328125</ele>
        <time>2021-03-09T15:53:01.000Z</time>
      </trkpt>
      <trkpt lat="17.76989229954779148101806640625" lon="-92.5805249623954296112060546875">
        <ele>13.19999980926513671875</ele>
        <time>2021-03-09T15:53:07.000Z</time>
      </trkpt>
      <trkpt lat="17.77042664587497711181640625" lon="-92.5804820470511913299560546875">
        <ele>12.6000003814697265625</ele>
        <time>2021-03-09T15:53:16.000Z</time>
      </trkpt>
      <trkpt lat="17.77065002359449863433837890625" lon="-92.5804709829390048980712890625">
        <ele>11.80000019073486328125</ele>
        <time>2021-03-09T15:53:20.000Z</time>
      </trkpt>
      <trkpt lat="17.77093970216810703277587890625" lon="-92.5804381258785724639892578125">
        <ele>11</ele>
        <time>2021-03-09T15:53:25.000Z</time>
      </trkpt>
      <trkpt lat="17.77104665525257587432861328125" lon="-92.58043167181313037872314453125">
        <ele>11.19999980926513671875</ele>
        <time>2021-03-09T15:53:27.000Z</time>
      </trkpt>
      <trkpt lat="17.77125536464154720306396484375" lon="-92.58041440509259700775146484375">
        <ele>11.3999996185302734375</ele>
        <time>2021-03-09T15:53:31.000Z</time>
      </trkpt>
      <trkpt lat="17.77171653695404529571533203125" lon="-92.58037886582314968109130859375">
        <ele>12.6000003814697265625</ele>
        <time>2021-03-09T15:53:39.000Z</time>
      </trkpt>
      <trkpt lat="17.77177537791430950164794921875" lon="-92.58038054220378398895263671875">
        <ele>12.6000003814697265625</ele>
        <time>2021-03-09T15:53:40.000Z</time>
      </trkpt>
      <trkpt lat="17.77183254249393939971923828125" lon="-92.58037869818508625030517578125">
        <ele>12.80000019073486328125</ele>
        <time>2021-03-09T15:53:41.000Z</time>
      </trkpt>
      <trkpt lat="17.77205566875636577606201171875" lon="-92.580356486141681671142578125">
        <ele>13</ele>
        <time>2021-03-09T15:53:45.000Z</time>
      </trkpt>
      <trkpt lat="17.77210772037506103515625" lon="-92.58034936152398586273193359375">
        <ele>13</ele>
        <time>2021-03-09T15:53:46.000Z</time>
      </trkpt>
      <trkpt lat="17.7721618674695491790771484375" lon="-92.58034332655370235443115234375">
        <ele>13.19999980926513671875</ele>
        <time>2021-03-09T15:53:47.000Z</time>
      </trkpt>
      <trkpt lat="17.7722735144197940826416015625" lon="-92.5803425721824169158935546875">
        <ele>13.3999996185302734375</ele>
        <time>2021-03-09T15:53:49.000Z</time>
      </trkpt>
      <trkpt lat="17.77233109809458255767822265625" lon="-92.580332346260547637939453125">
        <ele>13.3999996185302734375</ele>
        <time>2021-03-09T15:53:50.000Z</time>
      </trkpt>
      <trkpt lat="17.77280710637569427490234375" lon="-92.58028683252632617950439453125">
        <ele>13.6000003814697265625</ele>
        <time>2021-03-09T15:53:58.000Z</time>
      </trkpt>
      <trkpt lat="17.7730899117887020111083984375" lon="-92.5802637822926044464111328125">
        <ele>13.3999996185302734375</ele>
        <time>2021-03-09T15:54:03.000Z</time>
      </trkpt>
      <trkpt lat="17.773148752748966217041015625" lon="-92.58025196380913257598876953125">
        <ele>13.19999980926513671875</ele>
        <time>2021-03-09T15:54:04.000Z</time>
      </trkpt>
      <trkpt lat="17.7732216753065586090087890625" lon="-92.58023637346923351287841796875">
        <ele>13.19999980926513671875</ele>
        <time>2021-03-09T15:54:05.000Z</time>
      </trkpt>
      <trkpt lat="17.7733390219509601593017578125" lon="-92.580225057899951934814453125">
        <ele>13.19999980926513671875</ele>
        <time>2021-03-09T15:54:07.000Z</time>
      </trkpt>
      <trkpt lat="17.77339585125446319580078125" lon="-92.58021759800612926483154296875">
        <ele>13.19999980926513671875</ele>
        <time>2021-03-09T15:54:08.000Z</time>
      </trkpt>
      <trkpt lat="17.7734556980431079864501953125" lon="-92.58020888082683086395263671875">
        <ele>13.19999980926513671875</ele>
        <time>2021-03-09T15:54:09.000Z</time>
      </trkpt>
      <trkpt lat="17.773685194551944732666015625" lon="-92.5801906920969486236572265625">
        <ele>13.19999980926513671875</ele>
        <time>2021-03-09T15:54:13.000Z</time>
      </trkpt>
      <trkpt lat="17.7740005217492580413818359375" lon="-92.58016495965421199798583984375">
        <ele>13.19999980926513671875</ele>
        <time>2021-03-09T15:54:19.000Z</time>
      </trkpt>
      <trkpt lat="17.77411459945142269134521484375" lon="-92.58015473373234272003173828125">
        <ele>13.19999980926513671875</ele>
        <time>2021-03-09T15:54:21.000Z</time>
      </trkpt>
      <trkpt lat="17.774222306907176971435546875" lon="-92.58012975566089153289794921875">
        <ele>13</ele>
        <time>2021-03-09T15:54:23.000Z</time>
      </trkpt>
      <trkpt lat="17.7742774598300457000732421875" lon="-92.58012170903384685516357421875">
        <ele>13</ele>
        <time>2021-03-09T15:54:24.000Z</time>
      </trkpt>
      <trkpt lat="17.774511985480785369873046875" lon="-92.58010804653167724609375">
        <ele>13.3999996185302734375</ele>
        <time>2021-03-09T15:54:28.000Z</time>
      </trkpt>
      <trkpt lat="17.7747206948697566986083984375" lon="-92.5800783745944499969482421875">
        <ele>13.6000003814697265625</ele>
        <time>2021-03-09T15:54:32.000Z</time>
      </trkpt>
      <trkpt lat="17.77481884695589542388916015625" lon="-92.58006982505321502685546875">
        <ele>13.80000019073486328125</ele>
        <time>2021-03-09T15:54:34.000Z</time>
      </trkpt>
      <trkpt lat="17.7750723995268344879150390625" lon="-92.58003856055438518524169921875">
        <ele>14</ele>
        <time>2021-03-09T15:54:39.000Z</time>
      </trkpt>
      <trkpt lat="17.77517491020262241363525390625" lon="-92.5800257362425327301025390625">
        <ele>13.80000019073486328125</ele>
        <time>2021-03-09T15:54:41.000Z</time>
      </trkpt>
      <trkpt lat="17.7754418738186359405517578125" lon="-92.580003105103969573974609375">
        <ele>13.6000003814697265625</ele>
        <time>2021-03-09T15:54:46.000Z</time>
      </trkpt>
      <trkpt lat="17.7754859626293182373046875" lon="-92.5800049491226673126220703125">
        <ele>13.3999996185302734375</ele>
        <time>2021-03-09T15:54:47.000Z</time>
      </trkpt>
      <trkpt lat="17.77553130872547626495361328125" lon="-92.58000218309462070465087890625">
        <ele>13.3999996185302734375</ele>
        <time>2021-03-09T15:54:48.000Z</time>
      </trkpt>
      <trkpt lat="17.77573649771511554718017578125" lon="-92.57997066713869571685791015625">
        <ele>13.19999980926513671875</ele>
        <time>2021-03-09T15:54:52.000Z</time>
      </trkpt>
      <trkpt lat="17.77596549130976200103759765625" lon="-92.57994585670530796051025390625">
        <ele>13.19999980926513671875</ele>
        <time>2021-03-09T15:54:56.000Z</time>
      </trkpt>
      <trkpt lat="17.77612541802227497100830078125" lon="-92.57993026636540889739990234375">
        <ele>13.6000003814697265625</ele>
        <time>2021-03-09T15:54:59.000Z</time>
      </trkpt>
      <trkpt lat="17.77624569833278656005859375" lon="-92.57992037571966648101806640625">
        <ele>13.80000019073486328125</ele>
        <time>2021-03-09T15:55:01.000Z</time>
      </trkpt>
      <trkpt lat="17.77652389369904994964599609375" lon="-92.57988047786056995391845703125">
        <ele>14.6000003814697265625</ele>
        <time>2021-03-09T15:55:06.000Z</time>
      </trkpt>
      <trkpt lat="17.77669438160955905914306640625" lon="-92.579852230846881866455078125">
        <ele>15</ele>
        <time>2021-03-09T15:55:09.000Z</time>
      </trkpt>
      <trkpt lat="17.77679714374244213104248046875" lon="-92.57983638904988765716552734375">
        <ele>14.80000019073486328125</ele>
        <time>2021-03-09T15:55:11.000Z</time>
      </trkpt>
      <trkpt lat="17.77721053920686244964599609375" lon="-92.57970035076141357421875">
        <ele>14.3999996185302734375</ele>
        <time>2021-03-09T15:55:18.000Z</time>
      </trkpt>
      <trkpt lat="17.777428217232227325439453125" lon="-92.57959901355206966400146484375">
        <ele>14.19999980926513671875</ele>
        <time>2021-03-09T15:55:22.000Z</time>
      </trkpt>
      <trkpt lat="17.77771764434874057769775390625" lon="-92.5794748775660991668701171875">
        <ele>14.19999980926513671875</ele>
        <time>2021-03-09T15:55:27.000Z</time>
      </trkpt>
      <trkpt lat="17.77825157158076763153076171875" lon="-92.579233981668949127197265625">
        <ele>14.80000019073486328125</ele>
        <time>2021-03-09T15:55:36.000Z</time>
      </trkpt>
      <trkpt lat="17.77854837477207183837890625" lon="-92.57910481654107570648193359375">
        <ele>15.19999980926513671875</ele>
        <time>2021-03-09T15:55:41.000Z</time>
      </trkpt>
      <trkpt lat="17.77877175249159336090087890625" lon="-92.57901060394942760467529296875">
        <ele>15.3999996185302734375</ele>
        <time>2021-03-09T15:55:45.000Z</time>
      </trkpt>
      <trkpt lat="17.77882908470928668975830078125" lon="-92.5789820216596126556396484375">
        <ele>15.3999996185302734375</ele>
        <time>2021-03-09T15:55:46.000Z</time>
      </trkpt>
      <trkpt lat="17.77917861007153987884521484375" lon="-92.578828297555446624755859375">
        <ele>15.6000003814697265625</ele>
        <time>2021-03-09T15:55:52.000Z</time>
      </trkpt>
      <trkpt lat="17.7794906683266162872314453125" lon="-92.57868438027799129486083984375">
        <ele>15.80000019073486328125</ele>
        <time>2021-03-09T15:55:58.000Z</time>
      </trkpt>
      <trkpt lat="17.77987397275865077972412109375" lon="-92.5785183347761631011962890625">
        <ele>16.200000762939453125</ele>
        <time>2021-03-09T15:56:06.000Z</time>
      </trkpt>
      <trkpt lat="17.78001344762742519378662109375" lon="-92.57846075110137462615966796875">
        <ele>16.3999996185302734375</ele>
        <time>2021-03-09T15:56:10.000Z</time>
      </trkpt>
      <trkpt lat="17.78004102408885955810546875" lon="-92.5784469209611415863037109375">
        <ele>16.3999996185302734375</ele>
        <time>2021-03-09T15:56:11.000Z</time>
      </trkpt>
      <trkpt lat="17.7802413515746593475341796875" lon="-92.57835513912141323089599609375">
        <ele>16.3999996185302734375</ele>
        <time>2021-03-09T15:56:16.000Z</time>
      </trkpt>
      <trkpt lat="17.78047679923474788665771484375" lon="-92.57825388573110103607177734375">
        <ele>16.6000003814697265625</ele>
        <time>2021-03-09T15:56:21.000Z</time>
      </trkpt>
      <trkpt lat="17.7805216424167156219482421875" lon="-92.57822672836482524871826171875">
        <ele>16.6000003814697265625</ele>
        <time>2021-03-09T15:56:22.000Z</time>
      </trkpt>
      <trkpt lat="17.78091634623706340789794921875" lon="-92.57801055908203125">
        <ele>16.3999996185302734375</ele>
        <time>2021-03-09T15:56:30.000Z</time>
      </trkpt>
      <trkpt lat="17.78118205256760120391845703125" lon="-92.577868402004241943359375">
        <ele>16.3999996185302734375</ele>
        <time>2021-03-09T15:56:35.000Z</time>
      </trkpt>
      <trkpt lat="17.78139713220298290252685546875" lon="-92.57774175144731998443603515625">
        <ele>16.3999996185302734375</ele>
        <time>2021-03-09T15:56:39.000Z</time>
      </trkpt>
      <trkpt lat="17.78169183991849422454833984375" lon="-92.5775800645351409912109375">
        <ele>16.200000762939453125</ele>
        <time>2021-03-09T15:56:44.000Z</time>
      </trkpt>
      <trkpt lat="17.7817477472126483917236328125" lon="-92.57754988968372344970703125">
        <ele>16</ele>
        <time>2021-03-09T15:56:45.000Z</time>
      </trkpt>
      <trkpt lat="17.78185914270579814910888671875" lon="-92.57749088108539581298828125">
        <ele>15.3999996185302734375</ele>
        <time>2021-03-09T15:56:47.000Z</time>
      </trkpt>
      <trkpt lat="17.78209215961396694183349609375" lon="-92.57736071012914180755615234375">
        <ele>14.19999980926513671875</ele>
        <time>2021-03-09T15:56:51.000Z</time>
      </trkpt>
      <trkpt lat="17.782210595905780792236328125" lon="-92.57729365490376949310302734375">
        <ele>13.6000003814697265625</ele>
        <time>2021-03-09T15:56:53.000Z</time>
      </trkpt>
      <trkpt lat="17.78257478959858417510986328125" lon="-92.57711344398558139801025390625">
        <ele>12.19999980926513671875</ele>
        <time>2021-03-09T15:56:59.000Z</time>
      </trkpt>
      <trkpt lat="17.78269750066101551055908203125" lon="-92.5770518369972705841064453125">
        <ele>12.3999996185302734375</ele>
        <time>2021-03-09T15:57:01.000Z</time>
      </trkpt>
      <trkpt lat="17.78287670575082302093505859375" lon="-92.5769572891294956207275390625">
        <ele>12.80000019073486328125</ele>
        <time>2021-03-09T15:57:04.000Z</time>
      </trkpt>
      <trkpt lat="17.78298499993979930877685546875" lon="-92.57690892554819583892822265625">
        <ele>13.19999980926513671875</ele>
        <time>2021-03-09T15:57:06.000Z</time>
      </trkpt>
      <trkpt lat="17.783125229179859161376953125" lon="-92.576846145093441009521484375">
        <ele>13.3999996185302734375</ele>
        <time>2021-03-09T15:57:08.000Z</time>
      </trkpt>
      <trkpt lat="17.7835984714329242706298828125" lon="-92.57661572657525539398193359375">
        <ele>14</ele>
        <time>2021-03-09T15:57:16.000Z</time>
      </trkpt>
      <trkpt lat="17.78394875116646289825439453125" lon="-92.5763591565191745758056640625">
        <ele>14</ele>
        <time>2021-03-09T15:57:23.000Z</time>
      </trkpt>
      <trkpt lat="17.7842621505260467529296875" lon="-92.5760939531028270721435546875">
        <ele>14</ele>
        <time>2021-03-09T15:57:30.000Z</time>
      </trkpt>
      <trkpt lat="17.7844903059303760528564453125" lon="-92.57589588873088359832763671875">
        <ele>13.6000003814697265625</ele>
        <time>2021-03-09T15:57:36.000Z</time>
      </trkpt>
      <trkpt lat="17.78484486043453216552734375" lon="-92.5755880214273929595947265625">
        <ele>13.80000019073486328125</ele>
        <time>2021-03-09T15:57:44.000Z</time>
      </trkpt>
      <trkpt lat="17.785111404955387115478515625" lon="-92.575363218784332275390625">
        <ele>14.19999980926513671875</ele>
        <time>2021-03-09T15:57:50.000Z</time>
      </trkpt>
      <trkpt lat="17.785415835678577423095703125" lon="-92.575069181621074676513671875">
        <ele>14.80000019073486328125</ele>
        <time>2021-03-09T15:57:57.000Z</time>
      </trkpt>
      <trkpt lat="17.78572437353432178497314453125" lon="-92.57480054162442684173583984375">
        <ele>15.80000019073486328125</ele>
        <time>2021-03-09T15:58:04.000Z</time>
      </trkpt>
      <trkpt lat="17.7857641875743865966796875" lon="-92.57476148195564746856689453125">
        <ele>16</ele>
        <time>2021-03-09T15:58:05.000Z</time>
      </trkpt>
      <trkpt lat="17.7859739027917385101318359375" lon="-92.57455260492861270904541015625">
        <ele>16.6000003814697265625</ele>
        <time>2021-03-09T15:58:11.000Z</time>
      </trkpt>
      <trkpt lat="17.7861264534294605255126953125" lon="-92.574424110352993011474609375">
        <ele>17.200000762939453125</ele>
        <time>2021-03-09T15:58:16.000Z</time>
      </trkpt>
      <trkpt lat="17.78629668988287448883056640625" lon="-92.57425739429891109466552734375">
        <ele>17.799999237060546875</ele>
        <time>2021-03-09T15:58:23.000Z</time>
      </trkpt>
      <trkpt lat="17.786441780626773834228515625" lon="-92.574125044047832489013671875">
        <ele>18</ele>
        <time>2021-03-09T15:58:28.000Z</time>
      </trkpt>
      <trkpt lat="17.78647656552493572235107421875" lon="-92.574097216129302978515625">
        <ele>18</ele>
        <time>2021-03-09T15:58:29.000Z</time>
      </trkpt>
      <trkpt lat="17.7867202274501323699951171875" lon="-92.57391281425952911376953125">
        <ele>18</ele>
        <time>2021-03-09T15:58:35.000Z</time>
      </trkpt>
      <trkpt lat="17.78702725656330585479736328125" lon="-92.5736591778695583343505859375">
        <ele>17.6000003814697265625</ele>
        <time>2021-03-09T15:58:42.000Z</time>
      </trkpt>
      <trkpt lat="17.78743176721036434173583984375" lon="-92.57332549430429935455322265625">
        <ele>17.200000762939453125</ele>
        <time>2021-03-09T15:58:51.000Z</time>
      </trkpt>
      <trkpt lat="17.7874745987355709075927734375" lon="-92.573287524282932281494140625">
        <ele>17</ele>
        <time>2021-03-09T15:58:52.000Z</time>
      </trkpt>
      <trkpt lat="17.78792730532586574554443359375" lon="-92.57293112576007843017578125">
        <ele>17.3999996185302734375</ele>
        <time>2021-03-09T15:59:02.000Z</time>
      </trkpt>
      <trkpt lat="17.787958569824695587158203125" lon="-92.5729022920131683349609375">
        <ele>17.3999996185302734375</ele>
        <time>2021-03-09T15:59:03.000Z</time>
      </trkpt>
      <trkpt lat="17.7879996411502361297607421875" lon="-92.57286163978278636932373046875">
        <ele>17.6000003814697265625</ele>
        <time>2021-03-09T15:59:06.000Z</time>
      </trkpt>
      <trkpt lat="17.78811556287109851837158203125" lon="-92.5727938301861286163330078125">
        <ele>17.6000003814697265625</ele>
        <time>2021-03-09T15:59:11.000Z</time>
      </trkpt>
      <trkpt lat="17.78814657591283321380615234375" lon="-92.5727623142302036285400390625">
        <ele>17.6000003814697265625</ele>
        <time>2021-03-09T15:59:12.000Z</time>
      </trkpt>
      <trkpt lat="17.7882505953311920166015625" lon="-92.5726608932018280029296875">
        <ele>17.799999237060546875</ele>
        <time>2021-03-09T15:59:15.000Z</time>
      </trkpt>
      <trkpt lat="17.78853868134319782257080078125" lon="-92.57243030704557895660400390625">
        <ele>18.3999996185302734375</ele>
        <time>2021-03-09T15:59:22.000Z</time>
      </trkpt>
      <trkpt lat="17.78890631161630153656005859375" lon="-92.5721427239477634429931640625">
        <ele>19.200000762939453125</ele>
        <time>2021-03-09T15:59:32.000Z</time>
      </trkpt>
      <trkpt lat="17.78897671960294246673583984375" lon="-92.572083882987499237060546875">
        <ele>19.3999996185302734375</ele>
        <time>2021-03-09T15:59:34.000Z</time>
      </trkpt>
      <trkpt lat="17.7890525758266448974609375" lon="-92.57204071618616580963134765625">
        <ele>19.6000003814697265625</ele>
        <time>2021-03-09T15:59:36.000Z</time>
      </trkpt>
      <trkpt lat="17.78910093940794467926025390625" lon="-92.5720072723925113677978515625">
        <ele>19.799999237060546875</ele>
        <time>2021-03-09T15:59:37.000Z</time>
      </trkpt>
      <trkpt lat="17.78916858136653900146484375" lon="-92.57193711586296558380126953125">
        <ele>19.799999237060546875</ele>
        <time>2021-03-09T15:59:39.000Z</time>
      </trkpt>
      <trkpt lat="17.7892022766172885894775390625" lon="-92.5718999840319156646728515625">
        <ele>20</ele>
        <time>2021-03-09T15:59:40.000Z</time>
      </trkpt>
      <trkpt lat="17.78931082226336002349853515625" lon="-92.57180401124060153961181640625">
        <ele>20</ele>
        <time>2021-03-09T15:59:43.000Z</time>
      </trkpt>
      <trkpt lat="17.7896656282246112823486328125" lon="-92.571509219706058502197265625">
        <ele>20</ele>
        <time>2021-03-09T15:59:53.000Z</time>
      </trkpt>
      <trkpt lat="17.7899271436035633087158203125" lon="-92.57129908539354801177978515625">
        <ele>20</ele>
        <time>2021-03-09T16:00:00.000Z</time>
      </trkpt>
      <trkpt lat="17.79036643914878368377685546875" lon="-92.570935226976871490478515625">
        <ele>21.200000762939453125</ele>
        <time>2021-03-09T16:00:11.000Z</time>
      </trkpt>
      <trkpt lat="17.7905249409377574920654296875" lon="-92.5708096660673618316650390625">
        <ele>21.799999237060546875</ele>
        <time>2021-03-09T16:00:15.000Z</time>
      </trkpt>
      <trkpt lat="17.79063851572573184967041015625" lon="-92.57072995416820049285888671875">
        <ele>22.200000762939453125</ele>
        <time>2021-03-09T16:00:18.000Z</time>
      </trkpt>
      <trkpt lat="17.79071847908198833465576171875" lon="-92.5706795789301395416259765625">
        <ele>22.6000003814697265625</ele>
        <time>2021-03-09T16:00:20.000Z</time>
      </trkpt>
      <trkpt lat="17.79097613878548145294189453125" lon="-92.57047288119792938232421875">
        <ele>23.3999996185302734375</ele>
        <time>2021-03-09T16:00:27.000Z</time>
      </trkpt>
      <trkpt lat="17.791295908391475677490234375" lon="-92.57022636942565441131591796875">
        <ele>23.200000762939453125</ele>
        <time>2021-03-09T16:00:35.000Z</time>
      </trkpt>
      <trkpt lat="17.7917295880615711212158203125" lon="-92.569897212088108062744140625">
        <ele>23.200000762939453125</ele>
        <time>2021-03-09T16:00:46.000Z</time>
      </trkpt>
      <trkpt lat="17.79211440123617649078369140625" lon="-92.5696098804473876953125">
        <ele>22.6000003814697265625</ele>
        <time>2021-03-09T16:00:55.000Z</time>
      </trkpt>
      <trkpt lat="17.79239838011562824249267578125" lon="-92.56940410472452640533447265625">
        <ele>22.3999996185302734375</ele>
        <time>2021-03-09T16:01:00.000Z</time>
      </trkpt>
      <trkpt lat="17.79280842281877994537353515625" lon="-92.56910101510584354400634765625">
        <ele>22</ele>
        <time>2021-03-09T16:01:06.000Z</time>
      </trkpt>
      <trkpt lat="17.79308452270925045013427734375" lon="-92.568895407021045684814453125">
        <ele>22.3999996185302734375</ele>
        <time>2021-03-09T16:01:10.000Z</time>
      </trkpt>
      <trkpt lat="17.79339364729821681976318359375" lon="-92.5686726160347461700439453125">
        <ele>22.6000003814697265625</ele>
        <time>2021-03-09T16:01:15.000Z</time>
      </trkpt>
      <trkpt lat="17.79371936805546283721923828125" lon="-92.56843448616564273834228515625">
        <ele>22.799999237060546875</ele>
        <time>2021-03-09T16:01:21.000Z</time>
      </trkpt>
      <trkpt lat="17.79400904662907123565673828125" lon="-92.56820716895163059234619140625">
        <ele>22.6000003814697265625</ele>
        <time>2021-03-09T16:01:27.000Z</time>
      </trkpt>
      <trkpt lat="17.7943118847906589508056640625" lon="-92.56797431968152523040771484375">
        <ele>22.200000762939453125</ele>
        <time>2021-03-09T16:01:34.000Z</time>
      </trkpt>
      <trkpt lat="17.7944064326584339141845703125" lon="-92.56790039129555225372314453125">
        <ele>22.3999996185302734375</ele>
        <time>2021-03-09T16:01:36.000Z</time>
      </trkpt>
      <trkpt lat="17.79482963494956493377685546875" lon="-92.56758422590792179107666015625">
        <ele>23.200000762939453125</ele>
        <time>2021-03-09T16:01:46.000Z</time>
      </trkpt>
      <trkpt lat="17.79510590247809886932373046875" lon="-92.56735171191394329071044921875">
        <ele>24.200000762939453125</ele>
        <time>2021-03-09T16:01:53.000Z</time>
      </trkpt>
      <trkpt lat="17.79543128795921802520751953125" lon="-92.56699539721012115478515625">
        <ele>25</ele>
        <time>2021-03-09T16:02:03.000Z</time>
      </trkpt>
      <trkpt lat="17.79568140394985675811767578125" lon="-92.56670177914202213287353515625">
        <ele>25.6000003814697265625</ele>
        <time>2021-03-09T16:02:10.000Z</time>
      </trkpt>
      <trkpt lat="17.79593621380627155303955078125" lon="-92.56640824489295482635498046875">
        <ele>24.799999237060546875</ele>
        <time>2021-03-09T16:02:16.000Z</time>
      </trkpt>
      <trkpt lat="17.7961706556379795074462890625" lon="-92.56612326018512248992919921875">
        <ele>23.6000003814697265625</ele>
        <time>2021-03-09T16:02:21.000Z</time>
      </trkpt>
      <trkpt lat="17.796546332538127899169921875" lon="-92.565666697919368743896484375">
        <ele>22.6000003814697265625</ele>
        <time>2021-03-09T16:02:29.000Z</time>
      </trkpt>
      <trkpt lat="17.79686777852475643157958984375" lon="-92.56530904211103916168212890625">
        <ele>23.200000762939453125</ele>
        <time>2021-03-09T16:02:36.000Z</time>
      </trkpt>
      <trkpt lat="17.79716952703893184661865234375" lon="-92.5649678148329257965087890625">
        <ele>24.799999237060546875</ele>
        <time>2021-03-09T16:02:43.000Z</time>
      </trkpt>
      <trkpt lat="17.79739215038716793060302734375" lon="-92.5647019408643245697021484375">
        <ele>26</ele>
        <time>2021-03-09T16:02:49.000Z</time>
      </trkpt>
      <trkpt lat="17.79762499965727329254150390625" lon="-92.56443246267735958099365234375">
        <ele>27.200000762939453125</ele>
        <time>2021-03-09T16:02:56.000Z</time>
      </trkpt>
      <trkpt lat="17.7977350540459156036376953125" lon="-92.564312852919101715087890625">
        <ele>27.6000003814697265625</ele>
        <time>2021-03-09T16:03:00.000Z</time>
      </trkpt>
      <trkpt lat="17.79775626026093959808349609375" lon="-92.56428368389606475830078125">
        <ele>27.799999237060546875</ele>
        <time>2021-03-09T16:03:01.000Z</time>
      </trkpt>
      <trkpt lat="17.7979342080652713775634765625" lon="-92.56402342580258846282958984375">
        <ele>28</ele>
        <time>2021-03-09T16:03:09.000Z</time>
      </trkpt>
      <trkpt lat="17.797958515584468841552734375" lon="-92.5639894790947437286376953125">
        <ele>28</ele>
        <time>2021-03-09T16:03:10.000Z</time>
      </trkpt>
      <trkpt lat="17.7980337850749492645263671875" lon="-92.56388512440025806427001953125">
        <ele>28</ele>
        <time>2021-03-09T16:03:13.000Z</time>
      </trkpt>
      <trkpt lat="17.798114083707332611083984375" lon="-92.5637856312096118927001953125">
        <ele>28</ele>
        <time>2021-03-09T16:03:16.000Z</time>
      </trkpt>
      <trkpt lat="17.79819513671100139617919921875" lon="-92.56368127651512622833251953125">
        <ele>28.200000762939453125</ele>
        <time>2021-03-09T16:03:19.000Z</time>
      </trkpt>
      <trkpt lat="17.79846536926925182342529296875" lon="-92.56333812139928340911865234375">
        <ele>28.200000762939453125</ele>
        <time>2021-03-09T16:03:28.000Z</time>
      </trkpt>
      <trkpt lat="17.79871799983084201812744140625" lon="-92.56302815861999988555908203125">
        <ele>27.200000762939453125</ele>
        <time>2021-03-09T16:03:35.000Z</time>
      </trkpt>
      <trkpt lat="17.79906266368925571441650390625" lon="-92.56264812313020229339599609375">
        <ele>26.3999996185302734375</ele>
        <time>2021-03-09T16:03:44.000Z</time>
      </trkpt>
      <trkpt lat="17.7993074990808963775634765625" lon="-92.56238442845642566680908203125">
        <ele>25.3999996185302734375</ele>
        <time>2021-03-09T16:03:49.000Z</time>
      </trkpt>
      <trkpt lat="17.799406237900257110595703125" lon="-92.5622651539742946624755859375">
        <ele>24.799999237060546875</ele>
        <time>2021-03-09T16:03:51.000Z</time>
      </trkpt>
      <trkpt lat="17.7996070683002471923828125" lon="-92.56202518008649349212646484375">
        <ele>23.799999237060546875</ele>
        <time>2021-03-09T16:03:55.000Z</time>
      </trkpt>
      <trkpt lat="17.79979155398905277252197265625" lon="-92.56181261502206325531005859375">
        <ele>22.799999237060546875</ele>
        <time>2021-03-09T16:03:58.000Z</time>
      </trkpt>
      <trkpt lat="17.80000872910022735595703125" lon="-92.5615543685853481292724609375">
        <ele>21.3999996185302734375</ele>
        <time>2021-03-09T16:04:02.000Z</time>
      </trkpt>
      <trkpt lat="17.8001859225332736968994140625" lon="-92.5613361038267612457275390625">
        <ele>20.6000003814697265625</ele>
        <time>2021-03-09T16:04:05.000Z</time>
      </trkpt>
      <trkpt lat="17.80022942461073398590087890625" lon="-92.5612817890942096710205078125">
        <ele>20.3999996185302734375</ele>
        <time>2021-03-09T16:04:06.000Z</time>
      </trkpt>
      <trkpt lat="17.8006254695355892181396484375" lon="-92.5608087144792079925537109375">
        <ele>18.799999237060546875</ele>
        <time>2021-03-09T16:04:13.000Z</time>
      </trkpt>
      <trkpt lat="17.8008328378200531005859375" lon="-92.5605552457273006439208984375">
        <ele>19.6000003814697265625</ele>
        <time>2021-03-09T16:04:17.000Z</time>
      </trkpt>
      <trkpt lat="17.801072560250759124755859375" lon="-92.560264728963375091552734375">
        <ele>21</ele>
        <time>2021-03-09T16:04:22.000Z</time>
      </trkpt>
      <trkpt lat="17.80119937844574451446533203125" lon="-92.56010404787957668304443359375">
        <ele>22</ele>
        <time>2021-03-09T16:04:25.000Z</time>
      </trkpt>
      <trkpt lat="17.8013845346868038177490234375" lon="-92.55980984307825565338134765625">
        <ele>22.3999996185302734375</ele>
        <time>2021-03-09T16:04:31.000Z</time>
      </trkpt>
      <trkpt lat="17.8014472313225269317626953125" lon="-92.5596778281033039093017578125">
        <ele>22.200000762939453125</ele>
        <time>2021-03-09T16:04:34.000Z</time>
      </trkpt>
      <trkpt lat="17.80144781805574893951416015625" lon="-92.559644468128681182861328125">
        <ele>22.200000762939453125</ele>
        <time>2021-03-09T16:04:35.000Z</time>
      </trkpt>
      <trkpt lat="17.80139886774122714996337890625" lon="-92.5596365891396999359130859375">
        <ele>22</ele>
        <time>2021-03-09T16:04:38.000Z</time>
      </trkpt>
      <trkpt lat="17.80130649916827678680419921875" lon="-92.5596634112298488616943359375">
        <ele>21.6000003814697265625</ele>
        <time>2021-03-09T16:04:44.000Z</time>
      </trkpt>
      <trkpt lat="17.801302559673786163330078125" lon="-92.5596627406775951385498046875">
        <ele>21.6000003814697265625</ele>
        <time>2021-03-09T16:04:48.000Z</time>
      </trkpt>
      <trkpt lat="17.80133315362036228179931640625" lon="-92.55966894328594207763671875">
        <ele>21.799999237060546875</ele>
        <time>2021-03-09T16:05:34.000Z</time>
      </trkpt>
      <trkpt lat="17.8013345785439014434814453125" lon="-92.559671290218830108642578125">
        <ele>21.799999237060546875</ele>
        <time>2021-03-09T16:05:35.000Z</time>
      </trkpt>
      <trkpt lat="17.8013463132083415985107421875" lon="-92.55968512035906314849853515625">
        <ele>21.799999237060546875</ele>
        <time>2021-03-09T16:05:38.000Z</time>
      </trkpt>
      <trkpt lat="17.80137799680233001708984375" lon="-92.55968981422483921051025390625">
        <ele>22</ele>
        <time>2021-03-09T16:05:40.000Z</time>
      </trkpt>
      <trkpt lat="17.801432311534881591796875" lon="-92.559682689607143402099609375">
        <ele>22.200000762939453125</ele>
        <time>2021-03-09T16:05:43.000Z</time>
      </trkpt>
      <trkpt lat="17.80145175755023956298828125" lon="-92.55966802127659320831298828125">
        <ele>22.200000762939453125</ele>
        <time>2021-03-09T16:05:44.000Z</time>
      </trkpt>
      <trkpt lat="17.8015028871595859527587890625" lon="-92.559581100940704345703125">
        <ele>22.200000762939453125</ele>
        <time>2021-03-09T16:05:47.000Z</time>
      </trkpt>
      <trkpt lat="17.80166574753820896148681640625" lon="-92.5592942722141742706298828125">
        <ele>22</ele>
        <time>2021-03-09T16:05:54.000Z</time>
      </trkpt>
      <trkpt lat="17.8016889654099941253662109375" lon="-92.55924624390900135040283203125">
        <ele>22</ele>
        <time>2021-03-09T16:05:55.000Z</time>
      </trkpt>
      <trkpt lat="17.80173749662935733795166015625" lon="-92.5591480918228626251220703125">
        <ele>22</ele>
        <time>2021-03-09T16:05:57.000Z</time>
      </trkpt>
      <trkpt lat="17.80188250355422496795654296875" lon="-92.55887827835977077484130859375">
        <ele>22.200000762939453125</ele>
        <time>2021-03-09T16:06:02.000Z</time>
      </trkpt>
      <trkpt lat="17.8020698390901088714599609375" lon="-92.55853914655745029449462890625">
        <ele>22.6000003814697265625</ele>
        <time>2021-03-09T16:06:08.000Z</time>
      </trkpt>
      <trkpt lat="17.802305705845355987548828125" lon="-92.558088786900043487548828125">
        <ele>23.799999237060546875</ele>
        <time>2021-03-09T16:06:16.000Z</time>
      </trkpt>
      <trkpt lat="17.80240125954151153564453125" lon="-92.557908408343791961669921875">
        <ele>24.6000003814697265625</ele>
        <time>2021-03-09T16:06:20.000Z</time>
      </trkpt>
      <trkpt lat="17.80247560702264308929443359375" lon="-92.5577746331691741943359375">
        <ele>25.200000762939453125</ele>
        <time>2021-03-09T16:06:23.000Z</time>
      </trkpt>
      <trkpt lat="17.8025911934673786163330078125" lon="-92.55756550468504428863525390625">
        <ele>26.200000762939453125</ele>
        <time>2021-03-09T16:06:28.000Z</time>
      </trkpt>
      <trkpt lat="17.80267526395618915557861328125" lon="-92.5574029795825481414794921875">
        <ele>26.799999237060546875</ele>
        <time>2021-03-09T16:06:32.000Z</time>
      </trkpt>
      <trkpt lat="17.8029263019561767578125" lon="-92.557027302682399749755859375">
        <ele>28.200000762939453125</ele>
        <time>2021-03-09T16:06:42.000Z</time>
      </trkpt>
      <trkpt lat="17.8030317462980747222900390625" lon="-92.55691003985702991485595703125">
        <ele>28.799999237060546875</ele>
        <time>2021-03-09T16:06:46.000Z</time>
      </trkpt>
      <trkpt lat="17.80313995666801929473876953125" lon="-92.55679763853549957275390625">
        <ele>29.3999996185302734375</ele>
        <time>2021-03-09T16:06:50.000Z</time>
      </trkpt>
      <trkpt lat="17.80331455171108245849609375" lon="-92.556610889732837677001953125">
        <ele>30.3999996185302734375</ele>
        <time>2021-03-09T16:06:56.000Z</time>
      </trkpt>
      <trkpt lat="17.80339979566633701324462890625" lon="-92.55651407875120639801025390625">
        <ele>30.6000003814697265625</ele>
        <time>2021-03-09T16:06:59.000Z</time>
      </trkpt>
      <trkpt lat="17.80354463495314121246337890625" lon="-92.5563646294176578521728515625">
        <ele>31</ele>
        <time>2021-03-09T16:07:04.000Z</time>
      </trkpt>
      <trkpt lat="17.80373490415513515472412109375" lon="-92.5561570934951305389404296875">
        <ele>31.3999996185302734375</ele>
        <time>2021-03-09T16:07:11.000Z</time>
      </trkpt>
      <trkpt lat="17.80408660881221294403076171875" lon="-92.55578133277595043182373046875">
        <ele>32.200000762939453125</ele>
        <time>2021-03-09T16:07:23.000Z</time>
      </trkpt>
      <trkpt lat="17.80441819690167903900146484375" lon="-92.55543666891753673553466796875">
        <ele>32.799999237060546875</ele>
        <time>2021-03-09T16:07:33.000Z</time>
      </trkpt>
      <trkpt lat="17.80468557961285114288330078125" lon="-92.55519946105778217315673828125">
        <ele>32.799999237060546875</ele>
        <time>2021-03-09T16:07:39.000Z</time>
      </trkpt>
      <trkpt lat="17.8049696423113346099853515625" lon="-92.5549407117068767547607421875">
        <ele>32.59999847412109375</ele>
        <time>2021-03-09T16:07:44.000Z</time>
      </trkpt>
      <trkpt lat="17.805411703884601593017578125" lon="-92.5545440800487995147705078125">
        <ele>31.799999237060546875</ele>
        <time>2021-03-09T16:07:51.000Z</time>
      </trkpt>
      <trkpt lat="17.80574371106922626495361328125" lon="-92.5542609393596649169921875">
        <ele>31.200000762939453125</ele>
        <time>2021-03-09T16:07:57.000Z</time>
      </trkpt>
      <trkpt lat="17.80596348457038402557373046875" lon="-92.5540683232247829437255859375">
        <ele>31.3999996185302734375</ele>
        <time>2021-03-09T16:08:03.000Z</time>
      </trkpt>
      <trkpt lat="17.806184850633144378662109375" lon="-92.5538747012615203857421875">
        <ele>32.40000152587890625</ele>
        <time>2021-03-09T16:08:10.000Z</time>
      </trkpt>
      <trkpt lat="17.80641359277069568634033203125" lon="-92.55368920974433422088623046875">
        <ele>33.59999847412109375</ele>
        <time>2021-03-09T16:08:17.000Z</time>
      </trkpt>
      <trkpt lat="17.8066773712635040283203125" lon="-92.55348301492631435394287109375">
        <ele>34.799999237060546875</ele>
        <time>2021-03-09T16:08:25.000Z</time>
      </trkpt>
      <trkpt lat="17.80674752779304981231689453125" lon="-92.553433813154697418212890625">
        <ele>35</ele>
        <time>2021-03-09T16:08:27.000Z</time>
      </trkpt>
      <trkpt lat="17.806931845843791961669921875" lon="-92.55331747233867645263671875">
        <ele>35.200000762939453125</ele>
        <time>2021-03-09T16:08:32.000Z</time>
      </trkpt>
      <trkpt lat="17.80704977922141551971435546875" lon="-92.553218565881252288818359375">
        <ele>35.200000762939453125</ele>
        <time>2021-03-09T16:08:35.000Z</time>
      </trkpt>
      <trkpt lat="17.80708464793860912322998046875" lon="-92.55318327806890010833740234375">
        <ele>35.200000762939453125</ele>
        <time>2021-03-09T16:08:36.000Z</time>
      </trkpt>
      <trkpt lat="17.807186655700206756591796875" lon="-92.553009688854217529296875">
        <ele>35.200000762939453125</ele>
        <time>2021-03-09T16:08:40.000Z</time>
      </trkpt>
      <trkpt lat="17.807449512183666229248046875" lon="-92.55250065587460994720458984375">
        <ele>35.200000762939453125</ele>
        <time>2021-03-09T16:08:50.000Z</time>
      </trkpt>
      <trkpt lat="17.80768780969083309173583984375" lon="-92.552057839930057525634765625">
        <ele>35.200000762939453125</ele>
        <time>2021-03-09T16:08:58.000Z</time>
      </trkpt>
      <trkpt lat="17.80797765590250492095947265625" lon="-92.5515304505825042724609375">
        <ele>35.40000152587890625</ele>
        <time>2021-03-09T16:09:07.000Z</time>
      </trkpt>
      <trkpt lat="17.80807823874056339263916015625" lon="-92.5513462163507938385009765625">
        <ele>35.59999847412109375</ele>
        <time>2021-03-09T16:09:10.000Z</time>
      </trkpt>
      <trkpt lat="17.8082124330103397369384765625" lon="-92.55109115503728389739990234375">
        <ele>35.799999237060546875</ele>
        <time>2021-03-09T16:09:14.000Z</time>
      </trkpt>
      <trkpt lat="17.808315195143222808837890625" lon="-92.5508947670459747314453125">
        <ele>36</ele>
        <time>2021-03-09T16:09:17.000Z</time>
      </trkpt>
      <trkpt lat="17.80835065059363842010498046875" lon="-92.55083064548671245574951171875">
        <ele>36</ele>
        <time>2021-03-09T16:09:18.000Z</time>
      </trkpt>
      <trkpt lat="17.80849046073853969573974609375" lon="-92.55057223141193389892578125">
        <ele>36</ele>
        <time>2021-03-09T16:09:22.000Z</time>
      </trkpt>
      <trkpt lat="17.8085272572934627532958984375" lon="-92.55050710402429103851318359375">
        <ele>35.799999237060546875</ele>
        <time>2021-03-09T16:09:23.000Z</time>
      </trkpt>
      <trkpt lat="17.808804698288440704345703125" lon="-92.5500024296343326568603515625">
        <ele>35.40000152587890625</ele>
        <time>2021-03-09T16:09:31.000Z</time>
      </trkpt>
      <trkpt lat="17.80887720175087451934814453125" lon="-92.54987678490579128265380859375">
        <ele>35</ele>
        <time>2021-03-09T16:09:33.000Z</time>
      </trkpt>
      <trkpt lat="17.8091468475759029388427734375" lon="-92.54937420599162578582763671875">
        <ele>33.40000152587890625</ele>
        <time>2021-03-09T16:09:41.000Z</time>
      </trkpt>
      <trkpt lat="17.80921264551579952239990234375" lon="-92.54924864508211612701416015625">
        <ele>33.200000762939453125</ele>
        <time>2021-03-09T16:09:43.000Z</time>
      </trkpt>
      <trkpt lat="17.8094888292253017425537109375" lon="-92.5487250275909900665283203125">
        <ele>32.59999847412109375</ele>
        <time>2021-03-09T16:09:51.000Z</time>
      </trkpt>
      <trkpt lat="17.80977423302829265594482421875" lon="-92.54818581975996494293212890625">
        <ele>32.40000152587890625</ele>
        <time>2021-03-09T16:09:59.000Z</time>
      </trkpt>
      <trkpt lat="17.80981044284999370574951171875" lon="-92.54812194965779781341552734375">
        <ele>32.200000762939453125</ele>
        <time>2021-03-09T16:10:00.000Z</time>
      </trkpt>
      <trkpt lat="17.81003407202661037445068359375" lon="-92.54772431217133998870849609375">
        <ele>32</ele>
        <time>2021-03-09T16:10:06.000Z</time>
      </trkpt>
      <trkpt lat="17.810265161097049713134765625" lon="-92.54727638326585292816162109375">
        <ele>31.6000003814697265625</ele>
        <time>2021-03-09T16:10:13.000Z</time>
      </trkpt>
      <trkpt lat="17.81053162179887294769287109375" lon="-92.54676726646721363067626953125">
        <ele>31.200000762939453125</ele>
        <time>2021-03-09T16:10:21.000Z</time>
      </trkpt>
      <trkpt lat="17.810597084462642669677734375" lon="-92.5466392748057842254638671875">
        <ele>31</ele>
        <time>2021-03-09T16:10:23.000Z</time>
      </trkpt>
      <trkpt lat="17.810890115797519683837890625" lon="-92.54608715884387493133544921875">
        <ele>30.799999237060546875</ele>
        <time>2021-03-09T16:10:32.000Z</time>
      </trkpt>
      <trkpt lat="17.81091651879251003265380859375" lon="-92.54603636451065540313720703125">
        <ele>30.799999237060546875</ele>
        <time>2021-03-09T16:10:33.000Z</time>
      </trkpt>
      <trkpt lat="17.8110984899103641510009765625" lon="-92.545556165277957916259765625">
        <ele>31.6000003814697265625</ele>
        <time>2021-03-09T16:10:40.000Z</time>
      </trkpt>
      <trkpt lat="17.81124140135943889617919921875" lon="-92.5449206493794918060302734375">
        <ele>32.59999847412109375</ele>
        <time>2021-03-09T16:10:49.000Z</time>
      </trkpt>
      <trkpt lat="17.8112493641674518585205078125" lon="-92.54484781064093112945556640625">
        <ele>32.40000152587890625</ele>
        <time>2021-03-09T16:10:50.000Z</time>
      </trkpt>
      <trkpt lat="17.81129672192037105560302734375" lon="-92.544271387159824371337890625">
        <ele>31.200000762939453125</ele>
        <time>2021-03-09T16:10:58.000Z</time>
      </trkpt>
      <trkpt lat="17.8113130666315555572509765625" lon="-92.54404985345900058746337890625">
        <ele>30.6000003814697265625</ele>
        <time>2021-03-09T16:11:01.000Z</time>
      </trkpt>
      <trkpt lat="17.81135807745158672332763671875" lon="-92.5434544868767261505126953125">
        <ele>29.799999237060546875</ele>
        <time>2021-03-09T16:11:09.000Z</time>
      </trkpt>
      <trkpt lat="17.8113774396479129791259765625" lon="-92.5432328693568706512451171875">
        <ele>29.799999237060546875</ele>
        <time>2021-03-09T16:11:12.000Z</time>
      </trkpt>
      <trkpt lat="17.81143569387495517730712890625" lon="-92.5426364131271839141845703125">
        <ele>30.200000762939453125</ele>
        <time>2021-03-09T16:11:20.000Z</time>
      </trkpt>
      <trkpt lat="17.81145899556577205657958984375" lon="-92.54241429269313812255859375">
        <ele>30.3999996185302734375</ele>
        <time>2021-03-09T16:11:23.000Z</time>
      </trkpt>
      <trkpt lat="17.8115206025540828704833984375" lon="-92.5418347679078578948974609375">
        <ele>30.6000003814697265625</ele>
        <time>2021-03-09T16:11:31.000Z</time>
      </trkpt>
      <trkpt lat="17.81153258867561817169189453125" lon="-92.5416939519345760345458984375">
        <ele>30.200000762939453125</ele>
        <time>2021-03-09T16:11:33.000Z</time>
      </trkpt>
      <trkpt lat="17.81159318983554840087890625" lon="-92.541119791567325592041015625">
        <ele>30.799999237060546875</ele>
        <time>2021-03-09T16:11:41.000Z</time>
      </trkpt>
      <trkpt lat="17.8116218559443950653076171875" lon="-92.54082977771759033203125">
        <ele>31.200000762939453125</ele>
        <time>2021-03-09T16:11:45.000Z</time>
      </trkpt>
      <trkpt lat="17.81168061308562755584716796875" lon="-92.540250755846500396728515625">
        <ele>30.3999996185302734375</ele>
        <time>2021-03-09T16:11:53.000Z</time>
      </trkpt>
      <trkpt lat="17.81169603578746318817138671875" lon="-92.54009929485619068145751953125">
        <ele>30.200000762939453125</ele>
        <time>2021-03-09T16:11:55.000Z</time>
      </trkpt>
      <trkpt lat="17.8117583133280277252197265625" lon="-92.539529241621494293212890625">
        <ele>28.799999237060546875</ele>
        <time>2021-03-09T16:12:03.000Z</time>
      </trkpt>
      <trkpt lat="17.811782620847225189208984375" lon="-92.5393128208816051483154296875">
        <ele>28.3999996185302734375</ele>
        <time>2021-03-09T16:12:06.000Z</time>
      </trkpt>
      <trkpt lat="17.8118468262255191802978515625" lon="-92.53869532607495784759521484375">
        <ele>27.6000003814697265625</ele>
        <time>2021-03-09T16:12:15.000Z</time>
      </trkpt>
      <trkpt lat="17.81185428611934185028076171875" lon="-92.5386290252208709716796875">
        <ele>27.6000003814697265625</ele>
        <time>2021-03-09T16:12:16.000Z</time>
      </trkpt>
      <trkpt lat="17.81191212125122547149658203125" lon="-92.53804941661655902862548828125">
        <ele>27.3999996185302734375</ele>
        <time>2021-03-09T16:12:25.000Z</time>
      </trkpt>
      <trkpt lat="17.811930142343044281005859375" lon="-92.5378553755581378936767578125">
        <ele>27.6000003814697265625</ele>
        <time>2021-03-09T16:12:28.000Z</time>
      </trkpt>
      <trkpt lat="17.81199376098811626434326171875" lon="-92.537278868257999420166015625">
        <ele>28.200000762939453125</ele>
        <time>2021-03-09T16:12:37.000Z</time>
      </trkpt>
      <trkpt lat="17.8120136260986328125" lon="-92.5370912812650203704833984375">
        <ele>28.3999996185302734375</ele>
        <time>2021-03-09T16:12:40.000Z</time>
      </trkpt>
      <trkpt lat="17.81208126805722713470458984375" lon="-92.53650270402431488037109375">
        <ele>28.200000762939453125</ele>
        <time>2021-03-09T16:12:49.000Z</time>
      </trkpt>
      <trkpt lat="17.8121482394635677337646484375" lon="-92.535988725721836090087890625">
        <ele>29</ele>
        <time>2021-03-09T16:12:57.000Z</time>
      </trkpt>
      <trkpt lat="17.81224370934069156646728515625" lon="-92.535425126552581787109375">
        <ele>29.6000003814697265625</ele>
        <time>2021-03-09T16:13:06.000Z</time>
      </trkpt>
      <trkpt lat="17.812268435955047607421875" lon="-92.53531171940267086029052734375">
        <ele>29.6000003814697265625</ele>
        <time>2021-03-09T16:13:08.000Z</time>
      </trkpt>
      <trkpt lat="17.8124382533133029937744140625" lon="-92.53472364507615566253662109375">
        <ele>29.200000762939453125</ele>
        <time>2021-03-09T16:13:18.000Z</time>
      </trkpt>
      <trkpt lat="17.81264201737940311431884765625" lon="-92.53415367566049098968505859375">
        <ele>28.799999237060546875</ele>
        <time>2021-03-09T16:13:28.000Z</time>
      </trkpt>
      <trkpt lat="17.81286698766052722930908203125" lon="-92.53359057940542697906494140625">
        <ele>28.3999996185302734375</ele>
        <time>2021-03-09T16:13:38.000Z</time>
      </trkpt>
      <trkpt lat="17.8129349648952484130859375" lon="-92.5334228575229644775390625">
        <ele>28.200000762939453125</ele>
        <time>2021-03-09T16:13:41.000Z</time>
      </trkpt>
      <trkpt lat="17.81314509920775890350341796875" lon="-92.53289840184152126312255859375">
        <ele>28.6000003814697265625</ele>
        <time>2021-03-09T16:13:50.000Z</time>
      </trkpt>
      <trkpt lat="17.81322254799306392669677734375" lon="-92.53272690810263156890869140625">
        <ele>28.799999237060546875</ele>
        <time>2021-03-09T16:13:53.000Z</time>
      </trkpt>
      <trkpt lat="17.813269905745983123779296875" lon="-92.53261123783886432647705078125">
        <ele>28.799999237060546875</ele>
        <time>2021-03-09T16:13:55.000Z</time>
      </trkpt>
      <trkpt lat="17.81342036090791225433349609375" lon="-92.532263137400150299072265625">
        <ele>29.200000762939453125</ele>
        <time>2021-03-09T16:14:01.000Z</time>
      </trkpt>
      <trkpt lat="17.81364114023745059967041015625" lon="-92.53171605058014392852783203125">
        <ele>29.6000003814697265625</ele>
        <time>2021-03-09T16:14:10.000Z</time>
      </trkpt>
      <trkpt lat="17.813665866851806640625" lon="-92.53166056238114833831787109375">
        <ele>29.6000003814697265625</ele>
        <time>2021-03-09T16:14:11.000Z</time>
      </trkpt>
      <trkpt lat="17.813739962875843048095703125" lon="-92.5314797647297382354736328125">
        <ele>29.799999237060546875</ele>
        <time>2021-03-09T16:14:14.000Z</time>
      </trkpt>
      <trkpt lat="17.81384062953293323516845703125" lon="-92.53123409114778041839599609375">
        <ele>30</ele>
        <time>2021-03-09T16:14:18.000Z</time>
      </trkpt>
      <trkpt lat="17.813966274261474609375" lon="-92.530925385653972625732421875">
        <ele>29.799999237060546875</ele>
        <time>2021-03-09T16:14:23.000Z</time>
      </trkpt>
      <trkpt lat="17.81407029367983341217041015625" lon="-92.53067024052143096923828125">
        <ele>29.799999237060546875</ele>
        <time>2021-03-09T16:14:27.000Z</time>
      </trkpt>
      <trkpt lat="17.814263664186000823974609375" lon="-92.53019683063030242919921875">
        <ele>29.799999237060546875</ele>
        <time>2021-03-09T16:14:34.000Z</time>
      </trkpt>
      <trkpt lat="17.814485616981983184814453125" lon="-92.52965544350445270538330078125">
        <ele>28.6000003814697265625</ele>
        <time>2021-03-09T16:14:42.000Z</time>
      </trkpt>
      <trkpt lat="17.8145684301853179931640625" lon="-92.529446817934513092041015625">
        <ele>28</ele>
        <time>2021-03-09T16:14:45.000Z</time>
      </trkpt>
      <trkpt lat="17.814816869795322418212890625" lon="-92.52888397313654422760009765625">
        <ele>26.6000003814697265625</ele>
        <time>2021-03-09T16:14:53.000Z</time>
      </trkpt>
      <trkpt lat="17.81496145762503147125244140625" lon="-92.5285085476934909820556640625">
        <ele>25.6000003814697265625</ele>
        <time>2021-03-09T16:14:58.000Z</time>
      </trkpt>
      <trkpt lat="17.8151908703148365020751953125" lon="-92.5279754586517810821533203125">
        <ele>24.200000762939453125</ele>
        <time>2021-03-09T16:15:05.000Z</time>
      </trkpt>
      <trkpt lat="17.8153516352176666259765625" lon="-92.52759332768619060516357421875">
        <ele>23.200000762939453125</ele>
        <time>2021-03-09T16:15:10.000Z</time>
      </trkpt>
      <trkpt lat="17.81556076370179653167724609375" lon="-92.52706225030124187469482421875">
        <ele>22.3999996185302734375</ele>
        <time>2021-03-09T16:15:17.000Z</time>
      </trkpt>
      <trkpt lat="17.8156217001378536224365234375" lon="-92.52691322006285190582275390625">
        <ele>22.3999996185302734375</ele>
        <time>2021-03-09T16:15:19.000Z</time>
      </trkpt>
      <trkpt lat="17.81583971343934535980224609375" lon="-92.52638331614434719085693359375">
        <ele>22.3999996185302734375</ele>
        <time>2021-03-09T16:15:26.000Z</time>
      </trkpt>
      <trkpt lat="17.8159646876156330108642578125" lon="-92.5260788016021251678466796875">
        <ele>22.799999237060546875</ele>
        <time>2021-03-09T16:15:30.000Z</time>
      </trkpt>
      <trkpt lat="17.81618471257388591766357421875" lon="-92.525542192161083221435546875">
        <ele>22.3999996185302734375</ele>
        <time>2021-03-09T16:15:37.000Z</time>
      </trkpt>
      <trkpt lat="17.8162778355181217193603515625" lon="-92.52531663514673709869384765625">
        <ele>22</ele>
        <time>2021-03-09T16:15:40.000Z</time>
      </trkpt>
      <trkpt lat="17.81649216078221797943115234375" lon="-92.524789832532405853271484375">
        <ele>20.200000762939453125</ele>
        <time>2021-03-09T16:15:47.000Z</time>
      </trkpt>
      <trkpt lat="17.81664202921092510223388671875" lon="-92.52441801130771636962890625">
        <ele>18.200000762939453125</ele>
        <time>2021-03-09T16:15:52.000Z</time>
      </trkpt>
      <trkpt lat="17.816882170736789703369140625" lon="-92.52384108491241931915283203125">
        <ele>18.3999996185302734375</ele>
        <time>2021-03-09T16:16:00.000Z</time>
      </trkpt>
      <trkpt lat="17.81691159121692180633544921875" lon="-92.52377201803028583526611328125">
        <ele>18.6000003814697265625</ele>
        <time>2021-03-09T16:16:01.000Z</time>
      </trkpt>
      <trkpt lat="17.81702332198619842529296875" lon="-92.523491643369197845458984375">
        <ele>19.799999237060546875</ele>
        <time>2021-03-09T16:16:05.000Z</time>
      </trkpt>
      <trkpt lat="17.8171391598880290985107421875" lon="-92.5232125259935855865478515625">
        <ele>20.3999996185302734375</ele>
        <time>2021-03-09T16:16:09.000Z</time>
      </trkpt>
      <trkpt lat="17.81716740690171718597412109375" lon="-92.52314622513949871063232421875">
        <ele>20.3999996185302734375</ele>
        <time>2021-03-09T16:16:10.000Z</time>
      </trkpt>
      <trkpt lat="17.81738500110805034637451171875" lon="-92.52261514775454998016357421875">
        <ele>20.6000003814697265625</ele>
        <time>2021-03-09T16:16:18.000Z</time>
      </trkpt>
      <trkpt lat="17.8176256455481052398681640625" lon="-92.5220628641545772552490234375">
        <ele>22.200000762939453125</ele>
        <time>2021-03-09T16:16:27.000Z</time>
      </trkpt>
      <trkpt lat="17.817651964724063873291015625" lon="-92.522005699574947357177734375">
        <ele>22.3999996185302734375</ele>
        <time>2021-03-09T16:16:28.000Z</time>
      </trkpt>
      <trkpt lat="17.81785254366695880889892578125" lon="-92.52156640402972698211669921875">
        <ele>23.3999996185302734375</ele>
        <time>2021-03-09T16:16:36.000Z</time>
      </trkpt>
      <trkpt lat="17.818143479526042938232421875" lon="-92.52102560363709926605224609375">
        <ele>23.799999237060546875</ele>
        <time>2021-03-09T16:16:46.000Z</time>
      </trkpt>
      <trkpt lat="17.8181751631200313568115234375" lon="-92.520975060760974884033203125">
        <ele>24</ele>
        <time>2021-03-09T16:16:47.000Z</time>
      </trkpt>
      <trkpt lat="17.8184215910732746124267578125" lon="-92.520582117140293121337890625">
        <ele>24</ele>
        <time>2021-03-09T16:16:55.000Z</time>
      </trkpt>
      <trkpt lat="17.818600125610828399658203125" lon="-92.5203430652618408203125">
        <ele>23.3999996185302734375</ele>
        <time>2021-03-09T16:17:01.000Z</time>
      </trkpt>
      <trkpt lat="17.81891050748527050018310546875" lon="-92.51998356543481349945068359375">
        <ele>22.799999237060546875</ele>
        <time>2021-03-09T16:17:09.000Z</time>
      </trkpt>
      <trkpt lat="17.81924477778375148773193359375" lon="-92.51963890157639980316162109375">
        <ele>21.3999996185302734375</ele>
        <time>2021-03-09T16:17:16.000Z</time>
      </trkpt>
      <trkpt lat="17.8195149265229701995849609375" lon="-92.519386522471904754638671875">
        <ele>20.200000762939453125</ele>
        <time>2021-03-09T16:17:21.000Z</time>
      </trkpt>
      <trkpt lat="17.81963713467121124267578125" lon="-92.5192904658615589141845703125">
        <ele>19.6000003814697265625</ele>
        <time>2021-03-09T16:17:23.000Z</time>
      </trkpt>
      <trkpt lat="17.82007307745516300201416015625" lon="-92.5189481489360332489013671875">
        <ele>18.200000762939453125</ele>
        <time>2021-03-09T16:17:30.000Z</time>
      </trkpt>
      <trkpt lat="17.82044892199337482452392578125" lon="-92.5186879746615886688232421875">
        <ele>19</ele>
        <time>2021-03-09T16:17:36.000Z</time>
      </trkpt>
      <trkpt lat="17.820505164563655853271484375" lon="-92.51864514313638210296630859375">
        <ele>19.200000762939453125</ele>
        <time>2021-03-09T16:17:37.000Z</time>
      </trkpt>
      <trkpt lat="17.82089911401271820068359375" lon="-92.518366277217864990234375">
        <ele>19.799999237060546875</ele>
        <time>2021-03-09T16:17:44.000Z</time>
      </trkpt>
      <trkpt lat="17.82130437903106212615966796875" lon="-92.518074251711368560791015625">
        <ele>20.799999237060546875</ele>
        <time>2021-03-09T16:17:52.000Z</time>
      </trkpt>
      <trkpt lat="17.82170453108847141265869140625" lon="-92.51778784207999706268310546875">
        <ele>21.6000003814697265625</ele>
        <time>2021-03-09T16:18:01.000Z</time>
      </trkpt>
      <trkpt lat="17.82212010584771633148193359375" lon="-92.51749397255480289459228515625">
        <ele>23</ele>
        <time>2021-03-09T16:18:11.000Z</time>
      </trkpt>
      <trkpt lat="17.8225190006196498870849609375" lon="-92.5172089040279388427734375">
        <ele>24.200000762939453125</ele>
        <time>2021-03-09T16:18:21.000Z</time>
      </trkpt>
      <trkpt lat="17.82279652543365955352783203125" lon="-92.51700480468571186065673828125">
        <ele>24</ele>
        <time>2021-03-09T16:18:28.000Z</time>
      </trkpt>
      <trkpt lat="17.82307513989508152008056640625" lon="-92.5168074108660221099853515625">
        <ele>23.6000003814697265625</ele>
        <time>2021-03-09T16:18:35.000Z</time>
      </trkpt>
      <trkpt lat="17.82311721704900264739990234375" lon="-92.5167735479772090911865234375">
        <ele>23.6000003814697265625</ele>
        <time>2021-03-09T16:18:36.000Z</time>
      </trkpt>
      <trkpt lat="17.823588363826274871826171875" lon="-92.51644372008740901947021484375">
        <ele>22.799999237060546875</ele>
        <time>2021-03-09T16:18:46.000Z</time>
      </trkpt>
      <trkpt lat="17.8240599296987056732177734375" lon="-92.51611397601664066314697265625">
        <ele>22</ele>
        <time>2021-03-09T16:18:55.000Z</time>
      </trkpt>
      <trkpt lat="17.82426805235445499420166015625" lon="-92.51596746034920215606689453125">
        <ele>21.6000003814697265625</ele>
        <time>2021-03-09T16:18:59.000Z</time>
      </trkpt>
      <trkpt lat="17.82447391189634799957275390625" lon="-92.51581641845405101776123046875">
        <ele>21.200000762939453125</ele>
        <time>2021-03-09T16:19:03.000Z</time>
      </trkpt>
      <trkpt lat="17.8249500878155231475830078125" lon="-92.515471167862415313720703125">
        <ele>20.6000003814697265625</ele>
        <time>2021-03-09T16:19:12.000Z</time>
      </trkpt>
      <trkpt lat="17.8250057436525821685791015625" lon="-92.5154327787458896636962890625">
        <ele>20.6000003814697265625</ele>
        <time>2021-03-09T16:19:13.000Z</time>
      </trkpt>
      <trkpt lat="17.8253359906375408172607421875" lon="-92.51520018093287944793701171875">
        <ele>20</ele>
        <time>2021-03-09T16:19:19.000Z</time>
      </trkpt>
      <trkpt lat="17.82557663507759571075439453125" lon="-92.51501418650150299072265625">
        <ele>19.3999996185302734375</ele>
        <time>2021-03-09T16:19:24.000Z</time>
      </trkpt>
      <trkpt lat="17.82564260065555572509765625" lon="-92.514935396611690521240234375">
        <ele>19.3999996185302734375</ele>
        <time>2021-03-09T16:19:27.000Z</time>
      </trkpt>
      <trkpt lat="17.82581769861280918121337890625" lon="-92.51483975909650325775146484375">
        <ele>19.200000762939453125</ele>
        <time>2021-03-09T16:19:32.000Z</time>
      </trkpt>
      <trkpt lat="17.8261134959757328033447265625" lon="-92.51463222317397594451904296875">
        <ele>19.799999237060546875</ele>
        <time>2021-03-09T16:19:39.000Z</time>
      </trkpt>
      <trkpt lat="17.8261590935289859771728515625" lon="-92.51460355706512928009033203125">
        <ele>20</ele>
        <time>2021-03-09T16:19:40.000Z</time>
      </trkpt>
      <trkpt lat="17.826515324413776397705078125" lon="-92.51433785073459148406982421875">
        <ele>21.200000762939453125</ele>
        <time>2021-03-09T16:19:48.000Z</time>
      </trkpt>
      <trkpt lat="17.8267364390194416046142578125" lon="-92.5141821987926959991455078125">
        <ele>22</ele>
        <time>2021-03-09T16:19:53.000Z</time>
      </trkpt>
      <trkpt lat="17.82682947814464569091796875" lon="-92.514127381145954132080078125">
        <ele>22.200000762939453125</ele>
        <time>2021-03-09T16:19:55.000Z</time>
      </trkpt>
      <trkpt lat="17.82687180675566196441650390625" lon="-92.51409259624779224395751953125">
        <ele>22.3999996185302734375</ele>
        <time>2021-03-09T16:19:56.000Z</time>
      </trkpt>
      <trkpt lat="17.82695478759706020355224609375" lon="-92.51402704976499080657958984375">
        <ele>22.6000003814697265625</ele>
        <time>2021-03-09T16:19:58.000Z</time>
      </trkpt>
      <trkpt lat="17.82707766629755496978759765625" lon="-92.51393334008753299713134765625">
        <ele>22.799999237060546875</ele>
        <time>2021-03-09T16:20:01.000Z</time>
      </trkpt>
      <trkpt lat="17.82750346697866916656494140625" lon="-92.51362572424113750457763671875">
        <ele>23.799999237060546875</ele>
        <time>2021-03-09T16:20:11.000Z</time>
      </trkpt>
      <trkpt lat="17.82794167287647724151611328125" lon="-92.5133098103106021881103515625">
        <ele>23.200000762939453125</ele>
        <time>2021-03-09T16:20:21.000Z</time>
      </trkpt>
      <trkpt lat="17.8283048607409000396728515625" lon="-92.51305558718740940093994140625">
        <ele>22.6000003814697265625</ele>
        <time>2021-03-09T16:20:29.000Z</time>
      </trkpt>
      <trkpt lat="17.82874524593353271484375" lon="-92.51273640431463718414306640625">
        <ele>21.799999237060546875</ele>
        <time>2021-03-09T16:20:39.000Z</time>
      </trkpt>
      <trkpt lat="17.8291621617972850799560546875" lon="-92.512439601123332977294921875">
        <ele>21.3999996185302734375</ele>
        <time>2021-03-09T16:20:48.000Z</time>
      </trkpt>
      <trkpt lat="17.82949081622064113616943359375" lon="-92.51220348291099071502685546875">
        <ele>21.200000762939453125</ele>
        <time>2021-03-09T16:20:55.000Z</time>
      </trkpt>
      <trkpt lat="17.8299644775688648223876953125" lon="-92.5118748284876346588134765625">
        <ele>20.6000003814697265625</ele>
        <time>2021-03-09T16:21:05.000Z</time>
      </trkpt>
      <trkpt lat="17.8300110809504985809326171875" lon="-92.51183845102787017822265625">
        <ele>20.6000003814697265625</ele>
        <time>2021-03-09T16:21:06.000Z</time>
      </trkpt>
      <trkpt lat="17.83048826269805431365966796875" lon="-92.5114942900836467742919921875">
        <ele>21.799999237060546875</ele>
        <time>2021-03-09T16:21:16.000Z</time>
      </trkpt>
      <trkpt lat="17.83082571811974048614501953125" lon="-92.5112468563020229339599609375">
        <ele>22.3999996185302734375</ele>
        <time>2021-03-09T16:21:23.000Z</time>
      </trkpt>
      <trkpt lat="17.83129041083157062530517578125" lon="-92.5109202973544597625732421875">
        <ele>22.3999996185302734375</ele>
        <time>2021-03-09T16:21:33.000Z</time>
      </trkpt>
      <trkpt lat="17.83161344937980175018310546875" lon="-92.51068417914211750030517578125">
        <ele>22.3999996185302734375</ele>
        <time>2021-03-09T16:21:40.000Z</time>
      </trkpt>
      <trkpt lat="17.832112424075603485107421875" lon="-92.51033901236951351165771484375">
        <ele>21.6000003814697265625</ele>
        <time>2021-03-09T16:21:50.000Z</time>
      </trkpt>
      <trkpt lat="17.832158692181110382080078125" lon="-92.5103050656616687774658203125">
        <ele>21.6000003814697265625</ele>
        <time>2021-03-09T16:21:51.000Z</time>
      </trkpt>
      <trkpt lat="17.83247091807425022125244140625" lon="-92.51008939929306507110595703125">
        <ele>21.200000762939453125</ele>
        <time>2021-03-09T16:21:57.000Z</time>
      </trkpt>
      <trkpt lat="17.8325769491493701934814453125" lon="-92.51001563854515552520751953125">
        <ele>21</ele>
        <time>2021-03-09T16:21:59.000Z</time>
      </trkpt>
      <trkpt lat="17.8330020792782306671142578125" lon="-92.50971615314483642578125">
        <ele>21.200000762939453125</ele>
        <time>2021-03-09T16:22:07.000Z</time>
      </trkpt>
      <trkpt lat="17.83346199430525302886962890625" lon="-92.50938632525503635406494140625">
        <ele>21.799999237060546875</ele>
        <time>2021-03-09T16:22:16.000Z</time>
      </trkpt>
      <trkpt lat="17.83351144753396511077880859375" lon="-92.509347014129161834716796875">
        <ele>21.799999237060546875</ele>
        <time>2021-03-09T16:22:17.000Z</time>
      </trkpt>
      <trkpt lat="17.83365477807819843292236328125" lon="-92.509224973618984222412109375">
        <ele>22</ele>
        <time>2021-03-09T16:22:20.000Z</time>
      </trkpt>
      <trkpt lat="17.83374748192727565765380859375" lon="-92.50916923396289348602294921875">
        <ele>22.200000762939453125</ele>
        <time>2021-03-09T16:22:22.000Z</time>
      </trkpt>
      <trkpt lat="17.83379257656633853912353515625" lon="-92.50914442352950572967529296875">
        <ele>22</ele>
        <time>2021-03-09T16:22:23.000Z</time>
      </trkpt>
      <trkpt lat="17.8338372521102428436279296875" lon="-92.50911173410713672637939453125">
        <ele>21.799999237060546875</ele>
        <time>2021-03-09T16:22:24.000Z</time>
      </trkpt>
      <trkpt lat="17.83408979885280132293701171875" lon="-92.5089262425899505615234375">
        <ele>20.799999237060546875</ele>
        <time>2021-03-09T16:22:29.000Z</time>
      </trkpt>
      <trkpt lat="17.8343723528087139129638671875" lon="-92.50872599892318248748779296875">
        <ele>19.799999237060546875</ele>
        <time>2021-03-09T16:22:34.000Z</time>
      </trkpt>
      <trkpt lat="17.8348729200661182403564453125" lon="-92.5083725340664386749267578125">
        <ele>18.3999996185302734375</ele>
        <time>2021-03-09T16:22:42.000Z</time>
      </trkpt>
      <trkpt lat="17.83535814844071865081787109375" lon="-92.5080372579395771026611328125">
        <ele>15.80000019073486328125</ele>
        <time>2021-03-09T16:22:49.000Z</time>
      </trkpt>
      <trkpt lat="17.8354298137128353118896484375" lon="-92.5079836137592792510986328125">
        <ele>15.3999996185302734375</ele>
        <time>2021-03-09T16:22:50.000Z</time>
      </trkpt>
      <trkpt lat="17.83593649975955486297607421875" lon="-92.507621012628078460693359375">
        <ele>13</ele>
        <time>2021-03-09T16:22:57.000Z</time>
      </trkpt>
      <trkpt lat="17.83601067960262298583984375" lon="-92.50756577588617801666259765625">
        <ele>12.6000003814697265625</ele>
        <time>2021-03-09T16:22:58.000Z</time>
      </trkpt>
      <trkpt lat="17.8364658169448375701904296875" lon="-92.50724977813661098480224609375">
        <ele>11.80000019073486328125</ele>
        <time>2021-03-09T16:23:04.000Z</time>
      </trkpt>
      <trkpt lat="17.836697660386562347412109375" lon="-92.50708348117768764495849609375">
        <ele>11.3999996185302734375</ele>
        <time>2021-03-09T16:23:07.000Z</time>
      </trkpt>
      <trkpt lat="17.83715355210006237030029296875" lon="-92.5067665614187717437744140625">
        <ele>10.80000019073486328125</ele>
        <time>2021-03-09T16:23:13.000Z</time>
      </trkpt>
      <trkpt lat="17.83738070167601108551025390625" lon="-92.5066046230494976043701171875">
        <ele>10.80000019073486328125</ele>
        <time>2021-03-09T16:23:16.000Z</time>
      </trkpt>
      <trkpt lat="17.83784396946430206298828125" lon="-92.50627311877906322479248046875">
        <ele>11.3999996185302734375</ele>
        <time>2021-03-09T16:23:22.000Z</time>
      </trkpt>
      <trkpt lat="17.83821587450802326202392578125" lon="-92.506004981696605682373046875">
        <ele>11.80000019073486328125</ele>
        <time>2021-03-09T16:23:27.000Z</time>
      </trkpt>
      <trkpt lat="17.83862876705825328826904296875" lon="-92.5057129561901092529296875">
        <ele>11</ele>
        <time>2021-03-09T16:23:33.000Z</time>
      </trkpt>
      <trkpt lat="17.8389763645827770233154296875" lon="-92.50544616021215915679931640625">
        <ele>10.19999980926513671875</ele>
        <time>2021-03-09T16:23:39.000Z</time>
      </trkpt>
      <trkpt lat="17.8392992354929447174072265625" lon="-92.50522420741617679595947265625">
        <ele>9.3999996185302734375</ele>
        <time>2021-03-09T16:23:45.000Z</time>
      </trkpt>
      <trkpt lat="17.8396283090114593505859375" lon="-92.50499420799314975738525390625">
        <ele>9.6000003814697265625</ele>
        <time>2021-03-09T16:23:52.000Z</time>
      </trkpt>
      <trkpt lat="17.839891500771045684814453125" lon="-92.5047998316586017608642578125">
        <ele>10</ele>
        <time>2021-03-09T16:23:58.000Z</time>
      </trkpt>
      <trkpt lat="17.840276397764682769775390625" lon="-92.50451375730335712432861328125">
        <ele>11.6000003814697265625</ele>
        <time>2021-03-09T16:24:07.000Z</time>
      </trkpt>
      <trkpt lat="17.8405706025660037994384765625" lon="-92.504326589405536651611328125">
        <ele>12.80000019073486328125</ele>
        <time>2021-03-09T16:24:14.000Z</time>
      </trkpt>
      <trkpt lat="17.840773276984691619873046875" lon="-92.5041792355477809906005859375">
        <ele>14</ele>
        <time>2021-03-09T16:24:20.000Z</time>
      </trkpt>
      <trkpt lat="17.84098139964044094085693359375" lon="-92.50403984449803829193115234375">
        <ele>14.19999980926513671875</ele>
        <time>2021-03-09T16:24:27.000Z</time>
      </trkpt>
      <trkpt lat="17.841184996068477630615234375" lon="-92.50389039516448974609375">
        <ele>14.19999980926513671875</ele>
        <time>2021-03-09T16:24:34.000Z</time>
      </trkpt>
      <trkpt lat="17.84130628220736980438232421875" lon="-92.503801546990871429443359375">
        <ele>14.3999996185302734375</ele>
        <time>2021-03-09T16:24:40.000Z</time>
      </trkpt>
      <trkpt lat="17.841341905295848846435546875" lon="-92.50376634299755096435546875">
        <ele>14.3999996185302734375</ele>
        <time>2021-03-09T16:24:42.000Z</time>
      </trkpt>
      <trkpt lat="17.841474674642086029052734375" lon="-92.5036682747304439544677734375">
        <ele>14.3999996185302734375</ele>
        <time>2021-03-09T16:24:48.000Z</time>
      </trkpt>
      <trkpt lat="17.8416480123996734619140625" lon="-92.50353978015482425689697265625">
        <ele>14.3999996185302734375</ele>
        <time>2021-03-09T16:24:54.000Z</time>
      </trkpt>
      <trkpt lat="17.8417873196303844451904296875" lon="-92.5034342519938945770263671875">
        <ele>14.80000019073486328125</ele>
        <time>2021-03-09T16:24:59.000Z</time>
      </trkpt>
      <trkpt lat="17.84206132404506206512451171875" lon="-92.5032506883144378662109375">
        <ele>16</ele>
        <time>2021-03-09T16:25:07.000Z</time>
      </trkpt>
      <trkpt lat="17.84241336397826671600341796875" lon="-92.502990178763866424560546875">
        <ele>17.3999996185302734375</ele>
        <time>2021-03-09T16:25:17.000Z</time>
      </trkpt>
      <trkpt lat="17.84272785298526287078857421875" lon="-92.502781637012958526611328125">
        <ele>18.799999237060546875</ele>
        <time>2021-03-09T16:25:26.000Z</time>
      </trkpt>
      <trkpt lat="17.84299649298191070556640625" lon="-92.5025910325348377227783203125">
        <ele>19.799999237060546875</ele>
        <time>2021-03-09T16:25:34.000Z</time>
      </trkpt>
      <trkpt lat="17.84339689649641513824462890625" lon="-92.50230562873184680938720703125">
        <ele>20.799999237060546875</ele>
        <time>2021-03-09T16:25:46.000Z</time>
      </trkpt>
      <trkpt lat="17.8437054343521595001220703125" lon="-92.50208334065973758697509765625">
        <ele>21.6000003814697265625</ele>
        <time>2021-03-09T16:25:55.000Z</time>
      </trkpt>
      <trkpt lat="17.84407800994813442230224609375" lon="-92.50180774368345737457275390625">
        <ele>22.6000003814697265625</ele>
        <time>2021-03-09T16:26:06.000Z</time>
      </trkpt>
      <trkpt lat="17.8444061614573001861572265625" lon="-92.501592747867107391357421875">
        <ele>22.799999237060546875</ele>
        <time>2021-03-09T16:26:15.000Z</time>
      </trkpt>
      <trkpt lat="17.8447354026138782501220703125" lon="-92.50134858302772045135498046875">
        <ele>21.799999237060546875</ele>
        <time>2021-03-09T16:26:23.000Z</time>
      </trkpt>
      <trkpt lat="17.84498778171837329864501953125" lon="-92.50116485171020030975341796875">
        <ele>21</ele>
        <time>2021-03-09T16:26:29.000Z</time>
      </trkpt>
      <trkpt lat="17.84503237344324588775634765625" lon="-92.5011342577636241912841796875">
        <ele>20.799999237060546875</ele>
        <time>2021-03-09T16:26:30.000Z</time>
      </trkpt>
      <trkpt lat="17.84530780278146266937255859375" lon="-92.50095547176897525787353515625">
        <ele>19.200000762939453125</ele>
        <time>2021-03-09T16:26:36.000Z</time>
      </trkpt>
      <trkpt lat="17.84535541199147701263427734375" lon="-92.500926554203033447265625">
        <ele>18.799999237060546875</ele>
        <time>2021-03-09T16:26:37.000Z</time>
      </trkpt>
      <trkpt lat="17.845679037272930145263671875" lon="-92.50070619396865367889404296875">
        <ele>17.799999237060546875</ele>
        <time>2021-03-09T16:26:43.000Z</time>
      </trkpt>
      <trkpt lat="17.84608463756740093231201171875" lon="-92.50042338855564594268798828125">
        <ele>18.200000762939453125</ele>
        <time>2021-03-09T16:26:51.000Z</time>
      </trkpt>
      <trkpt lat="17.8461831249296665191650390625" lon="-92.50034946016967296600341796875">
        <ele>18.6000003814697265625</ele>
        <time>2021-03-09T16:26:53.000Z</time>
      </trkpt>
      <trkpt lat="17.84632670693099498748779296875" lon="-92.50022004358470439910888671875">
        <ele>19</ele>
        <time>2021-03-09T16:26:56.000Z</time>
      </trkpt>
      <trkpt lat="17.846375405788421630859375" lon="-92.50018282793462276458740234375">
        <ele>19.200000762939453125</ele>
        <time>2021-03-09T16:26:57.000Z</time>
      </trkpt>
      <trkpt lat="17.84672820009291172027587890625" lon="-92.499911673367023468017578125">
        <ele>20.200000762939453125</ele>
        <time>2021-03-09T16:27:05.000Z</time>
      </trkpt>
      <trkpt lat="17.84705459140241146087646484375" lon="-92.49966792762279510498046875">
        <ele>21.200000762939453125</ele>
        <time>2021-03-09T16:27:13.000Z</time>
      </trkpt>
      <trkpt lat="17.84749589860439300537109375" lon="-92.499355114996433258056640625">
        <ele>22.200000762939453125</ele>
        <time>2021-03-09T16:27:24.000Z</time>
      </trkpt>
      <trkpt lat="17.84757435321807861328125" lon="-92.499297447502613067626953125">
        <ele>22.3999996185302734375</ele>
        <time>2021-03-09T16:27:26.000Z</time>
      </trkpt>
      <trkpt lat="17.847727574408054351806640625" lon="-92.499193847179412841796875">
        <ele>22.6000003814697265625</ele>
        <time>2021-03-09T16:27:30.000Z</time>
      </trkpt>
      <trkpt lat="17.84792027436196804046630859375" lon="-92.4990625865757465362548828125">
        <ele>23</ele>
        <time>2021-03-09T16:27:35.000Z</time>
      </trkpt>
      <trkpt lat="17.84799738787114620208740234375" lon="-92.499011792242527008056640625">
        <ele>23</ele>
        <time>2021-03-09T16:27:37.000Z</time>
      </trkpt>
      <trkpt lat="17.84807919524610042572021484375" lon="-92.4989549629390239715576171875">
        <ele>23.200000762939453125</ele>
        <time>2021-03-09T16:27:39.000Z</time>
      </trkpt>
      <trkpt lat="17.84837943501770496368408203125" lon="-92.4987269751727581024169921875">
        <ele>23.6000003814697265625</ele>
        <time>2021-03-09T16:27:47.000Z</time>
      </trkpt>
      <trkpt lat="17.84849493764340877532958984375" lon="-92.4986372888088226318359375">
        <ele>23.799999237060546875</ele>
        <time>2021-03-09T16:27:50.000Z</time>
      </trkpt>
      <trkpt lat="17.848709262907505035400390625" lon="-92.498496472835540771484375">
        <ele>24</ele>
        <time>2021-03-09T16:27:55.000Z</time>
      </trkpt>
      <trkpt lat="17.84902836196124553680419921875" lon="-92.4982723407447338104248046875">
        <ele>24.200000762939453125</ele>
        <time>2021-03-09T16:28:02.000Z</time>
      </trkpt>
      <trkpt lat="17.84942843019962310791015625" lon="-92.49798039905726909637451171875">
        <ele>23.200000762939453125</ele>
        <time>2021-03-09T16:28:10.000Z</time>
      </trkpt>
      <trkpt lat="17.84981542266905307769775390625" lon="-92.49769943766295909881591796875">
        <ele>21.799999237060546875</ele>
        <time>2021-03-09T16:28:17.000Z</time>
      </trkpt>
      <trkpt lat="17.8500057756900787353515625" lon="-92.49757136218249797821044921875">
        <ele>21.200000762939453125</ele>
        <time>2021-03-09T16:28:20.000Z</time>
      </trkpt>
      <trkpt lat="17.85027508623898029327392578125" lon="-92.4973831884562969207763671875">
        <ele>20</ele>
        <time>2021-03-09T16:28:24.000Z</time>
      </trkpt>
      <trkpt lat="17.85077649168670177459716796875" lon="-92.49703542329370975494384765625">
        <ele>17.3999996185302734375</ele>
        <time>2021-03-09T16:28:31.000Z</time>
      </trkpt>
      <trkpt lat="17.85126348026096820831298828125" lon="-92.49669310636818408966064453125">
        <ele>15.6000003814697265625</ele>
        <time>2021-03-09T16:28:38.000Z</time>
      </trkpt>
      <trkpt lat="17.85133011639118194580078125" lon="-92.49664633534848690032958984375">
        <ele>15.6000003814697265625</ele>
        <time>2021-03-09T16:28:39.000Z</time>
      </trkpt>
      <trkpt lat="17.85169892013072967529296875" lon="-92.49638431705534458160400390625">
        <ele>16.6000003814697265625</ele>
        <time>2021-03-09T16:28:45.000Z</time>
      </trkpt>
      <trkpt lat="17.85202883183956146240234375" lon="-92.496151886880397796630859375">
        <ele>18.3999996185302734375</ele>
        <time>2021-03-09T16:28:51.000Z</time>
      </trkpt>
      <trkpt lat="17.8522650338709354400634765625" lon="-92.495973519980907440185546875">
        <ele>19.6000003814697265625</ele>
        <time>2021-03-09T16:28:56.000Z</time>
      </trkpt>
      <trkpt lat="17.85256787203252315521240234375" lon="-92.4957560934126377105712890625">
        <ele>20.799999237060546875</ele>
        <time>2021-03-09T16:29:03.000Z</time>
      </trkpt>
      <trkpt lat="17.853051759302616119384765625" lon="-92.49543531797826290130615234375">
        <ele>20</ele>
        <time>2021-03-09T16:29:14.000Z</time>
      </trkpt>
      <trkpt lat="17.85332526080310344696044921875" lon="-92.49521948397159576416015625">
        <ele>19.3999996185302734375</ele>
        <time>2021-03-09T16:29:20.000Z</time>
      </trkpt>
      <trkpt lat="17.8536634705960750579833984375" lon="-92.49498168937861919403076171875">
        <ele>17.3999996185302734375</ele>
        <time>2021-03-09T16:29:27.000Z</time>
      </trkpt>
      <trkpt lat="17.8540156781673431396484375" lon="-92.4947432242333889007568359375">
        <ele>15.6000003814697265625</ele>
        <time>2021-03-09T16:29:33.000Z</time>
      </trkpt>
      <trkpt lat="17.8542418219149112701416015625" lon="-92.49457784928381443023681640625">
        <ele>14.3999996185302734375</ele>
        <time>2021-03-09T16:29:37.000Z</time>
      </trkpt>
      <trkpt lat="17.8545308299362659454345703125" lon="-92.49436830170452594757080078125">
        <ele>13.6000003814697265625</ele>
        <time>2021-03-09T16:29:42.000Z</time>
      </trkpt>
      <trkpt lat="17.8550099395215511322021484375" lon="-92.49400838278234004974365234375">
        <ele>12.3999996185302734375</ele>
        <time>2021-03-09T16:29:50.000Z</time>
      </trkpt>
      <trkpt lat="17.8554726205766201019287109375" lon="-92.493678219616413116455078125">
        <ele>13</ele>
        <time>2021-03-09T16:29:58.000Z</time>
      </trkpt>
      <trkpt lat="17.85563145764172077178955078125" lon="-92.49356263317167758941650390625">
        <ele>13.3999996185302734375</ele>
        <time>2021-03-09T16:30:01.000Z</time>
      </trkpt>
      <trkpt lat="17.855931781232357025146484375" lon="-92.493347637355327606201171875">
        <ele>14</ele>
        <time>2021-03-09T16:30:07.000Z</time>
      </trkpt>
      <trkpt lat="17.8563232161104679107666015625" lon="-92.4930755607783794403076171875">
        <ele>15.19999980926513671875</ele>
        <time>2021-03-09T16:30:15.000Z</time>
      </trkpt>
      <trkpt lat="17.85663845948874950408935546875" lon="-92.49284883029758930206298828125">
        <ele>16</ele>
        <time>2021-03-09T16:30:22.000Z</time>
      </trkpt>
      <trkpt lat="17.85699116997420787811279296875" lon="-92.49260676093399524688720703125">
        <ele>16.799999237060546875</ele>
        <time>2021-03-09T16:30:30.000Z</time>
      </trkpt>
      <trkpt lat="17.85732560791075229644775390625" lon="-92.4923936091363430023193359375">
        <ele>16.799999237060546875</ele>
        <time>2021-03-09T16:30:38.000Z</time>
      </trkpt>
      <trkpt lat="17.85764177329838275909423828125" lon="-92.49218448065221309661865234375">
        <ele>16.799999237060546875</ele>
        <time>2021-03-09T16:30:46.000Z</time>
      </trkpt>
      <trkpt lat="17.85768049769103527069091796875" lon="-92.49215883202850818634033203125">
        <ele>16.799999237060546875</ele>
        <time>2021-03-09T16:30:47.000Z</time>
      </trkpt>
      <trkpt lat="17.857797928154468536376953125" lon="-92.4920848198235034942626953125">
        <ele>16.799999237060546875</ele>
        <time>2021-03-09T16:30:50.000Z</time>
      </trkpt>
      <trkpt lat="17.85797101445496082305908203125" lon="-92.49198297969996929168701171875">
        <ele>16.799999237060546875</ele>
        <time>2021-03-09T16:30:55.000Z</time>
      </trkpt>
      <trkpt lat="17.85807897336781024932861328125" lon="-92.49191701412200927734375">
        <ele>17</ele>
        <time>2021-03-09T16:30:58.000Z</time>
      </trkpt>
      <trkpt lat="17.85843118093907833099365234375" lon="-92.49172029085457324981689453125">
        <ele>17</ele>
        <time>2021-03-09T16:31:06.000Z</time>
      </trkpt>
      <trkpt lat="17.85885111428797245025634765625" lon="-92.4914937280118465423583984375">
        <ele>17</ele>
        <time>2021-03-09T16:31:15.000Z</time>
      </trkpt>
      <trkpt lat="17.85895303823053836822509765625" lon="-92.49144251458346843719482421875">
        <ele>17</ele>
        <time>2021-03-09T16:31:17.000Z</time>
      </trkpt>
      <trkpt lat="17.85905697382986545562744140625" lon="-92.49139867722988128662109375">
        <ele>17</ele>
        <time>2021-03-09T16:31:19.000Z</time>
      </trkpt>
      <trkpt lat="17.859104163944721221923828125" lon="-92.49136741273105144500732421875">
        <ele>17</ele>
        <time>2021-03-09T16:31:20.000Z</time>
      </trkpt>
      <trkpt lat="17.85946466960012912750244140625" lon="-92.49117328785359859466552734375">
        <ele>17.200000762939453125</ele>
        <time>2021-03-09T16:31:27.000Z</time>
      </trkpt>
      <trkpt lat="17.85995936952531337738037109375" lon="-92.49094127677381038665771484375">
        <ele>17.799999237060546875</ele>
        <time>2021-03-09T16:31:36.000Z</time>
      </trkpt>
      <trkpt lat="17.8604085557162761688232421875" lon="-92.4907355010509490966796875">
        <ele>17.3999996185302734375</ele>
        <time>2021-03-09T16:31:44.000Z</time>
      </trkpt>
      <trkpt lat="17.860952205955982208251953125" lon="-92.49051631428301334381103515625">
        <ele>16.6000003814697265625</ele>
        <time>2021-03-09T16:31:53.000Z</time>
      </trkpt>
      <trkpt lat="17.86101783625781536102294921875" lon="-92.49049234203994274139404296875">
        <ele>16.799999237060546875</ele>
        <time>2021-03-09T16:31:54.000Z</time>
      </trkpt>
      <trkpt lat="17.86147951148450374603271484375" lon="-92.49030567705631256103515625">
        <ele>17</ele>
        <time>2021-03-09T16:32:01.000Z</time>
      </trkpt>
      <trkpt lat="17.861968763172626495361328125" lon="-92.4901268072426319122314453125">
        <ele>16.799999237060546875</ele>
        <time>2021-03-09T16:32:08.000Z</time>
      </trkpt>
      <trkpt lat="17.86245080642402172088623046875" lon="-92.48996746726334095001220703125">
        <ele>16</ele>
        <time>2021-03-09T16:32:15.000Z</time>
      </trkpt>
      <trkpt lat="17.86302245222032070159912109375" lon="-92.48980033211410045623779296875">
        <ele>16.200000762939453125</ele>
        <time>2021-03-09T16:32:23.000Z</time>
      </trkpt>
      <trkpt lat="17.8632366098463535308837890625" lon="-92.48972774483263492584228515625">
        <ele>16.3999996185302734375</ele>
        <time>2021-03-09T16:32:26.000Z</time>
      </trkpt>
      <trkpt lat="17.86380297504365444183349609375" lon="-92.48956429772078990936279296875">
        <ele>16.3999996185302734375</ele>
        <time>2021-03-09T16:32:34.000Z</time>
      </trkpt>
      <trkpt lat="17.86437428556382656097412109375" lon="-92.48939900659024715423583984375">
        <ele>14.6000003814697265625</ele>
        <time>2021-03-09T16:32:42.000Z</time>
      </trkpt>
      <trkpt lat="17.86444519646465778350830078125" lon="-92.48938173986971378326416015625">
        <ele>14.19999980926513671875</ele>
        <time>2021-03-09T16:32:43.000Z</time>
      </trkpt>
      <trkpt lat="17.864918522536754608154296875" lon="-92.48922608792781829833984375">
        <ele>11.80000019073486328125</ele>
        <time>2021-03-09T16:32:50.000Z</time>
      </trkpt>
      <trkpt lat="17.8654209338128566741943359375" lon="-92.4890985153615474700927734375">
        <ele>10.80000019073486328125</ele>
        <time>2021-03-09T16:32:57.000Z</time>
      </trkpt>
      <trkpt lat="17.865494526922702789306640625" lon="-92.48907194472849369049072265625">
        <ele>10.80000019073486328125</ele>
        <time>2021-03-09T16:32:58.000Z</time>
      </trkpt>
      <trkpt lat="17.8657739795744419097900390625" lon="-92.48897572048008441925048828125">
        <ele>10.6000003814697265625</ele>
        <time>2021-03-09T16:33:02.000Z</time>
      </trkpt>
      <trkpt lat="17.86598679609596729278564453125" lon="-92.48891520313918590545654296875">
        <ele>10.6000003814697265625</ele>
        <time>2021-03-09T16:33:05.000Z</time>
      </trkpt>
      <trkpt lat="17.866338752210140228271484375" lon="-92.48879492282867431640625">
        <ele>11.19999980926513671875</ele>
        <time>2021-03-09T16:33:10.000Z</time>
      </trkpt>
      <trkpt lat="17.8668877668678760528564453125" lon="-92.48862795531749725341796875">
        <ele>11.6000003814697265625</ele>
        <time>2021-03-09T16:33:18.000Z</time>
      </trkpt>
      <trkpt lat="17.86695800721645355224609375" lon="-92.48860876075923442840576171875">
        <ele>11.3999996185302734375</ele>
        <time>2021-03-09T16:33:19.000Z</time>
      </trkpt>
      <trkpt lat="17.867495119571685791015625" lon="-92.48845453374087810516357421875">
        <ele>10.19999980926513671875</ele>
        <time>2021-03-09T16:33:27.000Z</time>
      </trkpt>
      <trkpt lat="17.86761841736733913421630859375" lon="-92.48842100612819194793701171875">
        <ele>10.19999980926513671875</ele>
        <time>2021-03-09T16:33:29.000Z</time>
      </trkpt>
      <trkpt lat="17.86812116391956806182861328125" lon="-92.4882640130817890167236328125">
        <ele>12.80000019073486328125</ele>
        <time>2021-03-09T16:33:38.000Z</time>
      </trkpt>
      <trkpt lat="17.86846783943474292755126953125" lon="-92.48817055486142635345458984375">
        <ele>13.80000019073486328125</ele>
        <time>2021-03-09T16:33:45.000Z</time>
      </trkpt>
      <trkpt lat="17.868519723415374755859375" lon="-92.4881553836166858673095703125">
        <ele>13.3999996185302734375</ele>
        <time>2021-03-09T16:33:46.000Z</time>
      </trkpt>
      <trkpt lat="17.86867369897663593292236328125" lon="-92.48810081742703914642333984375">
        <ele>13</ele>
        <time>2021-03-09T16:33:49.000Z</time>
      </trkpt>
      <trkpt lat="17.86904669366776943206787109375" lon="-92.48797927983105182647705078125">
        <ele>12.6000003814697265625</ele>
        <time>2021-03-09T16:33:56.000Z</time>
      </trkpt>
      <trkpt lat="17.86953024566173553466796875" lon="-92.48783578164875507354736328125">
        <ele>12.80000019073486328125</ele>
        <time>2021-03-09T16:34:05.000Z</time>
      </trkpt>
      <trkpt lat="17.86984833888709545135498046875" lon="-92.487749867141246795654296875">
        <ele>12.80000019073486328125</ele>
        <time>2021-03-09T16:34:11.000Z</time>
      </trkpt>
      <trkpt lat="17.86999233998358249664306640625" lon="-92.487700916826725006103515625">
        <ele>12.19999980926513671875</ele>
        <time>2021-03-09T16:34:14.000Z</time>
      </trkpt>
      <trkpt lat="17.8701935894787311553955078125" lon="-92.48763964511454105377197265625">
        <ele>12.80000019073486328125</ele>
        <time>2021-03-09T16:34:19.000Z</time>
      </trkpt>
      <trkpt lat="17.870390228927135467529296875" lon="-92.48757996596395969390869140625">
        <ele>14</ele>
        <time>2021-03-09T16:34:24.000Z</time>
      </trkpt>
      <trkpt lat="17.87050967104732990264892578125" lon="-92.48754744417965412139892578125">
        <ele>14.6000003814697265625</ele>
        <time>2021-03-09T16:34:27.000Z</time>
      </trkpt>
      <trkpt lat="17.87083388306200504302978515625" lon="-92.4874444305896759033203125">
        <ele>16.6000003814697265625</ele>
        <time>2021-03-09T16:34:35.000Z</time>
      </trkpt>
      <trkpt lat="17.87121643312275409698486328125" lon="-92.487331442534923553466796875">
        <ele>16.799999237060546875</ele>
        <time>2021-03-09T16:34:44.000Z</time>
      </trkpt>
      <trkpt lat="17.871256582438945770263671875" lon="-92.48732180334627628326416015625">
        <ele>16.799999237060546875</ele>
        <time>2021-03-09T16:34:45.000Z</time>
      </trkpt>
      <trkpt lat="17.871385328471660614013671875" lon="-92.4872893653810024261474609375">
        <ele>16.799999237060546875</ele>
        <time>2021-03-09T16:34:48.000Z</time>
      </trkpt>
      <trkpt lat="17.87176863290369510650634765625" lon="-92.48716958798468112945556640625">
        <ele>16.3999996185302734375</ele>
        <time>2021-03-09T16:34:56.000Z</time>
      </trkpt>
      <trkpt lat="17.87213659845292568206787109375" lon="-92.48706883750855922698974609375">
        <ele>13.6000003814697265625</ele>
        <time>2021-03-09T16:35:03.000Z</time>
      </trkpt>
      <trkpt lat="17.87253742106258869171142578125" lon="-92.48695216141641139984130859375">
        <ele>11.19999980926513671875</ele>
        <time>2021-03-09T16:35:11.000Z</time>
      </trkpt>
      <trkpt lat="17.87259441800415515899658203125" lon="-92.48693204484879970550537109375">
        <ele>11</ele>
        <time>2021-03-09T16:35:12.000Z</time>
      </trkpt>
      <trkpt lat="17.87282860837876796722412109375" lon="-92.486860714852809906005859375">
        <ele>10.80000019073486328125</ele>
        <time>2021-03-09T16:35:16.000Z</time>
      </trkpt>
      <trkpt lat="17.8730139322578907012939453125" lon="-92.48679734766483306884765625">
        <ele>10.3999996185302734375</ele>
        <time>2021-03-09T16:35:19.000Z</time>
      </trkpt>
      <trkpt lat="17.8734454326331615447998046875" lon="-92.48667941428720951080322265625">
        <ele>10.19999980926513671875</ele>
        <time>2021-03-09T16:35:26.000Z</time>
      </trkpt>
      <trkpt lat="17.8737505339086055755615234375" lon="-92.486592829227447509765625">
        <ele>10.6000003814697265625</ele>
        <time>2021-03-09T16:35:32.000Z</time>
      </trkpt>
      <trkpt lat="17.87416015751659870147705078125" lon="-92.48646341264247894287109375">
        <ele>11.3999996185302734375</ele>
        <time>2021-03-09T16:35:40.000Z</time>
      </trkpt>
      <trkpt lat="17.87436702288687229156494140625" lon="-92.48640297912061214447021484375">
        <ele>12</ele>
        <time>2021-03-09T16:35:44.000Z</time>
      </trkpt>
      <trkpt lat="17.87462174892425537109375" lon="-92.4863153882324695587158203125">
        <ele>12.80000019073486328125</ele>
        <time>2021-03-09T16:35:49.000Z</time>
      </trkpt>
      <trkpt lat="17.8749166242778301239013671875" lon="-92.4862272106111049652099609375">
        <ele>13.3999996185302734375</ele>
        <time>2021-03-09T16:35:55.000Z</time>
      </trkpt>
      <trkpt lat="17.874964065849781036376953125" lon="-92.486212290823459625244140625">
        <ele>13.3999996185302734375</ele>
        <time>2021-03-09T16:35:56.000Z</time>
      </trkpt>
      <trkpt lat="17.8753030300140380859375" lon="-92.48611061833798885345458984375">
        <ele>14</ele>
        <time>2021-03-09T16:36:03.000Z</time>
      </trkpt>
      <trkpt lat="17.87535223178565502166748046875" lon="-92.486092932522296905517578125">
        <ele>14</ele>
        <time>2021-03-09T16:36:04.000Z</time>
      </trkpt>
      <trkpt lat="17.87583335302770137786865234375" lon="-92.4859569780528545379638671875">
        <ele>14.80000019073486328125</ele>
        <time>2021-03-09T16:36:14.000Z</time>
      </trkpt>
      <trkpt lat="17.87634816952049732208251953125" lon="-92.4858171679079532623291015625">
        <ele>15.6000003814697265625</ele>
        <time>2021-03-09T16:36:24.000Z</time>
      </trkpt>
      <trkpt lat="17.8765671886503696441650390625" lon="-92.48576327227056026458740234375">
        <ele>15.80000019073486328125</ele>
        <time>2021-03-09T16:36:28.000Z</time>
      </trkpt>
      <trkpt lat="17.87674128077924251556396484375" lon="-92.4857108853757381439208984375">
        <ele>16</ele>
        <time>2021-03-09T16:36:31.000Z</time>
      </trkpt>
      <trkpt lat="17.87686164490878582000732421875" lon="-92.48566009104251861572265625">
        <ele>15.6000003814697265625</ele>
        <time>2021-03-09T16:36:33.000Z</time>
      </trkpt>
      <trkpt lat="17.87693037651479244232177734375" lon="-92.4855730868875980377197265625">
        <ele>15.6000003814697265625</ele>
        <time>2021-03-09T16:36:35.000Z</time>
      </trkpt>
      <trkpt lat="17.87691897712647914886474609375" lon="-92.48542673885822296142578125">
        <ele>15.6000003814697265625</ele>
        <time>2021-03-09T16:36:38.000Z</time>
      </trkpt>
      <trkpt lat="17.87693942897021770477294921875" lon="-92.4853665567934513092041015625">
        <ele>15.3999996185302734375</ele>
        <time>2021-03-09T16:36:40.000Z</time>
      </trkpt>
      <trkpt lat="17.8769634850323200225830078125" lon="-92.48534266836941242218017578125">
        <ele>15.3999996185302734375</ele>
        <time>2021-03-09T16:36:41.000Z</time>
      </trkpt>
      <trkpt lat="17.87703095935285091400146484375" lon="-92.4852891080081462860107421875">
        <ele>15.19999980926513671875</ele>
        <time>2021-03-09T16:36:43.000Z</time>
      </trkpt>
      <trkpt lat="17.87712626159191131591796875" lon="-92.48524644412100315093994140625">
        <ele>15</ele>
        <time>2021-03-09T16:36:45.000Z</time>
      </trkpt>
      <trkpt lat="17.8771790675818920135498046875" lon="-92.48522565700113773345947265625">
        <ele>15</ele>
        <time>2021-03-09T16:36:46.000Z</time>
      </trkpt>
      <trkpt lat="17.877387441694736480712890625" lon="-92.4851134233176708221435546875">
        <ele>14.3999996185302734375</ele>
        <time>2021-03-09T16:36:50.000Z</time>
      </trkpt>
      <trkpt lat="17.87776420824229717254638671875" lon="-92.484904043376445770263671875">
        <ele>13.80000019073486328125</ele>
        <time>2021-03-09T16:36:56.000Z</time>
      </trkpt>
      <trkpt lat="17.87814659066498279571533203125" lon="-92.48471863567829132080078125">
        <ele>13.3999996185302734375</ele>
        <time>2021-03-09T16:37:02.000Z</time>
      </trkpt>
      <trkpt lat="17.8782066889107227325439453125" lon="-92.4846249260008335113525390625">
        <ele>13.19999980926513671875</ele>
        <time>2021-03-09T16:37:04.000Z</time>
      </trkpt>
      <trkpt lat="17.8781788609921932220458984375" lon="-92.48451604507863521575927734375">
        <ele>12.80000019073486328125</ele>
        <time>2021-03-09T16:37:06.000Z</time>
      </trkpt>
      <trkpt lat="17.8781475126743316650390625" lon="-92.4844618141651153564453125">
        <ele>12.80000019073486328125</ele>
        <time>2021-03-09T16:37:07.000Z</time>
      </trkpt>
      <trkpt lat="17.87795866839587688446044921875" lon="-92.484094016253948211669921875">
        <ele>13.6000003814697265625</ele>
        <time>2021-03-09T16:37:13.000Z</time>
      </trkpt>
      <trkpt lat="17.8777741827070713043212890625" lon="-92.48367785476148128509521484375">
        <ele>14.3999996185302734375</ele>
        <time>2021-03-09T16:37:20.000Z</time>
      </trkpt>
      <trkpt lat="17.87767083384096622467041015625" lon="-92.48345908708870410919189453125">
        <ele>14.80000019073486328125</ele>
        <time>2021-03-09T16:37:24.000Z</time>
      </trkpt>
      <trkpt lat="17.8776672296226024627685546875" lon="-92.48341432772576808929443359375">
        <ele>14.80000019073486328125</ele>
        <time>2021-03-09T16:37:25.000Z</time>
      </trkpt>
      <trkpt lat="17.87768692709505558013916015625" lon="-92.48338012956082820892333984375">
        <ele>14.80000019073486328125</ele>
        <time>2021-03-09T16:37:26.000Z</time>
      </trkpt>
      <trkpt lat="17.8777741827070713043212890625" lon="-92.48332631774246692657470703125">
        <ele>14.3999996185302734375</ele>
        <time>2021-03-09T16:37:28.000Z</time>
      </trkpt>
      <trkpt lat="17.877934612333774566650390625" lon="-92.48325373046100139617919921875">
        <ele>14</ele>
        <time>2021-03-09T16:37:31.000Z</time>
      </trkpt>
      <trkpt lat="17.8780487738549709320068359375" lon="-92.483199499547481536865234375">
        <ele>13.6000003814697265625</ele>
        <time>2021-03-09T16:37:33.000Z</time>
      </trkpt>
      <trkpt lat="17.878269888460636138916015625" lon="-92.4830769561231136322021484375">
        <ele>13</ele>
        <time>2021-03-09T16:37:37.000Z</time>
      </trkpt>
      <trkpt lat="17.87829964421689510345458984375" lon="-92.48302842490375041961669921875">
        <ele>12.80000019073486328125</ele>
        <time>2021-03-09T16:37:38.000Z</time>
      </trkpt>
      <trkpt lat="17.87827617488801479339599609375" lon="-92.482925243675708770751953125">
        <ele>12.80000019073486328125</ele>
        <time>2021-03-09T16:37:40.000Z</time>
      </trkpt>
      <trkpt lat="17.87825622595846652984619140625" lon="-92.482871599495410919189453125">
        <ele>12.80000019073486328125</ele>
        <time>2021-03-09T16:37:41.000Z</time>
      </trkpt>
      <trkpt lat="17.87817726843059062957763671875" lon="-92.482676468789577484130859375">
        <ele>12.80000019073486328125</ele>
        <time>2021-03-09T16:37:45.000Z</time>
      </trkpt>
      <trkpt lat="17.87814457900822162628173828125" lon="-92.482596337795257568359375">
        <ele>12.80000019073486328125</ele>
        <time>2021-03-09T16:37:47.000Z</time>
      </trkpt>
      <trkpt lat="17.8780836425721645355224609375" lon="-92.48251117765903472900390625">
        <ele>12.80000019073486328125</ele>
        <time>2021-03-09T16:37:51.000Z</time>
      </trkpt>
      <trkpt lat="17.8780836425721645355224609375" lon="-92.48251117765903472900390625">
        <ele>12.80000019073486328125</ele>
        <time>2021-03-09T16:37:53.000Z</time>
      </trkpt>
      <trkpt lat="17.878206185996532440185546875" lon="-92.48286120593547821044921875">
        <ele>12.80000019073486328125</ele>
        <time>2021-03-09T18:11:12.000Z</time>
      </trkpt>
      <trkpt lat="17.87826544605195522308349609375" lon="-92.48295919038355350494384765625">
        <ele>12.80000019073486328125</ele>
        <time>2021-03-09T18:11:17.000Z</time>
      </trkpt>
      <trkpt lat="17.8782789409160614013671875" lon="-92.4829723499715328216552734375">
        <ele>12.80000019073486328125</ele>
        <time>2021-03-09T18:11:18.000Z</time>
      </trkpt>
      <trkpt lat="17.8782878257334232330322265625" lon="-92.48298869468271732330322265625">
        <ele>12.80000019073486328125</ele>
        <time>2021-03-09T18:11:19.000Z</time>
      </trkpt>
      <trkpt lat="17.87832261063158512115478515625" lon="-92.48305407352745532989501953125">
        <ele>12.80000019073486328125</ele>
        <time>2021-03-09T18:11:24.000Z</time>
      </trkpt>
      <trkpt lat="17.87836200557649135589599609375" lon="-92.4831171892583370208740234375">
        <ele>12.80000019073486328125</ele>
        <time>2021-03-09T18:11:28.000Z</time>
      </trkpt>
      <trkpt lat="17.8783967904746532440185546875" lon="-92.48318265192210674285888671875">
        <ele>12.80000019073486328125</ele>
        <time>2021-03-09T18:11:31.000Z</time>
      </trkpt>
      <trkpt lat="17.87846895866096019744873046875" lon="-92.48333956114947795867919921875">
        <ele>13.19999980926513671875</ele>
        <time>2021-03-09T18:11:37.000Z</time>
      </trkpt>
      <trkpt lat="17.878514640033245086669921875" lon="-92.483436875045299530029296875">
        <ele>13.19999980926513671875</ele>
        <time>2021-03-09T18:11:40.000Z</time>
      </trkpt>
      <trkpt lat="17.8786096908152103424072265625" lon="-92.483625300228595733642578125">
        <ele>13.19999980926513671875</ele>
        <time>2021-03-09T18:11:46.000Z</time>
      </trkpt>
      <trkpt lat="17.87865285761654376983642578125" lon="-92.48372621834278106689453125">
        <ele>13.19999980926513671875</ele>
        <time>2021-03-09T18:11:49.000Z</time>
      </trkpt>
      <trkpt lat="17.87869979627430438995361328125" lon="-92.48386435210704803466796875">
        <ele>13</ele>
        <time>2021-03-09T18:11:53.000Z</time>
      </trkpt>
      <trkpt lat="17.8787059150636196136474609375" lon="-92.48389913700520992279052734375">
        <ele>13</ele>
        <time>2021-03-09T18:11:54.000Z</time>
      </trkpt>
      <trkpt lat="17.8787696175277233123779296875" lon="-92.4840566329658031463623046875">
        <ele>12.80000019073486328125</ele>
        <time>2021-03-09T18:11:59.000Z</time>
      </trkpt>
      <trkpt lat="17.87881948985159397125244140625" lon="-92.48414330184459686279296875">
        <ele>12.6000003814697265625</ele>
        <time>2021-03-09T18:12:04.000Z</time>
      </trkpt>
      <trkpt lat="17.8788480721414089202880859375" lon="-92.4842329882085323333740234375">
        <ele>12.80000019073486328125</ele>
        <time>2021-03-09T18:12:09.000Z</time>
      </trkpt>
      <trkpt lat="17.87885628640651702880859375" lon="-92.48424648307263851165771484375">
        <ele>12.80000019073486328125</ele>
        <time>2021-03-09T18:12:10.000Z</time>
      </trkpt>
      <trkpt lat="17.87888486869633197784423828125" lon="-92.4843282066285610198974609375">
        <ele>13</ele>
        <time>2021-03-09T18:12:17.000Z</time>
      </trkpt>
      <trkpt lat="17.87887045182287693023681640625" lon="-92.4843436293303966522216796875">
        <ele>13</ele>
        <time>2021-03-09T18:12:19.000Z</time>
      </trkpt>
      <trkpt lat="17.8788435459136962890625" lon="-92.4843473173677921295166015625">
        <ele>13</ele>
        <time>2021-03-09T18:12:21.000Z</time>
      </trkpt>
      <trkpt lat="17.8787179850041866302490234375" lon="-92.48443256132304668426513671875">
        <ele>13</ele>
        <time>2021-03-09T18:12:30.000Z</time>
      </trkpt>
      <trkpt lat="17.878677584230899810791015625" lon="-92.48446759767830371856689453125">
        <ele>13</ele>
        <time>2021-03-09T18:12:33.000Z</time>
      </trkpt>
      <trkpt lat="17.87861346267163753509521484375" lon="-92.48450447805225849151611328125">
        <ele>13</ele>
        <time>2021-03-09T18:12:37.000Z</time>
      </trkpt>
      <trkpt lat="17.87858043797314167022705078125" lon="-92.48452861793339252471923828125">
        <ele>13</ele>
        <time>2021-03-09T18:12:39.000Z</time>
      </trkpt>
      <trkpt lat="17.878420092165470123291015625" lon="-92.48461042530834674835205078125">
        <ele>13.19999980926513671875</ele>
        <time>2021-03-09T18:12:46.000Z</time>
      </trkpt>
      <trkpt lat="17.87828497588634490966796875" lon="-92.48470128513872623443603515625">
        <ele>13.19999980926513671875</ele>
        <time>2021-03-09T18:12:51.000Z</time>
      </trkpt>
      <trkpt lat="17.87812747992575168609619140625" lon="-92.484769932925701141357421875">
        <ele>13.3999996185302734375</ele>
        <time>2021-03-09T18:12:56.000Z</time>
      </trkpt>
      <trkpt lat="17.87810149602591991424560546875" lon="-92.48477898538112640380859375">
        <ele>13.3999996185302734375</ele>
        <time>2021-03-09T18:12:57.000Z</time>
      </trkpt>
      <trkpt lat="17.8779689781367778778076171875" lon="-92.48482701368629932403564453125">
        <ele>13.6000003814697265625</ele>
        <time>2021-03-09T18:13:02.000Z</time>
      </trkpt>
      <trkpt lat="17.87791910581290721893310546875" lon="-92.48485668562352657318115234375">
        <ele>13.6000003814697265625</ele>
        <time>2021-03-09T18:13:04.000Z</time>
      </trkpt>
      <trkpt lat="17.87782757543027400970458984375" lon="-92.4849105812609195709228515625">
        <ele>13.80000019073486328125</ele>
        <time>2021-03-09T18:13:08.000Z</time>
      </trkpt>
      <trkpt lat="17.87777929566800594329833984375" lon="-92.4849306978285312652587890625">
        <ele>13.80000019073486328125</ele>
        <time>2021-03-09T18:13:10.000Z</time>
      </trkpt>
      <trkpt lat="17.87772682495415210723876953125" lon="-92.484950982034206390380859375">
        <ele>13.80000019073486328125</ele>
        <time>2021-03-09T18:13:12.000Z</time>
      </trkpt>
      <trkpt lat="17.87760101258754730224609375" lon="-92.485010325908660888671875">
        <ele>14</ele>
        <time>2021-03-09T18:13:17.000Z</time>
      </trkpt>
      <trkpt lat="17.87746598012745380401611328125" lon="-92.4850674904882907867431640625">
        <ele>14.19999980926513671875</ele>
        <time>2021-03-09T18:13:22.000Z</time>
      </trkpt>
      <trkpt lat="17.87741719745099544525146484375" lon="-92.48509976081550121307373046875">
        <ele>14.3999996185302734375</ele>
        <time>2021-03-09T18:13:24.000Z</time>
      </trkpt>
      <trkpt lat="17.8773376531898975372314453125" lon="-92.4851321987807750701904296875">
        <ele>14.6000003814697265625</ele>
        <time>2021-03-09T18:13:27.000Z</time>
      </trkpt>
      <trkpt lat="17.8773101605474948883056640625" lon="-92.48514871113002300262451171875">
        <ele>14.6000003814697265625</ele>
        <time>2021-03-09T18:13:28.000Z</time>
      </trkpt>
      <trkpt lat="17.877256013453006744384765625" lon="-92.48517327010631561279296875">
        <ele>14.80000019073486328125</ele>
        <time>2021-03-09T18:13:30.000Z</time>
      </trkpt>
      <trkpt lat="17.8771284408867359161376953125" lon="-92.4852284230291843414306640625">
        <ele>15</ele>
        <time>2021-03-09T18:13:35.000Z</time>
      </trkpt>
      <trkpt lat="17.87697295658290386199951171875" lon="-92.48530645854771137237548828125">
        <ele>15.3999996185302734375</ele>
        <time>2021-03-09T18:13:41.000Z</time>
      </trkpt>
      <trkpt lat="17.876873798668384552001953125" lon="-92.48539664782583713531494140625">
        <ele>15.6000003814697265625</ele>
        <time>2021-03-09T18:13:46.000Z</time>
      </trkpt>
      <trkpt lat="17.876873128116130828857421875" lon="-92.48542003333568572998046875">
        <ele>15.6000003814697265625</ele>
        <time>2021-03-09T18:13:47.000Z</time>
      </trkpt>
      <trkpt lat="17.87689819000661373138427734375" lon="-92.48554014600813388824462890625">
        <ele>15.6000003814697265625</ele>
        <time>2021-03-09T18:13:53.000Z</time>
      </trkpt>
      <trkpt lat="17.8769121877849102020263671875" lon="-92.4855546467006206512451171875">
        <ele>15.6000003814697265625</ele>
        <time>2021-03-09T18:13:54.000Z</time>
      </trkpt>
      <trkpt lat="17.876973040401935577392578125" lon="-92.4856626056134700775146484375">
        <ele>15.6000003814697265625</ele>
        <time>2021-03-09T18:14:00.000Z</time>
      </trkpt>
      <trkpt lat="17.87699055857956409454345703125" lon="-92.48567886650562286376953125">
        <ele>15.6000003814697265625</ele>
        <time>2021-03-09T18:14:02.000Z</time>
      </trkpt>
      <trkpt lat="17.87697982974350452423095703125" lon="-92.48569470830261707305908203125">
        <ele>15.6000003814697265625</ele>
        <time>2021-03-09T18:14:03.000Z</time>
      </trkpt>
      <trkpt lat="17.87691277451813220977783203125" lon="-92.48573695309460163116455078125">
        <ele>15.6000003814697265625</ele>
        <time>2021-03-09T18:14:06.000Z</time>
      </trkpt>
      <trkpt lat="17.87685946561396121978759765625" lon="-92.4857564829289913177490234375">
        <ele>15.80000019073486328125</ele>
        <time>2021-03-09T18:14:08.000Z</time>
      </trkpt>
      <trkpt lat="17.87669467739760875701904296875" lon="-92.4858168326318264007568359375">
        <ele>16</ele>
        <time>2021-03-09T18:14:14.000Z</time>
      </trkpt>
      <trkpt lat="17.87643685005605220794677734375" lon="-92.4858895875513553619384765625">
        <ele>15.6000003814697265625</ele>
        <time>2021-03-09T18:14:23.000Z</time>
      </trkpt>
      <trkpt lat="17.87618614733219146728515625" lon="-92.485962845385074615478515625">
        <ele>15.3999996185302734375</ele>
        <time>2021-03-09T18:14:32.000Z</time>
      </trkpt>
      <trkpt lat="17.87600350566208362579345703125" lon="-92.48601892031729221343994140625">
        <ele>15.19999980926513671875</ele>
        <time>2021-03-09T18:14:38.000Z</time>
      </trkpt>
      <trkpt lat="17.8759070299565792083740234375" lon="-92.48604373075067996978759765625">
        <ele>15</ele>
        <time>2021-03-09T18:14:41.000Z</time>
      </trkpt>
      <trkpt lat="17.87563000805675983428955078125" lon="-92.4861115403473377227783203125">
        <ele>14.3999996185302734375</ele>
        <time>2021-03-09T18:14:50.000Z</time>
      </trkpt>
      <trkpt lat="17.87548114545643329620361328125" lon="-92.48615185730159282684326171875">
        <ele>14.19999980926513671875</ele>
        <time>2021-03-09T18:14:54.000Z</time>
      </trkpt>
      <trkpt lat="17.875436805188655853271484375" lon="-92.48617080040276050567626953125">
        <ele>14</ele>
        <time>2021-03-09T18:14:55.000Z</time>
      </trkpt>
      <trkpt lat="17.87535122595727443695068359375" lon="-92.48620432801544666290283203125">
        <ele>13.80000019073486328125</ele>
        <time>2021-03-09T18:14:57.000Z</time>
      </trkpt>
      <trkpt lat="17.87525114603340625762939453125" lon="-92.48622880317270755767822265625">
        <ele>13.80000019073486328125</ele>
        <time>2021-03-09T18:14:59.000Z</time>
      </trkpt>
      <trkpt lat="17.87505626678466796875" lon="-92.48629451729357242584228515625">
        <ele>13.3999996185302734375</ele>
        <time>2021-03-09T18:15:03.000Z</time>
      </trkpt>
      <trkpt lat="17.8749558515846729278564453125" lon="-92.4863200820982456207275390625">
        <ele>13.19999980926513671875</ele>
        <time>2021-03-09T18:15:05.000Z</time>
      </trkpt>
      <trkpt lat="17.87476113997399806976318359375" lon="-92.4863841198384761810302734375">
        <ele>13</ele>
        <time>2021-03-09T18:15:09.000Z</time>
      </trkpt>
      <trkpt lat="17.874611355364322662353515625" lon="-92.486426196992397308349609375">
        <ele>12.80000019073486328125</ele>
        <time>2021-03-09T18:15:12.000Z</time>
      </trkpt>
      <trkpt lat="17.8742621652781963348388671875" lon="-92.48653876595199108123779296875">
        <ele>11.80000019073486328125</ele>
        <time>2021-03-09T18:15:19.000Z</time>
      </trkpt>
      <trkpt lat="17.87421111948788166046142578125" lon="-92.48655267991125583648681640625">
        <ele>11.6000003814697265625</ele>
        <time>2021-03-09T18:15:20.000Z</time>
      </trkpt>
      <trkpt lat="17.8741081058979034423828125" lon="-92.48657095246016979217529296875">
        <ele>11.3999996185302734375</ele>
        <time>2021-03-09T18:15:22.000Z</time>
      </trkpt>
      <trkpt lat="17.874015904963016510009765625" lon="-92.48659484088420867919921875">
        <ele>11.3999996185302734375</ele>
        <time>2021-03-09T18:15:24.000Z</time>
      </trkpt>
      <trkpt lat="17.87373016588389873504638671875" lon="-92.48667673207819461822509765625">
        <ele>10.80000019073486328125</ele>
        <time>2021-03-09T18:15:30.000Z</time>
      </trkpt>
      <trkpt lat="17.873634360730648040771484375" lon="-92.4866987764835357666015625">
        <ele>10.6000003814697265625</ele>
        <time>2021-03-09T18:15:32.000Z</time>
      </trkpt>
      <trkpt lat="17.873344682157039642333984375" lon="-92.4867763929069042205810546875">
        <ele>10.3999996185302734375</ele>
        <time>2021-03-09T18:15:39.000Z</time>
      </trkpt>
      <trkpt lat="17.87322741933166980743408203125" lon="-92.48682106845080852508544921875">
        <ele>10.6000003814697265625</ele>
        <time>2021-03-09T18:15:42.000Z</time>
      </trkpt>
      <trkpt lat="17.87315114401280879974365234375" lon="-92.48684286139905452728271484375">
        <ele>10.6000003814697265625</ele>
        <time>2021-03-09T18:15:44.000Z</time>
      </trkpt>
      <trkpt lat="17.87311233580112457275390625" lon="-92.486855685710906982421875">
        <ele>10.6000003814697265625</ele>
        <time>2021-03-09T18:15:45.000Z</time>
      </trkpt>
      <trkpt lat="17.8729572705924510955810546875" lon="-92.48690572567284107208251953125">
        <ele>10.80000019073486328125</ele>
        <time>2021-03-09T18:15:49.000Z</time>
      </trkpt>
      <trkpt lat="17.87284268997609615325927734375" lon="-92.4869369901716709136962890625">
        <ele>11</ele>
        <time>2021-03-09T18:15:52.000Z</time>
      </trkpt>
      <trkpt lat="17.8727272711694240570068359375" lon="-92.48696808703243732452392578125">
        <ele>11</ele>
        <time>2021-03-09T18:15:55.000Z</time>
      </trkpt>
      <trkpt lat="17.87257698364555835723876953125" lon="-92.48700764961540699005126953125">
        <ele>11.19999980926513671875</ele>
        <time>2021-03-09T18:15:59.000Z</time>
      </trkpt>
      <trkpt lat="17.8725401870906352996826171875" lon="-92.4870211444795131683349609375">
        <ele>11.3999996185302734375</ele>
        <time>2021-03-09T18:16:00.000Z</time>
      </trkpt>
      <trkpt lat="17.87246835418045520782470703125" lon="-92.48704134486615657806396484375">
        <ele>11.80000019073486328125</ele>
        <time>2021-03-09T18:16:02.000Z</time>
      </trkpt>
      <trkpt lat="17.87216953933238983154296875" lon="-92.4871332943439483642578125">
        <ele>13.6000003814697265625</ele>
        <time>2021-03-09T18:16:11.000Z</time>
      </trkpt>
      <trkpt lat="17.8719420544803142547607421875" lon="-92.48719925992190837860107421875">
        <ele>15.19999980926513671875</ele>
        <time>2021-03-09T18:16:19.000Z</time>
      </trkpt>
      <trkpt lat="17.8717288188636302947998046875" lon="-92.48726530931890010833740234375">
        <ele>16.799999237060546875</ele>
        <time>2021-03-09T18:16:28.000Z</time>
      </trkpt>
      <trkpt lat="17.8715413995087146759033203125" lon="-92.487316690385341644287109375">
        <ele>16.799999237060546875</ele>
        <time>2021-03-09T18:16:34.000Z</time>
      </trkpt>
      <trkpt lat="17.87122816778719425201416015625" lon="-92.48740914277732372283935546875">
        <ele>16.799999237060546875</ele>
        <time>2021-03-09T18:16:43.000Z</time>
      </trkpt>
      <trkpt lat="17.87119262851774692535400390625" lon="-92.4874228052794933319091796875">
        <ele>17</ele>
        <time>2021-03-09T18:16:44.000Z</time>
      </trkpt>
      <trkpt lat="17.8708483837544918060302734375" lon="-92.48753897845745086669921875">
        <ele>16.799999237060546875</ele>
        <time>2021-03-09T18:16:53.000Z</time>
      </trkpt>
      <trkpt lat="17.8704846091568470001220703125" lon="-92.48765137977898120880126953125">
        <ele>14.6000003814697265625</ele>
        <time>2021-03-09T18:17:01.000Z</time>
      </trkpt>
      <trkpt lat="17.8703337348997592926025390625" lon="-92.4876903556287288665771484375">
        <ele>13.6000003814697265625</ele>
        <time>2021-03-09T18:17:04.000Z</time>
      </trkpt>
      <trkpt lat="17.8702296316623687744140625" lon="-92.4877171777188777923583984375">
        <ele>13</ele>
        <time>2021-03-09T18:17:06.000Z</time>
      </trkpt>
      <trkpt lat="17.87012645043432712554931640625" lon="-92.48775162734091281890869140625">
        <ele>12.3999996185302734375</ele>
        <time>2021-03-09T18:17:08.000Z</time>
      </trkpt>
      <trkpt lat="17.869706936180591583251953125" lon="-92.4878682196140289306640625">
        <ele>13.19999980926513671875</ele>
        <time>2021-03-09T18:17:16.000Z</time>
      </trkpt>
      <trkpt lat="17.86965094506740570068359375" lon="-92.487881295382976531982421875">
        <ele>13.3999996185302734375</ele>
        <time>2021-03-09T18:17:17.000Z</time>
      </trkpt>
      <trkpt lat="17.86954231560230255126953125" lon="-92.48792194761335849761962890625">
        <ele>13.3999996185302734375</ele>
        <time>2021-03-09T18:17:19.000Z</time>
      </trkpt>
      <trkpt lat="17.86948791705071926116943359375" lon="-92.4879371188580989837646484375">
        <ele>13.19999980926513671875</ele>
        <time>2021-03-09T18:17:20.000Z</time>
      </trkpt>
      <trkpt lat="17.86937735974788665771484375" lon="-92.48796813189983367919921875">
        <ele>13.19999980926513671875</ele>
        <time>2021-03-09T18:17:22.000Z</time>
      </trkpt>
      <trkpt lat="17.86921332590281963348388671875" lon="-92.48802286572754383087158203125">
        <ele>13.19999980926513671875</ele>
        <time>2021-03-09T18:17:25.000Z</time>
      </trkpt>
      <trkpt lat="17.8691002540290355682373046875" lon="-92.48805538751184940338134765625">
        <ele>13.19999980926513671875</ele>
        <time>2021-03-09T18:17:27.000Z</time>
      </trkpt>
      <trkpt lat="17.86894191987812519073486328125" lon="-92.4881020747125148773193359375">
        <ele>13.19999980926513671875</ele>
        <time>2021-03-09T18:17:30.000Z</time>
      </trkpt>
      <trkpt lat="17.86848611198365688323974609375" lon="-92.48824129812419414520263671875">
        <ele>13.6000003814697265625</ele>
        <time>2021-03-09T18:17:39.000Z</time>
      </trkpt>
      <trkpt lat="17.868134491145610809326171875" lon="-92.488345317542552947998046875">
        <ele>12.80000019073486328125</ele>
        <time>2021-03-09T18:17:46.000Z</time>
      </trkpt>
      <trkpt lat="17.86793843843042850494384765625" lon="-92.4884111993014812469482421875">
        <ele>11.80000019073486328125</ele>
        <time>2021-03-09T18:17:50.000Z</time>
      </trkpt>
      <trkpt lat="17.86779209040105342864990234375" lon="-92.48845520429313182830810546875">
        <ele>11.19999980926513671875</ele>
        <time>2021-03-09T18:17:53.000Z</time>
      </trkpt>
      <trkpt lat="17.86769092082977294921875" lon="-92.48847951181232929229736328125">
        <ele>10.6000003814697265625</ele>
        <time>2021-03-09T18:17:55.000Z</time>
      </trkpt>
      <trkpt lat="17.86753459833562374114990234375" lon="-92.48854086734354496002197265625">
        <ele>10</ele>
        <time>2021-03-09T18:17:58.000Z</time>
      </trkpt>
      <trkpt lat="17.86717400886118412017822265625" lon="-92.4886579625308513641357421875">
        <ele>11.19999980926513671875</ele>
        <time>2021-03-09T18:18:05.000Z</time>
      </trkpt>
      <trkpt lat="17.86689707078039646148681640625" lon="-92.48873700387775897979736328125">
        <ele>11.80000019073486328125</ele>
        <time>2021-03-09T18:18:11.000Z</time>
      </trkpt>
      <trkpt lat="17.86655777134001255035400390625" lon="-92.48883574269711971282958984375">
        <ele>11.80000019073486328125</ele>
        <time>2021-03-09T18:18:19.000Z</time>
      </trkpt>
      <trkpt lat="17.86612845025956630706787109375" lon="-92.48896080069243907928466796875">
        <ele>11</ele>
        <time>2021-03-09T18:18:30.000Z</time>
      </trkpt>
      <trkpt lat="17.86579736508429050445556640625" lon="-92.4890653230249881744384765625">
        <ele>10.80000019073486328125</ele>
        <time>2021-03-09T18:18:39.000Z</time>
      </trkpt>
      <trkpt lat="17.8657213412225246429443359375" lon="-92.489081583917140960693359375">
        <ele>10.80000019073486328125</ele>
        <time>2021-03-09T18:18:41.000Z</time>
      </trkpt>
      <trkpt lat="17.8655265457928180694580078125" lon="-92.48911720700562000274658203125">
        <ele>10.80000019073486328125</ele>
        <time>2021-03-09T18:18:46.000Z</time>
      </trkpt>
      <trkpt lat="17.8653250448405742645263671875" lon="-92.48917403630912303924560546875">
        <ele>11</ele>
        <time>2021-03-09T18:18:51.000Z</time>
      </trkpt>
      <trkpt lat="17.86528388969600200653076171875" lon="-92.48919197358191013336181640625">
        <ele>11</ele>
        <time>2021-03-09T18:18:52.000Z</time>
      </trkpt>
      <trkpt lat="17.86524600349366664886474609375" lon="-92.489201612770557403564453125">
        <ele>11</ele>
        <time>2021-03-09T18:18:53.000Z</time>
      </trkpt>
      <trkpt lat="17.86513410508632659912109375" lon="-92.48924226500093936920166015625">
        <ele>11</ele>
        <time>2021-03-09T18:18:56.000Z</time>
      </trkpt>
      <trkpt lat="17.8650212846696376800537109375" lon="-92.48929071240127086639404296875">
        <ele>11.3999996185302734375</ele>
        <time>2021-03-09T18:18:59.000Z</time>
      </trkpt>
      <trkpt lat="17.86484149284660816192626953125" lon="-92.4893546663224697113037109375">
        <ele>12.19999980926513671875</ele>
        <time>2021-03-09T18:19:04.000Z</time>
      </trkpt>
      <trkpt lat="17.86455064080655574798583984375" lon="-92.48944845981895923614501953125">
        <ele>13.80000019073486328125</ele>
        <time>2021-03-09T18:19:12.000Z</time>
      </trkpt>
      <trkpt lat="17.8644214756786823272705078125" lon="-92.4894869327545166015625">
        <ele>14.3999996185302734375</ele>
        <time>2021-03-09T18:19:15.000Z</time>
      </trkpt>
      <trkpt lat="17.8642675839364528656005859375" lon="-92.489536888897418975830078125">
        <ele>15.19999980926513671875</ele>
        <time>2021-03-09T18:19:19.000Z</time>
      </trkpt>
      <trkpt lat="17.86398737691342830657958984375" lon="-92.489607296884059906005859375">
        <ele>16.200000762939453125</ele>
        <time>2021-03-09T18:19:26.000Z</time>
      </trkpt>
      <trkpt lat="17.8638712875545024871826171875" lon="-92.48964576981961727142333984375">
        <ele>16.3999996185302734375</ele>
        <time>2021-03-09T18:19:29.000Z</time>
      </trkpt>
      <trkpt lat="17.86350038833916187286376953125" lon="-92.48975322581827640533447265625">
        <ele>17</ele>
        <time>2021-03-09T18:19:38.000Z</time>
      </trkpt>
      <trkpt lat="17.8631427325308322906494140625" lon="-92.48988297767937183380126953125">
        <ele>16.799999237060546875</ele>
        <time>2021-03-09T18:19:47.000Z</time>
      </trkpt>
      <trkpt lat="17.86286369897425174713134765625" lon="-92.48996579088270664215087890625">
        <ele>16.6000003814697265625</ele>
        <time>2021-03-09T18:19:54.000Z</time>
      </trkpt>
      <trkpt lat="17.862817011773586273193359375" lon="-92.48998138122260570526123046875">
        <ele>16.6000003814697265625</ele>
        <time>2021-03-09T18:19:55.000Z</time>
      </trkpt>
      <trkpt lat="17.86243035458028316497802734375" lon="-92.49009604565799236297607421875">
        <ele>16.200000762939453125</ele>
        <time>2021-03-09T18:20:05.000Z</time>
      </trkpt>
      <trkpt lat="17.86208367906510829925537109375" lon="-92.49020081944763660430908203125">
        <ele>16.799999237060546875</ele>
        <time>2021-03-09T18:20:14.000Z</time>
      </trkpt>
      <trkpt lat="17.8619719482958316802978515625" lon="-92.49023669399321079254150390625">
        <ele>17</ele>
        <time>2021-03-09T18:20:17.000Z</time>
      </trkpt>
      <trkpt lat="17.86173800937831401824951171875" lon="-92.49032369814813137054443359375">
        <ele>17.3999996185302734375</ele>
        <time>2021-03-09T18:20:23.000Z</time>
      </trkpt>
      <trkpt lat="17.8613754920661449432373046875" lon="-92.49045965261757373809814453125">
        <ele>17.200000762939453125</ele>
        <time>2021-03-09T18:20:32.000Z</time>
      </trkpt>
      <trkpt lat="17.861094363033771514892578125" lon="-92.4905777536332607269287109375">
        <ele>17</ele>
        <time>2021-03-09T18:20:40.000Z</time>
      </trkpt>
      <trkpt lat="17.86083997227251529693603515625" lon="-92.49067439697682857513427734375">
        <ele>16.799999237060546875</ele>
        <time>2021-03-09T18:20:47.000Z</time>
      </trkpt>
      <trkpt lat="17.860542498528957366943359375" lon="-92.49080054461956024169921875">
        <ele>17.3999996185302734375</ele>
        <time>2021-03-09T18:20:55.000Z</time>
      </trkpt>
      <trkpt lat="17.8604015149176120758056640625" lon="-92.49085058458149433135986328125">
        <ele>17.6000003814697265625</ele>
        <time>2021-03-09T18:21:00.000Z</time>
      </trkpt>
      <trkpt lat="17.86027838476002216339111328125" lon="-92.490907497704029083251953125">
        <ele>17.799999237060546875</ele>
        <time>2021-03-09T18:21:04.000Z</time>
      </trkpt>
      <trkpt lat="17.8601031191647052764892578125" lon="-92.4909908138215541839599609375">
        <ele>18.200000762939453125</ele>
        <time>2021-03-09T18:21:10.000Z</time>
      </trkpt>
      <trkpt lat="17.85987890325486660003662109375" lon="-92.491083182394504547119140625">
        <ele>17.799999237060546875</ele>
        <time>2021-03-09T18:21:18.000Z</time>
      </trkpt>
      <trkpt lat="17.859613113105297088623046875" lon="-92.491195499897003173828125">
        <ele>17.3999996185302734375</ele>
        <time>2021-03-09T18:21:27.000Z</time>
      </trkpt>
      <trkpt lat="17.85943902097642421722412109375" lon="-92.49128342606127262115478515625">
        <ele>17.200000762939453125</ele>
        <time>2021-03-09T18:21:33.000Z</time>
      </trkpt>
      <trkpt lat="17.8592391125857830047607421875" lon="-92.49138233251869678497314453125">
        <ele>17</ele>
        <time>2021-03-09T18:21:39.000Z</time>
      </trkpt>
      <trkpt lat="17.85906485281884670257568359375" lon="-92.4914786405861377716064453125">
        <ele>17</ele>
        <time>2021-03-09T18:21:44.000Z</time>
      </trkpt>
      <trkpt lat="17.8586644493043422698974609375" lon="-92.49169313348829746246337890625">
        <ele>17</ele>
        <time>2021-03-09T18:21:55.000Z</time>
      </trkpt>
      <trkpt lat="17.8586272336542606353759765625" lon="-92.4917150102555751800537109375">
        <ele>17</ele>
        <time>2021-03-09T18:21:56.000Z</time>
      </trkpt>
      <trkpt lat="17.85844140686094760894775390625" lon="-92.49180980958044528961181640625">
        <ele>16.799999237060546875</ele>
        <time>2021-03-09T18:22:01.000Z</time>
      </trkpt>
      <trkpt lat="17.858337722718715667724609375" lon="-92.49187233857810497283935546875">
        <ele>16.799999237060546875</ele>
        <time>2021-03-09T18:22:04.000Z</time>
      </trkpt>
      <trkpt lat="17.85803806968033313751220703125" lon="-92.492037713527679443359375">
        <ele>17</ele>
        <time>2021-03-09T18:22:12.000Z</time>
      </trkpt>
      <trkpt lat="17.85781360231339931488037109375" lon="-92.49217308126389980316162109375">
        <ele>17</ele>
        <time>2021-03-09T18:22:19.000Z</time>
      </trkpt>
      <trkpt lat="17.85772408358752727508544921875" lon="-92.4922366999089717864990234375">
        <ele>16.799999237060546875</ele>
        <time>2021-03-09T18:22:22.000Z</time>
      </trkpt>
      <trkpt lat="17.85753549076616764068603515625" lon="-92.49235086143016815185546875">
        <ele>16.799999237060546875</ele>
        <time>2021-03-09T18:22:27.000Z</time>
      </trkpt>
      <trkpt lat="17.8573971055448055267333984375" lon="-92.4924392066895961761474609375">
        <ele>17</ele>
        <time>2021-03-09T18:22:31.000Z</time>
      </trkpt>
      <trkpt lat="17.85736047662794589996337890625" lon="-92.49246351420879364013671875">
        <ele>17</ele>
        <time>2021-03-09T18:22:32.000Z</time>
      </trkpt>
      <trkpt lat="17.8571818582713603973388671875" lon="-92.492595277726650238037109375">
        <ele>16.799999237060546875</ele>
        <time>2021-03-09T18:22:37.000Z</time>
      </trkpt>
      <trkpt lat="17.85710918717086315155029296875" lon="-92.49265537597239017486572265625">
        <ele>16.6000003814697265625</ele>
        <time>2021-03-09T18:22:39.000Z</time>
      </trkpt>
      <trkpt lat="17.8570008091628551483154296875" lon="-92.49272863380610942840576171875">
        <ele>16.3999996185302734375</ele>
        <time>2021-03-09T18:22:42.000Z</time>
      </trkpt>
      <trkpt lat="17.85691506229341030120849609375" lon="-92.49278412200510501861572265625">
        <ele>16.3999996185302734375</ele>
        <time>2021-03-09T18:22:44.000Z</time>
      </trkpt>
      <trkpt lat="17.856840379536151885986328125" lon="-92.4928254447877407073974609375">
        <ele>16.200000762939453125</ele>
        <time>2021-03-09T18:22:46.000Z</time>
      </trkpt>
      <trkpt lat="17.85672672092914581298828125" lon="-92.49290750361979007720947265625">
        <ele>16</ele>
        <time>2021-03-09T18:22:49.000Z</time>
      </trkpt>
      <trkpt lat="17.85657039843499660491943359375" lon="-92.49302283860743045806884765625">
        <ele>15.6000003814697265625</ele>
        <time>2021-03-09T18:22:53.000Z</time>
      </trkpt>
      <trkpt lat="17.8564932011067867279052734375" lon="-92.49308100901544094085693359375">
        <ele>15.3999996185302734375</ele>
        <time>2021-03-09T18:22:55.000Z</time>
      </trkpt>
      <trkpt lat="17.85641600377857685089111328125" lon="-92.49313884414732456207275390625">
        <ele>15</ele>
        <time>2021-03-09T18:22:57.000Z</time>
      </trkpt>
      <trkpt lat="17.8562662191689014434814453125" lon="-92.4932418577373027801513671875">
        <ele>14.6000003814697265625</ele>
        <time>2021-03-09T18:23:01.000Z</time>
      </trkpt>
      <trkpt lat="17.856002189218997955322265625" lon="-92.49342148192226886749267578125">
        <ele>13.80000019073486328125</ele>
        <time>2021-03-09T18:23:08.000Z</time>
      </trkpt>
      <trkpt lat="17.855888195335865020751953125" lon="-92.49350027181208133697509765625">
        <ele>13.3999996185302734375</ele>
        <time>2021-03-09T18:23:11.000Z</time>
      </trkpt>
      <trkpt lat="17.85555015318095684051513671875" lon="-92.49371987767517566680908203125">
        <ele>13</ele>
        <time>2021-03-09T18:23:20.000Z</time>
      </trkpt>
      <trkpt lat="17.85530322231352329254150390625" lon="-92.493898831307888031005859375">
        <ele>12.6000003814697265625</ele>
        <time>2021-03-09T18:23:26.000Z</time>
      </trkpt>
      <trkpt lat="17.85521755926311016082763671875" lon="-92.49396446160972118377685546875">
        <ele>12.3999996185302734375</ele>
        <time>2021-03-09T18:23:28.000Z</time>
      </trkpt>
      <trkpt lat="17.855012118816375732421875" lon="-92.494118772447109222412109375">
        <ele>12.19999980926513671875</ele>
        <time>2021-03-09T18:23:33.000Z</time>
      </trkpt>
      <trkpt lat="17.8548820316791534423828125" lon="-92.494209967553615570068359375">
        <ele>12.6000003814697265625</ele>
        <time>2021-03-09T18:23:36.000Z</time>
      </trkpt>
      <trkpt lat="17.85472252406179904937744140625" lon="-92.4943418987095355987548828125">
        <ele>13</ele>
        <time>2021-03-09T18:23:40.000Z</time>
      </trkpt>
      <trkpt lat="17.8546377830207347869873046875" lon="-92.494404427707195281982421875">
        <ele>13.19999980926513671875</ele>
        <time>2021-03-09T18:23:42.000Z</time>
      </trkpt>
      <trkpt lat="17.85459193401038646697998046875" lon="-92.4944361113011837005615234375">
        <ele>13.3999996185302734375</ele>
        <time>2021-03-09T18:23:43.000Z</time>
      </trkpt>
      <trkpt lat="17.85442178137600421905517578125" lon="-92.49455538578331470489501953125">
        <ele>13.80000019073486328125</ele>
        <time>2021-03-09T18:23:47.000Z</time>
      </trkpt>
      <trkpt lat="17.8543375432491302490234375" lon="-92.49461422674357891082763671875">
        <ele>14</ele>
        <time>2021-03-09T18:23:49.000Z</time>
      </trkpt>
      <trkpt lat="17.85424391739070415496826171875" lon="-92.4946810305118560791015625">
        <ele>14.3999996185302734375</ele>
        <time>2021-03-09T18:23:51.000Z</time>
      </trkpt>
      <trkpt lat="17.85416831262409687042236328125" lon="-92.4947331659495830535888671875">
        <ele>14.6000003814697265625</ele>
        <time>2021-03-09T18:23:53.000Z</time>
      </trkpt>
      <trkpt lat="17.85404107533395290374755859375" lon="-92.49482193030416965484619140625">
        <ele>15.3999996185302734375</ele>
        <time>2021-03-09T18:23:56.000Z</time>
      </trkpt>
      <trkpt lat="17.85382783971726894378662109375" lon="-92.494971714913845062255859375">
        <ele>16.3999996185302734375</ele>
        <time>2021-03-09T18:24:01.000Z</time>
      </trkpt>
      <trkpt lat="17.85370613448321819305419921875" lon="-92.49505863524973392486572265625">
        <ele>17.200000762939453125</ele>
        <time>2021-03-09T18:24:04.000Z</time>
      </trkpt>
      <trkpt lat="17.85351368598639965057373046875" lon="-92.4951951764523983001708984375">
        <ele>18.6000003814697265625</ele>
        <time>2021-03-09T18:24:09.000Z</time>
      </trkpt>
      <trkpt lat="17.8534364886581897735595703125" lon="-92.4952541850507259368896484375">
        <ele>19</ele>
        <time>2021-03-09T18:24:11.000Z</time>
      </trkpt>
      <trkpt lat="17.853179834783077239990234375" lon="-92.49543397687375545501708984375">
        <ele>19.799999237060546875</ele>
        <time>2021-03-09T18:24:18.000Z</time>
      </trkpt>
      <trkpt lat="17.85301630385220050811767578125" lon="-92.49555618502199649810791015625">
        <ele>20.200000762939453125</ele>
        <time>2021-03-09T18:24:23.000Z</time>
      </trkpt>
      <trkpt lat="17.85292896442115306854248046875" lon="-92.4956152774393558502197265625">
        <ele>20.200000762939453125</ele>
        <time>2021-03-09T18:24:26.000Z</time>
      </trkpt>
      <trkpt lat="17.8528504259884357452392578125" lon="-92.49567068181931972503662109375">
        <ele>20.3999996185302734375</ele>
        <time>2021-03-09T18:24:29.000Z</time>
      </trkpt>
      <trkpt lat="17.8525912575423717498779296875" lon="-92.49586229212582111358642578125">
        <ele>20.799999237060546875</ele>
        <time>2021-03-09T18:24:37.000Z</time>
      </trkpt>
      <trkpt lat="17.8524775989353656768798828125" lon="-92.49593940563499927520751953125">
        <ele>20.3999996185302734375</ele>
        <time>2021-03-09T18:24:40.000Z</time>
      </trkpt>
      <trkpt lat="17.85227291285991668701171875" lon="-92.49608407728374004364013671875">
        <ele>19.3999996185302734375</ele>
        <time>2021-03-09T18:24:45.000Z</time>
      </trkpt>
      <trkpt lat="17.85190905444324016571044921875" lon="-92.496346347033977508544921875">
        <ele>17.3999996185302734375</ele>
        <time>2021-03-09T18:24:53.000Z</time>
      </trkpt>
      <trkpt lat="17.85166698507964611053466796875" lon="-92.49651767313480377197265625">
        <ele>16.200000762939453125</ele>
        <time>2021-03-09T18:24:58.000Z</time>
      </trkpt>
      <trkpt lat="17.8516151010990142822265625" lon="-92.49655564315617084503173828125">
        <ele>16.200000762939453125</ele>
        <time>2021-03-09T18:24:59.000Z</time>
      </trkpt>
      <trkpt lat="17.851463221013545989990234375" lon="-92.4966640211641788482666015625">
        <ele>15.6000003814697265625</ele>
        <time>2021-03-09T18:25:02.000Z</time>
      </trkpt>
      <trkpt lat="17.85135970450937747955322265625" lon="-92.4967297352850437164306640625">
        <ele>16</ele>
        <time>2021-03-09T18:25:04.000Z</time>
      </trkpt>
      <trkpt lat="17.85131243057548999786376953125" lon="-92.49676384963095188140869140625">
        <ele>16</ele>
        <time>2021-03-09T18:25:05.000Z</time>
      </trkpt>
      <trkpt lat="17.85091177560389041900634765625" lon="-92.4970467388629913330078125">
        <ele>17.3999996185302734375</ele>
        <time>2021-03-09T18:25:14.000Z</time>
      </trkpt>
      <trkpt lat="17.85044792108237743377685546875" lon="-92.49737505801022052764892578125">
        <ele>19.799999237060546875</ele>
        <time>2021-03-09T18:25:25.000Z</time>
      </trkpt>
      <trkpt lat="17.85000233910977840423583984375" lon="-92.49767999164760112762451171875">
        <ele>21.6000003814697265625</ele>
        <time>2021-03-09T18:25:36.000Z</time>
      </trkpt>
      <trkpt lat="17.8498456813395023345947265625" lon="-92.4978009425103664398193359375">
        <ele>22</ele>
        <time>2021-03-09T18:25:40.000Z</time>
      </trkpt>
      <trkpt lat="17.84960822202265262603759765625" lon="-92.497973106801509857177734375">
        <ele>22.6000003814697265625</ele>
        <time>2021-03-09T18:25:46.000Z</time>
      </trkpt>
      <trkpt lat="17.84931167028844356536865234375" lon="-92.49817720614373683929443359375">
        <ele>23.6000003814697265625</ele>
        <time>2021-03-09T18:25:54.000Z</time>
      </trkpt>
      <trkpt lat="17.84925316460430622100830078125" lon="-92.49821810983121395111083984375">
        <ele>23.799999237060546875</ele>
        <time>2021-03-09T18:25:56.000Z</time>
      </trkpt>
      <trkpt lat="17.84903624095022678375244140625" lon="-92.49837032519280910491943359375">
        <ele>24</ele>
        <time>2021-03-09T18:26:03.000Z</time>
      </trkpt>
      <trkpt lat="17.84884915687143802642822265625" lon="-92.49850477091968059539794921875">
        <ele>23.799999237060546875</ele>
        <time>2021-03-09T18:26:10.000Z</time>
      </trkpt>
      <trkpt lat="17.84863449633121490478515625" lon="-92.498667128384113311767578125">
        <ele>23.6000003814697265625</ele>
        <time>2021-03-09T18:26:17.000Z</time>
      </trkpt>
      <trkpt lat="17.8485010564327239990234375" lon="-92.49876276589930057525634765625">
        <ele>23.3999996185302734375</ele>
        <time>2021-03-09T18:26:21.000Z</time>
      </trkpt>
      <trkpt lat="17.8484301455318927764892578125" lon="-92.49880836345255374908447265625">
        <ele>23.200000762939453125</ele>
        <time>2021-03-09T18:26:23.000Z</time>
      </trkpt>
      <trkpt lat="17.8483875654637813568115234375" lon="-92.49883644282817840576171875">
        <ele>23.200000762939453125</ele>
        <time>2021-03-09T18:26:24.000Z</time>
      </trkpt>
      <trkpt lat="17.848213054239749908447265625" lon="-92.498964853584766387939453125">
        <ele>23</ele>
        <time>2021-03-09T18:26:28.000Z</time>
      </trkpt>
      <trkpt lat="17.84789462573826313018798828125" lon="-92.49919108115136623382568359375">
        <ele>22.3999996185302734375</ele>
        <time>2021-03-09T18:26:35.000Z</time>
      </trkpt>
      <trkpt lat="17.84754727967083454132080078125" lon="-92.499431557953357696533203125">
        <ele>21.799999237060546875</ele>
        <time>2021-03-09T18:26:43.000Z</time>
      </trkpt>
      <trkpt lat="17.847502939403057098388671875" lon="-92.49945376999676227569580078125">
        <ele>21.6000003814697265625</ele>
        <time>2021-03-09T18:26:44.000Z</time>
      </trkpt>
      <trkpt lat="17.84740495495498180389404296875" lon="-92.49950020574033260345458984375">
        <ele>21.6000003814697265625</ele>
        <time>2021-03-09T18:26:46.000Z</time>
      </trkpt>
      <trkpt lat="17.8472379036247730255126953125" lon="-92.49960632063448429107666015625">
        <ele>21.200000762939453125</ele>
        <time>2021-03-09T18:26:49.000Z</time>
      </trkpt>
      <trkpt lat="17.8468422777950763702392578125" lon="-92.49986783601343631744384765625">
        <ele>20.3999996185302734375</ele>
        <time>2021-03-09T18:26:56.000Z</time>
      </trkpt>
      <trkpt lat="17.84655972383916378021240234375" lon="-92.5000762939453125">
        <ele>19.6000003814697265625</ele>
        <time>2021-03-09T18:27:02.000Z</time>
      </trkpt>
      <trkpt lat="17.84644338302314281463623046875" lon="-92.500180900096893310546875">
        <ele>19.200000762939453125</ele>
        <time>2021-03-09T18:27:05.000Z</time>
      </trkpt>
      <trkpt lat="17.84636291675269603729248046875" lon="-92.5002645514905452728271484375">
        <ele>19</ele>
        <time>2021-03-09T18:27:07.000Z</time>
      </trkpt>
      <trkpt lat="17.84631815738976001739501953125" lon="-92.50030905939638614654541015625">
        <ele>18.799999237060546875</ele>
        <time>2021-03-09T18:27:08.000Z</time>
      </trkpt>
      <trkpt lat="17.84626803360879421234130859375" lon="-92.50034962780773639678955078125">
        <ele>18.6000003814697265625</ele>
        <time>2021-03-09T18:27:09.000Z</time>
      </trkpt>
      <trkpt lat="17.8460976295173168182373046875" lon="-92.50045574270188808441162109375">
        <ele>18.200000762939453125</ele>
        <time>2021-03-09T18:27:12.000Z</time>
      </trkpt>
      <trkpt lat="17.84577484242618083953857421875" lon="-92.50065020285546779632568359375">
        <ele>17.799999237060546875</ele>
        <time>2021-03-09T18:27:19.000Z</time>
      </trkpt>
      <trkpt lat="17.84569806419312953948974609375" lon="-92.5006990693509578704833984375">
        <ele>17.799999237060546875</ele>
        <time>2021-03-09T18:27:21.000Z</time>
      </trkpt>
      <trkpt lat="17.84562815912067890167236328125" lon="-92.5007570721209049224853515625">
        <ele>17.799999237060546875</ele>
        <time>2021-03-09T18:27:23.000Z</time>
      </trkpt>
      <trkpt lat="17.8455916978418827056884765625" lon="-92.50078263692557811737060546875">
        <ele>17.799999237060546875</ele>
        <time>2021-03-09T18:27:24.000Z</time>
      </trkpt>
      <trkpt lat="17.8454344533383846282958984375" lon="-92.50089243985712528228759765625">
        <ele>18.3999996185302734375</ele>
        <time>2021-03-09T18:27:30.000Z</time>
      </trkpt>
      <trkpt lat="17.845422215759754180908203125" lon="-92.5008930265903472900390625">
        <ele>18.3999996185302734375</ele>
        <time>2021-03-09T18:27:31.000Z</time>
      </trkpt>
      <trkpt lat="17.84540805034339427947998046875" lon="-92.50086343847215175628662109375">
        <ele>18.3999996185302734375</ele>
        <time>2021-03-09T18:27:33.000Z</time>
      </trkpt>
      <trkpt lat="17.84540235064923763275146484375" lon="-92.5007168389856815338134765625">
        <ele>18.3999996185302734375</ele>
        <time>2021-03-09T18:27:38.000Z</time>
      </trkpt>
      <trkpt lat="17.84537971951067447662353515625" lon="-92.50067132525146007537841796875">
        <ele>18.6000003814697265625</ele>
        <time>2021-03-09T18:27:43.000Z</time>
      </trkpt>
      <trkpt lat="17.84537971951067447662353515625" lon="-92.50067132525146007537841796875">
        <ele>18.6000003814697265625</ele>
        <time>2021-03-09T18:27:48.000Z</time>
      </trkpt>
      <trkpt lat="17.84537971951067447662353515625" lon="-92.50067132525146007537841796875">
        <ele>18.6000003814697265625</ele>
        <time>2021-03-09T18:27:54.000Z</time>
      </trkpt>
      <trkpt lat="17.84537971951067447662353515625" lon="-92.50067132525146007537841796875">
        <ele>18.6000003814697265625</ele>
        <time>2021-03-09T18:28:08.000Z</time>
      </trkpt>
      <trkpt lat="17.84537971951067447662353515625" lon="-92.50067132525146007537841796875">
        <ele>18.6000003814697265625</ele>
        <time>2021-03-09T18:28:10.000Z</time>
      </trkpt>
      <trkpt lat="17.845369912683963775634765625" lon="-92.5006558187305927276611328125">
        <ele>18.6000003814697265625</ele>
        <time>2021-03-09T18:28:15.000Z</time>
      </trkpt>
      <trkpt lat="17.84533001482486724853515625" lon="-92.5006061978638172149658203125">
        <ele>18.799999237060546875</ele>
        <time>2021-03-09T18:28:17.000Z</time>
      </trkpt>
      <trkpt lat="17.8452483750879764556884765625" lon="-92.50056403689086437225341796875">
        <ele>18.799999237060546875</ele>
        <time>2021-03-09T18:28:19.000Z</time>
      </trkpt>
      <trkpt lat="17.8451997600495815277099609375" lon="-92.50057225115597248077392578125">
        <ele>18.6000003814697265625</ele>
        <time>2021-03-09T18:28:20.000Z</time>
      </trkpt>
      <trkpt lat="17.84515726380050182342529296875" lon="-92.500595636665821075439453125">
        <ele>18.6000003814697265625</ele>
        <time>2021-03-09T18:28:21.000Z</time>
      </trkpt>
      <trkpt lat="17.84506489522755146026611328125" lon="-92.50067769549787044525146484375">
        <ele>18.3999996185302734375</ele>
        <time>2021-03-09T18:28:24.000Z</time>
      </trkpt>
      <trkpt lat="17.8450063057243824005126953125" lon="-92.50070686452090740203857421875">
        <ele>18.6000003814697265625</ele>
        <time>2021-03-09T18:28:26.000Z</time>
      </trkpt>
      <trkpt lat="17.8449757955968379974365234375" lon="-92.500700913369655609130859375">
        <ele>18.6000003814697265625</ele>
        <time>2021-03-09T18:28:27.000Z</time>
      </trkpt>
      <trkpt lat="17.84483405761420726776123046875" lon="-92.50067618675529956817626953125">
        <ele>18.3999996185302734375</ele>
        <time>2021-03-09T18:28:31.000Z</time>
      </trkpt>
      <trkpt lat="17.8445828519761562347412109375" lon="-92.50065690837800502777099609375">
        <ele>18.3999996185302734375</ele>
        <time>2021-03-09T18:28:38.000Z</time>
      </trkpt>
      <trkpt lat="17.8445124439895153045654296875" lon="-92.5006408989429473876953125">
        <ele>18.3999996185302734375</ele>
        <time>2021-03-09T18:28:40.000Z</time>
      </trkpt>
      <trkpt lat="17.84431303851306438446044921875" lon="-92.50060058198869228363037109375">
        <ele>18.200000762939453125</ele>
        <time>2021-03-09T18:28:46.000Z</time>
      </trkpt>
      <trkpt lat="17.8442980349063873291015625" lon="-92.5005894340574741363525390625">
        <ele>18.200000762939453125</ele>
        <time>2021-03-09T18:28:47.000Z</time>
      </trkpt>
      <trkpt lat="17.8443141281604766845703125" lon="-92.500562109053134918212890625">
        <ele>18</ele>
        <time>2021-03-09T18:28:49.000Z</time>
      </trkpt>
      <trkpt lat="17.84435712732374668121337890625" lon="-92.5005475245416164398193359375">
        <ele>18</ele>
        <time>2021-03-09T18:28:51.000Z</time>
      </trkpt>
      <trkpt lat="17.84441697411239147186279296875" lon="-92.5005619414150714874267578125">
        <ele>18</ele>
        <time>2021-03-09T18:28:53.000Z</time>
      </trkpt>
      <trkpt lat="17.84458913840353488922119140625" lon="-92.5005981512367725372314453125">
        <ele>18.200000762939453125</ele>
        <time>2021-03-09T18:28:58.000Z</time>
      </trkpt>
      <trkpt lat="17.84464814700186252593994140625" lon="-92.50059806741774082183837890625">
        <ele>18.200000762939453125</ele>
        <time>2021-03-09T18:29:00.000Z</time>
      </trkpt>
      <trkpt lat="17.84469961188733577728271484375" lon="-92.5006139092147350311279296875">
        <ele>18.200000762939453125</ele>
        <time>2021-03-09T18:29:02.000Z</time>
      </trkpt>
      <trkpt lat="17.8448051400482654571533203125" lon="-92.5006598420441150665283203125">
        <ele>18.3999996185302734375</ele>
        <time>2021-03-09T18:29:07.000Z</time>
      </trkpt>
      <trkpt lat="17.844836153090000152587890625" lon="-92.500672079622745513916015625">
        <ele>18.3999996185302734375</ele>
        <time>2021-03-09T18:29:09.000Z</time>
      </trkpt>
      <trkpt lat="17.84489323385059833526611328125" lon="-92.50068188644945621490478515625">
        <ele>18.3999996185302734375</ele>
        <time>2021-03-09T18:29:14.000Z</time>
      </trkpt>
      <trkpt lat="17.84489323385059833526611328125" lon="-92.50068188644945621490478515625">
        <ele>18.3999996185302734375</ele>
        <time>2021-03-09T18:29:15.000Z</time>
      </trkpt>
      <trkpt lat="17.84489708952605724334716796875" lon="-92.5007047690451145172119140625">
        <ele>18.6000003814697265625</ele>
        <time>2021-03-09T18:29:41.000Z</time>
      </trkpt>
      <trkpt lat="17.8449067287147045135498046875" lon="-92.500705607235431671142578125">
        <ele>18.6000003814697265625</ele>
        <time>2021-03-09T18:29:45.000Z</time>
      </trkpt>
      <trkpt lat="17.8449871949851512908935546875" lon="-92.5006598420441150665283203125">
        <ele>18.3999996185302734375</ele>
        <time>2021-03-09T18:29:49.000Z</time>
      </trkpt>
      <trkpt lat="17.84510160796344280242919921875" lon="-92.5005931220948696136474609375">
        <ele>18.200000762939453125</ele>
        <time>2021-03-09T18:29:54.000Z</time>
      </trkpt>
      <trkpt lat="17.845141589641571044921875" lon="-92.500564791262149810791015625">
        <ele>18.3999996185302734375</ele>
        <time>2021-03-09T18:29:56.000Z</time>
      </trkpt>
      <trkpt lat="17.84533563069999217987060546875" lon="-92.5004962272942066192626953125">
        <ele>18.799999237060546875</ele>
        <time>2021-03-09T18:30:03.000Z</time>
      </trkpt>
      <trkpt lat="17.84535910002887248992919921875" lon="-92.50050586648285388946533203125">
        <ele>19</ele>
        <time>2021-03-09T18:30:04.000Z</time>
      </trkpt>
      <trkpt lat="17.8453942202031612396240234375" lon="-92.500542663037776947021484375">
        <ele>18.799999237060546875</ele>
        <time>2021-03-09T18:30:06.000Z</time>
      </trkpt>
      <trkpt lat="17.8454311005771160125732421875" lon="-92.50057585537433624267578125">
        <ele>18.799999237060546875</ele>
        <time>2021-03-09T18:30:09.000Z</time>
      </trkpt>
      <trkpt lat="17.84543730318546295166015625" lon="-92.5005827285349369049072265625">
        <ele>18.6000003814697265625</ele>
        <time>2021-03-09T18:30:10.000Z</time>
      </trkpt>
      <trkpt lat="17.84546135924756526947021484375" lon="-92.50067400746047496795654296875">
        <ele>18.3999996185302734375</ele>
        <time>2021-03-09T18:30:14.000Z</time>
      </trkpt>
      <trkpt lat="17.84545716829597949981689453125" lon="-92.5007027573883533477783203125">
        <ele>18.3999996185302734375</ele>
        <time>2021-03-09T18:30:15.000Z</time>
      </trkpt>
      <trkpt lat="17.84543931484222412109375" lon="-92.5007842294871807098388671875">
        <ele>18.200000762939453125</ele>
        <time>2021-03-09T18:30:18.000Z</time>
      </trkpt>
      <trkpt lat="17.84540377557277679443359375" lon="-92.5008247978985309600830078125">
        <ele>18.200000762939453125</ele>
        <time>2021-03-09T18:30:20.000Z</time>
      </trkpt>
      <trkpt lat="17.8453003428876399993896484375" lon="-92.5009761750698089599609375">
        <ele>19.200000762939453125</ele>
        <time>2021-03-09T18:30:26.000Z</time>
      </trkpt>
      <trkpt lat="17.8451860137283802032470703125" lon="-92.5010806135833263397216796875">
        <ele>20.200000762939453125</ele>
        <time>2021-03-09T18:30:31.000Z</time>
      </trkpt>
      <trkpt lat="17.84502265043556690216064453125" lon="-92.5011972896754741668701171875">
        <ele>21.200000762939453125</ele>
        <time>2021-03-09T18:30:37.000Z</time>
      </trkpt>
      <trkpt lat="17.844950146973133087158203125" lon="-92.50124464742839336395263671875">
        <ele>21.3999996185302734375</ele>
        <time>2021-03-09T18:30:40.000Z</time>
      </trkpt>
      <trkpt lat="17.8448151983320713043212890625" lon="-92.50134707428514957427978515625">
        <ele>21.799999237060546875</ele>
        <time>2021-03-09T18:30:45.000Z</time>
      </trkpt>
      <trkpt lat="17.84472090192139148712158203125" lon="-92.50141463242471218109130859375">
        <ele>22</ele>
        <time>2021-03-09T18:30:48.000Z</time>
      </trkpt>
      <trkpt lat="17.8444178961217403411865234375" lon="-92.5016190670430660247802734375">
        <ele>23</ele>
        <time>2021-03-09T18:30:57.000Z</time>
      </trkpt>
      <trkpt lat="17.8442117013037204742431640625" lon="-92.5017793290317058563232421875">
        <ele>23.6000003814697265625</ele>
        <time>2021-03-09T18:31:03.000Z</time>
      </trkpt>
      <trkpt lat="17.8441778384149074554443359375" lon="-92.5018081627786159515380859375">
        <ele>23.6000003814697265625</ele>
        <time>2021-03-09T18:31:04.000Z</time>
      </trkpt>
      <trkpt lat="17.84414506517350673675537109375" lon="-92.50183389522135257720947265625">
        <ele>23.3999996185302734375</ele>
        <time>2021-03-09T18:31:05.000Z</time>
      </trkpt>
      <trkpt lat="17.84388338215649127960205078125" lon="-92.5019954144954681396484375">
        <ele>22.200000762939453125</ele>
        <time>2021-03-09T18:31:12.000Z</time>
      </trkpt>
      <trkpt lat="17.843620441854000091552734375" lon="-92.50219750218093395233154296875">
        <ele>21.3999996185302734375</ele>
        <time>2021-03-09T18:31:18.000Z</time>
      </trkpt>
      <trkpt lat="17.843231521546840667724609375" lon="-92.50248491764068603515625">
        <ele>20.6000003814697265625</ele>
        <time>2021-03-09T18:31:26.000Z</time>
      </trkpt>
      <trkpt lat="17.8429663181304931640625" lon="-92.5026778690516948699951171875">
        <ele>19.6000003814697265625</ele>
        <time>2021-03-09T18:31:31.000Z</time>
      </trkpt>
      <trkpt lat="17.84285324625670909881591796875" lon="-92.50275674276053905487060546875">
        <ele>19</ele>
        <time>2021-03-09T18:31:33.000Z</time>
      </trkpt>
      <trkpt lat="17.8426861949265003204345703125" lon="-92.5028733350336551666259765625">
        <ele>18.3999996185302734375</ele>
        <time>2021-03-09T18:31:36.000Z</time>
      </trkpt>
      <trkpt lat="17.8424585424363613128662109375" lon="-92.50301976688206195831298828125">
        <ele>17.6000003814697265625</ele>
        <time>2021-03-09T18:31:40.000Z</time>
      </trkpt>
      <trkpt lat="17.842076830565929412841796875" lon="-92.5033078528940677642822265625">
        <ele>16</ele>
        <time>2021-03-09T18:31:47.000Z</time>
      </trkpt>
      <trkpt lat="17.8418733179569244384765625" lon="-92.50346316955983638763427734375">
        <ele>14.80000019073486328125</ele>
        <time>2021-03-09T18:31:52.000Z</time>
      </trkpt>
      <trkpt lat="17.84184574149549007415771484375" lon="-92.50348605215549468994140625">
        <ele>14.80000019073486328125</ele>
        <time>2021-03-09T18:31:53.000Z</time>
      </trkpt>
      <trkpt lat="17.84172956831753253936767578125" lon="-92.50358998775482177734375">
        <ele>14</ele>
        <time>2021-03-09T18:31:58.000Z</time>
      </trkpt>
      <trkpt lat="17.841724120080471038818359375" lon="-92.503593005239963531494140625">
        <ele>14</ele>
        <time>2021-03-09T18:32:01.000Z</time>
      </trkpt>
      <trkpt lat="17.84172789193689823150634765625" lon="-92.5035914964973926544189453125">
        <ele>14</ele>
        <time>2021-03-09T18:32:03.000Z</time>
      </trkpt>
      <trkpt lat="17.8416936099529266357421875" lon="-92.5035914964973926544189453125">
        <ele>14.19999980926513671875</ele>
        <time>2021-03-09T18:33:38.000Z</time>
      </trkpt>
      <trkpt lat="17.84169654361903667449951171875" lon="-92.5035908259451389312744140625">
        <ele>14.19999980926513671875</ele>
        <time>2021-03-09T18:33:42.000Z</time>
      </trkpt>
      <trkpt lat="17.841692268848419189453125" lon="-92.5035921670496463775634765625">
        <ele>14.19999980926513671875</ele>
        <time>2021-03-09T18:33:43.000Z</time>
      </trkpt>
      <trkpt lat="17.84167994745075702667236328125" lon="-92.50359761528670787811279296875">
        <ele>14.19999980926513671875</ele>
        <time>2021-03-09T18:33:44.000Z</time>
      </trkpt>
      <trkpt lat="17.8415667079389095306396484375" lon="-92.50368596054613590240478515625">
        <ele>14.19999980926513671875</ele>
        <time>2021-03-09T18:33:49.000Z</time>
      </trkpt>
      <trkpt lat="17.84134467132389545440673828125" lon="-92.50383817590773105621337890625">
        <ele>14</ele>
        <time>2021-03-09T18:33:56.000Z</time>
      </trkpt>
      <trkpt lat="17.841163538396358489990234375" lon="-92.503966502845287322998046875">
        <ele>14</ele>
        <time>2021-03-09T18:34:01.000Z</time>
      </trkpt>
      <trkpt lat="17.8410067968070507049560546875" lon="-92.5040813349187374114990234375">
        <ele>14</ele>
        <time>2021-03-09T18:34:05.000Z</time>
      </trkpt>
      <trkpt lat="17.840833961963653564453125" lon="-92.50420228578150272369384765625">
        <ele>13.80000019073486328125</ele>
        <time>2021-03-09T18:34:09.000Z</time>
      </trkpt>
      <trkpt lat="17.840741761028766632080078125" lon="-92.50427328050136566162109375">
        <ele>13.19999980926513671875</ele>
        <time>2021-03-09T18:34:11.000Z</time>
      </trkpt>
      <trkpt lat="17.84063925035297870635986328125" lon="-92.50435282476246356964111328125">
        <ele>12.6000003814697265625</ele>
        <time>2021-03-09T18:34:13.000Z</time>
      </trkpt>
      <trkpt lat="17.84054956398904323577880859375" lon="-92.5044135935604572296142578125">
        <ele>12.19999980926513671875</ele>
        <time>2021-03-09T18:34:15.000Z</time>
      </trkpt>
      <trkpt lat="17.840466164052486419677734375" lon="-92.5044756196439266204833984375">
        <ele>11.80000019073486328125</ele>
        <time>2021-03-09T18:34:17.000Z</time>
      </trkpt>
      <trkpt lat="17.8403737954795360565185546875" lon="-92.50454745255410671234130859375">
        <ele>11.19999980926513671875</ele>
        <time>2021-03-09T18:34:19.000Z</time>
      </trkpt>
      <trkpt lat="17.840272374451160430908203125" lon="-92.504612915217876434326171875">
        <ele>10.80000019073486328125</ele>
        <time>2021-03-09T18:34:21.000Z</time>
      </trkpt>
      <trkpt lat="17.84011605195701122283935546875" lon="-92.5047230534255504608154296875">
        <ele>10</ele>
        <time>2021-03-09T18:34:24.000Z</time>
      </trkpt>
      <trkpt lat="17.83980776555836200714111328125" lon="-92.504936121404170989990234375">
        <ele>9.3999996185302734375</ele>
        <time>2021-03-09T18:34:30.000Z</time>
      </trkpt>
      <trkpt lat="17.8396524488925933837890625" lon="-92.505042739212512969970703125">
        <ele>9.19999980926513671875</ele>
        <time>2021-03-09T18:34:33.000Z</time>
      </trkpt>
      <trkpt lat="17.83927735872566699981689453125" lon="-92.50529394485056400299072265625">
        <ele>9</ele>
        <time>2021-03-09T18:34:40.000Z</time>
      </trkpt>
      <trkpt lat="17.83912966959178447723388671875" lon="-92.50540106557309627532958984375">
        <ele>9.19999980926513671875</ele>
        <time>2021-03-09T18:34:43.000Z</time>
      </trkpt>
      <trkpt lat="17.8389904461801052093505859375" lon="-92.50550516881048679351806640625">
        <ele>9.6000003814697265625</ele>
        <time>2021-03-09T18:34:46.000Z</time>
      </trkpt>
      <trkpt lat="17.83885591663420200347900390625" lon="-92.50560097396373748779296875">
        <ele>10</ele>
        <time>2021-03-09T18:34:49.000Z</time>
      </trkpt>
      <trkpt lat="17.83872934989631175994873046875" lon="-92.50569627620279788970947265625">
        <ele>10.3999996185302734375</ele>
        <time>2021-03-09T18:34:52.000Z</time>
      </trkpt>
      <trkpt lat="17.83864318393170833587646484375" lon="-92.50576031394302845001220703125">
        <ele>10.6000003814697265625</ele>
        <time>2021-03-09T18:34:54.000Z</time>
      </trkpt>
      <trkpt lat="17.83859792165458202362060546875" lon="-92.5057976134121417999267578125">
        <ele>10.80000019073486328125</ele>
        <time>2021-03-09T18:34:55.000Z</time>
      </trkpt>
      <trkpt lat="17.83820782788097858428955078125" lon="-92.5060638226568698883056640625">
        <ele>11.80000019073486328125</ele>
        <time>2021-03-09T18:35:04.000Z</time>
      </trkpt>
      <trkpt lat="17.83800213597714900970458984375" lon="-92.5062146969139575958251953125">
        <ele>11.6000003814697265625</ele>
        <time>2021-03-09T18:35:09.000Z</time>
      </trkpt>
      <trkpt lat="17.83791462890803813934326171875" lon="-92.50627311877906322479248046875">
        <ele>11.3999996185302734375</ele>
        <time>2021-03-09T18:35:11.000Z</time>
      </trkpt>
      <trkpt lat="17.83763601444661617279052734375" lon="-92.50648769550025463104248046875">
        <ele>11.19999980926513671875</ele>
        <time>2021-03-09T18:35:18.000Z</time>
      </trkpt>
      <trkpt lat="17.83734583295881748199462890625" lon="-92.50669129192829132080078125">
        <ele>10.80000019073486328125</ele>
        <time>2021-03-09T18:35:26.000Z</time>
      </trkpt>
      <trkpt lat="17.83708146773278713226318359375" lon="-92.50686203129589557647705078125">
        <ele>11.19999980926513671875</ele>
        <time>2021-03-09T18:35:33.000Z</time>
      </trkpt>
      <trkpt lat="17.83704156987369060516357421875" lon="-92.5068902783095836639404296875">
        <ele>11.19999980926513671875</ele>
        <time>2021-03-09T18:35:34.000Z</time>
      </trkpt>
      <trkpt lat="17.8369246423244476318359375" lon="-92.50697166658937931060791015625">
        <ele>11.3999996185302734375</ele>
        <time>2021-03-09T18:35:37.000Z</time>
      </trkpt>
      <trkpt lat="17.83681307919323444366455078125" lon="-92.507053054869174957275390625">
        <ele>11.3999996185302734375</ele>
        <time>2021-03-09T18:35:40.000Z</time>
      </trkpt>
      <trkpt lat="17.83673294819891452789306640625" lon="-92.5071092136204242706298828125">
        <ele>11.6000003814697265625</ele>
        <time>2021-03-09T18:35:42.000Z</time>
      </trkpt>
      <trkpt lat="17.8366136737167835235595703125" lon="-92.5071883387863636016845703125">
        <ele>11.80000019073486328125</ele>
        <time>2021-03-09T18:35:45.000Z</time>
      </trkpt>
      <trkpt lat="17.83649004064500331878662109375" lon="-92.5072674639523029327392578125">
        <ele>11.80000019073486328125</ele>
        <time>2021-03-09T18:35:48.000Z</time>
      </trkpt>
      <trkpt lat="17.83637470565736293792724609375" lon="-92.50735513865947723388671875">
        <ele>12</ele>
        <time>2021-03-09T18:35:51.000Z</time>
      </trkpt>
      <trkpt lat="17.8361017070710659027099609375" lon="-92.50754465349018573760986328125">
        <ele>12.6000003814697265625</ele>
        <time>2021-03-09T18:35:58.000Z</time>
      </trkpt>
      <trkpt lat="17.8356946818530559539794921875" lon="-92.5078424625098705291748046875">
        <ele>14.3999996185302734375</ele>
        <time>2021-03-09T18:36:09.000Z</time>
      </trkpt>
      <trkpt lat="17.835359908640384674072265625" lon="-92.50807799398899078369140625">
        <ele>16.200000762939453125</ele>
        <time>2021-03-09T18:36:18.000Z</time>
      </trkpt>
      <trkpt lat="17.83502941019833087921142578125" lon="-92.50831813551485538482666015625">
        <ele>18</ele>
        <time>2021-03-09T18:36:27.000Z</time>
      </trkpt>
      <trkpt lat="17.834693379700183868408203125" lon="-92.50855785794556140899658203125">
        <ele>19</ele>
        <time>2021-03-09T18:36:36.000Z</time>
      </trkpt>
      <trkpt lat="17.83451174385845661163330078125" lon="-92.508688531816005706787109375">
        <ele>19.6000003814697265625</ele>
        <time>2021-03-09T18:36:41.000Z</time>
      </trkpt>
      <trkpt lat="17.8343679942190647125244140625" lon="-92.50879707746207714080810546875">
        <ele>20</ele>
        <time>2021-03-09T18:36:45.000Z</time>
      </trkpt>
      <trkpt lat="17.83408753573894500732421875" lon="-92.50898315571248531341552734375">
        <ele>20.799999237060546875</ele>
        <time>2021-03-09T18:36:53.000Z</time>
      </trkpt>
      <trkpt lat="17.8340571932494640350341796875" lon="-92.5090075470507144927978515625">
        <ele>21</ele>
        <time>2021-03-09T18:36:54.000Z</time>
      </trkpt>
      <trkpt lat="17.833950407803058624267578125" lon="-92.50908876769244670867919921875">
        <ele>21.3999996185302734375</ele>
        <time>2021-03-09T18:36:58.000Z</time>
      </trkpt>
      <trkpt lat="17.8338382579386234283447265625" lon="-92.50916772522032260894775390625">
        <ele>22</ele>
        <time>2021-03-09T18:37:03.000Z</time>
      </trkpt>
      <trkpt lat="17.83378033898770809173583984375" lon="-92.509205527603626251220703125">
        <ele>21.799999237060546875</ele>
        <time>2021-03-09T18:37:05.000Z</time>
      </trkpt>
      <trkpt lat="17.8336461447179317474365234375" lon="-92.50930401496589183807373046875">
        <ele>21.799999237060546875</ele>
        <time>2021-03-09T18:37:09.000Z</time>
      </trkpt>
      <trkpt lat="17.83346836455166339874267578125" lon="-92.50943426974117755889892578125">
        <ele>21.6000003814697265625</ele>
        <time>2021-03-09T18:37:14.000Z</time>
      </trkpt>
      <trkpt lat="17.83343148417770862579345703125" lon="-92.5094561465084552764892578125">
        <ele>21.6000003814697265625</ele>
        <time>2021-03-09T18:37:15.000Z</time>
      </trkpt>
      <trkpt lat="17.8332917578518390655517578125" lon="-92.50954994000494480133056640625">
        <ele>21.3999996185302734375</ele>
        <time>2021-03-09T18:37:19.000Z</time>
      </trkpt>
      <trkpt lat="17.8332263790071010589599609375" lon="-92.50959235243499279022216796875">
        <ele>21.3999996185302734375</ele>
        <time>2021-03-09T18:37:21.000Z</time>
      </trkpt>
      <trkpt lat="17.83298925496637821197509765625" lon="-92.5097686238586902618408203125">
        <ele>21</ele>
        <time>2021-03-09T18:37:29.000Z</time>
      </trkpt>
      <trkpt lat="17.83272790722548961639404296875" lon="-92.50994740985333919525146484375">
        <ele>20.799999237060546875</ele>
        <time>2021-03-09T18:37:36.000Z</time>
      </trkpt>
      <trkpt lat="17.83243470825254917144775390625" lon="-92.51015963964164257049560546875">
        <ele>21.200000762939453125</ele>
        <time>2021-03-09T18:37:43.000Z</time>
      </trkpt>
      <trkpt lat="17.832084596157073974609375" lon="-92.51040346920490264892578125">
        <ele>21.6000003814697265625</ele>
        <time>2021-03-09T18:37:51.000Z</time>
      </trkpt>
      <trkpt lat="17.8316344879567623138427734375" lon="-92.51073832623660564422607421875">
        <ele>22.200000762939453125</ele>
        <time>2021-03-09T18:38:01.000Z</time>
      </trkpt>
      <trkpt lat="17.83124816603958606719970703125" lon="-92.511003278195858001708984375">
        <ele>22.3999996185302734375</ele>
        <time>2021-03-09T18:38:09.000Z</time>
      </trkpt>
      <trkpt lat="17.830920852720737457275390625" lon="-92.51123235560953617095947265625">
        <ele>22.3999996185302734375</ele>
        <time>2021-03-09T18:38:16.000Z</time>
      </trkpt>
      <trkpt lat="17.83047367818653583526611328125" lon="-92.51154474914073944091796875">
        <ele>21.6000003814697265625</ele>
        <time>2021-03-09T18:38:26.000Z</time>
      </trkpt>
      <trkpt lat="17.8300798125565052032470703125" lon="-92.5118208490312099456787109375">
        <ele>20.3999996185302734375</ele>
        <time>2021-03-09T18:38:35.000Z</time>
      </trkpt>
      <trkpt lat="17.82963640987873077392578125" lon="-92.51213994808495044708251953125">
        <ele>20.799999237060546875</ele>
        <time>2021-03-09T18:38:44.000Z</time>
      </trkpt>
      <trkpt lat="17.82935033552348613739013671875" lon="-92.51235318370163440704345703125">
        <ele>21</ele>
        <time>2021-03-09T18:38:50.000Z</time>
      </trkpt>
      <trkpt lat="17.8292560391128063201904296875" lon="-92.5124303810298442840576171875">
        <ele>21.200000762939453125</ele>
        <time>2021-03-09T18:38:52.000Z</time>
      </trkpt>
      <trkpt lat="17.82880919985473155975341796875" lon="-92.51274528913199901580810546875">
        <ele>21.6000003814697265625</ele>
        <time>2021-03-09T18:39:01.000Z</time>
      </trkpt>
      <trkpt lat="17.828374095261096954345703125" lon="-92.51306178979575634002685546875">
        <ele>22.3999996185302734375</ele>
        <time>2021-03-09T18:39:10.000Z</time>
      </trkpt>
      <trkpt lat="17.827955670654773712158203125" lon="-92.51335213892161846160888671875">
        <ele>23</ele>
        <time>2021-03-09T18:39:19.000Z</time>
      </trkpt>
      <trkpt lat="17.8278582729399204254150390625" lon="-92.51341600902378559112548828125">
        <ele>23.200000762939453125</ele>
        <time>2021-03-09T18:39:21.000Z</time>
      </trkpt>
      <trkpt lat="17.82771083526313304901123046875" lon="-92.51351877115666866302490234375">
        <ele>23.6000003814697265625</ele>
        <time>2021-03-09T18:39:24.000Z</time>
      </trkpt>
      <trkpt lat="17.82724631018936634063720703125" lon="-92.51386997289955615997314453125">
        <ele>23.200000762939453125</ele>
        <time>2021-03-09T18:39:33.000Z</time>
      </trkpt>
      <trkpt lat="17.8271981142461299896240234375" lon="-92.51390484161674976348876953125">
        <ele>23.200000762939453125</ele>
        <time>2021-03-09T18:39:34.000Z</time>
      </trkpt>
      <trkpt lat="17.82695646397769451141357421875" lon="-92.51406862400472164154052734375">
        <ele>22.6000003814697265625</ele>
        <time>2021-03-09T18:39:39.000Z</time>
      </trkpt>
      <trkpt lat="17.8268195874989032745361328125" lon="-92.514166943728923797607421875">
        <ele>22.200000762939453125</ele>
        <time>2021-03-09T18:39:42.000Z</time>
      </trkpt>
      <trkpt lat="17.82677943818271160125732421875" lon="-92.51420013606548309326171875">
        <ele>22</ele>
        <time>2021-03-09T18:39:43.000Z</time>
      </trkpt>
      <trkpt lat="17.82664574682712554931640625" lon="-92.51429141499102115631103515625">
        <ele>21.3999996185302734375</ele>
        <time>2021-03-09T18:39:46.000Z</time>
      </trkpt>
      <trkpt lat="17.826344668865203857421875" lon="-92.51451185904443264007568359375">
        <ele>20.3999996185302734375</ele>
        <time>2021-03-09T18:39:52.000Z</time>
      </trkpt>
      <trkpt lat="17.82620293088257312774658203125" lon="-92.5146133638918399810791015625">
        <ele>19.799999237060546875</ele>
        <time>2021-03-09T18:39:55.000Z</time>
      </trkpt>
      <trkpt lat="17.825811915099620819091796875" lon="-92.51489524729549884796142578125">
        <ele>18.799999237060546875</ele>
        <time>2021-03-09T18:40:04.000Z</time>
      </trkpt>
      <trkpt lat="17.82575466670095920562744140625" lon="-92.5149571895599365234375">
        <ele>18.799999237060546875</ele>
        <time>2021-03-09T18:40:06.000Z</time>
      </trkpt>
      <trkpt lat="17.82568559981882572174072265625" lon="-92.51499901525676250457763671875">
        <ele>19</ele>
        <time>2021-03-09T18:40:08.000Z</time>
      </trkpt>
      <trkpt lat="17.82564369030296802520751953125" lon="-92.515016533434391021728515625">
        <ele>19.200000762939453125</ele>
        <time>2021-03-09T18:40:09.000Z</time>
      </trkpt>
      <trkpt lat="17.8256003558635711669921875" lon="-92.51504176296293735504150390625">
        <ele>19.200000762939453125</ele>
        <time>2021-03-09T18:40:10.000Z</time>
      </trkpt>
      <trkpt lat="17.82545962370932102203369140625" lon="-92.51515056006610393524169921875">
        <ele>19.6000003814697265625</ele>
        <time>2021-03-09T18:40:13.000Z</time>
      </trkpt>
      <trkpt lat="17.82521286047995090484619140625" lon="-92.51532641239464282989501953125">
        <ele>20</ele>
        <time>2021-03-09T18:40:18.000Z</time>
      </trkpt>
      <trkpt lat="17.82502141781151294708251953125" lon="-92.51546236686408519744873046875">
        <ele>20.3999996185302734375</ele>
        <time>2021-03-09T18:40:22.000Z</time>
      </trkpt>
      <trkpt lat="17.82459695823490619659423828125" lon="-92.51576260663568973541259765625">
        <ele>21</ele>
        <time>2021-03-09T18:40:31.000Z</time>
      </trkpt>
      <trkpt lat="17.82417677342891693115234375" lon="-92.5160573981702327728271484375">
        <ele>21.799999237060546875</ele>
        <time>2021-03-09T18:40:39.000Z</time>
      </trkpt>
      <trkpt lat="17.8240699879825115203857421875" lon="-92.516134679317474365234375">
        <ele>22</ele>
        <time>2021-03-09T18:40:41.000Z</time>
      </trkpt>
      <trkpt lat="17.82379279844462871551513671875" lon="-92.5163309834897518157958984375">
        <ele>22.3999996185302734375</ele>
        <time>2021-03-09T18:40:46.000Z</time>
      </trkpt>
      <trkpt lat="17.82350848428905010223388671875" lon="-92.5165324844419956207275390625">
        <ele>22.799999237060546875</ele>
        <time>2021-03-09T18:40:51.000Z</time>
      </trkpt>
      <trkpt lat="17.8229910694062709808349609375" lon="-92.5168950855731964111328125">
        <ele>23.6000003814697265625</ele>
        <time>2021-03-09T18:41:00.000Z</time>
      </trkpt>
      <trkpt lat="17.82293801195919513702392578125" lon="-92.51693456433713436126708984375">
        <ele>23.799999237060546875</ele>
        <time>2021-03-09T18:41:02.000Z</time>
      </trkpt>
      <trkpt lat="17.82246820628643035888671875" lon="-92.517271935939788818359375">
        <ele>24</ele>
        <time>2021-03-09T18:41:11.000Z</time>
      </trkpt>
      <trkpt lat="17.8223617561161518096923828125" lon="-92.51734980382025241851806640625">
        <ele>23.799999237060546875</ele>
        <time>2021-03-09T18:41:13.000Z</time>
      </trkpt>
      <trkpt lat="17.82190703786909580230712890625" lon="-92.51767694950103759765625">
        <ele>22.200000762939453125</ele>
        <time>2021-03-09T18:41:21.000Z</time>
      </trkpt>
      <trkpt lat="17.8218487836420536041259765625" lon="-92.51771785318851470947265625">
        <ele>22</ele>
        <time>2021-03-09T18:41:22.000Z</time>
      </trkpt>
      <trkpt lat="17.82134897075593471527099609375" lon="-92.51807467080652713775634765625">
        <ele>20.799999237060546875</ele>
        <time>2021-03-09T18:41:30.000Z</time>
      </trkpt>
      <trkpt lat="17.82128560356795787811279296875" lon="-92.51812060363590717315673828125">
        <ele>20.799999237060546875</ele>
        <time>2021-03-09T18:41:31.000Z</time>
      </trkpt>
      <trkpt lat="17.82102383673191070556640625" lon="-92.5182997249066829681396484375">
        <ele>20.200000762939453125</ele>
        <time>2021-03-09T18:41:35.000Z</time>
      </trkpt>
      <trkpt lat="17.8208955936133861541748046875" lon="-92.5183925963938236236572265625">
        <ele>19.799999237060546875</ele>
        <time>2021-03-09T18:41:37.000Z</time>
      </trkpt>
      <trkpt lat="17.820772714912891387939453125" lon="-92.5184831209480762481689453125">
        <ele>19.6000003814697265625</ele>
        <time>2021-03-09T18:41:39.000Z</time>
      </trkpt>
      <trkpt lat="17.8206558711826801300048828125" lon="-92.51856937073171138763427734375">
        <ele>19.3999996185302734375</ele>
        <time>2021-03-09T18:41:41.000Z</time>
      </trkpt>
      <trkpt lat="17.8204424679279327392578125" lon="-92.51871940679848194122314453125">
        <ele>19</ele>
        <time>2021-03-09T18:41:45.000Z</time>
      </trkpt>
      <trkpt lat="17.82010023482143878936767578125" lon="-92.51897354610264301300048828125">
        <ele>18.200000762939453125</ele>
        <time>2021-03-09T18:41:52.000Z</time>
      </trkpt>
      <trkpt lat="17.819647528231143951416015625" lon="-92.51933614723384380340576171875">
        <ele>19.6000003814697265625</ele>
        <time>2021-03-09T18:42:01.000Z</time>
      </trkpt>
      <trkpt lat="17.8195011802017688751220703125" lon="-92.51946724019944667816162109375">
        <ele>20.3999996185302734375</ele>
        <time>2021-03-09T18:42:04.000Z</time>
      </trkpt>
      <trkpt lat="17.8193600289523601531982421875" lon="-92.5195948965847492218017578125">
        <ele>21</ele>
        <time>2021-03-09T18:42:07.000Z</time>
      </trkpt>
      <trkpt lat="17.819227091968059539794921875" lon="-92.51972557045519351959228515625">
        <ele>21.6000003814697265625</ele>
        <time>2021-03-09T18:42:10.000Z</time>
      </trkpt>
      <trkpt lat="17.819051407277584075927734375" lon="-92.51990879885852336883544921875">
        <ele>22.200000762939453125</ele>
        <time>2021-03-09T18:42:14.000Z</time>
      </trkpt>
      <trkpt lat="17.81879936344921588897705078125" lon="-92.52018372528254985809326171875">
        <ele>23</ele>
        <time>2021-03-09T18:42:20.000Z</time>
      </trkpt>
      <trkpt lat="17.81876248307526111602783203125" lon="-92.520228736102581024169921875">
        <ele>23</ele>
        <time>2021-03-09T18:42:21.000Z</time>
      </trkpt>
      <trkpt lat="17.818533070385456085205078125" lon="-92.52051330171525478363037109375">
        <ele>23.6000003814697265625</ele>
        <time>2021-03-09T18:42:27.000Z</time>
      </trkpt>
      <trkpt lat="17.81847213394939899444580078125" lon="-92.52060391008853912353515625">
        <ele>23.799999237060546875</ele>
        <time>2021-03-09T18:42:29.000Z</time>
      </trkpt>
      <trkpt lat="17.818353362381458282470703125" lon="-92.5207697041332721710205078125">
        <ele>24</ele>
        <time>2021-03-09T18:42:33.000Z</time>
      </trkpt>
      <trkpt lat="17.81833081506192684173583984375" lon="-92.5208082608878612518310546875">
        <ele>24</ele>
        <time>2021-03-09T18:42:34.000Z</time>
      </trkpt>
      <trkpt lat="17.8181706368923187255859375" lon="-92.52107237465679645538330078125">
        <ele>23.799999237060546875</ele>
        <time>2021-03-09T18:42:40.000Z</time>
      </trkpt>
      <trkpt lat="17.8180853091180324554443359375" lon="-92.5212162919342517852783203125">
        <ele>23.6000003814697265625</ele>
        <time>2021-03-09T18:42:43.000Z</time>
      </trkpt>
      <trkpt lat="17.81802244484424591064453125" lon="-92.52132416702806949615478515625">
        <ele>23.6000003814697265625</ele>
        <time>2021-03-09T18:42:45.000Z</time>
      </trkpt>
      <trkpt lat="17.81797148287296295166015625" lon="-92.5214198045432567596435546875">
        <ele>23.6000003814697265625</ele>
        <time>2021-03-09T18:42:47.000Z</time>
      </trkpt>
      <trkpt lat="17.8177952952682971954345703125" lon="-92.52175315283238887786865234375">
        <ele>23</ele>
        <time>2021-03-09T18:42:54.000Z</time>
      </trkpt>
      <trkpt lat="17.81774609349668025970458984375" lon="-92.52185516059398651123046875">
        <ele>22.799999237060546875</ele>
        <time>2021-03-09T18:42:56.000Z</time>
      </trkpt>
      <trkpt lat="17.81760158948600292205810546875" lon="-92.52220812253654003143310546875">
        <ele>21.799999237060546875</ele>
        <time>2021-03-09T18:43:02.000Z</time>
      </trkpt>
      <trkpt lat="17.817387096583843231201171875" lon="-92.52272780053317546844482421875">
        <ele>20.6000003814697265625</ele>
        <time>2021-03-09T18:43:10.000Z</time>
      </trkpt>
      <trkpt lat="17.81729045324027538299560546875" lon="-92.522963918745517730712890625">
        <ele>20.6000003814697265625</ele>
        <time>2021-03-09T18:43:14.000Z</time>
      </trkpt>
      <trkpt lat="17.81715868972241878509521484375" lon="-92.5232879631221294403076171875">
        <ele>20.6000003814697265625</ele>
        <time>2021-03-09T18:43:19.000Z</time>
      </trkpt>
      <trkpt lat="17.81691678799688816070556640625" lon="-92.52386170439422130584716796875">
        <ele>18.3999996185302734375</ele>
        <time>2021-03-09T18:43:28.000Z</time>
      </trkpt>
      <trkpt lat="17.81689315102994441986083984375" lon="-92.5239269994199275970458984375">
        <ele>18.200000762939453125</ele>
        <time>2021-03-09T18:43:29.000Z</time>
      </trkpt>
      <trkpt lat="17.8168659098446369171142578125" lon="-92.52399078570306301116943359375">
        <ele>18</ele>
        <time>2021-03-09T18:43:30.000Z</time>
      </trkpt>
      <trkpt lat="17.8167395107448101043701171875" lon="-92.5243061967194080352783203125">
        <ele>17.799999237060546875</ele>
        <time>2021-03-09T18:43:35.000Z</time>
      </trkpt>
      <trkpt lat="17.81651563011109828948974609375" lon="-92.5248773396015167236328125">
        <ele>20.6000003814697265625</ele>
        <time>2021-03-09T18:43:44.000Z</time>
      </trkpt>
      <trkpt lat="17.81648880802094936370849609375" lon="-92.5249355100095272064208984375">
        <ele>21</ele>
        <time>2021-03-09T18:43:45.000Z</time>
      </trkpt>
      <trkpt lat="17.81627339310944080352783203125" lon="-92.52545812167227268218994140625">
        <ele>22.200000762939453125</ele>
        <time>2021-03-09T18:43:54.000Z</time>
      </trkpt>
      <trkpt lat="17.81624506227672100067138671875" lon="-92.5255266018211841583251953125">
        <ele>22.3999996185302734375</ele>
        <time>2021-03-09T18:43:55.000Z</time>
      </trkpt>
      <trkpt lat="17.8160501830279827117919921875" lon="-92.52601166255772113800048828125">
        <ele>23.200000762939453125</ele>
        <time>2021-03-09T18:44:04.000Z</time>
      </trkpt>
      <trkpt lat="17.81602981500327587127685546875" lon="-92.52606648020446300506591796875">
        <ele>23</ele>
        <time>2021-03-09T18:44:05.000Z</time>
      </trkpt>
      <trkpt lat="17.81588212586939334869384765625" lon="-92.52642430365085601806640625">
        <ele>22.3999996185302734375</ele>
        <time>2021-03-09T18:44:12.000Z</time>
      </trkpt>
      <trkpt lat="17.8156493604183197021484375" lon="-92.5269736535847187042236328125">
        <ele>22.3999996185302734375</ele>
        <time>2021-03-09T18:44:22.000Z</time>
      </trkpt>
      <trkpt lat="17.8154884278774261474609375" lon="-92.5273511745035648345947265625">
        <ele>22.799999237060546875</ele>
        <time>2021-03-09T18:44:29.000Z</time>
      </trkpt>
      <trkpt lat="17.81539832241833209991455078125" lon="-92.52756466157734394073486328125">
        <ele>23.200000762939453125</ele>
        <time>2021-03-09T18:44:33.000Z</time>
      </trkpt>
      <trkpt lat="17.8151992522180080413818359375" lon="-92.52804972231388092041015625">
        <ele>24.3999996185302734375</ele>
        <time>2021-03-09T18:44:42.000Z</time>
      </trkpt>
      <trkpt lat="17.81501811929047107696533203125" lon="-92.52850058488547801971435546875">
        <ele>25.3999996185302734375</ele>
        <time>2021-03-09T18:44:51.000Z</time>
      </trkpt>
      <trkpt lat="17.814907729625701904296875" lon="-92.52875237725675106048583984375">
        <ele>26</ele>
        <time>2021-03-09T18:44:56.000Z</time>
      </trkpt>
      <trkpt lat="17.81480102799832820892333984375" lon="-92.52899930812418460845947265625">
        <ele>26.799999237060546875</ele>
        <time>2021-03-09T18:45:01.000Z</time>
      </trkpt>
      <trkpt lat="17.814669348299503326416015625" lon="-92.52933709882199764251708984375">
        <ele>27.6000003814697265625</ele>
        <time>2021-03-09T18:45:09.000Z</time>
      </trkpt>
      <trkpt lat="17.81458125449717044830322265625" lon="-92.5295525975525379180908203125">
        <ele>28.200000762939453125</ele>
        <time>2021-03-09T18:45:14.000Z</time>
      </trkpt>
      <trkpt lat="17.8145146183669567108154296875" lon="-92.5297079980373382568359375">
        <ele>28.6000003814697265625</ele>
        <time>2021-03-09T18:45:18.000Z</time>
      </trkpt>
      <trkpt lat="17.81442451290786266326904296875" lon="-92.52992969937622547149658203125">
        <ele>29.200000762939453125</ele>
        <time>2021-03-09T18:45:24.000Z</time>
      </trkpt>
      <trkpt lat="17.81428352929651737213134765625" lon="-92.53025944344699382781982421875">
        <ele>29.799999237060546875</ele>
        <time>2021-03-09T18:45:32.000Z</time>
      </trkpt>
      <trkpt lat="17.81416274607181549072265625" lon="-92.53057259134948253631591796875">
        <ele>30</ele>
        <time>2021-03-09T18:45:39.000Z</time>
      </trkpt>
      <trkpt lat="17.8141156397759914398193359375" lon="-92.5306975655257701873779296875">
        <ele>29.799999237060546875</ele>
        <time>2021-03-09T18:45:42.000Z</time>
      </trkpt>
      <trkpt lat="17.81405654735863208770751953125" lon="-92.5308313407003879547119140625">
        <ele>29.799999237060546875</ele>
        <time>2021-03-09T18:45:45.000Z</time>
      </trkpt>
      <trkpt lat="17.8138970397412776947021484375" lon="-92.5312132202088832855224609375">
        <ele>30</ele>
        <time>2021-03-09T18:45:53.000Z</time>
      </trkpt>
      <trkpt lat="17.8136988915503025054931640625" lon="-92.5317008793354034423828125">
        <ele>29.6000003814697265625</ele>
        <time>2021-03-09T18:46:03.000Z</time>
      </trkpt>
      <trkpt lat="17.81346000730991363525390625" lon="-92.53227311186492443084716796875">
        <ele>29.200000762939453125</ele>
        <time>2021-03-09T18:46:14.000Z</time>
      </trkpt>
      <trkpt lat="17.81329111196100711822509765625" lon="-92.53268726170063018798828125">
        <ele>28.799999237060546875</ele>
        <time>2021-03-09T18:46:21.000Z</time>
      </trkpt>
      <trkpt lat="17.81306932680308818817138671875" lon="-92.53323066048324108123779296875">
        <ele>28.200000762939453125</ele>
        <time>2021-03-09T18:46:30.000Z</time>
      </trkpt>
      <trkpt lat="17.812940664589405059814453125" lon="-92.53354548476636409759521484375">
        <ele>28.200000762939453125</ele>
        <time>2021-03-09T18:46:35.000Z</time>
      </trkpt>
      <trkpt lat="17.81272198073565959930419921875" lon="-92.5340912304818630218505859375">
        <ele>28.6000003814697265625</ele>
        <time>2021-03-09T18:46:44.000Z</time>
      </trkpt>
      <trkpt lat="17.81264302320778369903564453125" lon="-92.53429784439504146575927734375">
        <ele>28.799999237060546875</ele>
        <time>2021-03-09T18:46:47.000Z</time>
      </trkpt>
      <trkpt lat="17.812440097332000732421875" lon="-92.534859515726566314697265625">
        <ele>29.200000762939453125</ele>
        <time>2021-03-09T18:46:56.000Z</time>
      </trkpt>
      <trkpt lat="17.81236030161380767822265625" lon="-92.53512145020067691802978515625">
        <ele>29.3999996185302734375</ele>
        <time>2021-03-09T18:47:00.000Z</time>
      </trkpt>
      <trkpt lat="17.8122491575777530670166015625" lon="-92.53558966331183910369873046875">
        <ele>29.3999996185302734375</ele>
        <time>2021-03-09T18:47:07.000Z</time>
      </trkpt>
      <trkpt lat="17.8121599741280078887939453125" lon="-92.53617036156356334686279296875">
        <ele>28.200000762939453125</ele>
        <time>2021-03-09T18:47:15.000Z</time>
      </trkpt>
      <trkpt lat="17.81215150840580463409423828125" lon="-92.53624378703534603118896484375">
        <ele>28</ele>
        <time>2021-03-09T18:47:16.000Z</time>
      </trkpt>
      <trkpt lat="17.81208797357976436614990234375" lon="-92.53683722577989101409912109375">
        <ele>28.3999996185302734375</ele>
        <time>2021-03-09T18:47:24.000Z</time>
      </trkpt>
      <trkpt lat="17.8120583854615688323974609375" lon="-92.5371323525905609130859375">
        <ele>28.3999996185302734375</ele>
        <time>2021-03-09T18:47:28.000Z</time>
      </trkpt>
      <trkpt lat="17.81201303936541080474853515625" lon="-92.53758422099053859710693359375">
        <ele>28</ele>
        <time>2021-03-09T18:47:34.000Z</time>
      </trkpt>
      <trkpt lat="17.8119601495563983917236328125" lon="-92.5380850397050380706787109375">
        <ele>27.3999996185302734375</ele>
        <time>2021-03-09T18:47:41.000Z</time>
      </trkpt>
      <trkpt lat="17.81189669854938983917236328125" lon="-92.5386717729270458221435546875">
        <ele>27.6000003814697265625</ele>
        <time>2021-03-09T18:47:49.000Z</time>
      </trkpt>
      <trkpt lat="17.81187859363853931427001953125" lon="-92.538821138441562652587890625">
        <ele>27.799999237060546875</ele>
        <time>2021-03-09T18:47:51.000Z</time>
      </trkpt>
      <trkpt lat="17.8118183277547359466552734375" lon="-92.53941885195672512054443359375">
        <ele>28.6000003814697265625</ele>
        <time>2021-03-09T18:47:59.000Z</time>
      </trkpt>
      <trkpt lat="17.81179594807326793670654296875" lon="-92.53964298404753208160400390625">
        <ele>29.200000762939453125</ele>
        <time>2021-03-09T18:48:02.000Z</time>
      </trkpt>
      <trkpt lat="17.81173191033303737640380859375" lon="-92.54024229012429714202880859375">
        <ele>30.200000762939453125</ele>
        <time>2021-03-09T18:48:10.000Z</time>
      </trkpt>
      <trkpt lat="17.81170047819614410400390625" lon="-92.54053515382111072540283203125">
        <ele>30.6000003814697265625</ele>
        <time>2021-03-09T18:48:14.000Z</time>
      </trkpt>
      <trkpt lat="17.8116356022655963897705078125" lon="-92.541136555373668670654296875">
        <ele>30.799999237060546875</ele>
        <time>2021-03-09T18:48:22.000Z</time>
      </trkpt>
      <trkpt lat="17.81163099221885204315185546875" lon="-92.54120956175029277801513671875">
        <ele>30.6000003814697265625</ele>
        <time>2021-03-09T18:48:23.000Z</time>
      </trkpt>
      <trkpt lat="17.81156594865024089813232421875" lon="-92.54179277457296848297119140625">
        <ele>30.3999996185302734375</ele>
        <time>2021-03-09T18:48:31.000Z</time>
      </trkpt>
      <trkpt lat="17.81153661198914051055908203125" lon="-92.54207792691886425018310546875">
        <ele>30.3999996185302734375</ele>
        <time>2021-03-09T18:48:35.000Z</time>
      </trkpt>
      <trkpt lat="17.8114786930382251739501953125" lon="-92.54264839924871921539306640625">
        <ele>30</ele>
        <time>2021-03-09T18:48:43.000Z</time>
      </trkpt>
      <trkpt lat="17.8114704787731170654296875" lon="-92.542717717587947845458984375">
        <ele>30</ele>
        <time>2021-03-09T18:48:44.000Z</time>
      </trkpt>
      <trkpt lat="17.8114086203277111053466796875" lon="-92.5433341227471828460693359375">
        <ele>29.3999996185302734375</ele>
        <time>2021-03-09T18:48:53.000Z</time>
      </trkpt>
      <trkpt lat="17.81138800084590911865234375" lon="-92.54361927509307861328125">
        <ele>29.6000003814697265625</ele>
        <time>2021-03-09T18:48:57.000Z</time>
      </trkpt>
      <trkpt lat="17.81133209355175495147705078125" lon="-92.54424666054546833038330078125">
        <ele>31</ele>
        <time>2021-03-09T18:49:06.000Z</time>
      </trkpt>
      <trkpt lat="17.8113122284412384033203125" lon="-92.544448412954807281494140625">
        <ele>31.3999996185302734375</ele>
        <time>2021-03-09T18:49:09.000Z</time>
      </trkpt>
      <trkpt lat="17.81124760396778583526611328125" lon="-92.5450654886662960052490234375">
        <ele>32.799999237060546875</ele>
        <time>2021-03-09T18:49:18.000Z</time>
      </trkpt>
      <trkpt lat="17.81123972497880458831787109375" lon="-92.5451389141380786895751953125">
        <ele>32.59999847412109375</ele>
        <time>2021-03-09T18:49:19.000Z</time>
      </trkpt>
      <trkpt lat="17.81120988540351390838623046875" lon="-92.5453474558889865875244140625">
        <ele>32.200000762939453125</ele>
        <time>2021-03-09T18:49:22.000Z</time>
      </trkpt>
      <trkpt lat="17.81117769889533519744873046875" lon="-92.54548248834908008575439453125">
        <ele>31.799999237060546875</ele>
        <time>2021-03-09T18:49:24.000Z</time>
      </trkpt>
      <trkpt lat="17.8110837377607822418212890625" lon="-92.54580602981150150299072265625">
        <ele>31.6000003814697265625</ele>
        <time>2021-03-09T18:49:29.000Z</time>
      </trkpt>
      <trkpt lat="17.8109945543110370635986328125" lon="-92.54602856934070587158203125">
        <ele>31.200000762939453125</ele>
        <time>2021-03-09T18:49:33.000Z</time>
      </trkpt>
      <trkpt lat="17.81081224791705608367919921875" lon="-92.54638069309294223785400390625">
        <ele>30.6000003814697265625</ele>
        <time>2021-03-09T18:49:40.000Z</time>
      </trkpt>
      <trkpt lat="17.81061527319252490997314453125" lon="-92.54672653041779994964599609375">
        <ele>31</ele>
        <time>2021-03-09T18:49:47.000Z</time>
      </trkpt>
      <trkpt lat="17.81051016412675380706787109375" lon="-92.546930126845836639404296875">
        <ele>31</ele>
        <time>2021-03-09T18:49:51.000Z</time>
      </trkpt>
      <trkpt lat="17.810426764190196990966796875" lon="-92.54708611406385898590087890625">
        <ele>31.200000762939453125</ele>
        <time>2021-03-09T18:49:54.000Z</time>
      </trkpt>
      <trkpt lat="17.810401283204555511474609375" lon="-92.5471371598541736602783203125">
        <ele>31.200000762939453125</ele>
        <time>2021-03-09T18:49:55.000Z</time>
      </trkpt>
      <trkpt lat="17.81022584997117519378662109375" lon="-92.547477968037128448486328125">
        <ele>32</ele>
        <time>2021-03-09T18:50:02.000Z</time>
      </trkpt>
      <trkpt lat="17.8100175596773624420166015625" lon="-92.54783277399837970733642578125">
        <ele>32</ele>
        <time>2021-03-09T18:50:10.000Z</time>
      </trkpt>
      <trkpt lat="17.80972771346569061279296875" lon="-92.548377178609371185302734375">
        <ele>32.40000152587890625</ele>
        <time>2021-03-09T18:50:21.000Z</time>
      </trkpt>
      <trkpt lat="17.80952260829508304595947265625" lon="-92.54874338395893573760986328125">
        <ele>32.59999847412109375</ele>
        <time>2021-03-09T18:50:28.000Z</time>
      </trkpt>
      <trkpt lat="17.8094335086643695831298828125" lon="-92.5489094294607639312744140625">
        <ele>32.799999237060546875</ele>
        <time>2021-03-09T18:50:31.000Z</time>
      </trkpt>
      <trkpt lat="17.8091572411358356475830078125" lon="-92.5494264252483844757080078125">
        <ele>33.59999847412109375</ele>
        <time>2021-03-09T18:50:40.000Z</time>
      </trkpt>
      <trkpt lat="17.80912413261830806732177734375" lon="-92.54948593676090240478515625">
        <ele>33.799999237060546875</ele>
        <time>2021-03-09T18:50:41.000Z</time>
      </trkpt>
      <trkpt lat="17.8088370524346828460693359375" lon="-92.55002061836421489715576171875">
        <ele>35.40000152587890625</ele>
        <time>2021-03-09T18:50:50.000Z</time>
      </trkpt>
      <trkpt lat="17.8087317757308483123779296875" lon="-92.55019529722630977630615234375">
        <ele>35.59999847412109375</ele>
        <time>2021-03-09T18:50:53.000Z</time>
      </trkpt>
      <trkpt lat="17.80848073773086071014404296875" lon="-92.55067055113613605499267578125">
        <ele>35.799999237060546875</ele>
        <time>2021-03-09T18:51:01.000Z</time>
      </trkpt>
      <trkpt lat="17.80820128507912158966064453125" lon="-92.55120431073009967803955078125">
        <ele>35.59999847412109375</ele>
        <time>2021-03-09T18:51:10.000Z</time>
      </trkpt>
      <trkpt lat="17.80814076773822307586669921875" lon="-92.551318891346454620361328125">
        <ele>35.40000152587890625</ele>
        <time>2021-03-09T18:51:12.000Z</time>
      </trkpt>
      <trkpt lat="17.80797480605542659759521484375" lon="-92.55162097513675689697265625">
        <ele>35.200000762939453125</ele>
        <time>2021-03-09T18:51:17.000Z</time>
      </trkpt>
      <trkpt lat="17.8077916614711284637451171875" lon="-92.55196237005293369293212890625">
        <ele>35</ele>
        <time>2021-03-09T18:51:23.000Z</time>
      </trkpt>
      <trkpt lat="17.8075153939425945281982421875" lon="-92.552473247051239013671875">
        <ele>35</ele>
        <time>2021-03-09T18:51:32.000Z</time>
      </trkpt>
      <trkpt lat="17.807484380900859832763671875" lon="-92.55252965725958347320556640625">
        <ele>35</ele>
        <time>2021-03-09T18:51:33.000Z</time>
      </trkpt>
      <trkpt lat="17.8073640167713165283203125" lon="-92.5527560524642467498779296875">
        <ele>35</ele>
        <time>2021-03-09T18:51:37.000Z</time>
      </trkpt>
      <trkpt lat="17.8072780184447765350341796875" lon="-92.5529206730425357818603515625">
        <ele>35.200000762939453125</ele>
        <time>2021-03-09T18:51:40.000Z</time>
      </trkpt>
      <trkpt lat="17.80714952386915683746337890625" lon="-92.5531449727714061737060546875">
        <ele>35.200000762939453125</ele>
        <time>2021-03-09T18:51:44.000Z</time>
      </trkpt>
      <trkpt lat="17.8069843165576457977294921875" lon="-92.553515620529651641845703125">
        <ele>35.40000152587890625</ele>
        <time>2021-03-09T18:51:51.000Z</time>
      </trkpt>
      <trkpt lat="17.8068508766591548919677734375" lon="-92.5538812391459941864013671875">
        <ele>35.200000762939453125</ele>
        <time>2021-03-09T18:51:58.000Z</time>
      </trkpt>
      <trkpt lat="17.80679563991725444793701171875" lon="-92.55407377146184444427490234375">
        <ele>35</ele>
        <time>2021-03-09T18:52:02.000Z</time>
      </trkpt>
      <trkpt lat="17.806782312691211700439453125" lon="-92.55411953665316104888916015625">
        <ele>35</ele>
        <time>2021-03-09T18:52:03.000Z</time>
      </trkpt>
      <trkpt lat="17.8067551553249359130859375" lon="-92.55421274341642856597900390625">
        <ele>35</ele>
        <time>2021-03-09T18:52:05.000Z</time>
      </trkpt>
      <trkpt lat="17.80669572763144969940185546875" lon="-92.5544495321810245513916015625">
        <ele>35</ele>
        <time>2021-03-09T18:52:10.000Z</time>
      </trkpt>
      <trkpt lat="17.80667460523545742034912109375" lon="-92.55460183136165142059326171875">
        <ele>34.799999237060546875</ele>
        <time>2021-03-09T18:52:13.000Z</time>
      </trkpt>
      <trkpt lat="17.80665633268654346466064453125" lon="-92.55475371144711971282958984375">
        <ele>34.799999237060546875</ele>
        <time>2021-03-09T18:52:16.000Z</time>
      </trkpt>
      <trkpt lat="17.8066490404307842254638671875" lon="-92.5549306534230709075927734375">
        <ele>34.799999237060546875</ele>
        <time>2021-03-09T18:52:20.000Z</time>
      </trkpt>
      <trkpt lat="17.80665884725749492645263671875" lon="-92.55513307638466358184814453125">
        <ele>35.40000152587890625</ele>
        <time>2021-03-09T18:52:24.000Z</time>
      </trkpt>
      <trkpt lat="17.80668013729155063629150390625" lon="-92.55533876828849315643310546875">
        <ele>36</ele>
        <time>2021-03-09T18:52:28.000Z</time>
      </trkpt>
      <trkpt lat="17.80672623775899410247802734375" lon="-92.5555495731532573699951171875">
        <ele>37</ele>
        <time>2021-03-09T18:52:32.000Z</time>
      </trkpt>
      <trkpt lat="17.80676026828587055206298828125" lon="-92.5556528382003307342529296875">
        <ele>37.40000152587890625</ele>
        <time>2021-03-09T18:52:34.000Z</time>
      </trkpt>
      <trkpt lat="17.80689689330756664276123046875" lon="-92.5560866855084896087646484375">
        <ele>38</ele>
        <time>2021-03-09T18:52:42.000Z</time>
      </trkpt>
      <trkpt lat="17.8070282377302646636962890625" lon="-92.55644568242132663726806640625">
        <ele>37.59999847412109375</ele>
        <time>2021-03-09T18:52:49.000Z</time>
      </trkpt>
      <trkpt lat="17.8071834705770015716552734375" lon="-92.5569604150950908660888671875">
        <ele>34</ele>
        <time>2021-03-09T18:52:58.000Z</time>
      </trkpt>
      <trkpt lat="17.80736477114260196685791015625" lon="-92.557555697858333587646484375">
        <ele>32.799999237060546875</ele>
        <time>2021-03-09T18:53:08.000Z</time>
      </trkpt>
      <trkpt lat="17.80749871395528316497802734375" lon="-92.55803070031106472015380859375">
        <ele>32.799999237060546875</ele>
        <time>2021-03-09T18:53:16.000Z</time>
      </trkpt>
      <trkpt lat="17.80761438421905040740966796875" lon="-92.558439485728740692138671875">
        <ele>33</ele>
        <time>2021-03-09T18:53:23.000Z</time>
      </trkpt>
      <trkpt lat="17.80775620602071285247802734375" lon="-92.5589090399444103240966796875">
        <ele>33.59999847412109375</ele>
        <time>2021-03-09T18:53:31.000Z</time>
      </trkpt>
      <trkpt lat="17.80785678885877132415771484375" lon="-92.5592305697500705718994140625">
        <ele>34.200000762939453125</ele>
        <time>2021-03-09T18:53:37.000Z</time>
      </trkpt>
      <trkpt lat="17.80793457292020320892333984375" lon="-92.55949384532868862152099609375">
        <ele>33.40000152587890625</ele>
        <time>2021-03-09T18:53:42.000Z</time>
      </trkpt>
      <trkpt lat="17.80800162814557552337646484375" lon="-92.55963516421616077423095703125">
        <ele>33</ele>
        <time>2021-03-09T18:53:45.000Z</time>
      </trkpt>
      <trkpt lat="17.80808796174824237823486328125" lon="-92.5599608011543750762939453125">
        <ele>33</ele>
        <time>2021-03-09T18:53:51.000Z</time>
      </trkpt>
      <trkpt lat="17.808098606765270233154296875" lon="-92.5600089132785797119140625">
        <ele>33</ele>
        <time>2021-03-09T18:53:52.000Z</time>
      </trkpt>
      <trkpt lat="17.8081631474196910858154296875" lon="-92.56033522076904773712158203125">
        <ele>32</ele>
        <time>2021-03-09T18:55:07.000Z</time>
      </trkpt>
      <trkpt lat="17.8081631474196910858154296875" lon="-92.56033522076904773712158203125">
        <ele>32</ele>
        <time>2021-03-09T18:55:08.000Z</time>
      </trkpt>
      <trkpt lat="17.80819776467978954315185546875" lon="-92.56036221049726009368896484375">
        <ele>32</ele>
        <time>2021-03-09T18:55:14.000Z</time>
      </trkpt>
      <trkpt lat="17.8082053922116756439208984375" lon="-92.56038031540811061859130859375">
        <ele>31.799999237060546875</ele>
        <time>2021-03-09T18:55:15.000Z</time>
      </trkpt>
      <trkpt lat="17.80823548324406147003173828125" lon="-92.560465894639492034912109375">
        <ele>31.799999237060546875</ele>
        <time>2021-03-09T18:55:18.000Z</time>
      </trkpt>
      <trkpt lat="17.80831175856292247772216796875" lon="-92.5607168488204479217529296875">
        <ele>31.200000762939453125</ele>
        <time>2021-03-09T18:55:25.000Z</time>
      </trkpt>
      <trkpt lat="17.808397673070430755615234375" lon="-92.56092195399105548858642578125">
        <ele>30.799999237060546875</ele>
        <time>2021-03-09T18:55:30.000Z</time>
      </trkpt>
      <trkpt lat="17.80841586180031299591064453125" lon="-92.56096855737268924713134765625">
        <ele>30.799999237060546875</ele>
        <time>2021-03-09T18:55:31.000Z</time>
      </trkpt>
      <trkpt lat="17.80847419984638690948486328125" lon="-92.56117408163845539093017578125">
        <ele>30.3999996185302734375</ele>
        <time>2021-03-09T18:55:35.000Z</time>
      </trkpt>
      <trkpt lat="17.808574028313159942626953125" lon="-92.56151405163109302520751953125">
        <ele>29.6000003814697265625</ele>
        <time>2021-03-09T18:55:41.000Z</time>
      </trkpt>
      <trkpt lat="17.8086295165121555328369140625" lon="-92.56168554536998271942138671875">
        <ele>29.200000762939453125</ele>
        <time>2021-03-09T18:55:44.000Z</time>
      </trkpt>
      <trkpt lat="17.80866631306707859039306640625" lon="-92.56180825643241405487060546875">
        <ele>28.799999237060546875</ele>
        <time>2021-03-09T18:55:46.000Z</time>
      </trkpt>
      <trkpt lat="17.80868240632116794586181640625" lon="-92.5618591345846652984619140625">
        <ele>28.6000003814697265625</ele>
        <time>2021-03-09T18:55:47.000Z</time>
      </trkpt>
      <trkpt lat="17.80877008102834224700927734375" lon="-92.5621350668370723724365234375">
        <ele>27.799999237060546875</ele>
        <time>2021-03-09T18:55:53.000Z</time>
      </trkpt>
      <trkpt lat="17.80884434469044208526611328125" lon="-92.56239733658730983734130859375">
        <ele>27.3999996185302734375</ele>
        <time>2021-03-09T18:55:58.000Z</time>
      </trkpt>
      <trkpt lat="17.80887301079928874969482421875" lon="-92.56250026635825634002685546875">
        <ele>27.200000762939453125</ele>
        <time>2021-03-09T18:56:00.000Z</time>
      </trkpt>
      <trkpt lat="17.80895196832716464996337890625" lon="-92.562740743160247802734375">
        <ele>27.3999996185302734375</ele>
        <time>2021-03-09T18:56:05.000Z</time>
      </trkpt>
      <trkpt lat="17.80901013873517513275146484375" lon="-92.56289069540798664093017578125">
        <ele>27.799999237060546875</ele>
        <time>2021-03-09T18:56:08.000Z</time>
      </trkpt>
      <trkpt lat="17.80902857892215251922607421875" lon="-92.56299563683569431304931640625">
        <ele>27.799999237060546875</ele>
        <time>2021-03-09T18:56:10.000Z</time>
      </trkpt>
      <trkpt lat="17.80907250009477138519287109375" lon="-92.563140057027339935302734375">
        <ele>28.200000762939453125</ele>
        <time>2021-03-09T18:56:13.000Z</time>
      </trkpt>
      <trkpt lat="17.80914860777556896209716796875" lon="-92.56338489241898059844970703125">
        <ele>29</ele>
        <time>2021-03-09T18:56:18.000Z</time>
      </trkpt>
      <trkpt lat="17.80916721560060977935791015625" lon="-92.5634319148957729339599609375">
        <ele>29.200000762939453125</ele>
        <time>2021-03-09T18:56:19.000Z</time>
      </trkpt>
      <trkpt lat="17.8092169202864170074462890625" lon="-92.56358220241963863372802734375">
        <ele>29.6000003814697265625</ele>
        <time>2021-03-09T18:56:22.000Z</time>
      </trkpt>
      <trkpt lat="17.80924483202397823333740234375" lon="-92.56374095566570758819580078125">
        <ele>30</ele>
        <time>2021-03-09T18:56:25.000Z</time>
      </trkpt>
      <trkpt lat="17.80928674153983592987060546875" lon="-92.5640253536403179168701171875">
        <ele>30.6000003814697265625</ele>
        <time>2021-03-09T18:56:31.000Z</time>
      </trkpt>
      <trkpt lat="17.8092890046536922454833984375" lon="-92.56406919099390506744384765625">
        <ele>30.6000003814697265625</ele>
        <time>2021-03-09T18:56:32.000Z</time>
      </trkpt>
      <trkpt lat="17.80929529108107089996337890625" lon="-92.5642077438533306121826171875">
        <ele>30.6000003814697265625</ele>
        <time>2021-03-09T18:56:35.000Z</time>
      </trkpt>
      <trkpt lat="17.8093151561915874481201171875" lon="-92.564347051084041595458984375">
        <ele>30.3999996185302734375</ele>
        <time>2021-03-09T18:56:38.000Z</time>
      </trkpt>
      <trkpt lat="17.80930266715586185455322265625" lon="-92.56469816900789737701416015625">
        <ele>30</ele>
        <time>2021-03-09T18:56:46.000Z</time>
      </trkpt>
      <trkpt lat="17.80926712788641452789306640625" lon="-92.56495465524494647979736328125">
        <ele>29.799999237060546875</ele>
        <time>2021-03-09T18:56:52.000Z</time>
      </trkpt>
      <trkpt lat="17.80925656668841838836669921875" lon="-92.56500092335045337677001953125">
        <ele>29.799999237060546875</ele>
        <time>2021-03-09T18:56:53.000Z</time>
      </trkpt>
      <trkpt lat="17.809199988842010498046875" lon="-92.56522354669868946075439453125">
        <ele>30.799999237060546875</ele>
        <time>2021-03-09T18:56:58.000Z</time>
      </trkpt>
      <trkpt lat="17.8091656230390071868896484375" lon="-92.5653590820729732513427734375">
        <ele>31.200000762939453125</ele>
        <time>2021-03-09T18:57:01.000Z</time>
      </trkpt>
      <trkpt lat="17.809150703251361846923828125" lon="-92.56539956666529178619384765625">
        <ele>31.3999996185302734375</ele>
        <time>2021-03-09T18:57:02.000Z</time>
      </trkpt>
      <trkpt lat="17.809076942503452301025390625" lon="-92.5656058453023433685302734375">
        <ele>32</ele>
        <time>2021-03-09T18:57:07.000Z</time>
      </trkpt>
      <trkpt lat="17.80906520783901214599609375" lon="-92.56565093994140625">
        <ele>32.200000762939453125</ele>
        <time>2021-03-09T18:57:08.000Z</time>
      </trkpt>
      <trkpt lat="17.80904148705303668975830078125" lon="-92.56584397517144680023193359375">
        <ele>32.799999237060546875</ele>
        <time>2021-03-09T18:57:12.000Z</time>
      </trkpt>
      <trkpt lat="17.809004522860050201416015625" lon="-92.56598948501050472259521484375">
        <ele>32.59999847412109375</ele>
        <time>2021-03-09T18:57:15.000Z</time>
      </trkpt>
      <trkpt lat="17.80897895805537700653076171875" lon="-92.56608470343053340911865234375">
        <ele>32.40000152587890625</ele>
        <time>2021-03-09T18:57:17.000Z</time>
      </trkpt>
      <trkpt lat="17.80893218703567981719970703125" lon="-92.5662760622799396514892578125">
        <ele>32.200000762939453125</ele>
        <time>2021-03-09T18:57:21.000Z</time>
      </trkpt>
      <trkpt lat="17.8088722564280033111572265625" lon="-92.56658460013568401336669921875">
        <ele>31.6000003814697265625</ele>
        <time>2021-03-09T18:57:28.000Z</time>
      </trkpt>
      <trkpt lat="17.80886077322065830230712890625" lon="-92.56662701256573200225830078125">
        <ele>31.6000003814697265625</ele>
        <time>2021-03-09T18:57:29.000Z</time>
      </trkpt>
      <trkpt lat="17.80876840464770793914794921875" lon="-92.56693982519209384918212890625">
        <ele>31.799999237060546875</ele>
        <time>2021-03-09T18:57:36.000Z</time>
      </trkpt>
      <trkpt lat="17.80875147320330142974853515625" lon="-92.56704510189592838287353515625">
        <ele>31.799999237060546875</ele>
        <time>2021-03-09T18:57:38.000Z</time>
      </trkpt>
      <trkpt lat="17.80871450901031494140625" lon="-92.5672141648828983306884765625">
        <ele>32</ele>
        <time>2021-03-09T18:57:42.000Z</time>
      </trkpt>
      <trkpt lat="17.80869430862367153167724609375" lon="-92.56729505024850368499755859375">
        <ele>32</ele>
        <time>2021-03-09T18:57:44.000Z</time>
      </trkpt>
      <trkpt lat="17.80868232250213623046875" lon="-92.56733779795467853546142578125">
        <ele>32</ele>
        <time>2021-03-09T18:57:45.000Z</time>
      </trkpt>
      <trkpt lat="17.80859355814754962921142578125" lon="-92.567656226456165313720703125">
        <ele>32.40000152587890625</ele>
        <time>2021-03-09T18:57:52.000Z</time>
      </trkpt>
      <trkpt lat="17.808585427701473236083984375" lon="-92.567704506218433380126953125">
        <ele>32.40000152587890625</ele>
        <time>2021-03-09T18:57:53.000Z</time>
      </trkpt>
      <trkpt lat="17.8085329569876194000244140625" lon="-92.56794489920139312744140625">
        <ele>33</ele>
        <time>2021-03-09T18:57:58.000Z</time>
      </trkpt>
      <trkpt lat="17.8084541670978069305419921875" lon="-92.56824220530688762664794921875">
        <ele>33.799999237060546875</ele>
        <time>2021-03-09T18:58:04.000Z</time>
      </trkpt>
      <trkpt lat="17.80840094201266765594482421875" lon="-92.56843482144176959991455078125">
        <ele>34</ele>
        <time>2021-03-09T18:58:08.000Z</time>
      </trkpt>
      <trkpt lat="17.8083505667746067047119140625" lon="-92.568630874156951904296875">
        <ele>34.40000152587890625</ele>
        <time>2021-03-09T18:58:12.000Z</time>
      </trkpt>
      <trkpt lat="17.8083162009716033935546875" lon="-92.568768672645092010498046875">
        <ele>34.40000152587890625</ele>
        <time>2021-03-09T18:58:15.000Z</time>
      </trkpt>
      <trkpt lat="17.8082692623138427734375" lon="-92.5689666531980037689208984375">
        <ele>34.59999847412109375</ele>
        <time>2021-03-09T18:58:19.000Z</time>
      </trkpt>
      <trkpt lat="17.8081257641315460205078125" lon="-92.56944970227777957916259765625">
        <ele>35.59999847412109375</ele>
        <time>2021-03-09T18:58:29.000Z</time>
      </trkpt>
      <trkpt lat="17.8080109320580959320068359375" lon="-92.569832503795623779296875">
        <ele>36.200000762939453125</ele>
        <time>2021-03-09T18:58:37.000Z</time>
      </trkpt>
      <trkpt lat="17.80788545496761798858642578125" lon="-92.57018052041530609130859375">
        <ele>37</ele>
        <time>2021-03-09T18:58:44.000Z</time>
      </trkpt>
      <trkpt lat="17.80785997398197650909423828125" lon="-92.5702259503304958343505859375">
        <ele>37.200000762939453125</ele>
        <time>2021-03-09T18:58:45.000Z</time>
      </trkpt>
      <trkpt lat="17.80776760540902614593505859375" lon="-92.57042954675853252410888671875">
        <ele>37.799999237060546875</ele>
        <time>2021-03-09T18:58:49.000Z</time>
      </trkpt>
      <trkpt lat="17.80771831981837749481201171875" lon="-92.570522166788578033447265625">
        <ele>38</ele>
        <time>2021-03-09T18:58:51.000Z</time>
      </trkpt>
      <trkpt lat="17.80753240920603275299072265625" lon="-92.57085769437253475189208984375">
        <ele>39</ele>
        <time>2021-03-09T18:58:58.000Z</time>
      </trkpt>
      <trkpt lat="17.80747734010219573974609375" lon="-92.5709615461528301239013671875">
        <ele>39.200000762939453125</ele>
        <time>2021-03-09T18:59:00.000Z</time>
      </trkpt>
      <trkpt lat="17.80738756991922855377197265625" lon="-92.57111937738955020904541015625">
        <ele>39.40000152587890625</ele>
        <time>2021-03-09T18:59:03.000Z</time>
      </trkpt>
      <trkpt lat="17.8073532879352569580078125" lon="-92.571168243885040283203125">
        <ele>39.40000152587890625</ele>
        <time>2021-03-09T18:59:04.000Z</time>
      </trkpt>
      <trkpt lat="17.80728816054761409759521484375" lon="-92.57127461023628711700439453125">
        <ele>39.59999847412109375</ele>
        <time>2021-03-09T18:59:06.000Z</time>
      </trkpt>
      <trkpt lat="17.80722789466381072998046875" lon="-92.57135608233511447906494140625">
        <ele>39.799999237060546875</ele>
        <time>2021-03-09T18:59:08.000Z</time>
      </trkpt>
      <trkpt lat="17.80719545669853687286376953125" lon="-92.57140721194446086883544921875">
        <ele>39.799999237060546875</ele>
        <time>2021-03-09T18:59:09.000Z</time>
      </trkpt>
      <trkpt lat="17.8070996515452861785888671875" lon="-92.571565210819244384765625">
        <ele>40</ele>
        <time>2021-03-09T18:59:12.000Z</time>
      </trkpt>
      <trkpt lat="17.80698087997734546661376953125" lon="-92.57175170816481113433837890625">
        <ele>40.200000762939453125</ele>
        <time>2021-03-09T18:59:16.000Z</time>
      </trkpt>
      <trkpt lat="17.80668114311993122100830078125" lon="-92.57218320854008197784423828125">
        <ele>39.799999237060546875</ele>
        <time>2021-03-09T18:59:25.000Z</time>
      </trkpt>
      <trkpt lat="17.806378640234470367431640625" lon="-92.57260850630700588226318359375">
        <ele>39.59999847412109375</ele>
        <time>2021-03-09T18:59:34.000Z</time>
      </trkpt>
      <trkpt lat="17.8060613013803958892822265625" lon="-92.5730818323791027069091796875">
        <ele>39.200000762939453125</ele>
        <time>2021-03-09T18:59:43.000Z</time>
      </trkpt>
      <trkpt lat="17.8057280369102954864501953125" lon="-92.57355247624218463897705078125">
        <ele>39.40000152587890625</ele>
        <time>2021-03-09T18:59:52.000Z</time>
      </trkpt>
      <trkpt lat="17.8054732270538806915283203125" lon="-92.573925219476222991943359375">
        <ele>40</ele>
        <time>2021-03-09T18:59:59.000Z</time>
      </trkpt>
      <trkpt lat="17.80520324595272541046142578125" lon="-92.57432185113430023193359375">
        <ele>41</ele>
        <time>2021-03-09T19:00:06.000Z</time>
      </trkpt>
      <trkpt lat="17.80495204031467437744140625" lon="-92.57466643117368221282958984375">
        <ele>41.200000762939453125</ele>
        <time>2021-03-09T19:00:12.000Z</time>
      </trkpt>
      <trkpt lat="17.8048294968903064727783203125" lon="-92.574832141399383544921875">
        <ele>40.59999847412109375</ele>
        <time>2021-03-09T19:00:15.000Z</time>
      </trkpt>
      <trkpt lat="17.8044858388602733612060546875" lon="-92.5753389112651348114013671875">
        <ele>39.59999847412109375</ele>
        <time>2021-03-09T19:00:24.000Z</time>
      </trkpt>
      <trkpt lat="17.8044082224369049072265625" lon="-92.57544997148215770721435546875">
        <ele>39.40000152587890625</ele>
        <time>2021-03-09T19:00:26.000Z</time>
      </trkpt>
      <trkpt lat="17.8040962480008602142333984375" lon="-92.5759129039943218231201171875">
        <ele>38.799999237060546875</ele>
        <time>2021-03-09T19:00:34.000Z</time>
      </trkpt>
      <trkpt lat="17.80405928380787372589111328125" lon="-92.57596931420266628265380859375">
        <ele>39</ele>
        <time>2021-03-09T19:00:35.000Z</time>
      </trkpt>
      <trkpt lat="17.80373071320354938507080078125" lon="-92.576500140130519866943359375">
        <ele>39.799999237060546875</ele>
        <time>2021-03-09T19:00:44.000Z</time>
      </trkpt>
      <trkpt lat="17.80369768850505352020263671875" lon="-92.57656107656657695770263671875">
        <ele>39.799999237060546875</ele>
        <time>2021-03-09T19:00:45.000Z</time>
      </trkpt>
      <trkpt lat="17.80342510901391506195068359375" lon="-92.57708746008574962615966796875">
        <ele>42</ele>
        <time>2021-03-09T19:00:54.000Z</time>
      </trkpt>
      <trkpt lat="17.80340130440890789031982421875" lon="-92.57714613340795040130615234375">
        <ele>42.200000762939453125</ele>
        <time>2021-03-09T19:00:55.000Z</time>
      </trkpt>
      <trkpt lat="17.80331212095916271209716796875" lon="-92.5774566829204559326171875">
        <ele>43.59999847412109375</ele>
        <time>2021-03-09T19:01:00.000Z</time>
      </trkpt>
      <trkpt lat="17.803294770419597625732421875" lon="-92.5775128416717052459716796875">
        <ele>43.799999237060546875</ele>
        <time>2021-03-09T19:01:01.000Z</time>
      </trkpt>
      <trkpt lat="17.80322109349071979522705078125" lon="-92.57777477614581584930419921875">
        <ele>43.200000762939453125</ele>
        <time>2021-03-09T19:01:06.000Z</time>
      </trkpt>
      <trkpt lat="17.80314247123897075653076171875" lon="-92.57809999398887157440185546875">
        <ele>42.200000762939453125</ele>
        <time>2021-03-09T19:01:12.000Z</time>
      </trkpt>
      <trkpt lat="17.80313023366034030914306640625" lon="-92.5781683064997196197509765625">
        <ele>42.200000762939453125</ele>
        <time>2021-03-09T19:01:13.000Z</time>
      </trkpt>
      <trkpt lat="17.80308480374515056610107421875" lon="-92.57855479605495929718017578125">
        <ele>41.59999847412109375</ele>
        <time>2021-03-09T19:01:20.000Z</time>
      </trkpt>
      <trkpt lat="17.80304457060992717742919921875" lon="-92.57904329337179660797119140625">
        <ele>41.200000762939453125</ele>
        <time>2021-03-09T19:01:28.000Z</time>
      </trkpt>
      <trkpt lat="17.80305060558021068572998046875" lon="-92.5792291201651096343994140625">
        <ele>41</ele>
        <time>2021-03-09T19:01:31.000Z</time>
      </trkpt>
      <trkpt lat="17.8030538745224475860595703125" lon="-92.57947529666125774383544921875">
        <ele>41.40000152587890625</ele>
        <time>2021-03-09T19:01:35.000Z</time>
      </trkpt>
      <trkpt lat="17.80310307629406452178955078125" lon="-92.579918615520000457763671875">
        <ele>40.799999237060546875</ele>
        <time>2021-03-09T19:01:42.000Z</time>
      </trkpt>
      <trkpt lat="17.8032084368169307708740234375" lon="-92.58045564405620098114013671875">
        <ele>38.200000762939453125</ele>
        <time>2021-03-09T19:01:50.000Z</time>
      </trkpt>
      <trkpt lat="17.80332687310874462127685546875" lon="-92.580936513841152191162109375">
        <ele>36.59999847412109375</ele>
        <time>2021-03-09T19:01:58.000Z</time>
      </trkpt>
      <trkpt lat="17.8034122847020626068115234375" lon="-92.581275813281536102294921875">
        <ele>37</ele>
        <time>2021-03-09T19:02:04.000Z</time>
      </trkpt>
      <trkpt lat="17.80345360748469829559326171875" lon="-92.58145392872393131256103515625">
        <ele>37</ele>
        <time>2021-03-09T19:02:07.000Z</time>
      </trkpt>
      <trkpt lat="17.80355083756148815155029296875" lon="-92.58185424841940402984619140625">
        <ele>37.40000152587890625</ele>
        <time>2021-03-09T19:02:14.000Z</time>
      </trkpt>
      <trkpt lat="17.8035614825785160064697265625" lon="-92.5819106586277484893798828125">
        <ele>37.59999847412109375</ele>
        <time>2021-03-09T19:02:15.000Z</time>
      </trkpt>
      <trkpt lat="17.80362510122358798980712890625" lon="-92.58217535912990570068359375">
        <ele>38.200000762939453125</ele>
        <time>2021-03-09T19:02:20.000Z</time>
      </trkpt>
      <trkpt lat="17.8036932460963726043701171875" lon="-92.5824819691479206085205078125">
        <ele>39</ele>
        <time>2021-03-09T19:02:26.000Z</time>
      </trkpt>
      <trkpt lat="17.80370539985597133636474609375" lon="-92.58253075182437896728515625">
        <ele>39</ele>
        <time>2021-03-09T19:02:27.000Z</time>
      </trkpt>
      <trkpt lat="17.8037727065384387969970703125" lon="-92.58274222724139690399169921875">
        <ele>39.59999847412109375</ele>
        <time>2021-03-09T19:02:31.000Z</time>
      </trkpt>
      <trkpt lat="17.80381402932107448577880859375" lon="-92.58290349505841732025146484375">
        <ele>40</ele>
        <time>2021-03-09T19:02:34.000Z</time>
      </trkpt>
      <trkpt lat="17.8039133548736572265625" lon="-92.58328570984303951263427734375">
        <ele>40.799999237060546875</ele>
        <time>2021-03-09T19:02:41.000Z</time>
      </trkpt>
      <trkpt lat="17.80392550863325595855712890625" lon="-92.58333918638527393341064453125">
        <ele>41</ele>
        <time>2021-03-09T19:02:42.000Z</time>
      </trkpt>
      <trkpt lat="17.803933806717395782470703125" lon="-92.58339014835655689239501953125">
        <ele>41</ele>
        <time>2021-03-09T19:02:43.000Z</time>
      </trkpt>
      <trkpt lat="17.80394512228667736053466796875" lon="-92.5834428705275058746337890625">
        <ele>41</ele>
        <time>2021-03-09T19:02:44.000Z</time>
      </trkpt>
      <trkpt lat="17.804008238017559051513671875" lon="-92.58365350775420665740966796875">
        <ele>41.200000762939453125</ele>
        <time>2021-03-09T19:02:48.000Z</time>
      </trkpt>
      <trkpt lat="17.80409348197281360626220703125" lon="-92.58394670672714710235595703125">
        <ele>41.59999847412109375</ele>
        <time>2021-03-09T19:02:54.000Z</time>
      </trkpt>
      <trkpt lat="17.8041425161063671112060546875" lon="-92.58420436643064022064208984375">
        <ele>41.799999237060546875</ele>
        <time>2021-03-09T19:02:59.000Z</time>
      </trkpt>
      <trkpt lat="17.80416749417781829833984375" lon="-92.58431048132479190826416015625">
        <ele>41.799999237060546875</ele>
        <time>2021-03-09T19:03:01.000Z</time>
      </trkpt>
      <trkpt lat="17.804177217185497283935546875" lon="-92.58436496369540691375732421875">
        <ele>41.799999237060546875</ele>
        <time>2021-03-09T19:03:02.000Z</time>
      </trkpt>
      <trkpt lat="17.80426464043557643890380859375" lon="-92.58469185791909694671630859375">
        <ele>42</ele>
        <time>2021-03-09T19:03:08.000Z</time>
      </trkpt>
      <trkpt lat="17.804278470575809478759765625" lon="-92.58474634028971195220947265625">
        <ele>42</ele>
        <time>2021-03-09T19:03:09.000Z</time>
      </trkpt>
      <trkpt lat="17.8043322823941707611083984375" lon="-92.58497022092342376708984375">
        <ele>42.200000762939453125</ele>
        <time>2021-03-09T19:03:13.000Z</time>
      </trkpt>
      <trkpt lat="17.804428674280643463134765625" lon="-92.5853874720633029937744140625">
        <ele>42</ele>
        <time>2021-03-09T19:03:20.000Z</time>
      </trkpt>
      <trkpt lat="17.80454568564891815185546875" lon="-92.5858511589467525482177734375">
        <ele>42.200000762939453125</ele>
        <time>2021-03-09T19:03:28.000Z</time>
      </trkpt>
      <trkpt lat="17.80462657101452350616455078125" lon="-92.58623488247394561767578125">
        <ele>41.59999847412109375</ele>
        <time>2021-03-09T19:03:35.000Z</time>
      </trkpt>
      <trkpt lat="17.80472497455775737762451171875" lon="-92.5865887664258480072021484375">
        <ele>40</ele>
        <time>2021-03-09T19:03:41.000Z</time>
      </trkpt>
      <trkpt lat="17.80475900508463382720947265625" lon="-92.586705945432186126708984375">
        <ele>39.40000152587890625</ele>
        <time>2021-03-09T19:03:43.000Z</time>
      </trkpt>
      <trkpt lat="17.8047906048595905303955078125" lon="-92.5868154130876064300537109375">
        <ele>38.799999237060546875</ele>
        <time>2021-03-09T19:03:45.000Z</time>
      </trkpt>
      <trkpt lat="17.8047999925911426544189453125" lon="-92.58686696179211139678955078125">
        <ele>38.40000152587890625</ele>
        <time>2021-03-09T19:03:46.000Z</time>
      </trkpt>
      <trkpt lat="17.804812900722026824951171875" lon="-92.58693401701748371124267578125">
        <ele>38</ele>
        <time>2021-03-09T19:03:48.000Z</time>
      </trkpt>
      <trkpt lat="17.8048103861510753631591796875" lon="-92.586943991482257843017578125">
        <ele>38</ele>
        <time>2021-03-09T19:03:49.000Z</time>
      </trkpt>
      <trkpt lat="17.80480477027595043182373046875" lon="-92.58696980774402618408203125">
        <ele>38</ele>
        <time>2021-03-09T19:03:51.000Z</time>
      </trkpt>
      <trkpt lat="17.80483980663120746612548828125" lon="-92.58705086074769496917724609375">
        <ele>38.59999847412109375</ele>
        <time>2021-03-09T19:03:55.000Z</time>
      </trkpt>
      <trkpt lat="17.8048931993544101715087890625" lon="-92.5872764177620410919189453125">
        <ele>39.799999237060546875</ele>
        <time>2021-03-09T19:04:00.000Z</time>
      </trkpt>
      <trkpt lat="17.8049263916909694671630859375" lon="-92.5874859653413295745849609375">
        <ele>40.59999847412109375</ele>
        <time>2021-03-09T19:04:04.000Z</time>
      </trkpt>
      <trkpt lat="17.80494131147861480712890625" lon="-92.5875878892838954925537109375">
        <ele>40.799999237060546875</ele>
        <time>2021-03-09T19:04:06.000Z</time>
      </trkpt>
      <trkpt lat="17.8049455024302005767822265625" lon="-92.58798762224614620208740234375">
        <ele>39.799999237060546875</ele>
        <time>2021-03-09T19:04:14.000Z</time>
      </trkpt>
      <trkpt lat="17.80493804253637790679931640625" lon="-92.58809373714029788970947265625">
        <ele>39.59999847412109375</ele>
        <time>2021-03-09T19:04:16.000Z</time>
      </trkpt>
      <trkpt lat="17.80490585602819919586181640625" lon="-92.58821996860206127166748046875">
        <ele>39</ele>
        <time>2021-03-09T19:04:19.000Z</time>
      </trkpt>
      <trkpt lat="17.80486344359815120697021484375" lon="-92.5884710066020488739013671875">
        <ele>38.40000152587890625</ele>
        <time>2021-03-09T19:04:23.000Z</time>
      </trkpt>
      <trkpt lat="17.80471323989331722259521484375" lon="-92.5888964720070362091064453125">
        <ele>36.200000762939453125</ele>
        <time>2021-03-09T19:04:30.000Z</time>
      </trkpt>
      <trkpt lat="17.804519869387149810791015625" lon="-92.58931146003305912017822265625">
        <ele>34</ele>
        <time>2021-03-09T19:04:36.000Z</time>
      </trkpt>
      <trkpt lat="17.804519869387149810791015625" lon="-92.58931146003305912017822265625">
        <ele>34</ele>
        <time>2021-03-09T19:04:37.000Z</time>
      </trkpt>
      <trkpt lat="17.804366648197174072265625" lon="-92.58950089104473590850830078125">
        <ele>33.59999847412109375</ele>
        <time>2021-03-09T19:04:41.000Z</time>
      </trkpt>
      <trkpt lat="17.80432549305260181427001953125" lon="-92.58954313583672046661376953125">
        <ele>33.40000152587890625</ele>
        <time>2021-03-09T19:04:42.000Z</time>
      </trkpt>
      <trkpt lat="17.8042880259454250335693359375" lon="-92.589594684541225433349609375">
        <ele>33.200000762939453125</ele>
        <time>2021-03-09T19:04:43.000Z</time>
      </trkpt>
      <trkpt lat="17.80419926159083843231201171875" lon="-92.58975016884505748748779296875">
        <ele>33</ele>
        <time>2021-03-09T19:04:46.000Z</time>
      </trkpt>
      <trkpt lat="17.80397680588066577911376953125" lon="-92.5900602154433727264404296875">
        <ele>32.59999847412109375</ele>
        <time>2021-03-09T19:04:52.000Z</time>
      </trkpt>
      <trkpt lat="17.80386951752007007598876953125" lon="-92.59019239805638790130615234375">
        <ele>33</ele>
        <time>2021-03-09T19:04:55.000Z</time>
      </trkpt>
      <trkpt lat="17.80381344258785247802734375" lon="-92.59030153043568134307861328125">
        <ele>33.40000152587890625</ele>
        <time>2021-03-09T19:04:57.000Z</time>
      </trkpt>
      <trkpt lat="17.80359752476215362548828125" lon="-92.59059213101863861083984375">
        <ele>34.200000762939453125</ele>
        <time>2021-03-09T19:05:03.000Z</time>
      </trkpt>
      <trkpt lat="17.80333961360156536102294921875" lon="-92.5909401476383209228515625">
        <ele>35</ele>
        <time>2021-03-09T19:05:10.000Z</time>
      </trkpt>
      <trkpt lat="17.8032547049224376678466796875" lon="-92.59105355478823184967041015625">
        <ele>35</ele>
        <time>2021-03-09T19:05:12.000Z</time>
      </trkpt>
      <trkpt lat="17.8031836263835430145263671875" lon="-92.5911434926092624664306640625">
        <ele>35.200000762939453125</ele>
        <time>2021-03-09T19:05:14.000Z</time>
      </trkpt>
      <trkpt lat="17.8031514398753643035888671875" lon="-92.59119470603764057159423828125">
        <ele>35.200000762939453125</ele>
        <time>2021-03-09T19:05:15.000Z</time>
      </trkpt>
      <trkpt lat="17.802980951964855194091796875" lon="-92.59143459610641002655029296875">
        <ele>35.200000762939453125</ele>
        <time>2021-03-09T19:05:20.000Z</time>
      </trkpt>
      <trkpt lat="17.80294247902929782867431640625" lon="-92.5914911739528179168701171875">
        <ele>35.200000762939453125</ele>
        <time>2021-03-09T19:05:21.000Z</time>
      </trkpt>
      <trkpt lat="17.80267425812780857086181640625" lon="-92.59184313006699085235595703125">
        <ele>36.59999847412109375</ele>
        <time>2021-03-09T19:05:29.000Z</time>
      </trkpt>
      <trkpt lat="17.80236345715820789337158203125" lon="-92.592236660420894622802734375">
        <ele>39.200000762939453125</ele>
        <time>2021-03-09T19:05:39.000Z</time>
      </trkpt>
      <trkpt lat="17.80223286710679531097412109375" lon="-92.592402286827564239501953125">
        <ele>40</ele>
        <time>2021-03-09T19:05:44.000Z</time>
      </trkpt>
      <trkpt lat="17.8021375648677349090576171875" lon="-92.59254419244825839996337890625">
        <ele>40.59999847412109375</ele>
        <time>2021-03-09T19:05:48.000Z</time>
      </trkpt>
      <trkpt lat="17.80197872780263423919677734375" lon="-92.59275977499783039093017578125">
        <ele>40.59999847412109375</ele>
        <time>2021-03-09T19:05:54.000Z</time>
      </trkpt>
      <trkpt lat="17.80191737227141857147216796875" lon="-92.59283303283154964447021484375">
        <ele>40.59999847412109375</ele>
        <time>2021-03-09T19:05:56.000Z</time>
      </trkpt>
      <trkpt lat="17.80185417272150516510009765625" lon="-92.59291090071201324462890625">
        <ele>40.59999847412109375</ele>
        <time>2021-03-09T19:05:58.000Z</time>
      </trkpt>
      <trkpt lat="17.8017959184944629669189453125" lon="-92.5929922051727771759033203125">
        <ele>40.59999847412109375</ele>
        <time>2021-03-09T19:06:00.000Z</time>
      </trkpt>
      <trkpt lat="17.80167530290782451629638671875" lon="-92.5931631959974765777587890625">
        <ele>40.59999847412109375</ele>
        <time>2021-03-09T19:06:04.000Z</time>
      </trkpt>
      <trkpt lat="17.80143432319164276123046875" lon="-92.593479864299297332763671875">
        <ele>40.200000762939453125</ele>
        <time>2021-03-09T19:06:11.000Z</time>
      </trkpt>
      <trkpt lat="17.80113567598164081573486328125" lon="-92.59387088008224964141845703125">
        <ele>39</ele>
        <time>2021-03-09T19:06:19.000Z</time>
      </trkpt>
      <trkpt lat="17.8008376993238925933837890625" lon="-92.594259716570377349853515625">
        <ele>37.59999847412109375</ele>
        <time>2021-03-09T19:06:27.000Z</time>
      </trkpt>
      <trkpt lat="17.80055715702474117279052734375" lon="-92.594622485339641571044921875">
        <ele>35.799999237060546875</ele>
        <time>2021-03-09T19:06:34.000Z</time>
      </trkpt>
      <trkpt lat="17.80047233216464519500732421875" lon="-92.5947354733943939208984375">
        <ele>35.200000762939453125</ele>
        <time>2021-03-09T19:06:36.000Z</time>
      </trkpt>
      <trkpt lat="17.8004025109112262725830078125" lon="-92.59483530186116695404052734375">
        <ele>34.59999847412109375</ele>
        <time>2021-03-09T19:06:38.000Z</time>
      </trkpt>
      <trkpt lat="17.8002264909446239471435546875" lon="-92.59506471455097198486328125">
        <ele>34</ele>
        <time>2021-03-09T19:06:42.000Z</time>
      </trkpt>
      <trkpt lat="17.80013672076165676116943359375" lon="-92.59517594240605831146240234375">
        <ele>34.200000762939453125</ele>
        <time>2021-03-09T19:06:44.000Z</time>
      </trkpt>
      <trkpt lat="17.79984301887452602386474609375" lon="-92.59555027820169925689697265625">
        <ele>33.200000762939453125</ele>
        <time>2021-03-09T19:06:51.000Z</time>
      </trkpt>
      <trkpt lat="17.79958418570458889007568359375" lon="-92.59590692818164825439453125">
        <ele>31.799999237060546875</ele>
        <time>2021-03-09T19:06:58.000Z</time>
      </trkpt>
      <trkpt lat="17.799506485462188720703125" lon="-92.5960147194564342498779296875">
        <ele>31.3999996185302734375</ele>
        <time>2021-03-09T19:07:00.000Z</time>
      </trkpt>
      <trkpt lat="17.79938804917037487030029296875" lon="-92.5961645878851413726806640625">
        <ele>30.799999237060546875</ele>
        <time>2021-03-09T19:07:03.000Z</time>
      </trkpt>
      <trkpt lat="17.79921236447989940643310546875" lon="-92.59638880379498004913330078125">
        <ele>30</ele>
        <time>2021-03-09T19:07:07.000Z</time>
      </trkpt>
      <trkpt lat="17.799034081399440765380859375" lon="-92.59664813987910747528076171875">
        <ele>30</ele>
        <time>2021-03-09T19:07:12.000Z</time>
      </trkpt>
      <trkpt lat="17.79899108223617076873779296875" lon="-92.59669742546975612640380859375">
        <ele>30</ele>
        <time>2021-03-09T19:07:13.000Z</time>
      </trkpt>
      <trkpt lat="17.79878572560846805572509765625" lon="-92.59697553701698780059814453125">
        <ele>29</ele>
        <time>2021-03-09T19:07:18.000Z</time>
      </trkpt>
      <trkpt lat="17.79874482192099094390869140625" lon="-92.5970309413969516754150390625">
        <ele>28.799999237060546875</ele>
        <time>2021-03-09T19:07:19.000Z</time>
      </trkpt>
      <trkpt lat="17.79855824075639247894287109375" lon="-92.59729488752782344818115234375">
        <ele>27.799999237060546875</ele>
        <time>2021-03-09T19:07:24.000Z</time>
      </trkpt>
      <trkpt lat="17.79849453829228878021240234375" lon="-92.59738842956721782684326171875">
        <ele>27.6000003814697265625</ele>
        <time>2021-03-09T19:07:26.000Z</time>
      </trkpt>
      <trkpt lat="17.79839898459613323211669921875" lon="-92.59747023694217205047607421875">
        <ele>27</ele>
        <time>2021-03-09T19:07:28.000Z</time>
      </trkpt>
      <trkpt lat="17.7983321808278560638427734375" lon="-92.59755657054483890533447265625">
        <ele>27</ele>
        <time>2021-03-09T19:07:30.000Z</time>
      </trkpt>
      <trkpt lat="17.7982740104198455810546875" lon="-92.59767341427505016326904296875">
        <ele>27.3999996185302734375</ele>
        <time>2021-03-09T19:07:32.000Z</time>
      </trkpt>
      <trkpt lat="17.7982383035123348236083984375" lon="-92.59773485362529754638671875">
        <ele>27.6000003814697265625</ele>
        <time>2021-03-09T19:07:33.000Z</time>
      </trkpt>
      <trkpt lat="17.79807192273437976837158203125" lon="-92.5979526154696941375732421875">
        <ele>28.200000762939453125</ele>
        <time>2021-03-09T19:07:37.000Z</time>
      </trkpt>
      <trkpt lat="17.79796077869832515716552734375" lon="-92.59811983443796634674072265625">
        <ele>28.6000003814697265625</ele>
        <time>2021-03-09T19:07:40.000Z</time>
      </trkpt>
      <trkpt lat="17.79787679202854633331298828125" lon="-92.59824841283261775970458984375">
        <ele>29</ele>
        <time>2021-03-09T19:07:43.000Z</time>
      </trkpt>
      <trkpt lat="17.79768954031169414520263671875" lon="-92.5985148735344409942626953125">
        <ele>28.3999996185302734375</ele>
        <time>2021-03-09T19:07:49.000Z</time>
      </trkpt>
      <trkpt lat="17.7976244129240512847900390625" lon="-92.598596513271331787109375">
        <ele>28</ele>
        <time>2021-03-09T19:07:51.000Z</time>
      </trkpt>
      <trkpt lat="17.79751586727797985076904296875" lon="-92.5987368263304233551025390625">
        <ele>27.799999237060546875</ele>
        <time>2021-03-09T19:07:54.000Z</time>
      </trkpt>
      <trkpt lat="17.7973112650215625762939453125" lon="-92.59900798089802265167236328125">
        <ele>28.6000003814697265625</ele>
        <time>2021-03-09T19:08:00.000Z</time>
      </trkpt>
      <trkpt lat="17.7972413599491119384765625" lon="-92.5991093181073665618896484375">
        <ele>29</ele>
        <time>2021-03-09T19:08:02.000Z</time>
      </trkpt>
      <trkpt lat="17.79707531444728374481201171875" lon="-92.59935918264091014862060546875">
        <ele>29.200000762939453125</ele>
        <time>2021-03-09T19:08:07.000Z</time>
      </trkpt>
      <trkpt lat="17.79699392616748809814453125" lon="-92.5994492881000041961669921875">
        <ele>29.3999996185302734375</ele>
        <time>2021-03-09T19:08:09.000Z</time>
      </trkpt>
      <trkpt lat="17.796800471842288970947265625" lon="-92.59968523867428302764892578125">
        <ele>29.6000003814697265625</ele>
        <time>2021-03-09T19:08:14.000Z</time>
      </trkpt>
      <trkpt lat="17.796601317822933197021484375" lon="-92.59995932690799236297607421875">
        <ele>29.3999996185302734375</ele>
        <time>2021-03-09T19:08:20.000Z</time>
      </trkpt>
      <trkpt lat="17.7963791973888874053955078125" lon="-92.6002475805580615997314453125">
        <ele>29.6000003814697265625</ele>
        <time>2021-03-09T19:08:26.000Z</time>
      </trkpt>
      <trkpt lat="17.79627467505633831024169921875" lon="-92.600393258035182952880859375">
        <ele>29.6000003814697265625</ele>
        <time>2021-03-09T19:08:29.000Z</time>
      </trkpt>
      <trkpt lat="17.79596672393381595611572265625" lon="-92.6008058153092861175537109375">
        <ele>29.799999237060546875</ele>
        <time>2021-03-09T19:08:37.000Z</time>
      </trkpt>
      <trkpt lat="17.795843593776226043701171875" lon="-92.60094009339809417724609375">
        <ele>30.200000762939453125</ele>
        <time>2021-03-09T19:08:40.000Z</time>
      </trkpt>
      <trkpt lat="17.795746363699436187744140625" lon="-92.601087279617786407470703125">
        <ele>30.799999237060546875</ele>
        <time>2021-03-09T19:08:43.000Z</time>
      </trkpt>
      <trkpt lat="17.79547185637056827545166015625" lon="-92.60148055851459503173828125">
        <ele>32.40000152587890625</ele>
        <time>2021-03-09T19:08:51.000Z</time>
      </trkpt>
      <trkpt lat="17.79526792466640472412109375" lon="-92.60175724513828754425048828125">
        <ele>33.40000152587890625</ele>
        <time>2021-03-09T19:08:57.000Z</time>
      </trkpt>
      <trkpt lat="17.79509969986975193023681640625" lon="-92.6020020805299282073974609375">
        <ele>33.200000762939453125</ele>
        <time>2021-03-09T19:09:02.000Z</time>
      </trkpt>
      <trkpt lat="17.79487757943570613861083984375" lon="-92.60228932835161685943603515625">
        <ele>31.200000762939453125</ele>
        <time>2021-03-09T19:09:08.000Z</time>
      </trkpt>
      <trkpt lat="17.794798873364925384521484375" lon="-92.6023829542100429534912109375">
        <ele>30.3999996185302734375</ele>
        <time>2021-03-09T19:09:10.000Z</time>
      </trkpt>
      <trkpt lat="17.79470290057361125946044921875" lon="-92.6025492511689662933349609375">
        <ele>29.200000762939453125</ele>
        <time>2021-03-09T19:09:13.000Z</time>
      </trkpt>
      <trkpt lat="17.79466710984706878662109375" lon="-92.60260415263473987579345703125">
        <ele>29</ele>
        <time>2021-03-09T19:09:14.000Z</time>
      </trkpt>
      <trkpt lat="17.7944822050631046295166015625" lon="-92.60286114178597927093505859375">
        <ele>27.799999237060546875</ele>
        <time>2021-03-09T19:09:19.000Z</time>
      </trkpt>
      <trkpt lat="17.7942763455212116241455078125" lon="-92.603108994662761688232421875">
        <ele>26.6000003814697265625</ele>
        <time>2021-03-09T19:09:24.000Z</time>
      </trkpt>
      <trkpt lat="17.794238291680812835693359375" lon="-92.60315819643437862396240234375">
        <ele>26.3999996185302734375</ele>
        <time>2021-03-09T19:09:25.000Z</time>
      </trkpt>
      <trkpt lat="17.79408062808215618133544921875" lon="-92.60335265658795833587646484375">
        <ele>25</ele>
        <time>2021-03-09T19:09:29.000Z</time>
      </trkpt>
      <trkpt lat="17.79400586150586605072021484375" lon="-92.603457681834697723388671875">
        <ele>24.6000003814697265625</ele>
        <time>2021-03-09T19:09:31.000Z</time>
      </trkpt>
      <trkpt lat="17.79383160173892974853515625" lon="-92.6036673970520496368408203125">
        <ele>23.6000003814697265625</ele>
        <time>2021-03-09T19:09:35.000Z</time>
      </trkpt>
      <trkpt lat="17.79370444826781749725341796875" lon="-92.603853978216648101806640625">
        <ele>23</ele>
        <time>2021-03-09T19:09:38.000Z</time>
      </trkpt>
      <trkpt lat="17.79339280910789966583251953125" lon="-92.60423476807773113250732421875">
        <ele>21</ele>
        <time>2021-03-09T19:09:44.000Z</time>
      </trkpt>
      <trkpt lat="17.793130539357662200927734375" lon="-92.60457557626068592071533203125">
        <ele>20</ele>
        <time>2021-03-09T19:09:49.000Z</time>
      </trkpt>
      <trkpt lat="17.79304026626050472259521484375" lon="-92.6046977005898952484130859375">
        <ele>19.6000003814697265625</ele>
        <time>2021-03-09T19:09:51.000Z</time>
      </trkpt>
      <trkpt lat="17.792783193290233612060546875" lon="-92.605062313377857208251953125">
        <ele>18.799999237060546875</ele>
        <time>2021-03-09T19:09:57.000Z</time>
      </trkpt>
      <trkpt lat="17.7924963645637035369873046875" lon="-92.60541879571974277496337890625">
        <ele>19.799999237060546875</ele>
        <time>2021-03-09T19:10:04.000Z</time>
      </trkpt>
      <trkpt lat="17.7924192510545253753662109375" lon="-92.6055125892162322998046875">
        <ele>20</ele>
        <time>2021-03-09T19:10:06.000Z</time>
      </trkpt>
      <trkpt lat="17.7921865694224834442138671875" lon="-92.605809979140758514404296875">
        <ele>21</ele>
        <time>2021-03-09T19:10:12.000Z</time>
      </trkpt>
      <trkpt lat="17.791921533644199371337890625" lon="-92.60612471960484981536865234375">
        <ele>21.799999237060546875</ele>
        <time>2021-03-09T19:10:18.000Z</time>
      </trkpt>
      <trkpt lat="17.7918653748929500579833984375" lon="-92.606188170611858367919921875">
        <ele>22</ele>
        <time>2021-03-09T19:10:19.000Z</time>
      </trkpt>
      <trkpt lat="17.791650630533695220947265625" lon="-92.60647743009030818939208984375">
        <ele>22.6000003814697265625</ele>
        <time>2021-03-09T19:10:24.000Z</time>
      </trkpt>
      <trkpt lat="17.79160897247493267059326171875" lon="-92.6065356843173503875732421875">
        <ele>22.799999237060546875</ele>
        <time>2021-03-09T19:10:25.000Z</time>
      </trkpt>
      <trkpt lat="17.79140478931367397308349609375" lon="-92.6068766601383686065673828125">
        <ele>23.3999996185302734375</ele>
        <time>2021-03-09T19:10:31.000Z</time>
      </trkpt>
      <trkpt lat="17.79138282872736454010009765625" lon="-92.6069329865276813507080078125">
        <ele>23.6000003814697265625</ele>
        <time>2021-03-09T19:10:32.000Z</time>
      </trkpt>
      <trkpt lat="17.79125307686626911163330078125" lon="-92.60736624710261821746826171875">
        <ele>24.6000003814697265625</ele>
        <time>2021-03-09T19:10:39.000Z</time>
      </trkpt>
      <trkpt lat="17.79113254509866237640380859375" lon="-92.60785474441945552825927734375">
        <ele>23</ele>
        <time>2021-03-09T19:10:47.000Z</time>
      </trkpt>
      <trkpt lat="17.79110647737979888916015625" lon="-92.6081661321222782135009765625">
        <ele>21.3999996185302734375</ele>
        <time>2021-03-09T19:10:52.000Z</time>
      </trkpt>
      <trkpt lat="17.79112315736711025238037109375" lon="-92.6083069480955600738525390625">
        <ele>21</ele>
        <time>2021-03-09T19:10:54.000Z</time>
      </trkpt>
      <trkpt lat="17.791185267269611358642578125" lon="-92.608580701053142547607421875">
        <ele>21</ele>
        <time>2021-03-09T19:10:59.000Z</time>
      </trkpt>
      <trkpt lat="17.79119876213371753692626953125" lon="-92.6086157374083995819091796875">
        <ele>21.200000762939453125</ele>
        <time>2021-03-09T19:11:00.000Z</time>
      </trkpt>
      <trkpt lat="17.79120999388396739959716796875" lon="-92.60866560973227024078369140625">
        <ele>21.200000762939453125</ele>
        <time>2021-03-09T19:11:01.000Z</time>
      </trkpt>
      <trkpt lat="17.791245281696319580078125" lon="-92.6088946871459484100341796875">
        <ele>21.3999996185302734375</ele>
        <time>2021-03-09T19:11:05.000Z</time>
      </trkpt>
      <trkpt lat="17.79129087924957275390625" lon="-92.60908219031989574432373046875">
        <ele>22.200000762939453125</ele>
        <time>2021-03-09T19:11:08.000Z</time>
      </trkpt>
      <trkpt lat="17.7913255803287029266357421875" lon="-92.60918897576630115509033203125">
        <ele>22.6000003814697265625</ele>
        <time>2021-03-09T19:11:10.000Z</time>
      </trkpt>
      <trkpt lat="17.79135550372302532196044921875" lon="-92.60928888805210590362548828125">
        <ele>23.3999996185302734375</ele>
        <time>2021-03-09T19:11:12.000Z</time>
      </trkpt>
      <trkpt lat="17.79139724560081958770751953125" lon="-92.60943272151052951812744140625">
        <ele>24.6000003814697265625</ele>
        <time>2021-03-09T19:11:15.000Z</time>
      </trkpt>
      <trkpt lat="17.79147234745323657989501953125" lon="-92.60966791771352291107177734375">
        <ele>25.200000762939453125</ele>
        <time>2021-03-09T19:11:21.000Z</time>
      </trkpt>
      <trkpt lat="17.7915361337363719940185546875" lon="-92.6098177023231983184814453125">
        <ele>25.6000003814697265625</ele>
        <time>2021-03-09T19:11:25.000Z</time>
      </trkpt>
      <trkpt lat="17.7915720082819461822509765625" lon="-92.6098577678203582763671875">
        <ele>25.6000003814697265625</ele>
        <time>2021-03-09T19:11:26.000Z</time>
      </trkpt>
      <trkpt lat="17.791613750159740447998046875" lon="-92.609894312918186187744140625">
        <ele>25.799999237060546875</ele>
        <time>2021-03-09T19:11:27.000Z</time>
      </trkpt>
      <trkpt lat="17.79172732494771480560302734375" lon="-92.6100366376340389251708984375">
        <ele>26.200000762939453125</ele>
        <time>2021-03-09T19:11:30.000Z</time>
      </trkpt>
      <trkpt lat="17.7917681448161602020263671875" lon="-92.61011936701834201812744140625">
        <ele>26.6000003814697265625</ele>
        <time>2021-03-09T19:11:32.000Z</time>
      </trkpt>
      <trkpt lat="17.79177912510931491851806640625" lon="-92.61017887853085994720458984375">
        <ele>27</ele>
        <time>2021-03-09T19:11:34.000Z</time>
      </trkpt>
      <trkpt lat="17.79177795164287090301513671875" lon="-92.6101895235478878021240234375">
        <ele>27</ele>
        <time>2021-03-09T19:11:38.000Z</time>
      </trkpt>
      <trkpt lat="17.79179287143051624298095703125" lon="-92.61018893681466579437255859375">
        <ele>27</ele>
        <time>2021-03-09T19:11:46.000Z</time>
      </trkpt>
      <trkpt lat="17.791657336056232452392578125" lon="-92.61026211082935333251953125">
        <ele>25.6000003814697265625</ele>
        <time>2021-03-09T19:15:36.000Z</time>
      </trkpt>
      <trkpt lat="17.79164962470531463623046875" lon="-92.6102280803024768829345703125">
        <ele>25.3999996185302734375</ele>
        <time>2021-03-09T19:15:37.000Z</time>
      </trkpt>
      <trkpt lat="17.79162053950130939483642578125" lon="-92.61009539477527141571044921875">
        <ele>24.200000762939453125</ele>
        <time>2021-03-09T19:15:40.000Z</time>
      </trkpt>
      <trkpt lat="17.791611067950725555419921875" lon="-92.61000956408679485321044921875">
        <ele>23.6000003814697265625</ele>
        <time>2021-03-09T19:15:42.000Z</time>
      </trkpt>
      <trkpt lat="17.79164233244955539703369140625" lon="-92.609925158321857452392578125">
        <ele>23.6000003814697265625</ele>
        <time>2021-03-09T19:15:44.000Z</time>
      </trkpt>
      <trkpt lat="17.7917165122926235198974609375" lon="-92.60987226851284503936767578125">
        <ele>23.799999237060546875</ele>
        <time>2021-03-09T19:15:46.000Z</time>
      </trkpt>
      <trkpt lat="17.7917688153684139251708984375" lon="-92.60986053384840488433837890625">
        <ele>24</ele>
        <time>2021-03-09T19:15:47.000Z</time>
      </trkpt>
      <trkpt lat="17.79182354919612407684326171875" lon="-92.60985349304974079132080078125">
        <ele>24.200000762939453125</ele>
        <time>2021-03-09T19:15:48.000Z</time>
      </trkpt>
      <trkpt lat="17.7919391356408596038818359375" lon="-92.6098529063165187835693359375">
        <ele>24.6000003814697265625</ele>
        <time>2021-03-09T19:15:50.000Z</time>
      </trkpt>
      <trkpt lat="17.7920517884194850921630859375" lon="-92.60985910892486572265625">
        <ele>24.799999237060546875</ele>
        <time>2021-03-09T19:15:52.000Z</time>
      </trkpt>
      <trkpt lat="17.79242821969091892242431640625" lon="-92.60987796820700168609619140625">
        <ele>26</ele>
        <time>2021-03-09T19:15:58.000Z</time>
      </trkpt>
      <trkpt lat="17.79277841560542583465576171875" lon="-92.60990847833454608917236328125">
        <ele>27.200000762939453125</ele>
        <time>2021-03-09T19:16:04.000Z</time>
      </trkpt>
      <trkpt lat="17.7928318083286285400390625" lon="-92.6099058799445629119873046875">
        <ele>27.799999237060546875</ele>
        <time>2021-03-09T19:16:05.000Z</time>
      </trkpt>
      <trkpt lat="17.792938090860843658447265625" lon="-92.6098961569368839263916015625">
        <ele>28</ele>
        <time>2021-03-09T19:16:07.000Z</time>
      </trkpt>
      <trkpt lat="17.79313447885215282440185546875" lon="-92.6098921336233615875244140625">
        <ele>28.3999996185302734375</ele>
        <time>2021-03-09T19:16:11.000Z</time>
      </trkpt>
      <trkpt lat="17.793407142162322998046875" lon="-92.60988886468112468719482421875">
        <ele>29.3999996185302734375</ele>
        <time>2021-03-09T19:16:17.000Z</time>
      </trkpt>
      <trkpt lat="17.79345265589654445648193359375" lon="-92.60989339090883731842041015625">
        <ele>29.3999996185302734375</ele>
        <time>2021-03-09T19:16:18.000Z</time>
      </trkpt>
      <trkpt lat="17.79355172999203205108642578125" lon="-92.6099122501909732818603515625">
        <ele>29.3999996185302734375</ele>
        <time>2021-03-09T19:16:20.000Z</time>
      </trkpt>
      <trkpt lat="17.7936463616788387298583984375" lon="-92.60992348194122314453125">
        <ele>29.3999996185302734375</ele>
        <time>2021-03-09T19:16:22.000Z</time>
      </trkpt>
      <trkpt lat="17.7937415800988674163818359375" lon="-92.6099387370049953460693359375">
        <ele>28.6000003814697265625</ele>
        <time>2021-03-09T19:16:24.000Z</time>
      </trkpt>
      <trkpt lat="17.79384107328951358795166015625" lon="-92.60996698401868343353271484375">
        <ele>27.799999237060546875</ele>
        <time>2021-03-09T19:16:26.000Z</time>
      </trkpt>
      <trkpt lat="17.79388851486146450042724609375" lon="-92.60998391546308994293212890625">
        <ele>27.3999996185302734375</ele>
        <time>2021-03-09T19:16:27.000Z</time>
      </trkpt>
      <trkpt lat="17.79432487674057483673095703125" lon="-92.61018826626241207122802734375">
        <ele>23.799999237060546875</ele>
        <time>2021-03-09T19:16:36.000Z</time>
      </trkpt>
      <trkpt lat="17.794508524239063262939453125" lon="-92.61033997870981693267822265625">
        <ele>25</ele>
        <time>2021-03-09T19:16:40.000Z</time>
      </trkpt>
      <trkpt lat="17.7945475839078426361083984375" lon="-92.61038976721465587615966796875">
        <ele>25.200000762939453125</ele>
        <time>2021-03-09T19:16:41.000Z</time>
      </trkpt>
      <trkpt lat="17.79458169825375080108642578125" lon="-92.61044492013752460479736328125">
        <ele>25.200000762939453125</ele>
        <time>2021-03-09T19:16:42.000Z</time>
      </trkpt>
      <trkpt lat="17.794637270271778106689453125" lon="-92.61056226678192615509033203125">
        <ele>25.6000003814697265625</ele>
        <time>2021-03-09T19:16:44.000Z</time>
      </trkpt>
      <trkpt lat="17.79467783868312835693359375" lon="-92.6106971316039562225341796875">
        <ele>25.799999237060546875</ele>
        <time>2021-03-09T19:16:46.000Z</time>
      </trkpt>
      <trkpt lat="17.7947621606290340423583984375" lon="-92.61105931363999843597412109375">
        <ele>26.200000762939453125</ele>
        <time>2021-03-09T19:16:51.000Z</time>
      </trkpt>
      <trkpt lat="17.7947849594056606292724609375" lon="-92.61122309602797031402587890625">
        <ele>25.799999237060546875</ele>
        <time>2021-03-09T19:16:53.000Z</time>
      </trkpt>
      <trkpt lat="17.7948474884033203125" lon="-92.6115421950817108154296875">
        <ele>24.200000762939453125</ele>
        <time>2021-03-09T19:16:57.000Z</time>
      </trkpt>
      <trkpt lat="17.7948590554296970367431640625" lon="-92.61162333190441131591796875">
        <ele>23.799999237060546875</ele>
        <time>2021-03-09T19:16:58.000Z</time>
      </trkpt>
      <trkpt lat="17.79485461302101612091064453125" lon="-92.61177982203662395477294921875">
        <ele>23.3999996185302734375</ele>
        <time>2021-03-09T19:17:00.000Z</time>
      </trkpt>
      <trkpt lat="17.79483080841600894927978515625" lon="-92.611849308013916015625">
        <ele>23.200000762939453125</ele>
        <time>2021-03-09T19:17:01.000Z</time>
      </trkpt>
      <trkpt lat="17.79479325748980045318603515625" lon="-92.61191225610673427581787109375">
        <ele>23.200000762939453125</ele>
        <time>2021-03-09T19:17:02.000Z</time>
      </trkpt>
      <trkpt lat="17.7946877293288707733154296875" lon="-92.6120261661708354949951171875">
        <ele>22.6000003814697265625</ele>
        <time>2021-03-09T19:17:04.000Z</time>
      </trkpt>
      <trkpt lat="17.794266454875469207763671875" lon="-92.61232070624828338623046875">
        <ele>20.200000762939453125</ele>
        <time>2021-03-09T19:17:10.000Z</time>
      </trkpt>
      <trkpt lat="17.79414583928883075714111328125" lon="-92.6124311797320842742919921875">
        <ele>19</ele>
        <time>2021-03-09T19:17:12.000Z</time>
      </trkpt>
      <trkpt lat="17.7940704859793186187744140625" lon="-92.61257643811404705047607421875">
        <ele>17.799999237060546875</ele>
        <time>2021-03-09T19:17:14.000Z</time>
      </trkpt>
      <trkpt lat="17.794000916182994842529296875" lon="-92.61295664124190807342529296875">
        <ele>16.3999996185302734375</ele>
        <time>2021-03-09T19:17:18.000Z</time>
      </trkpt>
      <trkpt lat="17.79397216625511646270751953125" lon="-92.6136096753180027008056640625">
        <ele>14.19999980926513671875</ele>
        <time>2021-03-09T19:17:24.000Z</time>
      </trkpt>
      <trkpt lat="17.793975435197353363037109375" lon="-92.61370430700480937957763671875">
        <ele>13.80000019073486328125</ele>
        <time>2021-03-09T19:17:25.000Z</time>
      </trkpt>
      <trkpt lat="17.79403754509985446929931640625" lon="-92.61417034082114696502685546875">
        <ele>12.19999980926513671875</ele>
        <time>2021-03-09T19:17:30.000Z</time>
      </trkpt>
      <trkpt lat="17.79419906437397003173828125" lon="-92.6144988276064395904541015625">
        <ele>11.80000019073486328125</ele>
        <time>2021-03-09T19:17:34.000Z</time>
      </trkpt>
      <trkpt lat="17.79424239881336688995361328125" lon="-92.61457317508757114410400390625">
        <ele>12</ele>
        <time>2021-03-09T19:17:35.000Z</time>
      </trkpt>
      <trkpt lat="17.79432621784508228302001953125" lon="-92.61472220532596111297607421875">
        <ele>12.19999980926513671875</ele>
        <time>2021-03-09T19:17:37.000Z</time>
      </trkpt>
      <trkpt lat="17.79443778097629547119140625" lon="-92.61495304293930530548095703125">
        <ele>12.6000003814697265625</ele>
        <time>2021-03-09T19:17:40.000Z</time>
      </trkpt>
      <trkpt lat="17.79450776986777782440185546875" lon="-92.61510810814797878265380859375">
        <ele>13</ele>
        <time>2021-03-09T19:17:42.000Z</time>
      </trkpt>
      <trkpt lat="17.79466333799064159393310546875" lon="-92.61555721051990985870361328125">
        <ele>12.6000003814697265625</ele>
        <time>2021-03-09T19:17:48.000Z</time>
      </trkpt>
      <trkpt lat="17.79471815563738346099853515625" lon="-92.61575535871088504791259765625">
        <ele>12.19999980926513671875</ele>
        <time>2021-03-09T19:17:51.000Z</time>
      </trkpt>
      <trkpt lat="17.79476894997060298919677734375" lon="-92.61594294570386409759521484375">
        <ele>12.80000019073486328125</ele>
        <time>2021-03-09T19:17:54.000Z</time>
      </trkpt>
      <trkpt lat="17.794855535030364990234375" lon="-92.61645667254924774169921875">
        <ele>12.19999980926513671875</ele>
        <time>2021-03-09T19:18:02.000Z</time>
      </trkpt>
      <trkpt lat="17.79484706930816173553466796875" lon="-92.61677920818328857421875">
        <ele>12.19999980926513671875</ele>
        <time>2021-03-09T19:18:07.000Z</time>
      </trkpt>
      <trkpt lat="17.79483416117727756500244140625" lon="-92.6169594191014766693115234375">
        <ele>12.80000019073486328125</ele>
        <time>2021-03-09T19:18:10.000Z</time>
      </trkpt>
      <trkpt lat="17.79483818449079990386962890625" lon="-92.61724817566573619842529296875">
        <ele>14</ele>
        <time>2021-03-09T19:18:15.000Z</time>
      </trkpt>
      <trkpt lat="17.7948466502130031585693359375" lon="-92.61736082844436168670654296875">
        <ele>14.3999996185302734375</ele>
        <time>2021-03-09T19:18:17.000Z</time>
      </trkpt>
      <trkpt lat="17.7948568761348724365234375" lon="-92.61741246096789836883544921875">
        <ele>14.6000003814697265625</ele>
        <time>2021-03-09T19:18:18.000Z</time>
      </trkpt>
      <trkpt lat="17.79492057859897613525390625" lon="-92.61760734021663665771484375">
        <ele>15.6000003814697265625</ele>
        <time>2021-03-09T19:18:22.000Z</time>
      </trkpt>
      <trkpt lat="17.79499568045139312744140625" lon="-92.6177989505231380462646484375">
        <ele>16.6000003814697265625</ele>
        <time>2021-03-09T19:18:26.000Z</time>
      </trkpt>
      <trkpt lat="17.7950313873589038848876953125" lon="-92.6179002039134502410888671875">
        <ele>16.3999996185302734375</ele>
        <time>2021-03-09T19:18:28.000Z</time>
      </trkpt>
      <trkpt lat="17.79517966322600841522216796875" lon="-92.618145458400249481201171875">
        <ele>15.6000003814697265625</ele>
        <time>2021-03-09T19:18:33.000Z</time>
      </trkpt>
      <trkpt lat="17.7952216565608978271484375" lon="-92.6181882061064243316650390625">
        <ele>15.19999980926513671875</ele>
        <time>2021-03-09T19:18:34.000Z</time>
      </trkpt>
      <trkpt lat="17.7954937331378459930419921875" lon="-92.6183830015361309051513671875">
        <ele>15.3999996185302734375</ele>
        <time>2021-03-09T19:18:39.000Z</time>
      </trkpt>
      <trkpt lat="17.79565776698291301727294921875" lon="-92.6184971630573272705078125">
        <ele>16</ele>
        <time>2021-03-09T19:18:42.000Z</time>
      </trkpt>
      <trkpt lat="17.795761115849018096923828125" lon="-92.6185650564730167388916015625">
        <ele>15.80000019073486328125</ele>
        <time>2021-03-09T19:18:44.000Z</time>
      </trkpt>
      <trkpt lat="17.7958112396299839019775390625" lon="-92.61859095655381679534912109375">
        <ele>15.80000019073486328125</ele>
        <time>2021-03-09T19:18:45.000Z</time>
      </trkpt>
      <trkpt lat="17.79585977084934711456298828125" lon="-92.61861274950206279754638671875">
        <ele>15.80000019073486328125</ele>
        <time>2021-03-09T19:18:46.000Z</time>
      </trkpt>
      <trkpt lat="17.79590972699224948883056640625" lon="-92.6186374761164188385009765625">
        <ele>16</ele>
        <time>2021-03-09T19:18:47.000Z</time>
      </trkpt>
      <trkpt lat="17.79620912857353687286376953125" lon="-92.61878776364028453826904296875">
        <ele>15.3999996185302734375</ele>
        <time>2021-03-09T19:18:53.000Z</time>
      </trkpt>
      <trkpt lat="17.79626193456351757049560546875" lon="-92.61881240643560886383056640625">
        <ele>15.3999996185302734375</ele>
        <time>2021-03-09T19:18:54.000Z</time>
      </trkpt>
      <trkpt lat="17.7963154949247837066650390625" lon="-92.618837468326091766357421875">
        <ele>15.19999980926513671875</ele>
        <time>2021-03-09T19:18:55.000Z</time>
      </trkpt>
      <trkpt lat="17.79642605222761631011962890625" lon="-92.618890106678009033203125">
        <ele>15</ele>
        <time>2021-03-09T19:18:57.000Z</time>
      </trkpt>
      <trkpt lat="17.79648003168404102325439453125" lon="-92.618918605148792266845703125">
        <ele>15</ele>
        <time>2021-03-09T19:18:58.000Z</time>
      </trkpt>
      <trkpt lat="17.79653392732143402099609375" lon="-92.618947438895702362060546875">
        <ele>15.3999996185302734375</ele>
        <time>2021-03-09T19:18:59.000Z</time>
      </trkpt>
      <trkpt lat="17.796587236225605010986328125" lon="-92.618977613747119903564453125">
        <ele>15.6000003814697265625</ele>
        <time>2021-03-09T19:19:00.000Z</time>
      </trkpt>
      <trkpt lat="17.79669083654880523681640625" lon="-92.6190398074686527252197265625">
        <ele>16.3999996185302734375</ele>
        <time>2021-03-09T19:19:02.000Z</time>
      </trkpt>
      <trkpt lat="17.79674087651073932647705078125" lon="-92.61907341890037059783935546875">
        <ele>17</ele>
        <time>2021-03-09T19:19:03.000Z</time>
      </trkpt>
      <trkpt lat="17.79692016541957855224609375" lon="-92.6192347705364227294921875">
        <ele>19.799999237060546875</ele>
        <time>2021-03-09T19:19:07.000Z</time>
      </trkpt>
      <trkpt lat="17.796959392726421356201171875" lon="-92.61928196065127849578857421875">
        <ele>20.200000762939453125</ele>
        <time>2021-03-09T19:19:08.000Z</time>
      </trkpt>
      <trkpt lat="17.79717941768467426300048828125" lon="-92.619603574275970458984375">
        <ele>20</ele>
        <time>2021-03-09T19:19:14.000Z</time>
      </trkpt>
      <trkpt lat="17.7973245084285736083984375" lon="-92.61981370858848094940185546875">
        <ele>21</ele>
        <time>2021-03-09T19:19:18.000Z</time>
      </trkpt>
      <trkpt lat="17.79743171297013759613037109375" lon="-92.6199587993323802947998046875">
        <ele>21</ele>
        <time>2021-03-09T19:19:21.000Z</time>
      </trkpt>
      <trkpt lat="17.797667495906352996826171875" lon="-92.62018687091767787933349609375">
        <ele>22.799999237060546875</ele>
        <time>2021-03-09T19:19:27.000Z</time>
      </trkpt>
      <trkpt lat="17.79799128882586956024169921875" lon="-92.62036976404488086700439453125">
        <ele>22.799999237060546875</ele>
        <time>2021-03-09T19:19:34.000Z</time>
      </trkpt>
      <trkpt lat="17.79823981225490570068359375" lon="-92.6204452849924564361572265625">
        <ele>22.3999996185302734375</ele>
        <time>2021-03-09T19:19:39.000Z</time>
      </trkpt>
      <trkpt lat="17.79835204593837261199951171875" lon="-92.62046699412167072296142578125">
        <ele>22.6000003814697265625</ele>
        <time>2021-03-09T19:19:41.000Z</time>
      </trkpt>
      <trkpt lat="17.79859093017876148223876953125" lon="-92.62050840072333812713623046875">
        <ele>21.799999237060546875</ele>
        <time>2021-03-09T19:19:45.000Z</time>
      </trkpt>
      <trkpt lat="17.7986548840999603271484375" lon="-92.6205156929790973663330078125">
        <ele>21.200000762939453125</ele>
        <time>2021-03-09T19:19:46.000Z</time>
      </trkpt>
      <trkpt lat="17.7990215085446834564208984375" lon="-92.620533965528011322021484375">
        <ele>19.799999237060546875</ele>
        <time>2021-03-09T19:19:51.000Z</time>
      </trkpt>
      <trkpt lat="17.79955065809190273284912109375" lon="-92.6205141842365264892578125">
        <ele>19.6000003814697265625</ele>
        <time>2021-03-09T19:19:57.000Z</time>
      </trkpt>
      <trkpt lat="17.80011693947017192840576171875" lon="-92.6203943230211734771728515625">
        <ele>16</ele>
        <time>2021-03-09T19:20:03.000Z</time>
      </trkpt>
      <trkpt lat="17.80026379041373729705810546875" lon="-92.62043036520481109619140625">
        <ele>16</ele>
        <time>2021-03-09T19:20:05.000Z</time>
      </trkpt>
      <trkpt lat="17.80032430775463581085205078125" lon="-92.6204721070826053619384765625">
        <ele>16</ele>
        <time>2021-03-09T19:20:06.000Z</time>
      </trkpt>
      <trkpt lat="17.80043193139135837554931640625" lon="-92.62058450840413570404052734375">
        <ele>16.799999237060546875</ele>
        <time>2021-03-09T19:20:08.000Z</time>
      </trkpt>
      <trkpt lat="17.80053175985813140869140625" lon="-92.6206890307366847991943359375">
        <ele>17.200000762939453125</ele>
        <time>2021-03-09T19:20:10.000Z</time>
      </trkpt>
      <trkpt lat="17.80058012343943119049072265625" lon="-92.62073102407157421112060546875">
        <ele>17</ele>
        <time>2021-03-09T19:20:11.000Z</time>
      </trkpt>
      <trkpt lat="17.80066964216530323028564453125" lon="-92.62080126442015171051025390625">
        <ele>16.6000003814697265625</ele>
        <time>2021-03-09T19:20:13.000Z</time>
      </trkpt>
      <trkpt lat="17.800772152841091156005859375" lon="-92.6208546571433544158935546875">
        <ele>17</ele>
        <time>2021-03-09T19:20:15.000Z</time>
      </trkpt>
      <trkpt lat="17.80086426995694637298583984375" lon="-92.6209411583840847015380859375">
        <ele>17</ele>
        <time>2021-03-09T19:20:17.000Z</time>
      </trkpt>
      <trkpt lat="17.80095194466412067413330078125" lon="-92.62103646062314510345458984375">
        <ele>17.200000762939453125</ele>
        <time>2021-03-09T19:20:19.000Z</time>
      </trkpt>
      <trkpt lat="17.80123726464807987213134765625" lon="-92.621239386498928070068359375">
        <ele>18</ele>
        <time>2021-03-09T19:20:25.000Z</time>
      </trkpt>
      <trkpt lat="17.80146759934723377227783203125" lon="-92.621389925479888916015625">
        <ele>18.799999237060546875</ele>
        <time>2021-03-09T19:20:30.000Z</time>
      </trkpt>
      <trkpt lat="17.80151185579597949981689453125" lon="-92.62142521329224109649658203125">
        <ele>19</ele>
        <time>2021-03-09T19:20:31.000Z</time>
      </trkpt>
      <trkpt lat="17.8017486445605754852294921875" lon="-92.6216060109436511993408203125">
        <ele>19.6000003814697265625</ele>
        <time>2021-03-09T19:20:37.000Z</time>
      </trkpt>
      <trkpt lat="17.80178342945873737335205078125" lon="-92.62163157574832439422607421875">
        <ele>19.799999237060546875</ele>
        <time>2021-03-09T19:20:38.000Z</time>
      </trkpt>
      <trkpt lat="17.80184931121766567230224609375" lon="-92.621686644852161407470703125">
        <ele>20</ele>
        <time>2021-03-09T19:20:40.000Z</time>
      </trkpt>
      <trkpt lat="17.80191971920430660247802734375" lon="-92.62174196541309356689453125">
        <ele>20.200000762939453125</ele>
        <time>2021-03-09T19:20:42.000Z</time>
      </trkpt>
      <trkpt lat="17.80198073945939540863037109375" lon="-92.62180742807686328887939453125">
        <ele>21</ele>
        <time>2021-03-09T19:20:44.000Z</time>
      </trkpt>
      <trkpt lat="17.80206137336790561676025390625" lon="-92.62191236950457096099853515625">
        <ele>22.200000762939453125</ele>
        <time>2021-03-09T19:20:47.000Z</time>
      </trkpt>
      <trkpt lat="17.8021315298974514007568359375" lon="-92.62203306891024112701416015625">
        <ele>22.799999237060546875</ele>
        <time>2021-03-09T19:20:50.000Z</time>
      </trkpt>
      <trkpt lat="17.80215122736990451812744140625" lon="-92.622077576816082000732421875">
        <ele>23.200000762939453125</ele>
        <time>2021-03-09T19:20:51.000Z</time>
      </trkpt>
      <trkpt lat="17.80220839194953441619873046875" lon="-92.62223741970956325531005859375">
        <ele>24</ele>
        <time>2021-03-09T19:20:54.000Z</time>
      </trkpt>
      <trkpt lat="17.8022230602800846099853515625" lon="-92.62229559011757373809814453125">
        <ele>24.200000762939453125</ele>
        <time>2021-03-09T19:20:55.000Z</time>
      </trkpt>
      <trkpt lat="17.802272848784923553466796875" lon="-92.62254000641405582427978515625">
        <ele>26.200000762939453125</ele>
        <time>2021-03-09T19:20:59.000Z</time>
      </trkpt>
      <trkpt lat="17.80227628536522388458251953125" lon="-92.62260471470654010772705078125">
        <ele>26</ele>
        <time>2021-03-09T19:21:00.000Z</time>
      </trkpt>
      <trkpt lat="17.8022991679608821868896484375" lon="-92.6229182817041873931884765625">
        <ele>24.6000003814697265625</ele>
        <time>2021-03-09T19:21:05.000Z</time>
      </trkpt>
      <trkpt lat="17.8023186139762401580810546875" lon="-92.62309555895626544952392578125">
        <ele>24</ele>
        <time>2021-03-09T19:21:08.000Z</time>
      </trkpt>
      <trkpt lat="17.8023531474173069000244140625" lon="-92.62333394028246402740478515625">
        <ele>23.6000003814697265625</ele>
        <time>2021-03-09T19:21:13.000Z</time>
      </trkpt>
      <trkpt lat="17.8024051152169704437255859375" lon="-92.62368916533887386322021484375">
        <ele>24</ele>
        <time>2021-03-09T19:21:20.000Z</time>
      </trkpt>
      <trkpt lat="17.80241576023399829864501953125" lon="-92.6237393729388713836669921875">
        <ele>24.200000762939453125</ele>
        <time>2021-03-09T19:21:21.000Z</time>
      </trkpt>
      <trkpt lat="17.80253092758357524871826171875" lon="-92.62409937568008899688720703125">
        <ele>24.6000003814697265625</ele>
        <time>2021-03-09T19:21:28.000Z</time>
      </trkpt>
      <trkpt lat="17.80267107300460338592529296875" lon="-92.62442844919860363006591796875">
        <ele>26.6000003814697265625</ele>
        <time>2021-03-09T19:21:35.000Z</time>
      </trkpt>
      <trkpt lat="17.8027521260082721710205078125" lon="-92.6246607117354869842529296875">
        <ele>26.6000003814697265625</ele>
        <time>2021-03-09T19:21:41.000Z</time>
      </trkpt>
      <trkpt lat="17.802777104079723358154296875" lon="-92.62488442473113536834716796875">
        <ele>26.3999996185302734375</ele>
        <time>2021-03-09T19:21:47.000Z</time>
      </trkpt>
      <trkpt lat="17.80275220982730388641357421875" lon="-92.62510889209806919097900390625">
        <ele>26</ele>
        <time>2021-03-09T19:21:53.000Z</time>
      </trkpt>
      <trkpt lat="17.80274013988673686981201171875" lon="-92.62515951879322528839111328125">
        <ele>25.6000003814697265625</ele>
        <time>2021-03-09T19:21:54.000Z</time>
      </trkpt>
      <trkpt lat="17.80272035859525203704833984375" lon="-92.62521517463028430938720703125">
        <ele>25.200000762939453125</ele>
        <time>2021-03-09T19:21:55.000Z</time>
      </trkpt>
      <trkpt lat="17.8026495315134525299072265625" lon="-92.6253748498857021331787109375">
        <ele>23.799999237060546875</ele>
        <time>2021-03-09T19:21:58.000Z</time>
      </trkpt>
      <trkpt lat="17.80252237804234027862548828125" lon="-92.62564013712108135223388671875">
        <ele>21.6000003814697265625</ele>
        <time>2021-03-09T19:22:02.000Z</time>
      </trkpt>
      <trkpt lat="17.80250008217990398406982421875" lon="-92.62571632862091064453125">
        <ele>21.200000762939453125</ele>
        <time>2021-03-09T19:22:03.000Z</time>
      </trkpt>
      <trkpt lat="17.80241006053984165191650390625" lon="-92.62620289810001850128173828125">
        <ele>20.799999237060546875</ele>
        <time>2021-03-09T19:22:10.000Z</time>
      </trkpt>
      <trkpt lat="17.8023789636790752410888671875" lon="-92.62649827636778354644775390625">
        <ele>23</ele>
        <time>2021-03-09T19:22:16.000Z</time>
      </trkpt>
      <trkpt lat="17.802350632846355438232421875" lon="-92.6267478056252002716064453125">
        <ele>26.3999996185302734375</ele>
        <time>2021-03-09T19:22:22.000Z</time>
      </trkpt>
      <trkpt lat="17.80234317295253276824951171875" lon="-92.62678585946559906005859375">
        <ele>26.799999237060546875</ele>
        <time>2021-03-09T19:22:23.000Z</time>
      </trkpt>
      <trkpt lat="17.80232255347073078155517578125" lon="-92.6269898749887943267822265625">
        <ele>29</ele>
        <time>2021-03-09T19:22:29.000Z</time>
      </trkpt>
      <trkpt lat="17.80235189013183116912841796875" lon="-92.62726128101348876953125">
        <ele>31</ele>
        <time>2021-03-09T19:22:37.000Z</time>
      </trkpt>
      <trkpt lat="17.8023856692016124725341796875" lon="-92.6273154281079769134521484375">
        <ele>31</ele>
        <time>2021-03-09T19:22:39.000Z</time>
      </trkpt>
      <trkpt lat="17.80240201391279697418212890625" lon="-92.6273377239704132080078125">
        <ele>31</ele>
        <time>2021-03-09T19:22:40.000Z</time>
      </trkpt>
      <trkpt lat="17.80242045409977436065673828125" lon="-92.62736479751765727996826171875">
        <ele>31</ele>
        <time>2021-03-09T19:22:41.000Z</time>
      </trkpt>
      <trkpt lat="17.80251265503466129302978515625" lon="-92.62745817191898822784423828125">
        <ele>31</ele>
        <time>2021-03-09T19:22:45.000Z</time>
      </trkpt>
      <trkpt lat="17.80269571579992771148681640625" lon="-92.62762606143951416015625">
        <ele>31.3999996185302734375</ele>
        <time>2021-03-09T19:22:52.000Z</time>
      </trkpt>
      <trkpt lat="17.8029398806393146514892578125" lon="-92.62788011692464351654052734375">
        <ele>32</ele>
        <time>2021-03-09T19:23:00.000Z</time>
      </trkpt>
      <trkpt lat="17.80296879820525646209716796875" lon="-92.62791431508958339691162109375">
        <ele>32</ele>
        <time>2021-03-09T19:23:01.000Z</time>
      </trkpt>
      <trkpt lat="17.803180776536464691162109375" lon="-92.62810282409191131591796875">
        <ele>32.799999237060546875</ele>
        <time>2021-03-09T19:23:07.000Z</time>
      </trkpt>
      <trkpt lat="17.80347875319421291351318359375" lon="-92.6283621601760387420654296875">
        <ele>33.799999237060546875</ele>
        <time>2021-03-09T19:23:14.000Z</time>
      </trkpt>
      <trkpt lat="17.803643457591533660888671875" lon="-92.62853306718170642852783203125">
        <ele>32</ele>
        <time>2021-03-09T19:23:18.000Z</time>
      </trkpt>
      <trkpt lat="17.80371428467333316802978515625" lon="-92.6286384277045726776123046875">
        <ele>31</ele>
        <time>2021-03-09T19:23:20.000Z</time>
      </trkpt>
      <trkpt lat="17.80388318002223968505859375" lon="-92.628968171775341033935546875">
        <ele>27.6000003814697265625</ele>
        <time>2021-03-09T19:23:25.000Z</time>
      </trkpt>
      <trkpt lat="17.80408526770770549774169921875" lon="-92.62950318865478038787841796875">
        <ele>28</ele>
        <time>2021-03-09T19:23:33.000Z</time>
      </trkpt>
      <trkpt lat="17.80420504510402679443359375" lon="-92.6297994889318943023681640625">
        <ele>28.799999237060546875</ele>
        <time>2021-03-09T19:23:38.000Z</time>
      </trkpt>
      <trkpt lat="17.80422340147197246551513671875" lon="-92.62985455803573131561279296875">
        <ele>29.200000762939453125</ele>
        <time>2021-03-09T19:23:39.000Z</time>
      </trkpt>
      <trkpt lat="17.80426313169300556182861328125" lon="-92.629957906901836395263671875">
        <ele>29.6000003814697265625</ele>
        <time>2021-03-09T19:23:41.000Z</time>
      </trkpt>
      <trkpt lat="17.80428945086896419525146484375" lon="-92.630070559680461883544921875">
        <ele>29.6000003814697265625</ele>
        <time>2021-03-09T19:23:43.000Z</time>
      </trkpt>
      <trkpt lat="17.80429515056312084197998046875" lon="-92.6301283948123455047607421875">
        <ele>29.3999996185302734375</ele>
        <time>2021-03-09T19:23:44.000Z</time>
      </trkpt>
      <trkpt lat="17.80429489910602569580078125" lon="-92.63018966652452945709228515625">
        <ele>29.200000762939453125</ele>
        <time>2021-03-09T19:23:45.000Z</time>
      </trkpt>
      <trkpt lat="17.80426581390202045440673828125" lon="-92.6303178258240222930908203125">
        <ele>29</ele>
        <time>2021-03-09T19:23:47.000Z</time>
      </trkpt>
      <trkpt lat="17.80424251221120357513427734375" lon="-92.63037691824138164520263671875">
        <ele>29.200000762939453125</ele>
        <time>2021-03-09T19:23:48.000Z</time>
      </trkpt>
      <trkpt lat="17.8040456213057041168212890625" lon="-92.630741782486438751220703125">
        <ele>31.6000003814697265625</ele>
        <time>2021-03-09T19:23:55.000Z</time>
      </trkpt>
      <trkpt lat="17.8039683401584625244140625" lon="-92.63095962814986705780029296875">
        <ele>33.40000152587890625</ele>
        <time>2021-03-09T19:23:59.000Z</time>
      </trkpt>
      <trkpt lat="17.80395417474210262298583984375" lon="-92.63107211329042911529541015625">
        <ele>33.59999847412109375</ele>
        <time>2021-03-09T19:24:01.000Z</time>
      </trkpt>
      <trkpt lat="17.803951241075992584228515625" lon="-92.63123924843966960906982421875">
        <ele>33.59999847412109375</ele>
        <time>2021-03-09T19:24:04.000Z</time>
      </trkpt>
      <trkpt lat="17.80395367182791233062744140625" lon="-92.63141074217855930328369140625">
        <ele>33</ele>
        <time>2021-03-09T19:24:07.000Z</time>
      </trkpt>
      <trkpt lat="17.80396096408367156982421875" lon="-92.631592042744159698486328125">
        <ele>32.200000762939453125</ele>
        <time>2021-03-09T19:24:10.000Z</time>
      </trkpt>
      <trkpt lat="17.8039856068789958953857421875" lon="-92.63181491754949092864990234375">
        <ele>31.200000762939453125</ele>
        <time>2021-03-09T19:24:14.000Z</time>
      </trkpt>
      <trkpt lat="17.804000861942768096923828125" lon="-92.6319110579788684844970703125">
        <ele>30.3999996185302734375</ele>
        <time>2021-03-09T19:24:16.000Z</time>
      </trkpt>
      <trkpt lat="17.804057858884334564208984375" lon="-92.6320637762546539306640625">
        <ele>30</ele>
        <time>2021-03-09T19:24:19.000Z</time>
      </trkpt>
      <trkpt lat="17.80415366403758525848388671875" lon="-92.63224608264863491058349609375">
        <ele>29.3999996185302734375</ele>
        <time>2021-03-09T19:24:22.000Z</time>
      </trkpt>
      <trkpt lat="17.80423454940319061279296875" lon="-92.6323735713958740234375">
        <ele>28.6000003814697265625</ele>
        <time>2021-03-09T19:24:24.000Z</time>
      </trkpt>
      <trkpt lat="17.80439992435276508331298828125" lon="-92.63264003209769725799560546875">
        <ele>26</ele>
        <time>2021-03-09T19:24:28.000Z</time>
      </trkpt>
      <trkpt lat="17.80456504784524440765380859375" lon="-92.63287120498716831207275390625">
        <ele>25.200000762939453125</ele>
        <time>2021-03-09T19:24:32.000Z</time>
      </trkpt>
      <trkpt lat="17.8048150800168514251708984375" lon="-92.6332213170826435089111328125">
        <ele>27.3999996185302734375</ele>
        <time>2021-03-09T19:24:39.000Z</time>
      </trkpt>
      <trkpt lat="17.805005013942718505859375" lon="-92.6334955729544162750244140625">
        <ele>28.6000003814697265625</ele>
        <time>2021-03-09T19:24:45.000Z</time>
      </trkpt>
      <trkpt lat="17.805209867656230926513671875" lon="-92.6338053680956363677978515625">
        <ele>31.3999996185302734375</ele>
        <time>2021-03-09T19:24:52.000Z</time>
      </trkpt>
      <trkpt lat="17.80526041053235530853271484375" lon="-92.63388776220381259918212890625">
        <ele>32.200000762939453125</ele>
        <time>2021-03-09T19:24:54.000Z</time>
      </trkpt>
      <trkpt lat="17.8053588978946208953857421875" lon="-92.63401315547525882720947265625">
        <ele>33</ele>
        <time>2021-03-09T19:24:57.000Z</time>
      </trkpt>
      <trkpt lat="17.8054427169263362884521484375" lon="-92.634140811860561370849609375">
        <ele>34</ele>
        <time>2021-03-09T19:25:00.000Z</time>
      </trkpt>
      <trkpt lat="17.8055231831967830657958984375" lon="-92.634263522922992706298828125">
        <ele>34.59999847412109375</ele>
        <time>2021-03-09T19:25:03.000Z</time>
      </trkpt>
      <trkpt lat="17.8056086786091327667236328125" lon="-92.63440308161079883575439453125">
        <ele>34.799999237060546875</ele>
        <time>2021-03-09T19:25:07.000Z</time>
      </trkpt>
      <trkpt lat="17.805734910070896148681640625" lon="-92.63460122980177402496337890625">
        <ele>35.40000152587890625</ele>
        <time>2021-03-09T19:25:13.000Z</time>
      </trkpt>
      <trkpt lat="17.8059204854071140289306640625" lon="-92.63490968383848667144775390625">
        <ele>35.40000152587890625</ele>
        <time>2021-03-09T19:25:21.000Z</time>
      </trkpt>
      <trkpt lat="17.80612190254032611846923828125" lon="-92.63523506931960582733154296875">
        <ele>36.200000762939453125</ele>
        <time>2021-03-09T19:25:30.000Z</time>
      </trkpt>
      <trkpt lat="17.8064187057316303253173828125" lon="-92.635642848908901214599609375">
        <ele>39.40000152587890625</ele>
        <time>2021-03-09T19:25:42.000Z</time>
      </trkpt>
      <trkpt lat="17.80663378536701202392578125" lon="-92.63593981973826885223388671875">
        <ele>40.59999847412109375</ele>
        <time>2021-03-09T19:25:51.000Z</time>
      </trkpt>
      <trkpt lat="17.8067972324788570404052734375" lon="-92.63622513972222805023193359375">
        <ele>41</ele>
        <time>2021-03-09T19:25:58.000Z</time>
      </trkpt>
      <trkpt lat="17.8068787045776844024658203125" lon="-92.63651196844875812530517578125">
        <ele>41.200000762939453125</ele>
        <time>2021-03-09T19:26:03.000Z</time>
      </trkpt>
      <trkpt lat="17.80699060298502445220947265625" lon="-92.6369247771799564361572265625">
        <ele>37.59999847412109375</ele>
        <time>2021-03-09T19:26:09.000Z</time>
      </trkpt>
      <trkpt lat="17.80702136456966400146484375" lon="-92.63699526898562908172607421875">
        <ele>37</ele>
        <time>2021-03-09T19:26:10.000Z</time>
      </trkpt>
      <trkpt lat="17.8071834705770015716552734375" lon="-92.63724152930080890655517578125">
        <ele>35.59999847412109375</ele>
        <time>2021-03-09T19:26:14.000Z</time>
      </trkpt>
      <trkpt lat="17.8074932657182216644287109375" lon="-92.637529782950878143310546875">
        <ele>38</ele>
        <time>2021-03-09T19:26:20.000Z</time>
      </trkpt>
      <trkpt lat="17.8076625801622867584228515625" lon="-92.6376580260694026947021484375">
        <ele>37.799999237060546875</ele>
        <time>2021-03-09T19:26:24.000Z</time>
      </trkpt>
      <trkpt lat="17.80787556432187557220458984375" lon="-92.63770856894552707672119140625">
        <ele>37.200000762939453125</ele>
        <time>2021-03-09T19:26:29.000Z</time>
      </trkpt>
      <trkpt lat="17.8079683519899845123291015625" lon="-92.63771896250545978546142578125">
        <ele>36.59999847412109375</ele>
        <time>2021-03-09T19:26:31.000Z</time>
      </trkpt>
      <trkpt lat="17.80811545439064502716064453125" lon="-92.63775969855487346649169921875">
        <ele>35.799999237060546875</ele>
        <time>2021-03-09T19:26:34.000Z</time>
      </trkpt>
      <trkpt lat="17.808274962007999420166015625" lon="-92.6378052122890949249267578125">
        <ele>36</ele>
        <time>2021-03-09T19:26:37.000Z</time>
      </trkpt>
      <trkpt lat="17.80843916349112987518310546875" lon="-92.6378528214991092681884765625">
        <ele>36</ele>
        <time>2021-03-09T19:26:40.000Z</time>
      </trkpt>
      <trkpt lat="17.80886940658092498779296875" lon="-92.63798701576888561248779296875">
        <ele>37.59999847412109375</ele>
        <time>2021-03-09T19:26:48.000Z</time>
      </trkpt>
      <trkpt lat="17.809022627770900726318359375" lon="-92.63802775181829929351806640625">
        <ele>38.200000762939453125</ele>
        <time>2021-03-09T19:26:51.000Z</time>
      </trkpt>
      <trkpt lat="17.80915648676455020904541015625" lon="-92.6380811445415019989013671875">
        <ele>38.59999847412109375</ele>
        <time>2021-03-09T19:26:54.000Z</time>
      </trkpt>
      <trkpt lat="17.8092829696834087371826171875" lon="-92.63812984339892864227294921875">
        <ele>38.799999237060546875</ele>
        <time>2021-03-09T19:26:57.000Z</time>
      </trkpt>
      <trkpt lat="17.8094090335071086883544921875" lon="-92.63818231411278247833251953125">
        <ele>38.59999847412109375</ele>
        <time>2021-03-09T19:27:00.000Z</time>
      </trkpt>
      <trkpt lat="17.80945605598390102386474609375" lon="-92.638199664652347564697265625">
        <ele>38.59999847412109375</ele>
        <time>2021-03-09T19:27:01.000Z</time>
      </trkpt>
      <trkpt lat="17.80966929160058498382568359375" lon="-92.63826646842062473297119140625">
        <ele>37.799999237060546875</ele>
        <time>2021-03-09T19:27:05.000Z</time>
      </trkpt>
      <trkpt lat="17.80997405759990215301513671875" lon="-92.63839672319591045379638671875">
        <ele>36.40000152587890625</ele>
        <time>2021-03-09T19:27:10.000Z</time>
      </trkpt>
      <trkpt lat="17.8103853575885295867919921875" lon="-92.6385627686977386474609375">
        <ele>40.40000152587890625</ele>
        <time>2021-03-09T19:27:16.000Z</time>
      </trkpt>
      <trkpt lat="17.810835801064968109130859375" lon="-92.63869880698621273040771484375">
        <ele>47</ele>
        <time>2021-03-09T19:27:23.000Z</time>
      </trkpt>
      <trkpt lat="17.8110726736485958099365234375" lon="-92.6388180814683437347412109375">
        <ele>47.200000762939453125</ele>
        <time>2021-03-09T19:27:28.000Z</time>
      </trkpt>
      <trkpt lat="17.81127559952437877655029296875" lon="-92.63903693296015262603759765625">
        <ele>47.59999847412109375</ele>
        <time>2021-03-09T19:27:33.000Z</time>
      </trkpt>
      <trkpt lat="17.81149126589298248291015625" lon="-92.63932560570538043975830078125">
        <ele>46.799999237060546875</ele>
        <time>2021-03-09T19:27:38.000Z</time>
      </trkpt>
      <trkpt lat="17.811726629734039306640625" lon="-92.6397080719470977783203125">
        <ele>47.799999237060546875</ele>
        <time>2021-03-09T19:27:44.000Z</time>
      </trkpt>
      <trkpt lat="17.81197138130664825439453125" lon="-92.64009363949298858642578125">
        <ele>46.200000762939453125</ele>
        <time>2021-03-09T19:27:51.000Z</time>
      </trkpt>
      <trkpt lat="17.81220263801515102386474609375" lon="-92.6404652930796146392822265625">
        <ele>39</ele>
        <time>2021-03-09T19:27:58.000Z</time>
      </trkpt>
      <trkpt lat="17.812418639659881591796875" lon="-92.64086334966123104095458984375">
        <ele>39.59999847412109375</ele>
        <time>2021-03-09T19:28:05.000Z</time>
      </trkpt>
      <trkpt lat="17.81259390525519847869873046875" lon="-92.641223184764385223388671875">
        <ele>39.40000152587890625</ele>
        <time>2021-03-09T19:28:12.000Z</time>
      </trkpt>
      <trkpt lat="17.81274494715034961700439453125" lon="-92.64154295437037944793701171875">
        <ele>38.799999237060546875</ele>
        <time>2021-03-09T19:28:19.000Z</time>
      </trkpt>
      <trkpt lat="17.81276791356503963470458984375" lon="-92.64158184640109539031982421875">
        <ele>38.799999237060546875</ele>
        <time>2021-03-09T19:28:20.000Z</time>
      </trkpt>
      <trkpt lat="17.812844775617122650146484375" lon="-92.64172635041177272796630859375">
        <ele>39</ele>
        <time>2021-03-09T19:28:24.000Z</time>
      </trkpt>
      <trkpt lat="17.8128258325159549713134765625" lon="-92.64180463738739490509033203125">
        <ele>38.799999237060546875</ele>
        <time>2021-03-09T19:28:26.000Z</time>
      </trkpt>
      <trkpt lat="17.8127939812839031219482421875" lon="-92.6418405957520008087158203125">
        <ele>38.799999237060546875</ele>
        <time>2021-03-09T19:28:27.000Z</time>
      </trkpt>
      <trkpt lat="17.81257462687790393829345703125" lon="-92.64200664125382900238037109375">
        <ele>38.799999237060546875</ele>
        <time>2021-03-09T19:28:32.000Z</time>
      </trkpt>
      <trkpt lat="17.8122561983764171600341796875" lon="-92.64220965094864368438720703125">
        <ele>39</ele>
        <time>2021-03-09T19:28:39.000Z</time>
      </trkpt>
      <trkpt lat="17.81202008016407489776611328125" lon="-92.64238852076232433319091796875">
        <ele>38.59999847412109375</ele>
        <time>2021-03-09T19:28:44.000Z</time>
      </trkpt>
      <trkpt lat="17.8119715489447116851806640625" lon="-92.64242875389754772186279296875">
        <ele>38.40000152587890625</ele>
        <time>2021-03-09T19:28:45.000Z</time>
      </trkpt>
      <trkpt lat="17.81177314929664134979248046875" lon="-92.64256906695663928985595703125">
        <ele>37.59999847412109375</ele>
        <time>2021-03-09T19:28:49.000Z</time>
      </trkpt>
      <trkpt lat="17.81161598861217498779296875" lon="-92.6426989026367664337158203125">
        <ele>35.799999237060546875</ele>
        <time>2021-03-09T19:28:52.000Z</time>
      </trkpt>
      <trkpt lat="17.81127006746828556060791015625" lon="-92.64299319125711917877197265625">
        <ele>33.200000762939453125</ele>
        <time>2021-03-09T19:28:59.000Z</time>
      </trkpt>
      <trkpt lat="17.8109787963330745697021484375" lon="-92.643268369138240814208984375">
        <ele>37</ele>
        <time>2021-03-09T19:29:06.000Z</time>
      </trkpt>
      <trkpt lat="17.81085968948900699615478515625" lon="-92.64337171800434589385986328125">
        <ele>39.40000152587890625</ele>
        <time>2021-03-09T19:29:09.000Z</time>
      </trkpt>
      <trkpt lat="17.81081459484994411468505859375" lon="-92.64340373687446117401123046875">
        <ele>39.59999847412109375</ele>
        <time>2021-03-09T19:29:10.000Z</time>
      </trkpt>
      <trkpt lat="17.81072557903826236724853515625" lon="-92.64347632415592670440673828125">
        <ele>40</ele>
        <time>2021-03-09T19:29:12.000Z</time>
      </trkpt>
      <trkpt lat="17.8105781413614749908447265625" lon="-92.64356366358697414398193359375">
        <ele>40.59999847412109375</ele>
        <time>2021-03-09T19:29:15.000Z</time>
      </trkpt>
      <trkpt lat="17.8101292066276073455810546875" lon="-92.6437851972877979278564453125">
        <ele>39.799999237060546875</ele>
        <time>2021-03-09T19:29:24.000Z</time>
      </trkpt>
      <trkpt lat="17.809919156134128570556640625" lon="-92.64388938434422016143798828125">
        <ele>39</ele>
        <time>2021-03-09T19:29:28.000Z</time>
      </trkpt>
      <trkpt lat="17.80979786999523639678955078125" lon="-92.64395476318895816802978515625">
        <ele>38.59999847412109375</ele>
        <time>2021-03-09T19:29:31.000Z</time>
      </trkpt>
      <trkpt lat="17.809766940772533416748046875" lon="-92.64396649785339832305908203125">
        <ele>38.59999847412109375</ele>
        <time>2021-03-09T19:29:32.000Z</time>
      </trkpt>
      <trkpt lat="17.80969745479524135589599609375" lon="-92.6439861953258514404296875">
        <ele>38.799999237060546875</ele>
        <time>2021-03-09T19:29:35.000Z</time>
      </trkpt>
      <trkpt lat="17.80967934988439083099365234375" lon="-92.643999941647052764892578125">
        <ele>38.59999847412109375</ele>
        <time>2021-03-09T19:29:36.000Z</time>
      </trkpt>
      <trkpt lat="17.809640876948833465576171875" lon="-92.64403791166841983795166015625">
        <ele>38.200000762939453125</ele>
        <time>2021-03-09T19:29:39.000Z</time>
      </trkpt>
      <trkpt lat="17.80962956137955188751220703125" lon="-92.64406423084437847137451171875">
        <ele>37.799999237060546875</ele>
        <time>2021-03-09T19:29:41.000Z</time>
      </trkpt>
      <trkpt lat="17.8096210956573486328125" lon="-92.64407328329980373382568359375">
        <ele>37.799999237060546875</ele>
        <time>2021-03-09T19:29:42.000Z</time>
      </trkpt>
      <trkpt lat="17.80954205431044101715087890625" lon="-92.6440996862947940826416015625">
        <ele>37.799999237060546875</ele>
        <time>2021-03-09T19:29:46.000Z</time>
      </trkpt>
      <trkpt lat="17.80938841402530670166015625" lon="-92.6441865228116512298583984375">
        <ele>37.40000152587890625</ele>
        <time>2021-03-09T19:29:53.000Z</time>
      </trkpt>
      <trkpt lat="17.80918699689209461212158203125" lon="-92.644265480339527130126953125">
        <ele>38.200000762939453125</ele>
        <time>2021-03-09T19:29:59.000Z</time>
      </trkpt>
      <trkpt lat="17.8088558278977870941162109375" lon="-92.6444138400256633758544921875">
        <ele>40.799999237060546875</ele>
        <time>2021-03-09T19:30:07.000Z</time>
      </trkpt>
      <trkpt lat="17.8085738606750965118408203125" lon="-92.6445596851408481597900390625">
        <ele>41.40000152587890625</ele>
        <time>2021-03-09T19:30:14.000Z</time>
      </trkpt>
      <trkpt lat="17.80835132114589214324951171875" lon="-92.6446616090834140777587890625">
        <ele>40.799999237060546875</ele>
        <time>2021-03-09T19:30:19.000Z</time>
      </trkpt>
      <trkpt lat="17.80830371193587779998779296875" lon="-92.64468013308942317962646484375">
        <ele>40.59999847412109375</ele>
        <time>2021-03-09T19:30:20.000Z</time>
      </trkpt>
      <trkpt lat="17.808208577334880828857421875" lon="-92.64471315778791904449462890625">
        <ele>40.40000152587890625</ele>
        <time>2021-03-09T19:30:22.000Z</time>
      </trkpt>
      <trkpt lat="17.80812651850283145904541015625" lon="-92.64474886469542980194091796875">
        <ele>39.799999237060546875</ele>
        <time>2021-03-09T19:30:24.000Z</time>
      </trkpt>
      <trkpt lat="17.80805259011685848236083984375" lon="-92.64478809200227260589599609375">
        <ele>38.59999847412109375</ele>
        <time>2021-03-09T19:30:26.000Z</time>
      </trkpt>
      <trkpt lat="17.80771781690418720245361328125" lon="-92.64494466595351696014404296875">
        <ele>32.200000762939453125</ele>
        <time>2021-03-09T19:30:33.000Z</time>
      </trkpt>
      <trkpt lat="17.8075812757015228271484375" lon="-92.64500141143798828125">
        <ele>29.6000003814697265625</ele>
        <time>2021-03-09T19:30:35.000Z</time>
      </trkpt>
      <trkpt lat="17.80743149109184741973876953125" lon="-92.64506704173982143402099609375">
        <ele>27.200000762939453125</ele>
        <time>2021-03-09T19:30:37.000Z</time>
      </trkpt>
      <trkpt lat="17.8069980628788471221923828125" lon="-92.6452483423054218292236328125">
        <ele>22.200000762939453125</ele>
        <time>2021-03-09T19:30:42.000Z</time>
      </trkpt>
      <trkpt lat="17.80649137683212757110595703125" lon="-92.64546987600624561309814453125">
        <ele>25</ele>
        <time>2021-03-09T19:30:48.000Z</time>
      </trkpt>
      <trkpt lat="17.80624243430793285369873046875" lon="-92.645609267055988311767578125">
        <ele>26.799999237060546875</ele>
        <time>2021-03-09T19:30:52.000Z</time>
      </trkpt>
      <trkpt lat="17.80613682232797145843505859375" lon="-92.645656876266002655029296875">
        <ele>27</ele>
        <time>2021-03-09T19:30:54.000Z</time>
      </trkpt>
      <trkpt lat="17.8060819208621978759765625" lon="-92.64568763785064220428466796875">
        <ele>26.799999237060546875</ele>
        <time>2021-03-09T19:30:55.000Z</time>
      </trkpt>
      <trkpt lat="17.80598661862313747406005859375" lon="-92.64574262313544750213623046875">
        <ele>26.6000003814697265625</ele>
        <time>2021-03-09T19:30:57.000Z</time>
      </trkpt>
      <trkpt lat="17.80594906769692897796630859375" lon="-92.6457639969885349273681640625">
        <ele>26.3999996185302734375</ele>
        <time>2021-03-09T19:30:58.000Z</time>
      </trkpt>
      <trkpt lat="17.8058024682104587554931640625" lon="-92.6458449661731719970703125">
        <ele>26.3999996185302734375</ele>
        <time>2021-03-09T19:31:03.000Z</time>
      </trkpt>
      <trkpt lat="17.8056703694164752960205078125" lon="-92.64591176994144916534423828125">
        <ele>27</ele>
        <time>2021-03-09T19:31:08.000Z</time>
      </trkpt>
      <trkpt lat="17.8056063316762447357177734375" lon="-92.6459504105150699615478515625">
        <ele>27.6000003814697265625</ele>
        <time>2021-03-09T19:31:10.000Z</time>
      </trkpt>
      <trkpt lat="17.805478088557720184326171875" lon="-92.646017968654632568359375">
        <ele>29.200000762939453125</ele>
        <time>2021-03-09T19:31:14.000Z</time>
      </trkpt>
      <trkpt lat="17.80540759675204753875732421875" lon="-92.6460506580770015716552734375">
        <ele>29.799999237060546875</ele>
        <time>2021-03-09T19:31:16.000Z</time>
      </trkpt>
      <trkpt lat="17.80534188263118267059326171875" lon="-92.6460838504135608673095703125">
        <ele>30.6000003814697265625</ele>
        <time>2021-03-09T19:31:18.000Z</time>
      </trkpt>
      <trkpt lat="17.80528086237609386444091796875" lon="-92.6461153663694858551025390625">
        <ele>31.6000003814697265625</ele>
        <time>2021-03-09T19:31:20.000Z</time>
      </trkpt>
      <trkpt lat="17.80519084073603153228759765625" lon="-92.6461612991988658905029296875">
        <ele>32.799999237060546875</ele>
        <time>2021-03-09T19:31:23.000Z</time>
      </trkpt>
      <trkpt lat="17.8051324188709259033203125" lon="-92.64619558118283748626708984375">
        <ele>33.40000152587890625</ele>
        <time>2021-03-09T19:31:25.000Z</time>
      </trkpt>
      <trkpt lat="17.804841063916683197021484375" lon="-92.646342851221561431884765625">
        <ele>34.200000762939453125</ele>
        <time>2021-03-09T19:31:35.000Z</time>
      </trkpt>
      <trkpt lat="17.8045820631086826324462890625" lon="-92.64645877294242382049560546875">
        <ele>32.40000152587890625</ele>
        <time>2021-03-09T19:31:43.000Z</time>
      </trkpt>
      <trkpt lat="17.8043182007968425750732421875" lon="-92.64659372158348560333251953125">
        <ele>28.6000003814697265625</ele>
        <time>2021-03-09T19:31:51.000Z</time>
      </trkpt>
      <trkpt lat="17.8040627203881740570068359375" lon="-92.64673453755676746368408203125">
        <ele>26.200000762939453125</ele>
        <time>2021-03-09T19:31:57.000Z</time>
      </trkpt>
      <trkpt lat="17.80376273207366466522216796875" lon="-92.64687920920550823211669921875">
        <ele>24.200000762939453125</ele>
        <time>2021-03-09T19:32:02.000Z</time>
      </trkpt>
      <trkpt lat="17.8034132905304431915283203125" lon="-92.647048272192478179931640625">
        <ele>23</ele>
        <time>2021-03-09T19:32:08.000Z</time>
      </trkpt>
      <trkpt lat="17.80315638519823551177978515625" lon="-92.6471859030425548553466796875">
        <ele>23.799999237060546875</ele>
        <time>2021-03-09T19:32:14.000Z</time>
      </trkpt>
      <trkpt lat="17.80303451232612133026123046875" lon="-92.64724751003086566925048828125">
        <ele>24.3999996185302734375</ele>
        <time>2021-03-09T19:32:17.000Z</time>
      </trkpt>
      <trkpt lat="17.80291347764432430267333984375" lon="-92.64729537069797515869140625">
        <ele>25.200000762939453125</ele>
        <time>2021-03-09T19:32:20.000Z</time>
      </trkpt>
      <trkpt lat="17.8026877529919147491455078125" lon="-92.6473952829837799072265625">
        <ele>26.799999237060546875</ele>
        <time>2021-03-09T19:32:26.000Z</time>
      </trkpt>
      <trkpt lat="17.80258364975452423095703125" lon="-92.6474490948021411895751953125">
        <ele>27.6000003814697265625</ele>
        <time>2021-03-09T19:32:29.000Z</time>
      </trkpt>
      <trkpt lat="17.80232205055654048919677734375" lon="-92.64758211560547351837158203125">
        <ele>26.3999996185302734375</ele>
        <time>2021-03-09T19:32:36.000Z</time>
      </trkpt>
      <trkpt lat="17.802026756107807159423828125" lon="-92.64776215888559818267822265625">
        <ele>26.6000003814697265625</ele>
        <time>2021-03-09T19:32:43.000Z</time>
      </trkpt>
      <trkpt lat="17.8016879595816135406494140625" lon="-92.64793918468058109283447265625">
        <ele>26</ele>
        <time>2021-03-09T19:32:49.000Z</time>
      </trkpt>
      <trkpt lat="17.80132234096527099609375" lon="-92.648118473589420318603515625">
        <ele>28.6000003814697265625</ele>
        <time>2021-03-09T19:32:56.000Z</time>
      </trkpt>
      <trkpt lat="17.8012420423328876495361328125" lon="-92.64813624322414398193359375">
        <ele>28.799999237060546875</ele>
        <time>2021-03-09T19:32:58.000Z</time>
      </trkpt>
      <trkpt lat="17.8011632524430751800537109375" lon="-92.648117132484912872314453125">
        <ele>29</ele>
        <time>2021-03-09T19:33:00.000Z</time>
      </trkpt>
      <trkpt lat="17.80097222886979579925537109375" lon="-92.64795561321079730987548828125">
        <ele>28.3999996185302734375</ele>
        <time>2021-03-09T19:33:05.000Z</time>
      </trkpt>
      <trkpt lat="17.80070635490119457244873046875" lon="-92.64772159047424793243408203125">
        <ele>27.6000003814697265625</ele>
        <time>2021-03-09T19:33:13.000Z</time>
      </trkpt>
      <trkpt lat="17.80039764940738677978515625" lon="-92.6474618352949619293212890625">
        <ele>26.799999237060546875</ele>
        <time>2021-03-09T19:33:23.000Z</time>
      </trkpt>
      <trkpt lat="17.80019170604646205902099609375" lon="-92.6472677104175090789794921875">
        <ele>26</ele>
        <time>2021-03-09T19:33:30.000Z</time>
      </trkpt>
      <trkpt lat="17.799951396882534027099609375" lon="-92.64704533852636814117431640625">
        <ele>26</ele>
        <time>2021-03-09T19:33:37.000Z</time>
      </trkpt>
      <trkpt lat="17.79975601471960544586181640625" lon="-92.6468476094305515289306640625">
        <ele>25.6000003814697265625</ele>
        <time>2021-03-09T19:33:42.000Z</time>
      </trkpt>
      <trkpt lat="17.7994449622929096221923828125" lon="-92.64651778154075145721435546875">
        <ele>24</ele>
        <time>2021-03-09T19:33:49.000Z</time>
      </trkpt>
      <trkpt lat="17.79930121265351772308349609375" lon="-92.64637545682489871978759765625">
        <ele>24.6000003814697265625</ele>
        <time>2021-03-09T19:33:52.000Z</time>
      </trkpt>
      <trkpt lat="17.79905864037573337554931640625" lon="-92.64615367166697978973388671875">
        <ele>26</ele>
        <time>2021-03-09T19:33:57.000Z</time>
      </trkpt>
      <trkpt lat="17.798740379512310028076171875" lon="-92.64590908773243427276611328125">
        <ele>28.799999237060546875</ele>
        <time>2021-03-09T19:34:04.000Z</time>
      </trkpt>
      <trkpt lat="17.79858103953301906585693359375" lon="-92.645816467702388763427734375">
        <ele>30.6000003814697265625</ele>
        <time>2021-03-09T19:34:08.000Z</time>
      </trkpt>
      <trkpt lat="17.79850208200514316558837890625" lon="-92.6457767374813556671142578125">
        <ele>31.6000003814697265625</ele>
        <time>2021-03-09T19:34:10.000Z</time>
      </trkpt>
      <trkpt lat="17.798462100327014923095703125" lon="-92.645757459104061126708984375">
        <ele>31.6000003814697265625</ele>
        <time>2021-03-09T19:34:11.000Z</time>
      </trkpt>
      <trkpt lat="17.798317931592464447021484375" lon="-92.64570808969438076019287109375">
        <ele>33.200000762939453125</ele>
        <time>2021-03-09T19:34:15.000Z</time>
      </trkpt>
      <trkpt lat="17.79804241843521595001220703125" lon="-92.645580433309078216552734375">
        <ele>33.59999847412109375</ele>
        <time>2021-03-09T19:34:24.000Z</time>
      </trkpt>
      <trkpt lat="17.7978171966969966888427734375" lon="-92.64543433673679828643798828125">
        <ele>33.799999237060546875</ele>
        <time>2021-03-09T19:34:33.000Z</time>
      </trkpt>
      <trkpt lat="17.7976224012672901153564453125" lon="-92.64528497122228145599365234375">
        <ele>33.799999237060546875</ele>
        <time>2021-03-09T19:34:41.000Z</time>
      </trkpt>
      <trkpt lat="17.7974440343677997589111328125" lon="-92.6451269723474979400634765625">
        <ele>34.40000152587890625</ele>
        <time>2021-03-09T19:34:49.000Z</time>
      </trkpt>
      <trkpt lat="17.797253429889678955078125" lon="-92.64495137147605419158935546875">
        <ele>34.40000152587890625</ele>
        <time>2021-03-09T19:34:58.000Z</time>
      </trkpt>
      <trkpt lat="17.7970691956579685211181640625" lon="-92.6447514630854129791259765625">
        <ele>33.59999847412109375</ele>
        <time>2021-03-09T19:35:06.000Z</time>
      </trkpt>
      <trkpt lat="17.79688923619687557220458984375" lon="-92.6445476152002811431884765625">
        <ele>32</ele>
        <time>2021-03-09T19:35:12.000Z</time>
      </trkpt>
      <trkpt lat="17.79681312851607799530029296875" lon="-92.64447561465203762054443359375">
        <ele>31.799999237060546875</ele>
        <time>2021-03-09T19:35:16.000Z</time>
      </trkpt>
      <trkpt lat="17.79681312851607799530029296875" lon="-92.64447561465203762054443359375">
        <ele>31.799999237060546875</ele>
        <time>2021-03-09T19:35:21.000Z</time>
      </trkpt>
      <trkpt lat="17.79681312851607799530029296875" lon="-92.64447561465203762054443359375">
        <ele>31.799999237060546875</ele>
        <time>2021-03-09T19:35:27.000Z</time>
      </trkpt>
      <trkpt lat="17.796815894544124603271484375" lon="-92.64447259716689586639404296875">
        <ele>31.799999237060546875</ele>
        <time>2021-03-09T19:35:31.000Z</time>
      </trkpt>
      <trkpt lat="17.79680709354579448699951171875" lon="-92.6444644667208194732666015625">
        <ele>31.799999237060546875</ele>
        <time>2021-03-09T19:35:32.000Z</time>
      </trkpt>
      <trkpt lat="17.79674691148102283477783203125" lon="-92.64440353028476238250732421875">
        <ele>31.3999996185302734375</ele>
        <time>2021-03-09T19:35:36.000Z</time>
      </trkpt>
      <trkpt lat="17.79661975800991058349609375" lon="-92.64427394606173038482666015625">
        <ele>29.3999996185302734375</ele>
        <time>2021-03-09T19:35:41.000Z</time>
      </trkpt>
      <trkpt lat="17.7965880744159221649169921875" lon="-92.6442351378500461578369140625">
        <ele>29</ele>
        <time>2021-03-09T19:35:42.000Z</time>
      </trkpt>
      <trkpt lat="17.79633703641593456268310546875" lon="-92.64394051395356655120849609375">
        <ele>27</ele>
        <time>2021-03-09T19:35:49.000Z</time>
      </trkpt>
      <trkpt lat="17.79616503976285457611083984375" lon="-92.64372845180332660675048828125">
        <ele>27.3999996185302734375</ele>
        <time>2021-03-09T19:35:54.000Z</time>
      </trkpt>
      <trkpt lat="17.79603696428239345550537109375" lon="-92.64356517232954502105712890625">
        <ele>28</ele>
        <time>2021-03-09T19:35:58.000Z</time>
      </trkpt>
      <trkpt lat="17.79600276611745357513427734375" lon="-92.64352544210851192474365234375">
        <ele>28.200000762939453125</ele>
        <time>2021-03-09T19:35:59.000Z</time>
      </trkpt>
      <trkpt lat="17.7959047816693782806396484375" lon="-92.64340625144541263580322265625">
        <ele>28.799999237060546875</ele>
        <time>2021-03-09T19:36:02.000Z</time>
      </trkpt>
      <trkpt lat="17.7958075515925884246826171875" lon="-92.643289156258106231689453125">
        <ele>28.6000003814697265625</ele>
        <time>2021-03-09T19:36:05.000Z</time>
      </trkpt>
      <trkpt lat="17.7954089082777500152587890625" lon="-92.64289428479969501495361328125">
        <ele>25</ele>
        <time>2021-03-09T19:36:15.000Z</time>
      </trkpt>
      <trkpt lat="17.794994674623012542724609375" lon="-92.64251978136599063873291015625">
        <ele>27.799999237060546875</ele>
        <time>2021-03-09T19:36:24.000Z</time>
      </trkpt>
      <trkpt lat="17.7948033995926380157470703125" lon="-92.642337977886199951171875">
        <ele>28.3999996185302734375</ele>
        <time>2021-03-09T19:36:29.000Z</time>
      </trkpt>
      <trkpt lat="17.7945224381983280181884765625" lon="-92.6420970819890499114990234375">
        <ele>28.6000003814697265625</ele>
        <time>2021-03-09T19:36:36.000Z</time>
      </trkpt>
      <trkpt lat="17.79436896555125713348388671875" lon="-92.6419584453105926513671875">
        <ele>28.3999996185302734375</ele>
        <time>2021-03-09T19:36:40.000Z</time>
      </trkpt>
      <trkpt lat="17.79421021230518817901611328125" lon="-92.6418323814868927001953125">
        <ele>28.6000003814697265625</ele>
        <time>2021-03-09T19:36:44.000Z</time>
      </trkpt>
      <trkpt lat="17.7941368706524372100830078125" lon="-92.64176205731928348541259765625">
        <ele>28.6000003814697265625</ele>
        <time>2021-03-09T19:36:46.000Z</time>
      </trkpt>
      <trkpt lat="17.793919779360294342041015625" lon="-92.64156709425151348114013671875">
        <ele>27.799999237060546875</ele>
        <time>2021-03-09T19:36:52.000Z</time>
      </trkpt>
      <trkpt lat="17.79384727589786052703857421875" lon="-92.64149920083582401275634765625">
        <ele>27.3999996185302734375</ele>
        <time>2021-03-09T19:36:54.000Z</time>
      </trkpt>
      <trkpt lat="17.7936550788581371307373046875" lon="-92.6413373462855815887451171875">
        <ele>25.799999237060546875</ele>
        <time>2021-03-09T19:36:59.000Z</time>
      </trkpt>
      <trkpt lat="17.79332223348319530487060546875" lon="-92.64103584922850131988525390625">
        <ele>24.6000003814697265625</ele>
        <time>2021-03-09T19:37:07.000Z</time>
      </trkpt>
      <trkpt lat="17.79325400479137897491455078125" lon="-92.6409326680004596710205078125">
        <ele>24.3999996185302734375</ele>
        <time>2021-03-09T19:37:09.000Z</time>
      </trkpt>
      <trkpt lat="17.79317311942577362060546875" lon="-92.6407445780932903289794921875">
        <ele>23.799999237060546875</ele>
        <time>2021-03-09T19:37:12.000Z</time>
      </trkpt>
      <trkpt lat="17.79300154186785221099853515625" lon="-92.6402101479470729827880859375">
        <ele>21.6000003814697265625</ele>
        <time>2021-03-09T19:37:20.000Z</time>
      </trkpt>
      <trkpt lat="17.7929054014384746551513671875" lon="-92.63989272527396678924560546875">
        <ele>21.799999237060546875</ele>
        <time>2021-03-09T19:37:25.000Z</time>
      </trkpt>
      <trkpt lat="17.79283256269991397857666015625" lon="-92.63970815576612949371337890625">
        <ele>22</ele>
        <time>2021-03-09T19:37:28.000Z</time>
      </trkpt>
      <trkpt lat="17.79270783998072147369384765625" lon="-92.63934873975813388824462890625">
        <ele>21.799999237060546875</ele>
        <time>2021-03-09T19:37:34.000Z</time>
      </trkpt>
      <trkpt lat="17.79251690022647380828857421875" lon="-92.63876602984964847564697265625">
        <ele>22</ele>
        <time>2021-03-09T19:37:43.000Z</time>
      </trkpt>
      <trkpt lat="17.7924051694571971893310546875" lon="-92.638393454253673553466796875">
        <ele>20.6000003814697265625</ele>
        <time>2021-03-09T19:37:49.000Z</time>
      </trkpt>
      <trkpt lat="17.79228262603282928466796875" lon="-92.6380194537341594696044921875">
        <ele>21.200000762939453125</ele>
        <time>2021-03-09T19:37:55.000Z</time>
      </trkpt>
      <trkpt lat="17.7921067737042903900146484375" lon="-92.6374764740467071533203125">
        <ele>22.3999996185302734375</ele>
        <time>2021-03-09T19:38:04.000Z</time>
      </trkpt>
      <trkpt lat="17.79208925552666187286376953125" lon="-92.637418471276760101318359375">
        <ele>22.200000762939453125</ele>
        <time>2021-03-09T19:38:05.000Z</time>
      </trkpt>
      <trkpt lat="17.79203510843217372894287109375" lon="-92.63724982738494873046875">
        <ele>21</ele>
        <time>2021-03-09T19:38:08.000Z</time>
      </trkpt>
      <trkpt lat="17.79197945259511470794677734375" lon="-92.6370956003665924072265625">
        <ele>20.200000762939453125</ele>
        <time>2021-03-09T19:38:11.000Z</time>
      </trkpt>
      <trkpt lat="17.79191826470196247100830078125" lon="-92.63687767088413238525390625">
        <ele>19.6000003814697265625</ele>
        <time>2021-03-09T19:38:16.000Z</time>
      </trkpt>
      <trkpt lat="17.7918234653770923614501953125" lon="-92.6366448216140270233154296875">
        <ele>19.6000003814697265625</ele>
        <time>2021-03-09T19:38:20.000Z</time>
      </trkpt>
      <trkpt lat="17.79171508736908435821533203125" lon="-92.6363397203385829925537109375">
        <ele>18</ele>
        <time>2021-03-09T19:38:24.000Z</time>
      </trkpt>
      <trkpt lat="17.79167233966290950775146484375" lon="-92.63626403175294399261474609375">
        <ele>18</ele>
        <time>2021-03-09T19:38:25.000Z</time>
      </trkpt>
      <trkpt lat="17.79161903075873851776123046875" lon="-92.6361968927085399627685546875">
        <ele>17.799999237060546875</ele>
        <time>2021-03-09T19:38:26.000Z</time>
      </trkpt>
      <trkpt lat="17.79149464331567287445068359375" lon="-92.63609505258500576019287109375">
        <ele>17.799999237060546875</ele>
        <time>2021-03-09T19:38:28.000Z</time>
      </trkpt>
      <trkpt lat="17.79136070050299167633056640625" lon="-92.63603487052023410797119140625">
        <ele>18</ele>
        <time>2021-03-09T19:38:30.000Z</time>
      </trkpt>
      <trkpt lat="17.791218794882297515869140625" lon="-92.635991871356964111328125">
        <ele>19.200000762939453125</ele>
        <time>2021-03-09T19:38:32.000Z</time>
      </trkpt>
      <trkpt lat="17.79076457954943180084228515625" lon="-92.63584912754595279693603515625">
        <ele>23</ele>
        <time>2021-03-09T19:38:39.000Z</time>
      </trkpt>
      <trkpt lat="17.790482528507709503173828125" lon="-92.6357563398778438568115234375">
        <ele>23.6000003814697265625</ele>
        <time>2021-03-09T19:38:44.000Z</time>
      </trkpt>
      <trkpt lat="17.79036660678684711456298828125" lon="-92.63571225106716156005859375">
        <ele>23.3999996185302734375</ele>
        <time>2021-03-09T19:38:46.000Z</time>
      </trkpt>
      <trkpt lat="17.790074162185192108154296875" lon="-92.635601945221424102783203125">
        <ele>22</ele>
        <time>2021-03-09T19:38:51.000Z</time>
      </trkpt>
      <trkpt lat="17.7899013273417949676513671875" lon="-92.63553447090089321136474609375">
        <ele>19.6000003814697265625</ele>
        <time>2021-03-09T19:38:54.000Z</time>
      </trkpt>
      <trkpt lat="17.78979353606700897216796875" lon="-92.635487616062164306640625">
        <ele>19</ele>
        <time>2021-03-09T19:38:56.000Z</time>
      </trkpt>
      <trkpt lat="17.7894986607134342193603515625" lon="-92.635366916656494140625">
        <ele>17</ele>
        <time>2021-03-09T19:39:02.000Z</time>
      </trkpt>
      <trkpt lat="17.7893216349184513092041015625" lon="-92.63530044816434383392333984375">
        <ele>17.799999237060546875</ele>
        <time>2021-03-09T19:39:06.000Z</time>
      </trkpt>
      <trkpt lat="17.78922557830810546875" lon="-92.63527102768421173095703125">
        <ele>18.200000762939453125</ele>
        <time>2021-03-09T19:39:08.000Z</time>
      </trkpt>
      <trkpt lat="17.788708247244358062744140625" lon="-92.63508738018572330474853515625">
        <ele>17.799999237060546875</ele>
        <time>2021-03-09T19:39:18.000Z</time>
      </trkpt>
      <trkpt lat="17.788708247244358062744140625" lon="-92.63508738018572330474853515625">
        <ele>17.799999237060546875</ele>
        <time>2021-03-09T19:39:19.000Z</time>
      </trkpt>
      <trkpt lat="17.788613699376583099365234375" lon="-92.63505854643881320953369140625">
        <ele>18</ele>
        <time>2021-03-09T19:39:20.000Z</time>
      </trkpt>
      <trkpt lat="17.788448072969913482666015625" lon="-92.635004483163356781005859375">
        <ele>18</ele>
        <time>2021-03-09T19:39:24.000Z</time>
      </trkpt>
      <trkpt lat="17.78827699832618236541748046875" lon="-92.6349469833076000213623046875">
        <ele>19</ele>
        <time>2021-03-09T19:39:29.000Z</time>
      </trkpt>
      <trkpt lat="17.7881379425525665283203125" lon="-92.63488856144249439239501953125">
        <ele>19.3999996185302734375</ele>
        <time>2021-03-09T19:39:34.000Z</time>
      </trkpt>
      <trkpt lat="17.78800961561501026153564453125" lon="-92.63484656810760498046875">
        <ele>18.6000003814697265625</ele>
        <time>2021-03-09T19:39:38.000Z</time>
      </trkpt>
      <trkpt lat="17.78786309994757175445556640625" lon="-92.63479552231729030609130859375">
        <ele>18.799999237060546875</ele>
        <time>2021-03-09T19:39:42.000Z</time>
      </trkpt>
      <trkpt lat="17.78782747685909271240234375" lon="-92.63478529639542102813720703125">
        <ele>18.799999237060546875</ele>
        <time>2021-03-09T19:39:43.000Z</time>
      </trkpt>
      <trkpt lat="17.7877186797559261322021484375" lon="-92.6347407884895801544189453125">
        <ele>19</ele>
        <time>2021-03-09T19:39:46.000Z</time>
      </trkpt>
      <trkpt lat="17.787520699203014373779296875" lon="-92.63466677628457546234130859375">
        <ele>18.799999237060546875</ele>
        <time>2021-03-09T19:39:51.000Z</time>
      </trkpt>
      <trkpt lat="17.7870826609432697296142578125" lon="-92.63451397418975830078125">
        <ele>17.799999237060546875</ele>
        <time>2021-03-09T19:40:02.000Z</time>
      </trkpt>
      <trkpt lat="17.7867386676371097564697265625" lon="-92.6343739964067935943603515625">
        <ele>18.6000003814697265625</ele>
        <time>2021-03-09T19:40:11.000Z</time>
      </trkpt>
      <trkpt lat="17.78647069819271564483642578125" lon="-92.63427115045487880706787109375">
        <ele>19.200000762939453125</ele>
        <time>2021-03-09T19:40:18.000Z</time>
      </trkpt>
      <trkpt lat="17.78626701794564723968505859375" lon="-92.63419537805020809173583984375">
        <ele>17.3999996185302734375</ele>
        <time>2021-03-09T19:40:23.000Z</time>
      </trkpt>
      <trkpt lat="17.7861546166241168975830078125" lon="-92.63414558954536914825439453125">
        <ele>16.6000003814697265625</ele>
        <time>2021-03-09T19:40:26.000Z</time>
      </trkpt>
      <trkpt lat="17.7861209213733673095703125" lon="-92.63413368724286556243896484375">
        <ele>16.200000762939453125</ele>
        <time>2021-03-09T19:40:27.000Z</time>
      </trkpt>
      <trkpt lat="17.78606233187019824981689453125" lon="-92.63410585932433605194091796875">
        <ele>15.80000019073486328125</ele>
        <time>2021-03-09T19:40:29.000Z</time>
      </trkpt>
      <trkpt lat="17.78596795164048671722412109375" lon="-92.63405791483819484710693359375">
        <ele>15.19999980926513671875</ele>
        <time>2021-03-09T19:40:32.000Z</time>
      </trkpt>
      <trkpt lat="17.78590374626219272613525390625" lon="-92.63403427787125110626220703125">
        <ele>15</ele>
        <time>2021-03-09T19:40:34.000Z</time>
      </trkpt>
      <trkpt lat="17.785702161490917205810546875" lon="-92.63390167616307735443115234375">
        <ele>15</ele>
        <time>2021-03-09T19:40:40.000Z</time>
      </trkpt>
      <trkpt lat="17.785459421575069427490234375" lon="-92.63367821462452411651611328125">
        <ele>14.19999980926513671875</ele>
        <time>2021-03-09T19:40:46.000Z</time>
      </trkpt>
      <trkpt lat="17.78523419983685016632080078125" lon="-92.63344000093638896942138671875">
        <ele>12</ele>
        <time>2021-03-09T19:40:51.000Z</time>
      </trkpt>
      <trkpt lat="17.7849214710295200347900390625" lon="-92.633097432553768157958984375">
        <ele>10</ele>
        <time>2021-03-09T19:40:58.000Z</time>
      </trkpt>
      <trkpt lat="17.78484595008194446563720703125" lon="-92.63299609534442424774169921875">
        <ele>9.80000019073486328125</ele>
        <time>2021-03-09T19:41:00.000Z</time>
      </trkpt>
      <trkpt lat="17.78462600894272327423095703125" lon="-92.632713876664638519287109375">
        <ele>6.80000019073486328125</ele>
        <time>2021-03-09T19:41:06.000Z</time>
      </trkpt>
      <trkpt lat="17.78454244136810302734375" lon="-92.6325544528663158416748046875">
        <ele>7</ele>
        <time>2021-03-09T19:41:09.000Z</time>
      </trkpt>
      <trkpt lat="17.78451670892536640167236328125" lon="-92.63243568129837512969970703125">
        <ele>7.400000095367431640625</ele>
        <time>2021-03-09T19:41:11.000Z</time>
      </trkpt>
      <trkpt lat="17.78453112579882144927978515625" lon="-92.6321598328649997711181640625">
        <ele>8.6000003814697265625</ele>
        <time>2021-03-09T19:41:16.000Z</time>
      </trkpt>
      <trkpt lat="17.7845370769500732421875" lon="-92.6320542208850383758544921875">
        <ele>9.3999996185302734375</ele>
        <time>2021-03-09T19:41:18.000Z</time>
      </trkpt>
      <trkpt lat="17.7845496498048305511474609375" lon="-92.631947100162506103515625">
        <ele>10</ele>
        <time>2021-03-09T19:41:20.000Z</time>
      </trkpt>
      <trkpt lat="17.78456163592636585235595703125" lon="-92.6318429969251155853271484375">
        <ele>10</ele>
        <time>2021-03-09T19:41:22.000Z</time>
      </trkpt>
      <trkpt lat="17.78459734283387660980224609375" lon="-92.6316267438232898712158203125">
        <ele>10.19999980926513671875</ele>
        <time>2021-03-09T19:41:27.000Z</time>
      </trkpt>
      <trkpt lat="17.78462357819080352783203125" lon="-92.6314151845872402191162109375">
        <ele>11</ele>
        <time>2021-03-09T19:41:32.000Z</time>
      </trkpt>
      <trkpt lat="17.784633971750736236572265625" lon="-92.631368748843669891357421875">
        <ele>11.19999980926513671875</ele>
        <time>2021-03-09T19:41:33.000Z</time>
      </trkpt>
      <trkpt lat="17.78466473333537578582763671875" lon="-92.6311037130653858184814453125">
        <ele>12.19999980926513671875</ele>
        <time>2021-03-09T19:41:38.000Z</time>
      </trkpt>
      <trkpt lat="17.7846716903150081634521484375" lon="-92.63105937279760837554931640625">
        <ele>12.3999996185302734375</ele>
        <time>2021-03-09T19:41:39.000Z</time>
      </trkpt>
      <trkpt lat="17.78470681048929691314697265625" lon="-92.63067246414721012115478515625">
        <ele>14.3999996185302734375</ele>
        <time>2021-03-09T19:41:47.000Z</time>
      </trkpt>
      <trkpt lat="17.7847253344953060150146484375" lon="-92.63047666288912296295166015625">
        <ele>15.3999996185302734375</ele>
        <time>2021-03-09T19:41:52.000Z</time>
      </trkpt>
      <trkpt lat="17.78474385850131511688232421875" lon="-92.63018555939197540283203125">
        <ele>16.200000762939453125</ele>
        <time>2021-03-09T19:41:59.000Z</time>
      </trkpt>
      <trkpt lat="17.78475911356508731842041015625" lon="-92.630014233291149139404296875">
        <ele>16.6000003814697265625</ele>
        <time>2021-03-09T19:42:02.000Z</time>
      </trkpt>
      <trkpt lat="17.78476850129663944244384765625" lon="-92.62995296157896518707275390625">
        <ele>16.799999237060546875</ele>
        <time>2021-03-09T19:42:03.000Z</time>
      </trkpt>
      <trkpt lat="17.784777469933032989501953125" lon="-92.629852630198001861572265625">
        <ele>16.799999237060546875</ele>
        <time>2021-03-09T19:42:05.000Z</time>
      </trkpt>
      <trkpt lat="17.78479498811066150665283203125" lon="-92.6297039352357387542724609375">
        <ele>16.799999237060546875</ele>
        <time>2021-03-09T19:42:08.000Z</time>
      </trkpt>
      <trkpt lat="17.7847970835864543914794921875" lon="-92.62964987196028232574462890625">
        <ele>16.6000003814697265625</ele>
        <time>2021-03-09T19:42:09.000Z</time>
      </trkpt>
      <trkpt lat="17.7847985923290252685546875" lon="-92.6295993290841579437255859375">
        <ele>16.3999996185302734375</ele>
        <time>2021-03-09T19:42:10.000Z</time>
      </trkpt>
      <trkpt lat="17.78480655513703823089599609375" lon="-92.62950805015861988067626953125">
        <ele>16.200000762939453125</ele>
        <time>2021-03-09T19:42:12.000Z</time>
      </trkpt>
      <trkpt lat="17.7848265878856182098388671875" lon="-92.62942289002239704132080078125">
        <ele>15.80000019073486328125</ele>
        <time>2021-03-09T19:42:14.000Z</time>
      </trkpt>
      <trkpt lat="17.78486740775406360626220703125" lon="-92.62917193584144115447998046875">
        <ele>15.3999996185302734375</ele>
        <time>2021-03-09T19:42:20.000Z</time>
      </trkpt>
      <trkpt lat="17.784922309219837188720703125" lon="-92.62871294282376766204833984375">
        <ele>16.3999996185302734375</ele>
        <time>2021-03-09T19:42:31.000Z</time>
      </trkpt>
      <trkpt lat="17.78493463061749935150146484375" lon="-92.6284937560558319091796875">
        <ele>16</ele>
        <time>2021-03-09T19:42:37.000Z</time>
      </trkpt>
      <trkpt lat="17.78489045798778533935546875" lon="-92.62829124927520751953125">
        <ele>16.6000003814697265625</ele>
        <time>2021-03-09T19:42:43.000Z</time>
      </trkpt>
      <trkpt lat="17.784858606755733489990234375" lon="-92.62823559343814849853515625">
        <ele>16.6000003814697265625</ele>
        <time>2021-03-09T19:42:45.000Z</time>
      </trkpt>
      <trkpt lat="17.78480135835707187652587890625" lon="-92.628208436071872711181640625">
        <ele>16.6000003814697265625</ele>
        <time>2021-03-09T19:42:47.000Z</time>
      </trkpt>
      <trkpt lat="17.78471133671700954437255859375" lon="-92.62818873859941959381103515625">
        <ele>16</ele>
        <time>2021-03-09T19:42:51.000Z</time>
      </trkpt>
      <trkpt lat="17.7846954949200153350830078125" lon="-92.6281961984932422637939453125">
        <ele>15.80000019073486328125</ele>
        <time>2021-03-09T19:42:52.000Z</time>
      </trkpt>
      <trkpt lat="17.784612514078617095947265625" lon="-92.62821841053664684295654296875">
        <ele>15.19999980926513671875</ele>
        <time>2021-03-09T19:42:55.000Z</time>
      </trkpt>
      <trkpt lat="17.78453162871301174163818359375" lon="-92.6282322406768798828125">
        <ele>14.6000003814697265625</ele>
        <time>2021-03-09T19:42:57.000Z</time>
      </trkpt>
      <trkpt lat="17.78420372866094112396240234375" lon="-92.628277838230133056640625">
        <ele>13.19999980926513671875</ele>
        <time>2021-03-09T19:43:04.000Z</time>
      </trkpt>
      <trkpt lat="17.78394204564392566680908203125" lon="-92.62831748463213443756103515625">
        <ele>14.19999980926513671875</ele>
        <time>2021-03-09T19:43:09.000Z</time>
      </trkpt>
      <trkpt lat="17.7837919257581233978271484375" lon="-92.62834765948355197906494140625">
        <ele>15.19999980926513671875</ele>
        <time>2021-03-09T19:43:12.000Z</time>
      </trkpt>
      <trkpt lat="17.78345321305096149444580078125" lon="-92.62840851210057735443115234375">
        <ele>17.200000762939453125</ele>
        <time>2021-03-09T19:43:19.000Z</time>
      </trkpt>
      <trkpt lat="17.78336000628769397735595703125" lon="-92.62842711992561817169189453125">
        <ele>17.3999996185302734375</ele>
        <time>2021-03-09T19:43:21.000Z</time>
      </trkpt>
      <trkpt lat="17.78326964937150478363037109375" lon="-92.628445811569690704345703125">
        <ele>17</ele>
        <time>2021-03-09T19:43:23.000Z</time>
      </trkpt>
      <trkpt lat="17.78317744843661785125732421875" lon="-92.628461234271526336669921875">
        <ele>16.3999996185302734375</ele>
        <time>2021-03-09T19:43:25.000Z</time>
      </trkpt>
      <trkpt lat="17.78306395746767520904541015625" lon="-92.6284788362681865692138671875">
        <ele>15.80000019073486328125</ele>
        <time>2021-03-09T19:43:29.000Z</time>
      </trkpt>
      <trkpt lat="17.7830310165882110595703125" lon="-92.628471292555332183837890625">
        <ele>15.6000003814697265625</ele>
        <time>2021-03-09T19:43:31.000Z</time>
      </trkpt>
      <trkpt lat="17.7830234728753566741943359375" lon="-92.6284295506775379180908203125">
        <ele>15.80000019073486328125</ele>
        <time>2021-03-09T19:43:33.000Z</time>
      </trkpt>
      <trkpt lat="17.78307569213211536407470703125" lon="-92.62829451821744441986083984375">
        <ele>17.200000762939453125</ele>
        <time>2021-03-09T19:43:37.000Z</time>
      </trkpt>
      <trkpt lat="17.78314023278653621673583984375" lon="-92.6280516944825649261474609375">
        <ele>19</ele>
        <time>2021-03-09T19:43:42.000Z</time>
      </trkpt>
      <trkpt lat="17.783188261091709136962890625" lon="-92.6277320086956024169921875">
        <ele>19.3999996185302734375</ele>
        <time>2021-03-09T19:43:49.000Z</time>
      </trkpt>
      <trkpt lat="17.783198654651641845703125" lon="-92.62769169174134731292724609375">
        <ele>19.3999996185302734375</ele>
        <time>2021-03-09T19:43:50.000Z</time>
      </trkpt>
      <trkpt lat="17.78321617282927036285400390625" lon="-92.627612650394439697265625">
        <ele>19.6000003814697265625</ele>
        <time>2021-03-09T19:43:52.000Z</time>
      </trkpt>
      <trkpt lat="17.7832538075745105743408203125" lon="-92.62748214416205883026123046875">
        <ele>19.6000003814697265625</ele>
        <time>2021-03-09T19:43:56.000Z</time>
      </trkpt>
      <trkpt lat="17.78329513035714626312255859375" lon="-92.62732774950563907623291015625">
        <ele>19.6000003814697265625</ele>
        <time>2021-03-09T19:44:00.000Z</time>
      </trkpt>
      <trkpt lat="17.78330569155514240264892578125" lon="-92.6272894442081451416015625">
        <ele>19.6000003814697265625</ele>
        <time>2021-03-09T19:44:01.000Z</time>
      </trkpt>
      <trkpt lat="17.7833627723157405853271484375" lon="-92.62703069485723972320556640625">
        <ele>19</ele>
        <time>2021-03-09T19:44:07.000Z</time>
      </trkpt>
      <trkpt lat="17.7833815477788448333740234375" lon="-92.626945115625858306884765625">
        <ele>18.799999237060546875</ele>
        <time>2021-03-09T19:44:09.000Z</time>
      </trkpt>
      <trkpt lat="17.78346092440187931060791015625" lon="-92.62660221196711063385009765625">
        <ele>18.3999996185302734375</ele>
        <time>2021-03-09T19:44:17.000Z</time>
      </trkpt>
      <trkpt lat="17.7835525386035442352294921875" lon="-92.6262197457253932952880859375">
        <ele>20.200000762939453125</ele>
        <time>2021-03-09T19:44:26.000Z</time>
      </trkpt>
      <trkpt lat="17.78356117196381092071533203125" lon="-92.62618060223758220672607421875">
        <ele>20.3999996185302734375</ele>
        <time>2021-03-09T19:44:27.000Z</time>
      </trkpt>
      <trkpt lat="17.78361364267766475677490234375" lon="-92.62601715512573719024658203125">
        <ele>21.200000762939453125</ele>
        <time>2021-03-09T19:44:31.000Z</time>
      </trkpt>
      <trkpt lat="17.78362470678985118865966796875" lon="-92.6259739883244037628173828125">
        <ele>21.3999996185302734375</ele>
        <time>2021-03-09T19:44:32.000Z</time>
      </trkpt>
      <trkpt lat="17.7836581505835056304931640625" lon="-92.62584834359586238861083984375">
        <ele>22</ele>
        <time>2021-03-09T19:44:35.000Z</time>
      </trkpt>
      <trkpt lat="17.7836869843304157257080078125" lon="-92.62569713406264781951904296875">
        <ele>23.200000762939453125</ele>
        <time>2021-03-09T19:44:39.000Z</time>
      </trkpt>
      <trkpt lat="17.78373844921588897705078125" lon="-92.625458501279354095458984375">
        <ele>23.799999237060546875</ele>
        <time>2021-03-09T19:44:46.000Z</time>
      </trkpt>
      <trkpt lat="17.78380441479384899139404296875" lon="-92.62519941665232181549072265625">
        <ele>23.200000762939453125</ele>
        <time>2021-03-09T19:44:53.000Z</time>
      </trkpt>
      <trkpt lat="17.7838804386556148529052734375" lon="-92.62481049634516239166259765625">
        <ele>22.799999237060546875</ele>
        <time>2021-03-09T19:45:02.000Z</time>
      </trkpt>
      <trkpt lat="17.78390767984092235565185546875" lon="-92.624661885201930999755859375">
        <ele>22.799999237060546875</ele>
        <time>2021-03-09T19:45:05.000Z</time>
      </trkpt>
      <trkpt lat="17.7839347533881664276123046875" lon="-92.624555937945842742919921875">
        <ele>22.799999237060546875</ele>
        <time>2021-03-09T19:45:07.000Z</time>
      </trkpt>
      <trkpt lat="17.78395160101354122161865234375" lon="-92.62449885718524456024169921875">
        <ele>22.799999237060546875</ele>
        <time>2021-03-09T19:45:08.000Z</time>
      </trkpt>
      <trkpt lat="17.7839525230228900909423828125" lon="-92.6244498230516910552978515625">
        <ele>22.6000003814697265625</ele>
        <time>2021-03-09T19:45:09.000Z</time>
      </trkpt>
      <trkpt lat="17.7839525230228900909423828125" lon="-92.62436172924935817718505859375">
        <ele>22</ele>
        <time>2021-03-09T19:45:11.000Z</time>
      </trkpt>
      <trkpt lat="17.7839692868292331695556640625" lon="-92.62425846420228481292724609375">
        <ele>21.3999996185302734375</ele>
        <time>2021-03-09T19:45:13.000Z</time>
      </trkpt>
      <trkpt lat="17.78398311696946620941162109375" lon="-92.6240868866443634033203125">
        <ele>20.200000762939453125</ele>
        <time>2021-03-09T19:45:16.000Z</time>
      </trkpt>
      <trkpt lat="17.78398931957781314849853515625" lon="-92.62397289276123046875">
        <ele>19.3999996185302734375</ele>
        <time>2021-03-09T19:45:18.000Z</time>
      </trkpt>
      <trkpt lat="17.78399770148098468780517578125" lon="-92.62385982088744640350341796875">
        <ele>19</ele>
        <time>2021-03-09T19:45:20.000Z</time>
      </trkpt>
      <trkpt lat="17.78398965485394001007080078125" lon="-92.6238027401268482208251953125">
        <ele>19</ele>
        <time>2021-03-09T19:45:21.000Z</time>
      </trkpt>
      <trkpt lat="17.78397423215210437774658203125" lon="-92.6236897520720958709716796875">
        <ele>19</ele>
        <time>2021-03-09T19:45:23.000Z</time>
      </trkpt>
      <trkpt lat="17.783933579921722412109375" lon="-92.623519934713840484619140625">
        <ele>19</ele>
        <time>2021-03-09T19:45:26.000Z</time>
      </trkpt>
      <trkpt lat="17.78391413390636444091796875" lon="-92.623462937772274017333984375">
        <ele>19</ele>
        <time>2021-03-09T19:45:27.000Z</time>
      </trkpt>
      <trkpt lat="17.78374272398650646209716796875" lon="-92.62311098165810108184814453125">
        <ele>20.799999237060546875</ele>
        <time>2021-03-09T19:45:33.000Z</time>
      </trkpt>
      <trkpt lat="17.78349512256681919097900390625" lon="-92.62266120873391628265380859375">
        <ele>22.200000762939453125</ele>
        <time>2021-03-09T19:45:41.000Z</time>
      </trkpt>
      <trkpt lat="17.78324366547167301177978515625" lon="-92.62226893566548824310302734375">
        <ele>23.200000762939453125</ele>
        <time>2021-03-09T19:45:48.000Z</time>
      </trkpt>
      <trkpt lat="17.78321047313511371612548828125" lon="-92.62221135199069976806640625">
        <ele>23.200000762939453125</ele>
        <time>2021-03-09T19:45:49.000Z</time>
      </trkpt>
      <trkpt lat="17.783144675195217132568359375" lon="-92.62209123931825160980224609375">
        <ele>23.200000762939453125</ele>
        <time>2021-03-09T19:45:51.000Z</time>
      </trkpt>
      <trkpt lat="17.78308558277785778045654296875" lon="-92.6219778321683406829833984375">
        <ele>23.200000762939453125</ele>
        <time>2021-03-09T19:45:53.000Z</time>
      </trkpt>
      <trkpt lat="17.78302204795181751251220703125" lon="-92.62186693958938121795654296875">
        <ele>23</ele>
        <time>2021-03-09T19:45:55.000Z</time>
      </trkpt>
      <trkpt lat="17.78291291557252407073974609375" lon="-92.62169393710792064666748046875">
        <ele>23.6000003814697265625</ele>
        <time>2021-03-09T19:45:58.000Z</time>
      </trkpt>
      <trkpt lat="17.78274242766201496124267578125" lon="-92.6213874109089374542236328125">
        <ele>20.6000003814697265625</ele>
        <time>2021-03-09T19:46:03.000Z</time>
      </trkpt>
      <trkpt lat="17.782712168991565704345703125" lon="-92.62132043950259685516357421875">
        <ele>19.799999237060546875</ele>
        <time>2021-03-09T19:46:04.000Z</time>
      </trkpt>
      <trkpt lat="17.7826769649982452392578125" lon="-92.6212529651820659637451171875">
        <ele>19.3999996185302734375</ele>
        <time>2021-03-09T19:46:05.000Z</time>
      </trkpt>
      <trkpt lat="17.78247915208339691162109375" lon="-92.6209299266338348388671875">
        <ele>17.200000762939453125</ele>
        <time>2021-03-09T19:46:10.000Z</time>
      </trkpt>
      <trkpt lat="17.7822342328727245330810546875" lon="-92.62050211429595947265625">
        <ele>15.80000019073486328125</ele>
        <time>2021-03-09T19:46:16.000Z</time>
      </trkpt>
      <trkpt lat="17.7819200791418552398681640625" lon="-92.61999190784990787506103515625">
        <ele>14.6000003814697265625</ele>
        <time>2021-03-09T19:46:23.000Z</time>
      </trkpt>
      <trkpt lat="17.78170173056423664093017578125" lon="-92.61961606331169605255126953125">
        <ele>14.19999980926513671875</ele>
        <time>2021-03-09T19:46:28.000Z</time>
      </trkpt>
      <trkpt lat="17.7814587391912937164306640625" lon="-92.619161345064640045166015625">
        <ele>11.80000019073486328125</ele>
        <time>2021-03-09T19:46:34.000Z</time>
      </trkpt>
      <trkpt lat="17.7814118005335330963134765625" lon="-92.61908615939319133758544921875">
        <ele>11.6000003814697265625</ele>
        <time>2021-03-09T19:46:35.000Z</time>
      </trkpt>
      <trkpt lat="17.78120107948780059814453125" lon="-92.6187283359467983245849609375">
        <ele>10.6000003814697265625</ele>
        <time>2021-03-09T19:46:40.000Z</time>
      </trkpt>
      <trkpt lat="17.78105833567678928375244140625" lon="-92.61841912753880023956298828125">
        <ele>10.19999980926513671875</ele>
        <time>2021-03-09T19:46:44.000Z</time>
      </trkpt>
      <trkpt lat="17.7810369618237018585205078125" lon="-92.61833866126835346221923828125">
        <ele>10</ele>
        <time>2021-03-09T19:46:45.000Z</time>
      </trkpt>
      <trkpt lat="17.78102413751184940338134765625" lon="-92.61825886555016040802001953125">
        <ele>9.6000003814697265625</ele>
        <time>2021-03-09T19:46:46.000Z</time>
      </trkpt>
      <trkpt lat="17.78100200928747653961181640625" lon="-92.61801679618656635284423828125">
        <ele>9.19999980926513671875</ele>
        <time>2021-03-09T19:46:49.000Z</time>
      </trkpt>
      <trkpt lat="17.7810104750096797943115234375" lon="-92.61769585311412811279296875">
        <ele>8.3999996185302734375</ele>
        <time>2021-03-09T19:46:53.000Z</time>
      </trkpt>
      <trkpt lat="17.7810148335993289947509765625" lon="-92.617615722119808197021484375">
        <ele>8.3999996185302734375</ele>
        <time>2021-03-09T19:46:54.000Z</time>
      </trkpt>
      <trkpt lat="17.781039141118526458740234375" lon="-92.61738739907741546630859375">
        <ele>8</ele>
        <time>2021-03-09T19:46:58.000Z</time>
      </trkpt>
      <trkpt lat="17.78107627294957637786865234375" lon="-92.6171801984310150146484375">
        <ele>8.19999980926513671875</ele>
        <time>2021-03-09T19:47:00.000Z</time>
      </trkpt>
      <trkpt lat="17.78111030347645282745361328125" lon="-92.617059834301471710205078125">
        <ele>8.80000019073486328125</ele>
        <time>2021-03-09T19:47:02.000Z</time>
      </trkpt>
      <trkpt lat="17.7811239659786224365234375" lon="-92.61700342409312725067138671875">
        <ele>9</ele>
        <time>2021-03-09T19:47:03.000Z</time>
      </trkpt>
      <trkpt lat="17.78114064596593379974365234375" lon="-92.616795636713504791259765625">
        <ele>9.6000003814697265625</ele>
        <time>2021-03-09T19:47:07.000Z</time>
      </trkpt>
      <trkpt lat="17.78120904229581356048583984375" lon="-92.61645407415926456451416015625">
        <ele>10.80000019073486328125</ele>
        <time>2021-03-09T19:47:14.000Z</time>
      </trkpt>
      <trkpt lat="17.7812636084854602813720703125" lon="-92.61620546691119670867919921875">
        <ele>12</ele>
        <time>2021-03-09T19:47:20.000Z</time>
      </trkpt>
      <trkpt lat="17.7812768518924713134765625" lon="-92.6159871183335781097412109375">
        <ele>12.80000019073486328125</ele>
        <time>2021-03-09T19:47:26.000Z</time>
      </trkpt>
      <trkpt lat="17.78125145472586154937744140625" lon="-92.615712694823741912841796875">
        <ele>13.80000019073486328125</ele>
        <time>2021-03-09T19:47:32.000Z</time>
      </trkpt>
      <trkpt lat="17.78121851384639739990234375" lon="-92.6152718067169189453125">
        <ele>13.19999980926513671875</ele>
        <time>2021-03-09T19:47:42.000Z</time>
      </trkpt>
      <trkpt lat="17.7812143228948116302490234375" lon="-92.6152344234287738800048828125">
        <ele>13</ele>
        <time>2021-03-09T19:47:43.000Z</time>
      </trkpt>
      <trkpt lat="17.78118431568145751953125" lon="-92.6150654442608356475830078125">
        <ele>13</ele>
        <time>2021-03-09T19:47:47.000Z</time>
      </trkpt>
      <trkpt lat="17.78117157518863677978515625" lon="-92.61501900851726531982421875">
        <ele>13</ele>
        <time>2021-03-09T19:47:48.000Z</time>
      </trkpt>
      <trkpt lat="17.7810869179666042327880859375" lon="-92.61470426805317401885986328125">
        <ele>14.3999996185302734375</ele>
        <time>2021-03-09T19:47:55.000Z</time>
      </trkpt>
      <trkpt lat="17.78107057325541973114013671875" lon="-92.614660598337650299072265625">
        <ele>14.3999996185302734375</ele>
        <time>2021-03-09T19:47:56.000Z</time>
      </trkpt>
      <trkpt lat="17.781011648476123809814453125" lon="-92.6143680699169635772705078125">
        <ele>15.80000019073486328125</ele>
        <time>2021-03-09T19:48:03.000Z</time>
      </trkpt>
      <trkpt lat="17.78098516166210174560546875" lon="-92.6142453588545322418212890625">
        <ele>16</ele>
        <time>2021-03-09T19:48:06.000Z</time>
      </trkpt>
      <trkpt lat="17.78095138259232044219970703125" lon="-92.6140666566789150238037109375">
        <ele>16.6000003814697265625</ele>
        <time>2021-03-09T19:48:10.000Z</time>
      </trkpt>
      <trkpt lat="17.7809427492320537567138671875" lon="-92.61402064003050327301025390625">
        <ele>16.799999237060546875</ele>
        <time>2021-03-09T19:48:11.000Z</time>
      </trkpt>
      <trkpt lat="17.780913077294826507568359375" lon="-92.6138584502041339874267578125">
        <ele>17.3999996185302734375</ele>
        <time>2021-03-09T19:48:15.000Z</time>
      </trkpt>
      <trkpt lat="17.78089438565075397491455078125" lon="-92.61377236805856227874755859375">
        <ele>18.200000762939453125</ele>
        <time>2021-03-09T19:48:17.000Z</time>
      </trkpt>
      <trkpt lat="17.78084426186978816986083984375" lon="-92.61362099088728427886962890625">
        <ele>19</ele>
        <time>2021-03-09T19:48:21.000Z</time>
      </trkpt>
      <trkpt lat="17.780830599367618560791015625" lon="-92.6135841943323612213134765625">
        <ele>19.200000762939453125</ele>
        <time>2021-03-09T19:48:22.000Z</time>
      </trkpt>
      <trkpt lat="17.78078399598598480224609375" lon="-92.61341915465891361236572265625">
        <ele>19.200000762939453125</ele>
        <time>2021-03-09T19:48:27.000Z</time>
      </trkpt>
      <trkpt lat="17.780713252723217010498046875" lon="-92.61321966536343097686767578125">
        <ele>18</ele>
        <time>2021-03-09T19:48:34.000Z</time>
      </trkpt>
      <trkpt lat="17.78063756413757801055908203125" lon="-92.61299922131001949310302734375">
        <ele>17</ele>
        <time>2021-03-09T19:48:40.000Z</time>
      </trkpt>
      <trkpt lat="17.78056296519935131072998046875" lon="-92.612787075340747833251953125">
        <ele>16.3999996185302734375</ele>
        <time>2021-03-09T19:48:46.000Z</time>
      </trkpt>
      <trkpt lat="17.78054050169885158538818359375" lon="-92.61257425881922245025634765625">
        <ele>16.6000003814697265625</ele>
        <time>2021-03-09T19:48:52.000Z</time>
      </trkpt>
      <trkpt lat="17.78053748421370983123779296875" lon="-92.61249965988099575042724609375">
        <ele>16.6000003814697265625</ele>
        <time>2021-03-09T19:48:54.000Z</time>
      </trkpt>
      <trkpt lat="17.78050781227648258209228515625" lon="-92.6124013401567935943603515625">
        <ele>16.6000003814697265625</ele>
        <time>2021-03-09T19:48:56.000Z</time>
      </trkpt>
      <trkpt lat="17.7803466282784938812255859375" lon="-92.611953578889369964599609375">
        <ele>16</ele>
        <time>2021-03-09T19:49:05.000Z</time>
      </trkpt>
      <trkpt lat="17.78019265271723270416259765625" lon="-92.61162023060023784637451171875">
        <ele>15.80000019073486328125</ele>
        <time>2021-03-09T19:49:11.000Z</time>
      </trkpt>
      <trkpt lat="17.780164740979671478271484375" lon="-92.611559964716434478759765625">
        <ele>15.80000019073486328125</ele>
        <time>2021-03-09T19:49:12.000Z</time>
      </trkpt>
      <trkpt lat="17.779961563646793365478515625" lon="-92.61118940077722072601318359375">
        <ele>15.6000003814697265625</ele>
        <time>2021-03-09T19:49:18.000Z</time>
      </trkpt>
      <trkpt lat="17.77961782179772853851318359375" lon="-92.61070308275520801544189453125">
        <ele>15</ele>
        <time>2021-03-09T19:49:27.000Z</time>
      </trkpt>
      <trkpt lat="17.77939268387854099273681640625" lon="-92.61044173501431941986083984375">
        <ele>14.3999996185302734375</ele>
        <time>2021-03-09T19:49:33.000Z</time>
      </trkpt>
      <trkpt lat="17.77912178076803684234619140625" lon="-92.610186003148555755615234375">
        <ele>14.3999996185302734375</ele>
        <time>2021-03-09T19:49:39.000Z</time>
      </trkpt>
      <trkpt lat="17.77907417155802249908447265625" lon="-92.61014350689947605133056640625">
        <ele>14.3999996185302734375</ele>
        <time>2021-03-09T19:49:40.000Z</time>
      </trkpt>
      <trkpt lat="17.77864568866789340972900390625" lon="-92.60979272425174713134765625">
        <ele>13.19999980926513671875</ele>
        <time>2021-03-09T19:49:49.000Z</time>
      </trkpt>
      <trkpt lat="17.7786000072956085205078125" lon="-92.60975676588714122772216796875">
        <ele>12.80000019073486328125</ele>
        <time>2021-03-09T19:49:50.000Z</time>
      </trkpt>
      <trkpt lat="17.77824553661048412322998046875" lon="-92.609488964080810546875">
        <ele>11.3999996185302734375</ele>
        <time>2021-03-09T19:49:58.000Z</time>
      </trkpt>
      <trkpt lat="17.77789257466793060302734375" lon="-92.60922350920736789703369140625">
        <ele>12.80000019073486328125</ele>
        <time>2021-03-09T19:50:06.000Z</time>
      </trkpt>
      <trkpt lat="17.77749686501920223236083984375" lon="-92.6089262031018733978271484375">
        <ele>13.19999980926513671875</ele>
        <time>2021-03-09T19:50:15.000Z</time>
      </trkpt>
      <trkpt lat="17.77710442431271076202392578125" lon="-92.608628310263156890869140625">
        <ele>14.80000019073486328125</ele>
        <time>2021-03-09T19:50:24.000Z</time>
      </trkpt>
      <trkpt lat="17.77667242102324962615966796875" lon="-92.60829848237335681915283203125">
        <ele>14</ele>
        <time>2021-03-09T19:50:33.000Z</time>
      </trkpt>
      <trkpt lat="17.776299677789211273193359375" lon="-92.60802238248288631439208984375">
        <ele>11.6000003814697265625</ele>
        <time>2021-03-09T19:50:41.000Z</time>
      </trkpt>
      <trkpt lat="17.77602651156485080718994140625" lon="-92.60780780576169490814208984375">
        <ele>10</ele>
        <time>2021-03-09T19:50:48.000Z</time>
      </trkpt>
      <trkpt lat="17.77575694955885410308837890625" lon="-92.6076062209904193878173828125">
        <ele>10</ele>
        <time>2021-03-09T19:50:55.000Z</time>
      </trkpt>
      <trkpt lat="17.77530114166438579559326171875" lon="-92.60724873282015323638916015625">
        <ele>10</ele>
        <time>2021-03-09T19:51:06.000Z</time>
      </trkpt>
      <trkpt lat="17.774936445057392120361328125" lon="-92.60698981583118438720703125">
        <ele>9</ele>
        <time>2021-03-09T19:51:14.000Z</time>
      </trkpt>
      <trkpt lat="17.77462941594421863555908203125" lon="-92.60674917139112949371337890625">
        <ele>9.80000019073486328125</ele>
        <time>2021-03-09T19:51:21.000Z</time>
      </trkpt>
      <trkpt lat="17.7745503745973110198974609375" lon="-92.606690414249897003173828125">
        <ele>9.80000019073486328125</ele>
        <time>2021-03-09T19:51:23.000Z</time>
      </trkpt>
      <trkpt lat="17.7743612788617610931396484375" lon="-92.60654431767761707305908203125">
        <ele>10.6000003814697265625</ele>
        <time>2021-03-09T19:51:28.000Z</time>
      </trkpt>
      <trkpt lat="17.774135135114192962646484375" lon="-92.6063777692615985870361328125">
        <ele>11.19999980926513671875</ele>
        <time>2021-03-09T19:51:34.000Z</time>
      </trkpt>
      <trkpt lat="17.774072103202342987060546875" lon="-92.60631800629198551177978515625">
        <ele>11.19999980926513671875</ele>
        <time>2021-03-09T19:51:36.000Z</time>
      </trkpt>
      <trkpt lat="17.773887030780315399169921875" lon="-92.606185488402843475341796875">
        <ele>11.19999980926513671875</ele>
        <time>2021-03-09T19:51:42.000Z</time>
      </trkpt>
      <trkpt lat="17.7736136130988597869873046875" lon="-92.605966888368129730224609375">
        <ele>11.80000019073486328125</ele>
        <time>2021-03-09T19:51:50.000Z</time>
      </trkpt>
      <trkpt lat="17.77351294644176959991455078125" lon="-92.6058832369744777679443359375">
        <ele>12.6000003814697265625</ele>
        <time>2021-03-09T19:51:53.000Z</time>
      </trkpt>
      <trkpt lat="17.77344471774995326995849609375" lon="-92.605832777917385101318359375">
        <ele>13</ele>
        <time>2021-03-09T19:51:55.000Z</time>
      </trkpt>
      <trkpt lat="17.77323097921907901763916015625" lon="-92.60565114207565784454345703125">
        <ele>13</ele>
        <time>2021-03-09T19:52:01.000Z</time>
      </trkpt>
      <trkpt lat="17.77319736778736114501953125" lon="-92.60562750510871410369873046875">
        <ele>13</ele>
        <time>2021-03-09T19:52:02.000Z</time>
      </trkpt>
      <trkpt lat="17.77298404835164546966552734375" lon="-92.60548367165029048919677734375">
        <ele>13</ele>
        <time>2021-03-09T19:52:08.000Z</time>
      </trkpt>
      <trkpt lat="17.7727817930281162261962890625" lon="-92.60534570552408695220947265625">
        <ele>12.6000003814697265625</ele>
        <time>2021-03-09T19:52:15.000Z</time>
      </trkpt>
      <trkpt lat="17.772661261260509490966796875" lon="-92.60524109937250614166259765625">
        <ele>12</ele>
        <time>2021-03-09T19:52:21.000Z</time>
      </trkpt>
      <trkpt lat="17.772600241005420684814453125" lon="-92.605191729962825775146484375">
        <ele>12</ele>
        <time>2021-03-09T19:52:24.000Z</time>
      </trkpt>
      <trkpt lat="17.77248700149357318878173828125" lon="-92.605085782706737518310546875">
        <ele>12</ele>
        <time>2021-03-09T19:52:28.000Z</time>
      </trkpt>
      <trkpt lat="17.77231500484049320220947265625" lon="-92.604896016418933868408203125">
        <ele>13</ele>
        <time>2021-03-09T19:52:34.000Z</time>
      </trkpt>
      <trkpt lat="17.7722406573593616485595703125" lon="-92.60483868420124053955078125">
        <ele>13</ele>
        <time>2021-03-09T19:52:38.000Z</time>
      </trkpt>
      <trkpt lat="17.7722356282174587249755859375" lon="-92.604837007820606231689453125">
        <ele>13</ele>
        <time>2021-03-09T19:52:43.000Z</time>
      </trkpt>
      <trkpt lat="17.77222364209592342376708984375" lon="-92.6048274524509906768798828125">
        <ele>13</ele>
        <time>2021-03-09T19:54:53.000Z</time>
      </trkpt>
      <trkpt lat="17.77222364209592342376708984375" lon="-92.6048274524509906768798828125">
        <ele>13</ele>
        <time>2021-03-09T19:54:54.000Z</time>
      </trkpt>
      <trkpt lat="17.77222364209592342376708984375" lon="-92.6048274524509906768798828125">
        <ele>13</ele>
        <time>2021-03-09T19:55:00.000Z</time>
      </trkpt>
      <trkpt lat="17.77222364209592342376708984375" lon="-92.6048274524509906768798828125">
        <ele>13</ele>
        <time>2021-03-09T19:55:07.000Z</time>
      </trkpt>
      <trkpt lat="17.77222364209592342376708984375" lon="-92.6048274524509906768798828125">
        <ele>13</ele>
        <time>2021-03-09T19:55:17.000Z</time>
      </trkpt>
      <trkpt lat="17.772228755056858062744140625" lon="-92.60483139194548130035400390625">
        <ele>13</ele>
        <time>2021-03-09T19:55:26.000Z</time>
      </trkpt>
      <trkpt lat="17.772228755056858062744140625" lon="-92.60483139194548130035400390625">
        <ele>13</ele>
        <time>2021-03-09T19:55:40.000Z</time>
      </trkpt>
      <trkpt lat="17.772228755056858062744140625" lon="-92.60483139194548130035400390625">
        <ele>13</ele>
        <time>2021-03-09T19:55:43.000Z</time>
      </trkpt>
      <trkpt lat="17.772228755056858062744140625" lon="-92.60483139194548130035400390625">
        <ele>13</ele>
        <time>2021-03-09T19:56:05.000Z</time>
      </trkpt>
      <trkpt lat="17.772228755056858062744140625" lon="-92.60483139194548130035400390625">
        <ele>13</ele>
        <time>2021-03-09T19:56:09.000Z</time>
      </trkpt>
      <trkpt lat="17.772228755056858062744140625" lon="-92.60483139194548130035400390625">
        <ele>13</ele>
        <time>2021-03-09T19:56:15.000Z</time>
      </trkpt>
      <trkpt lat="17.7722218818962574005126953125" lon="-92.60482368059456348419189453125">
        <ele>13</ele>
        <time>2021-03-09T19:56:17.000Z</time>
      </trkpt>
      <trkpt lat="17.77217284776270389556884765625" lon="-92.60480607859790325164794921875">
        <ele>13.19999980926513671875</ele>
        <time>2021-03-09T19:56:20.000Z</time>
      </trkpt>
      <trkpt lat="17.77207863517105579376220703125" lon="-92.60475285351276397705078125">
        <ele>13.80000019073486328125</ele>
        <time>2021-03-09T19:56:25.000Z</time>
      </trkpt>
      <trkpt lat="17.77195927686989307403564453125" lon="-92.60465495288372039794921875">
        <ele>13.6000003814697265625</ele>
        <time>2021-03-09T19:56:30.000Z</time>
      </trkpt>
      <trkpt lat="17.7717551775276660919189453125" lon="-92.6044908352196216583251953125">
        <ele>13.80000019073486328125</ele>
        <time>2021-03-09T19:56:38.000Z</time>
      </trkpt>
      <trkpt lat="17.77149324305355548858642578125" lon="-92.60429025627672672271728515625">
        <ele>13.6000003814697265625</ele>
        <time>2021-03-09T19:56:47.000Z</time>
      </trkpt>
      <trkpt lat="17.7712722122669219970703125" lon="-92.6041408069431781768798828125">
        <ele>13.19999980926513671875</ele>
        <time>2021-03-09T19:56:54.000Z</time>
      </trkpt>
      <trkpt lat="17.77104682289063930511474609375" lon="-92.6039649546146392822265625">
        <ele>12.3999996185302734375</ele>
        <time>2021-03-09T19:57:01.000Z</time>
      </trkpt>
      <trkpt lat="17.7707413025200366973876953125" lon="-92.60372347198426723480224609375">
        <ele>12</ele>
        <time>2021-03-09T19:57:10.000Z</time>
      </trkpt>
      <trkpt lat="17.7705263905227184295654296875" lon="-92.6035594381392002105712890625">
        <ele>11.80000019073486328125</ele>
        <time>2021-03-09T19:57:16.000Z</time>
      </trkpt>
      <trkpt lat="17.770490683615207672119140625" lon="-92.603532783687114715576171875">
        <ele>11.6000003814697265625</ele>
        <time>2021-03-09T19:57:17.000Z</time>
      </trkpt>
      <trkpt lat="17.77024216018617153167724609375" lon="-92.603344023227691650390625">
        <ele>12</ele>
        <time>2021-03-09T19:57:24.000Z</time>
      </trkpt>
      <trkpt lat="17.7700627036392688751220703125" lon="-92.603194825351238250732421875">
        <ele>12</ele>
        <time>2021-03-09T19:57:29.000Z</time>
      </trkpt>
      <trkpt lat="17.76999305002391338348388671875" lon="-92.603138498961925506591796875">
        <ele>12</ele>
        <time>2021-03-09T19:57:31.000Z</time>
      </trkpt>
      <trkpt lat="17.76971745304763317108154296875" lon="-92.60293423198163509368896484375">
        <ele>12</ele>
        <time>2021-03-09T19:57:39.000Z</time>
      </trkpt>
      <trkpt lat="17.76943012140691280364990234375" lon="-92.60270523838698863983154296875">
        <ele>12.6000003814697265625</ele>
        <time>2021-03-09T19:57:47.000Z</time>
      </trkpt>
      <trkpt lat="17.769067101180553436279296875" lon="-92.602418996393680572509765625">
        <ele>11</ele>
        <time>2021-03-09T19:57:57.000Z</time>
      </trkpt>
      <trkpt lat="17.76883483864367008209228515625" lon="-92.6022384501993656158447265625">
        <ele>10.6000003814697265625</ele>
        <time>2021-03-09T19:58:03.000Z</time>
      </trkpt>
      <trkpt lat="17.76873358525335788726806640625" lon="-92.6021241210401058197021484375">
        <ele>11</ele>
        <time>2021-03-09T19:58:06.000Z</time>
      </trkpt>
      <trkpt lat="17.7685026638209819793701171875" lon="-92.60184139944612979888916015625">
        <ele>13.3999996185302734375</ele>
        <time>2021-03-09T19:58:14.000Z</time>
      </trkpt>
      <trkpt lat="17.76833393611013889312744140625" lon="-92.60155876167118549346923828125">
        <ele>13.3999996185302734375</ele>
        <time>2021-03-09T19:58:21.000Z</time>
      </trkpt>
      <trkpt lat="17.76832086034119129180908203125" lon="-92.60152749717235565185546875">
        <ele>13.6000003814697265625</ele>
        <time>2021-03-09T19:58:22.000Z</time>
      </trkpt>
      <trkpt lat="17.768253721296787261962890625" lon="-92.6013663969933986663818359375">
        <ele>13.19999980926513671875</ele>
        <time>2021-03-09T19:58:26.000Z</time>
      </trkpt>
      <trkpt lat="17.76823352091014385223388671875" lon="-92.6012805663049221038818359375">
        <ele>13</ele>
        <time>2021-03-09T19:58:28.000Z</time>
      </trkpt>
      <trkpt lat="17.76823067106306552886962890625" lon="-92.6012319512665271759033203125">
        <ele>13</ele>
        <time>2021-03-09T19:58:29.000Z</time>
      </trkpt>
      <trkpt lat="17.76821088977158069610595703125" lon="-92.601148299872875213623046875">
        <ele>13</ele>
        <time>2021-03-09T19:58:31.000Z</time>
      </trkpt>
      <trkpt lat="17.76819865219295024871826171875" lon="-92.601059116423130035400390625">
        <ele>12.80000019073486328125</ele>
        <time>2021-03-09T19:58:34.000Z</time>
      </trkpt>
      <trkpt lat="17.76820552535355091094970703125" lon="-92.60103556327521800994873046875">
        <ele>12.6000003814697265625</ele>
        <time>2021-03-09T19:58:38.000Z</time>
      </trkpt>
      <trkpt lat="17.76820552535355091094970703125" lon="-92.60103556327521800994873046875">
        <ele>12.6000003814697265625</ele>
        <time>2021-03-09T19:58:43.000Z</time>
      </trkpt>
      <trkpt lat="17.76820552535355091094970703125" lon="-92.60103556327521800994873046875">
        <ele>12.6000003814697265625</ele>
        <time>2021-03-09T19:58:46.000Z</time>
      </trkpt>
      <trkpt lat="17.76820552535355091094970703125" lon="-92.60103556327521800994873046875">
        <ele>12.6000003814697265625</ele>
        <time>2021-03-09T19:58:47.000Z</time>
      </trkpt>
      <trkpt lat="17.76820451952517032623291015625" lon="-92.6010341383516788482666015625">
        <ele>12.6000003814697265625</ele>
        <time>2021-03-09T19:58:51.000Z</time>
      </trkpt>
      <trkpt lat="17.768202088773250579833984375" lon="-92.60102634318172931671142578125">
        <ele>12.6000003814697265625</ele>
        <time>2021-03-09T19:58:52.000Z</time>
      </trkpt>
      <trkpt lat="17.76820200495421886444091796875" lon="-92.60101326741278171539306640625">
        <ele>12.6000003814697265625</ele>
        <time>2021-03-09T19:58:53.000Z</time>
      </trkpt>
      <trkpt lat="17.76819898746907711029052734375" lon="-92.6009768061339855194091796875">
        <ele>12.3999996185302734375</ele>
        <time>2021-03-09T19:58:55.000Z</time>
      </trkpt>
      <trkpt lat="17.7681871689856052398681640625" lon="-92.6008463837206363677978515625">
        <ele>12</ele>
        <time>2021-03-09T19:59:00.000Z</time>
      </trkpt>
      <trkpt lat="17.76817920617759227752685546875" lon="-92.6007880456745624542236328125">
        <ele>12</ele>
        <time>2021-03-09T19:59:02.000Z</time>
      </trkpt>
      <trkpt lat="17.7681747637689113616943359375" lon="-92.6007194817066192626953125">
        <ele>12</ele>
        <time>2021-03-09T19:59:04.000Z</time>
      </trkpt>
      <trkpt lat="17.76816629804670810699462890625" lon="-92.60057841427624225616455078125">
        <ele>12</ele>
        <time>2021-03-09T19:59:08.000Z</time>
      </trkpt>
      <trkpt lat="17.768159843981266021728515625" lon="-92.60048219002783298492431640625">
        <ele>12.19999980926513671875</ele>
        <time>2021-03-09T19:59:11.000Z</time>
      </trkpt>
      <trkpt lat="17.76813746429979801177978515625" lon="-92.6003749854862689971923828125">
        <ele>12.80000019073486328125</ele>
        <time>2021-03-09T19:59:14.000Z</time>
      </trkpt>
      <trkpt lat="17.7681214548647403717041015625" lon="-92.60019586421549320220947265625">
        <ele>13</ele>
        <time>2021-03-09T19:59:19.000Z</time>
      </trkpt>
      <trkpt lat="17.768100164830684661865234375" lon="-92.60004029609262943267822265625">
        <ele>12.80000019073486328125</ele>
        <time>2021-03-09T19:59:23.000Z</time>
      </trkpt>
      <trkpt lat="17.76805683039128780364990234375" lon="-92.59984147734940052032470703125">
        <ele>12.80000019073486328125</ele>
        <time>2021-03-09T19:59:28.000Z</time>
      </trkpt>
      <trkpt lat="17.76801944710314273834228515625" lon="-92.59951525367796421051025390625">
        <ele>13.19999980926513671875</ele>
        <time>2021-03-09T19:59:36.000Z</time>
      </trkpt>
      <trkpt lat="17.76798876933753490447998046875" lon="-92.59923445992171764373779296875">
        <ele>11.19999980926513671875</ele>
        <time>2021-03-09T19:59:43.000Z</time>
      </trkpt>
      <trkpt lat="17.767972759902477264404296875" lon="-92.59911510162055492401123046875">
        <ele>10.80000019073486328125</ele>
        <time>2021-03-09T19:59:46.000Z</time>
      </trkpt>
      <trkpt lat="17.76794216595590114593505859375" lon="-92.59882106445729732513427734375">
        <ele>9.6000003814697265625</ele>
        <time>2021-03-09T19:59:54.000Z</time>
      </trkpt>
      <trkpt lat="17.76790134608745574951171875" lon="-92.59865627624094486236572265625">
        <ele>9.80000019073486328125</ele>
        <time>2021-03-09T19:59:59.000Z</time>
      </trkpt>
      <trkpt lat="17.76786781847476959228515625" lon="-92.5983150489628314971923828125">
        <ele>10</ele>
        <time>2021-03-09T20:00:08.000Z</time>
      </trkpt>
      <trkpt lat="17.7678287588059902191162109375" lon="-92.598046995699405670166015625">
        <ele>9.80000019073486328125</ele>
        <time>2021-03-09T20:00:15.000Z</time>
      </trkpt>
      <trkpt lat="17.76779447682201862335205078125" lon="-92.59780869819223880767822265625">
        <ele>9</ele>
        <time>2021-03-09T20:00:21.000Z</time>
      </trkpt>
      <trkpt lat="17.76779062114655971527099609375" lon="-92.59772353805601596832275390625">
        <ele>9</ele>
        <time>2021-03-09T20:00:23.000Z</time>
      </trkpt>
      <trkpt lat="17.76777503080666065216064453125" lon="-92.59760200046002864837646484375">
        <ele>9</ele>
        <time>2021-03-09T20:00:26.000Z</time>
      </trkpt>
      <trkpt lat="17.76777125895023345947265625" lon="-92.59755707345902919769287109375">
        <ele>9</ele>
        <time>2021-03-09T20:00:27.000Z</time>
      </trkpt>
      <trkpt lat="17.7677717618644237518310546875" lon="-92.59750820696353912353515625">
        <ele>9</ele>
        <time>2021-03-09T20:00:28.000Z</time>
      </trkpt>
      <trkpt lat="17.76775055564939975738525390625" lon="-92.59732506237924098968505859375">
        <ele>9</ele>
        <time>2021-03-09T20:00:32.000Z</time>
      </trkpt>
      <trkpt lat="17.7677452750504016876220703125" lon="-92.59727762080729007720947265625">
        <ele>9.19999980926513671875</ele>
        <time>2021-03-09T20:00:33.000Z</time>
      </trkpt>
      <trkpt lat="17.7677184529602527618408203125" lon="-92.5970165245234966278076171875">
        <ele>9.3999996185302734375</ele>
        <time>2021-03-09T20:00:39.000Z</time>
      </trkpt>
      <trkpt lat="17.76770965196192264556884765625" lon="-92.59697444736957550048828125">
        <ele>9.6000003814697265625</ele>
        <time>2021-03-09T20:00:40.000Z</time>
      </trkpt>
      <trkpt lat="17.76766455732285976409912109375" lon="-92.5968368165194988250732421875">
        <ele>9.3999996185302734375</ele>
        <time>2021-03-09T20:00:44.000Z</time>
      </trkpt>
      <trkpt lat="17.76765533722937107086181640625" lon="-92.59665836580097675323486328125">
        <ele>9.19999980926513671875</ele>
        <time>2021-03-09T20:00:49.000Z</time>
      </trkpt>
      <trkpt lat="17.76759800501167774200439453125" lon="-92.59631604887545108795166015625">
        <ele>8.80000019073486328125</ele>
        <time>2021-03-09T20:00:57.000Z</time>
      </trkpt>
      <trkpt lat="17.7675876952707767486572265625" lon="-92.596273720264434814453125">
        <ele>8.80000019073486328125</ele>
        <time>2021-03-09T20:00:58.000Z</time>
      </trkpt>
      <trkpt lat="17.76750680990517139434814453125" lon="-92.59595445357263088226318359375">
        <ele>9.19999980926513671875</ele>
        <time>2021-03-09T20:01:05.000Z</time>
      </trkpt>
      <trkpt lat="17.76747160591185092926025390625" lon="-92.59586133062839508056640625">
        <ele>9.3999996185302734375</ele>
        <time>2021-03-09T20:01:07.000Z</time>
      </trkpt>
      <trkpt lat="17.767397426068782806396484375" lon="-92.59573820047080516815185546875">
        <ele>9.19999980926513671875</ele>
        <time>2021-03-09T20:01:10.000Z</time>
      </trkpt>
      <trkpt lat="17.76736892759799957275390625" lon="-92.595700733363628387451171875">
        <ele>9.3999996185302734375</ele>
        <time>2021-03-09T20:01:11.000Z</time>
      </trkpt>
      <trkpt lat="17.7671756409108638763427734375" lon="-92.5954266451299190521240234375">
        <ele>9.80000019073486328125</ele>
        <time>2021-03-09T20:01:18.000Z</time>
      </trkpt>
      <trkpt lat="17.76693751104176044464111328125" lon="-92.595145516097545623779296875">
        <ele>10.80000019073486328125</ele>
        <time>2021-03-09T20:01:26.000Z</time>
      </trkpt>
      <trkpt lat="17.76691253297030925750732421875" lon="-92.5951111502945423126220703125">
        <ele>10.6000003814697265625</ele>
        <time>2021-03-09T20:01:27.000Z</time>
      </trkpt>
      <trkpt lat="17.7668236009776592254638671875" lon="-92.5949857570230960845947265625">
        <ele>10.80000019073486328125</ele>
        <time>2021-03-09T20:01:31.000Z</time>
      </trkpt>
      <trkpt lat="17.76675277389585971832275390625" lon="-92.5948771275579929351806640625">
        <ele>11</ele>
        <time>2021-03-09T20:01:35.000Z</time>
      </trkpt>
      <trkpt lat="17.7666274644434452056884765625" lon="-92.5947151891887187957763671875">
        <ele>11.6000003814697265625</ele>
        <time>2021-03-09T20:01:42.000Z</time>
      </trkpt>
      <trkpt lat="17.7665872313082218170166015625" lon="-92.59468241594731807708740234375">
        <ele>12</ele>
        <time>2021-03-09T20:01:46.000Z</time>
      </trkpt>
      <trkpt lat="17.76657423935830593109130859375" lon="-92.59468040429055690765380859375">
        <ele>12</ele>
        <time>2021-03-09T20:01:47.000Z</time>
      </trkpt>
      <trkpt lat="17.76649477891623973846435546875" lon="-92.59474217891693115234375">
        <ele>12</ele>
        <time>2021-03-09T20:01:50.000Z</time>
      </trkpt>
      <trkpt lat="17.76641883887350559234619140625" lon="-92.5948224775493144989013671875">
        <ele>11.3999996185302734375</ele>
        <time>2021-03-09T20:01:52.000Z</time>
      </trkpt>
      <trkpt lat="17.7663763426244258880615234375" lon="-92.5948479585349559783935546875">
        <ele>11.19999980926513671875</ele>
        <time>2021-03-09T20:01:53.000Z</time>
      </trkpt>
      <trkpt lat="17.76632957160472869873046875" lon="-92.59485877119004726409912109375">
        <ele>11.19999980926513671875</ele>
        <time>2021-03-09T20:01:54.000Z</time>
      </trkpt>
      <trkpt lat="17.7661848999559879302978515625" lon="-92.5948684103786945343017578125">
        <ele>11.19999980926513671875</ele>
        <time>2021-03-09T20:01:57.000Z</time>
      </trkpt>
      <trkpt lat="17.76604685001075267791748046875" lon="-92.59482440538704395294189453125">
        <ele>11.6000003814697265625</ele>
        <time>2021-03-09T20:02:00.000Z</time>
      </trkpt>
      <trkpt lat="17.76599421165883541107177734375" lon="-92.59480931796133518218994140625">
        <ele>11.3999996185302734375</ele>
        <time>2021-03-09T20:02:01.000Z</time>
      </trkpt>
      <trkpt lat="17.76580427773296833038330078125" lon="-92.594761960208415985107421875">
        <ele>11</ele>
        <time>2021-03-09T20:02:05.000Z</time>
      </trkpt>
      <trkpt lat="17.765756584703922271728515625" lon="-92.5947487168014049530029296875">
        <ele>11</ele>
        <time>2021-03-09T20:02:06.000Z</time>
      </trkpt>
      <trkpt lat="17.765664719045162200927734375" lon="-92.59471611119806766510009765625">
        <ele>11</ele>
        <time>2021-03-09T20:02:08.000Z</time>
      </trkpt>
      <trkpt lat="17.765297256410121917724609375" lon="-92.59461879730224609375">
        <ele>12.6000003814697265625</ele>
        <time>2021-03-09T20:02:15.000Z</time>
      </trkpt>
      <trkpt lat="17.765010260045528411865234375" lon="-92.59454042650759220123291015625">
        <ele>13</ele>
        <time>2021-03-09T20:02:21.000Z</time>
      </trkpt>
      <trkpt lat="17.7649795822799205780029296875" lon="-92.59453103877604007720947265625">
        <ele>13</ele>
        <time>2021-03-09T20:02:22.000Z</time>
      </trkpt>
      <trkpt lat="17.76494177989661693572998046875" lon="-92.59452550671994686126708984375">
        <ele>13</ele>
        <time>2021-03-09T20:02:24.000Z</time>
      </trkpt>
      <trkpt lat="17.76494177989661693572998046875" lon="-92.59452550671994686126708984375">
        <ele>13</ele>
        <time>2021-03-09T20:02:25.000Z</time>
      </trkpt>
      <trkpt lat="17.76493557728826999664306640625" lon="-92.59452383033931255340576171875">
        <ele>13</ele>
        <time>2021-03-09T20:02:26.000Z</time>
      </trkpt>
    </trkseg>
  </trk>
</gpx>
